# Wetter Temperatur Luftdruck Luftfeuchtigkeit Sichtweite Windgeschwindigkeit Windrichtung Zeit
1 Clouds 3 1015 93 2398 1.76 269 12:20 22.04.2021
2 Clouds 3 1015 93 2398 1.76 269 11:45 22.04.2021
3 Clouds 3 1014 96 1193 1.73 257 11:23 22.04.2021
4 Clouds 3 1014 96 1193 1.73 257 10:45 22.04.2021
5 Clouds 3 1013 99 44 1.56 239 10:24 22.04.2021
6 Clouds 3 1013 99 44 1.56 239 09:45 22.04.2021
7 Clouds 3 1013 99 38 1.99 240 09:20 22.04.2021
8 Clouds 3 1013 99 38 1.99 240 08:39 22.04.2021
9 Clouds 3 1012 99 35 2.41 232 08:19 22.04.2021
10 Clouds 3 1011 99 28 2.35 250 07:44 22.04.2021
11 Clouds 4 1010 97 168 1.61 256 07:20 22.04.2021
12 Clouds 3 1011 93 1602 0.33 172 06:27 22.04.2021
13 Clouds 3 1011 93 1602 0.33 172 06:27 22.04.2021
14 Rain 3 1010 88 1961 1.38 267 05:26 22.04.2021
15 Rain 3 1010 83 2233 1.21 311 04:29 22.04.2021
16 Clouds 4 1006 58 10000 1.87 265 00:55 22.04.2021
17 Clouds 4 1005 59 10000 1.23 197 23:47 21.04.2021
18 Clouds 5 1004 55 10000 1.51 184 23:26 21.04.2021
19 Clouds 5 1004 55 10000 1.51 184 22:42 21.04.2021
20 Clouds 6 1004 54 10000 1.84 193 22:24 21.04.2021
21 Clouds 6 1004 54 10000 1.84 193 21:46 21.04.2021
22 Clouds 6 1004 54 10000 1.57 226 21:24 21.04.2021
23 Clouds 6 1004 54 10000 1.57 226 20:43 21.04.2021
24 Clouds 6 1004 53 10000 1.96 206 20:20 21.04.2021
25 Clouds 6 1004 53 10000 1.96 206 19:43 21.04.2021
26 Clouds 6 1004 53 10000 1.96 206 19:43 21.04.2021
27 Clouds 6 1004 51 10000 2.09 185 19:23 21.04.2021
28 Clouds 6 1004 51 10000 2.09 185 18:46 21.04.2021
29 Clouds 7 1003 50 10000 2.13 201 18:26 21.04.2021
30 Clouds 7 1003 50 10000 2.13 201 17:48 21.04.2021
31 Clouds 7 1003 48 10000 1.73 207 17:24 21.04.2021
32 Clouds 7 1003 48 10000 1.73 207 16:49 21.04.2021
33 Clouds 8 1003 47 10000 1.85 187 15:59 21.04.2021
34 Clouds 8 1003 47 10000 1.85 187 15:40 21.04.2021
35 Clouds 9 1002 45 10000 1.79 198 14:55 21.04.2021
36 Clouds 9 1002 45 10000 1.79 198 14:36 21.04.2021
37 Clouds 10 1001 41 10000 2.46 239 14:18 21.04.2021
38 Clouds 10 1000 39 10000 1.88 245 13:40 21.04.2021
39 Clouds 12 1000 30 10000 6.47 251 13:20 21.04.2021
40 Clouds 12 1000 30 10000 6.47 251 12:30 21.04.2021
41 Clouds 13 999 26 10000 7.69 253 11:50 21.04.2021
42 Clouds 14 999 24 10000 8.51 259 11:29 21.04.2021
43 Clouds 14 999 24 10000 8.51 259 10:51 21.04.2021
44 Clouds 14 999 24 10000 8.51 259 10:33 21.04.2021
45 Clouds 14 999 26 10000 8.08 237 09:44 21.04.2021
46 Clouds 14 999 26 10000 10.35 240 08:56 21.04.2021
47 Clouds 14 999 26 10000 10.35 240 08:38 21.04.2021
48 Clouds 13 1000 26 10000 10.07 242 08:19 21.04.2021
49 Clouds 13 1000 25 10000 10.7 253 07:31 21.04.2021
50 Clouds 13 1000 25 10000 9.91 245 06:56 21.04.2021
51 Clouds 11 1002 29 10000 8.48 229 05:20 21.04.2021
52 Clouds 4 1004 53 10000 2.74 147 00:58 21.04.2021
53 Clouds 4 1004 55 10000 2.53 150 23:50 20.04.2021
54 Clouds 5 1004 54 10000 2.55 161 23:24 20.04.2021
55 Clouds 5 1004 54 10000 2.55 161 22:41 20.04.2021
56 Clouds 5 1004 54 10000 1.85 153 22:19 20.04.2021
57 Clouds 5 1004 54 10000 1.85 153 21:47 20.04.2021
58 Clouds 5 1004 54 10000 1.85 153 21:47 20.04.2021
59 Clouds 5 1004 52 10000 2.53 162 21:25 20.04.2021
60 Clouds 5 1004 52 10000 2.53 162 20:43 20.04.2021
61 Clouds 6 1004 49 10000 2.95 178 20:23 20.04.2021
62 Clear 6 1004 48 10000 2.92 178 19:55 20.04.2021
63 Clear 6 1004 48 10000 2.92 178 19:36 20.04.2021
64 Clear 6 1004 43 10000 2.6 202 19:18 20.04.2021
65 Clear 6 1004 43 10000 2.6 202 18:35 20.04.2021
66 Clear 7 1004 40 10000 3.1 198 17:46 20.04.2021
67 Clear 8 1004 36 10000 3.21 212 17:27 20.04.2021
68 Clear 8 1004 36 10000 3.21 212 16:48 20.04.2021
69 Clear 9 1004 31 10000 4.06 211 15:53 20.04.2021
70 Clear 9 1003 27 10000 4.16 218 15:29 20.04.2021
71 Clear 9 1003 27 10000 4.16 218 14:57 20.04.2021
72 Clear 9 1003 27 10000 4.16 218 14:33 20.04.2021
73 Clear 11 1002 24 10000 5.89 229 13:44 20.04.2021
74 Clouds 12 1001 21 10000 7.04 247 13:18 20.04.2021
75 Clouds 12 1001 21 10000 7.04 247 12:41 20.04.2021
76 Clouds 13 1001 18 10000 9.1 246 12:20 20.04.2021
77 Clouds 13 1001 18 10000 9.1 246 11:42 20.04.2021
78 Clouds 14 1001 19 10000 10.5 232 11:21 20.04.2021
79 Clouds 14 1001 19 10000 10.5 232 10:43 20.04.2021
80 Clouds 13 1002 20 10000 9.81 230 10:23 20.04.2021
81 Clouds 13 1003 24 10000 8.98 232 09:23 20.04.2021
82 Clouds 13 1003 24 10000 8.98 232 08:55 20.04.2021
83 Clear 12 1003 25 10000 8.21 240 08:20 20.04.2021
84 Clear 12 1004 26 10000 7.78 240 07:39 20.04.2021
85 Clear 12 1005 28 10000 7.86 240 06:37 20.04.2021
86 Clouds 11 1005 32 10000 7.06 237 05:38 20.04.2021
87 Clear 10 1006 36 10000 5.4 229 04:41 20.04.2021
88 Clouds 4 1007 42 10000 1.19 181 00:53 20.04.2021
89 Clouds 4 1007 40 10000 2.01 148 00:28 20.04.2021
90 Clouds 4 1007 40 10000 2.01 148 23:36 19.04.2021
91 Clouds 4 1007 36 10000 2.19 157 22:56 19.04.2021
92 Clouds 4 1007 36 10000 2.19 157 22:30 19.04.2021
93 Clouds 4 1007 36 10000 2.19 157 22:30 19.04.2021
94 Clouds 4 1007 31 10000 2.09 167 21:47 19.04.2021
95 Clouds 5 1007 27 10000 2 188 21:27 19.04.2021
96 Clouds 5 1007 27 10000 2 188 20:43 19.04.2021
97 Clouds 6 1007 25 10000 1.62 217 20:22 19.04.2021
98 Clouds 6 1007 25 10000 1.75 224 19:54 19.04.2021
99 Clouds 6 1007 25 10000 1.75 224 19:36 19.04.2021
100 Clouds 6 1007 25 10000 1.61 194 19:18 19.04.2021
101 Clouds 6 1007 25 10000 1.61 194 18:44 19.04.2021
102 Clouds 6 1007 26 10000 1.49 149 18:21 19.04.2021
103 Clouds 6 1007 26 10000 1.49 149 17:46 19.04.2021
104 Clouds 6 1007 25 10000 1.37 156 17:26 19.04.2021
105 Clouds 6 1007 25 10000 1.37 156 16:45 19.04.2021
106 Clouds 7 1008 25 10000 1.34 198 16:26 19.04.2021
107 Clouds 7 1008 25 10000 1.34 198 15:44 19.04.2021
108 Clouds 7 1007 24 10000 1.87 219 15:24 19.04.2021
109 Clouds 7 1007 24 10000 1.87 219 14:52 19.04.2021
110 Clouds 7 1007 24 10000 1.87 219 14:31 19.04.2021
111 Clouds 10 1006 18 10000 3.36 248 13:52 19.04.2021
112 Clouds 12 1006 15 10000 5.49 237 13:28 19.04.2021
113 Clouds 12 1006 15 10000 5.49 237 12:48 19.04.2021
114 Clouds 12 1006 14 10000 6.57 240 12:27 19.04.2021
115 Clouds 12 1006 14 10000 6.57 240 11:59 19.04.2021
116 Clouds 12 1006 14 10000 6.57 240 11:39 19.04.2021
117 Clouds 12 1007 14 10000 6.72 243 11:18 19.04.2021
118 Clouds 12 1007 14 10000 6.72 243 11:18 19.04.2021
119 Clouds 12 1007 14 10000 6.72 243 11:18 19.04.2021
120 Clouds 12 1007 14 10000 6.72 243 10:41 19.04.2021
121 Clear 12 1008 13 10000 6.86 246 10:18 19.04.2021
122 Clear 12 1008 13 10000 6.86 246 09:39 19.04.2021
123 Clear 12 1008 14 10000 6.5 244 09:21 19.04.2021
124 Clear 12 1008 14 10000 6.5 244 09:21 19.04.2021
125 Clear 12 1008 14 10000 6.5 244 08:32 19.04.2021
126 Clouds 11 1009 15 10000 6.11 246 07:49 19.04.2021
127 Clouds 11 1010 17 10000 5.74 244 07:21 19.04.2021
128 Clouds 11 1010 17 10000 5.74 244 06:45 19.04.2021
129 Clouds 7 1012 24 10000 1.58 197 04:21 19.04.2021
130 Clear 4 1014 35 10000 1.78 123 01:49 19.04.2021
131 Clear 2 1014 39 10000 1.72 130 00:33 19.04.2021
132 Clear 2 1013 38 10000 1.24 128 23:20 18.04.2021
133 Clear 2 1013 38 10000 1.24 128 22:56 18.04.2021
134 Clear 2 1013 38 10000 1.24 128 22:31 18.04.2021
135 Clear 2 1013 38 10000 1.23 138 21:49 18.04.2021
136 Clear 3 1013 37 10000 1.51 146 21:27 18.04.2021
137 Clear 3 1013 37 10000 1.51 146 20:43 18.04.2021
138 Clear 3 1013 40 10000 1.43 153 20:24 18.04.2021
139 Clear 3 1013 40 10000 1.43 153 19:56 18.04.2021
140 Clear 3 1013 40 10000 1.43 153 19:36 18.04.2021
141 Clear 4 1012 40 10000 1.22 146 18:59 18.04.2021
142 Clear 4 1012 40 10000 1.22 146 18:38 18.04.2021
143 Clear 4 1012 40 10000 0.28 110 18:20 18.04.2021
144 Clear 4 1012 40 10000 0.28 110 17:42 18.04.2021
145 Clear 4 1012 39 10000 0.73 359 17:24 18.04.2021
146 Clear 4 1012 39 10000 0.73 359 16:45 18.04.2021
147 Clear 5 1012 34 10000 1.82 333 16:19 18.04.2021
148 Clear 5 1012 34 10000 1.82 333 15:41 18.04.2021
149 Clear 6 1011 29 10000 2.47 308 15:23 18.04.2021
150 Clear 6 1011 29 10000 2.47 308 14:42 18.04.2021
151 Clouds 8 1009 23 10000 5.39 302 14:20 18.04.2021
152 Clouds 8 1009 23 10000 5.39 302 13:54 18.04.2021
153 Clouds 8 1009 23 10000 5.39 302 13:31 18.04.2021
154 Clouds 10 1008 23 10000 7.31 303 12:44 18.04.2021
155 Clouds 10 1008 23 10000 7.31 303 12:44 18.04.2021
156 Clouds 10 1007 23 10000 7.69 294 12:23 18.04.2021
157 Clouds 10 1007 23 10000 7.69 294 11:41 18.04.2021
158 Clouds 11 1007 21 10000 7.2 264 11:20 18.04.2021
159 Clouds 11 1007 21 10000 7.2 264 10:46 18.04.2021
160 Clouds 11 1007 22 10000 7.52 260 10:21 18.04.2021
161 Clouds 11 1007 22 10000 7.52 260 09:44 18.04.2021
162 Clouds 11 1008 24 10000 6.93 261 09:26 18.04.2021
163 Clouds 11 1008 24 10000 6.93 261 08:48 18.04.2021
164 Clouds 10 1008 28 10000 6.14 262 08:29 18.04.2021
165 Clouds 10 1008 28 10000 6.14 262 07:41 18.04.2021
166 Clouds 9 1009 33 10000 4.41 264 06:56 18.04.2021
167 Clouds 7 1011 35 10000 3.12 265 05:27 18.04.2021
168 Clouds 7 1011 35 10000 3.12 265 04:53 18.04.2021
169 Clouds 4 1012 39 10000 1.04 205 02:23 18.04.2021
170 Clouds 4 1012 40 10000 0.89 190 01:31 18.04.2021
171 Clouds 3 1011 39 10000 1.65 206 00:28 18.04.2021
172 Clouds 3 1011 37 10000 1.68 202 23:27 17.04.2021
173 Clouds 3 1011 37 10000 1.68 202 22:49 17.04.2021
174 Clouds 3 1011 35 10000 1.57 211 22:29 17.04.2021
175 Clouds 3 1011 35 10000 1.57 211 21:45 17.04.2021
176 Clouds 4 1011 33 10000 1.72 218 21:24 17.04.2021
177 Clouds 4 1011 33 10000 1.72 218 20:41 17.04.2021
178 Clouds 4 1010 30 10000 1.47 235 20:23 17.04.2021
179 Clouds 4 1010 28 10000 1.62 263 19:42 17.04.2021
180 Clouds 5 1010 25 10000 2.02 261 19:20 17.04.2021
181 Clouds 5 1010 25 10000 2.02 261 18:49 17.04.2021
182 Clouds 5 1009 25 10000 1.49 255 18:23 17.04.2021
183 Clouds 5 1009 25 10000 1.49 255 17:42 17.04.2021
184 Clouds 6 1009 25 10000 0.99 246 16:58 17.04.2021
185 Clouds 6 1009 25 10000 0.99 246 16:39 17.04.2021
186 Clouds 7 1009 25 10000 0.72 273 16:19 17.04.2021
187 Clouds 8 1009 22 10000 2.43 270 15:22 17.04.2021
188 Clouds 8 1009 22 10000 2.43 270 14:43 17.04.2021
189 Clouds 8 1008 26 10000 2.42 270 14:19 17.04.2021
190 Clouds 8 1008 26 10000 2.42 270 13:42 17.04.2021
191 Clouds 10 1007 20 10000 5.87 282 12:48 17.04.2021
192 Clouds 12 1006 18 10000 8.2 246 12:23 17.04.2021
193 Clouds 12 1006 18 10000 8.2 246 11:51 17.04.2021
194 Clouds 12 1006 18 10000 8.2 246 11:32 17.04.2021
195 Clouds 12 1007 16 10000 7.1 241 10:48 17.04.2021
196 Clouds 11 1008 17 10000 6.89 233 10:29 17.04.2021
197 Clouds 11 1008 17 10000 6.89 233 09:46 17.04.2021
198 Clear 12 1009 17 10000 8.25 250 08:54 17.04.2021
199 Clear 10 1010 22 10000 5.29 237 08:28 17.04.2021
200 Clear 10 1010 22 10000 5.29 237 07:45 17.04.2021
201 Clear 6 1014 33 10000 2.01 171 04:51 17.04.2021
202 Clear 5 1015 39 10000 2.16 135 03:40 17.04.2021
203 Clear -2 1020 52 10000 3.18 89 00:55 17.04.2021
204 Clear -2 1020 52 10000 3.18 89 00:30 17.04.2021
205 Clear -2 1020 52 10000 3.24 88 23:55 16.04.2021
206 Clear -2 1020 52 10000 3.24 88 23:32 16.04.2021
207 Clear -2 1021 52 10000 3.26 86 22:51 16.04.2021
208 Clear -2 1021 52 10000 3.26 86 22:51 16.04.2021
209 Clear -2 1021 52 10000 3.25 85 22:22 16.04.2021
210 Clear -2 1021 52 10000 3.25 85 21:56 16.04.2021
211 Clear -2 1021 52 10000 3.25 85 21:38 16.04.2021
212 Clear -1 1021 52 10000 3.14 86 20:54 16.04.2021
213 Clear -1 1022 53 10000 3.23 87 20:29 16.04.2021
214 Clear -2 1022 52 10000 3.28 86 19:55 16.04.2021
215 Clear -2 1022 52 10000 3.28 86 19:31 16.04.2021
216 Clear -1 1022 54 10000 3.26 83 18:46 16.04.2021
217 Clear -1 1023 56 10000 3.25 84 18:21 16.04.2021
218 Clear -1 1023 56 10000 3.25 84 17:45 16.04.2021
219 Clear -1 1023 58 10000 3.23 85 17:19 16.04.2021
220 Clear -1 1023 58 10000 3.23 85 16:43 16.04.2021
221 Clear -1 1023 59 10000 3.23 87 16:24 16.04.2021
222 Clear -1 1023 59 10000 3.23 87 15:48 16.04.2021
223 Clear 0 1023 60 10000 3.14 85 15:21 16.04.2021
224 Clear 0 1023 60 10000 3.14 85 14:42 16.04.2021
225 Clear 1 1021 61 10000 2.63 87 14:19 16.04.2021
226 Clear 1 1021 61 10000 2.63 87 13:46 16.04.2021
227 Clear 4 1019 54 10000 1.84 89 13:20 16.04.2021
228 Clear 4 1019 54 10000 1.84 89 12:48 16.04.2021
229 Clear 6 1019 43 10000 1.37 93 12:29 16.04.2021
230 Clear 6 1019 43 10000 1.37 93 11:54 16.04.2021
231 Clear 6 1019 39 10000 0.98 101 11:27 16.04.2021
232 Clear 6 1019 39 10000 0.98 101 10:55 16.04.2021
233 Clear 6 1019 39 10000 0.98 101 10:35 16.04.2021
234 Clear 6 1019 39 10000 0.98 101 10:35 16.04.2021
235 Clear 5 1020 39 10000 0.76 107 09:53 16.04.2021
236 Clear 5 1020 39 10000 0.76 107 09:53 16.04.2021
237 Clear 5 1021 40 10000 0.89 103 09:24 16.04.2021
238 Clear 5 1021 40 10000 0.89 103 08:47 16.04.2021
239 Clear 4 1022 37 10000 0.74 103 08:28 16.04.2021
240 Clear 4 1022 37 10000 0.74 103 07:53 16.04.2021
241 Clear 4 1022 37 10000 0.74 103 07:34 16.04.2021
242 Clear 3 1023 37 10000 0.83 119 06:56 16.04.2021
243 Clear 2 1025 38 10000 1.15 124 05:33 16.04.2021
244 Clear -1 1028 47 10000 1.7 90 04:20 16.04.2021
245 Clear -8 1034 67 10000 2.75 87 00:55 16.04.2021
246 Clear -8 1034 67 10000 2.75 87 00:36 16.04.2021
247 Clear -8 1033 69 10000 2.66 89 00:18 16.04.2021
248 Clear -8 1033 69 10000 2.66 89 23:36 15.04.2021
249 Clear -7 1033 70 10000 2.61 86 22:54 15.04.2021
250 Clear -7 1033 70 10000 2.61 86 22:33 15.04.2021
251 Clear -7 1032 70 10000 2.66 79 21:59 15.04.2021
252 Clear -7 1032 70 10000 2.66 79 21:40 15.04.2021
253 Clear -6 1031 71 10000 2.57 71 21:19 15.04.2021
254 Clear -6 1031 71 10000 2.57 71 20:40 15.04.2021
255 Clouds -6 1031 72 10000 2.62 71 20:21 15.04.2021
256 Clouds -6 1031 72 10000 2.62 71 19:43 15.04.2021
257 Clouds -6 1031 72 10000 2.76 69 19:24 15.04.2021
258 Clouds -6 1031 72 10000 2.76 69 18:42 15.04.2021
259 Clouds -5 1030 71 10000 2.54 62 18:20 15.04.2021
260 Clouds -5 1030 71 10000 2.54 62 17:54 15.04.2021
261 Clouds -5 1030 71 10000 2.54 62 17:36 15.04.2021
262 Clouds -5 1029 69 10000 2.5 49 16:57 15.04.2021
263 Clouds -5 1029 69 10000 2.5 49 16:39 15.04.2021
264 Clouds -4 1028 67 10000 1.98 48 16:20 15.04.2021
265 Clouds -4 1028 67 10000 1.98 48 15:44 15.04.2021
266 Clouds -4 1027 66 10000 1.24 57 15:25 15.04.2021
267 Clouds -4 1027 66 10000 1.24 57 14:39 15.04.2021
268 Clouds -2 1025 65 10000 1.44 354 14:21 15.04.2021
269 Clouds -2 1025 65 10000 1.44 354 13:41 15.04.2021
270 Clouds 0 1023 56 10000 4.31 348 13:18 15.04.2021
271 Clouds 0 1023 56 10000 4.31 348 12:39 15.04.2021
272 Clouds 1 1021 49 10000 6.74 341 12:20 15.04.2021
273 Clouds 1 1021 49 10000 6.74 341 11:44 15.04.2021
274 Clouds 2 1020 45 10000 7.42 341 11:22 15.04.2021
275 Clouds 2 1020 45 10000 7.42 341 11:22 15.04.2021
276 Clouds 2 1020 45 10000 7.42 341 10:49 15.04.2021
277 Clouds 2 1020 45 10000 7.42 341 10:49 15.04.2021
278 Clouds 2 1019 46 10000 8.61 327 10:27 15.04.2021
279 Clouds 2 1019 46 10000 8.61 327 09:45 15.04.2021
280 Clouds 2 1020 49 10000 8.67 308 09:18 15.04.2021
281 Clouds 3 1020 43 10000 8.17 311 08:41 15.04.2021
282 Clouds 2 1020 43 10000 8.93 314 07:50 15.04.2021
283 Clouds 1 1021 43 10000 6.58 300 07:22 15.04.2021
284 Clouds 1 1021 43 10000 6.58 300 07:22 15.04.2021
285 Clouds 1 1021 43 10000 6.58 300 07:22 15.04.2021
286 Clouds 1 1021 43 10000 6.58 300 06:38 15.04.2021
287 Clouds -1 1024 41 10000 2.75 279 06:20 15.04.2021
288 Clouds -3 1026 44 10000 1.52 264 04:50 15.04.2021
289 Clouds -9 1031 69 10000 1.87 111 00:43 15.04.2021
290 Clouds -9 1032 71 10000 2.04 109 23:39 14.04.2021
291 Clouds -10 1033 73 10000 2.24 110 23:19 14.04.2021
292 Clouds -10 1033 73 10000 2.24 110 22:43 14.04.2021
293 Clouds -10 1033 73 10000 2.3 106 22:23 14.04.2021
294 Clouds -10 1033 73 10000 2.3 106 21:44 14.04.2021
295 Clouds -10 1033 72 10000 1.93 107 21:26 14.04.2021
296 Clouds -10 1033 72 10000 1.93 107 20:56 14.04.2021
297 Clouds -10 1033 72 10000 1.91 109 20:33 14.04.2021
298 Clouds -10 1033 71 10000 1.86 91 19:51 14.04.2021
299 Clouds -9 1033 69 10000 1.89 59 19:20 14.04.2021
300 Clouds -9 1033 69 10000 1.89 59 18:56 14.04.2021
301 Clouds -9 1033 69 10000 1.89 59 18:56 14.04.2021
302 Clouds -9 1033 68 10000 1.74 16 18:21 14.04.2021
303 Clouds -9 1033 68 10000 1.74 16 17:58 14.04.2021
304 Clouds -9 1033 68 10000 1.67 13 17:25 14.04.2021
305 Clouds -9 1033 68 10000 1.67 13 16:54 14.04.2021
306 Clouds -8 1032 67 10000 2.63 357 16:25 14.04.2021
307 Clouds -8 1032 67 10000 2.63 357 15:42 14.04.2021
308 Clouds -7 1030 62 10000 4.6 348 15:24 14.04.2021
309 Clouds -7 1030 62 10000 4.6 348 14:49 14.04.2021
310 Clouds -6 1028 56 10000 6.11 347 14:25 14.04.2021
311 Clouds -6 1028 58 10000 5.89 346 14:25 14.04.2021
312 Clouds -6 1028 58 10000 5.89 346 13:57 14.04.2021
313 Clouds -6 1028 58 10000 5.89 346 13:37 14.04.2021
314 Clouds -4 1026 52 10000 7.68 345 12:39 14.04.2021
315 Clouds -4 1025 50 10000 8.68 349 11:44 14.04.2021
316 Clouds -3 1023 44 10000 8.31 342 11:25 14.04.2021
317 Clouds -3 1023 44 10000 8.31 342 10:55 14.04.2021
318 Clouds -3 1023 44 10000 8.31 342 10:33 14.04.2021
319 Clouds -3 1022 41 10000 8.95 342 09:42 14.04.2021
320 Clouds -2 1021 41 10000 8.99 341 09:21 14.04.2021
321 Clouds -2 1021 41 10000 8.99 341 08:46 14.04.2021
322 Clouds 0 1019 39 10000 7.61 347 08:22 14.04.2021
323 Clouds 0 1018 43 10000 7.27 348 07:26 14.04.2021
324 Clouds 0 1018 52 10000 6.98 348 06:26 14.04.2021
325 Clouds 0 1017 56 10000 5.29 341 05:20 14.04.2021
326 Clouds -1 1014 59 10000 0.2 151 01:54 14.04.2021
327 Clouds -2 1014 62 10000 1.23 107 00:47 14.04.2021
328 Clouds -2 1013 61 10000 1.54 84 23:59 13.04.2021
329 Clouds -2 1013 61 10000 1.54 84 23:30 13.04.2021
330 Clouds -2 1013 60 10000 1.98 79 22:44 13.04.2021
331 Clouds -1 1013 60 10000 2.57 83 22:19 13.04.2021
332 Clouds -1 1013 60 10000 2.57 83 21:47 13.04.2021
333 Clear -1 1014 62 10000 2.76 82 21:29 13.04.2021
334 Clear -1 1014 62 10000 2.71 85 20:43 13.04.2021
335 Clouds -1 1015 64 10000 2.73 85 20:24 13.04.2021
336 Clouds -1 1015 64 10000 2.73 85 19:50 13.04.2021
337 Clouds -1 1016 65 10000 2.83 83 19:25 13.04.2021
338 Clouds -1 1016 65 10000 2.83 83 19:25 13.04.2021
339 Clouds -1 1016 65 10000 2.83 83 18:44 13.04.2021
340 Clouds -1 1017 67 10000 2.84 86 18:25 13.04.2021
341 Clouds -1 1017 67 10000 2.84 86 17:40 13.04.2021
342 Clouds -1 1018 68 10000 2.83 87 17:18 13.04.2021
343 Clouds -1 1018 68 10000 2.83 87 16:45 13.04.2021
344 Clouds 0 1019 69 10000 2.84 88 16:23 13.04.2021
345 Clouds 0 1019 69 10000 2.84 88 15:53 13.04.2021
346 Clouds 0 1019 69 10000 2.84 88 15:34 13.04.2021
347 Clouds 0 1018 67 10000 2.72 92 14:47 13.04.2021
348 Clouds 2 1017 62 10000 2.33 102 14:22 13.04.2021
349 Clouds 2 1017 62 10000 2.33 102 13:45 13.04.2021
350 Clouds 4 1017 51 10000 1.78 128 13:25 13.04.2021
351 Clouds 4 1017 51 10000 1.78 128 12:58 13.04.2021
352 Clouds 4 1017 51 10000 1.78 128 12:30 13.04.2021
353 Clouds 5 1017 42 10000 1.48 153 11:58 13.04.2021
354 Clouds 5 1017 42 10000 1.48 153 11:30 13.04.2021
355 Clouds 5 1018 42 10000 1.18 158 10:55 13.04.2021
356 Clouds 5 1019 43 10000 1.01 168 10:21 13.04.2021
357 Clouds 5 1019 43 10000 1.01 168 09:59 13.04.2021
358 Clouds 5 1019 43 10000 1.01 168 09:39 13.04.2021
359 Clouds 4 1021 44 10000 0.78 162 08:57 13.04.2021
360 Clouds 5 1020 35 10000 1.19 236 08:38 13.04.2021
361 Clouds 4 1021 36 10000 1.07 242 08:20 13.04.2021
362 Clouds 4 1021 36 10000 1.07 242 07:36 13.04.2021
363 Clouds 3 1023 37 10000 1.02 255 06:31 13.04.2021
364 Clouds 1 1027 39 10000 0.71 253 04:50 13.04.2021
365 Clouds -2 1030 45 10000 0.44 127 02:37 13.04.2021
366 Clouds -4 1032 60 10000 0.82 103 00:33 13.04.2021
367 Clouds -4 1031 57 10000 0.91 109 23:49 12.04.2021
368 Clouds -3 1032 55 10000 0.94 91 23:26 12.04.2021
369 Clouds -3 1032 55 10000 0.94 91 22:39 12.04.2021
370 Clouds -3 1032 56 10000 1.05 90 22:18 12.04.2021
371 Clouds -3 1032 56 10000 1.05 90 21:45 12.04.2021
372 Clouds -3 1032 55 10000 0.88 95 21:19 12.04.2021
373 Clouds -3 1032 55 10000 0.88 95 20:41 12.04.2021
374 Clouds -3 1032 53 10000 1.01 110 20:22 12.04.2021
375 Clouds -3 1032 53 10000 1.01 110 19:55 12.04.2021
376 Clouds -3 1032 53 10000 1.01 110 19:36 12.04.2021
377 Clouds -3 1033 55 10000 1.01 82 19:18 12.04.2021
378 Clouds -3 1033 55 10000 1.01 82 18:42 12.04.2021
379 Clouds -3 1033 54 10000 0.69 67 18:24 12.04.2021
380 Clouds -3 1033 54 10000 0.69 67 17:43 12.04.2021
381 Clouds -3 1033 53 10000 0.66 45 17:23 12.04.2021
382 Clouds -3 1033 53 10000 0.66 45 16:47 12.04.2021
383 Clouds -3 1033 52 10000 0.97 29 16:27 12.04.2021
384 Clouds -3 1033 52 10000 0.97 29 15:48 12.04.2021
385 Clouds -2 1032 50 10000 1.31 12 15:27 12.04.2021
386 Clouds -2 1032 50 10000 1.31 12 14:50 12.04.2021
387 Clouds -2 1032 50 10000 1.31 12 14:30 12.04.2021
388 Clouds -2 1032 50 10000 1.31 12 14:30 12.04.2021
389 Clouds -1 1030 42 10000 1.76 286 13:46 12.04.2021
390 Clouds 2 1029 34 10000 2.36 282 13:27 12.04.2021
391 Clouds 2 1029 34 10000 2.36 282 12:48 12.04.2021
392 Clouds 2 1029 25 10000 2.34 272 12:26 12.04.2021
393 Clouds 2 1029 25 10000 2.34 272 11:59 12.04.2021
394 Clear 2 1029 25 10000 2.02 265 11:20 12.04.2021
395 Clear 2 1029 25 10000 2.02 265 10:43 12.04.2021
396 Clear 1 1030 26 10000 1.45 250 10:23 12.04.2021
397 Clear 1 1030 26 10000 1.45 250 09:46 12.04.2021
398 Clear 1 1032 28 10000 1.05 273 09:18 12.04.2021
399 Clear 1 1032 28 10000 1.05 273 08:36 12.04.2021
400 Clouds 0 1033 29 10000 2.3 291 07:40 12.04.2021
401 Clouds -1 1034 32 10000 2.11 286 07:20 12.04.2021
402 Clouds -2 1035 34 10000 1.92 294 05:53 12.04.2021
403 Clouds -3 1036 38 10000 1.39 304 04:48 12.04.2021
404 Clear -7 1040 63 10000 1.83 51 01:31 12.04.2021
405 Clear -7 1039 72 10000 2.33 50 00:25 12.04.2021
406 Clear -7 1039 72 10000 2.33 50 23:48 11.04.2021
407 Clear -7 1038 73 10000 2.38 51 23:29 11.04.2021
408 Clear -7 1038 73 10000 2.38 51 22:46 11.04.2021
409 Clear -7 1038 74 10000 2.51 51 22:25 11.04.2021
410 Clear -7 1038 74 10000 2.51 51 21:49 11.04.2021
411 Clear -7 1038 74 10000 2.51 51 21:30 11.04.2021
412 Clear -7 1038 74 10000 2.51 51 21:30 11.04.2021
413 Clear -6 1037 74 10000 2.52 46 20:58 11.04.2021
414 Clear -6 1037 75 10000 2.56 43 20:31 11.04.2021
415 Clouds -6 1037 74 10000 2.7 37 19:58 11.04.2021
416 Clouds -6 1037 74 10000 2.7 37 19:38 11.04.2021
417 Clouds -5 1036 75 10000 2.65 38 19:19 11.04.2021
418 Clouds -5 1036 75 10000 2.65 38 19:19 11.04.2021
419 Clouds -5 1036 75 10000 2.65 38 19:19 11.04.2021
420 Clouds -5 1036 75 10000 2.65 38 18:45 11.04.2021
421 Clouds -5 1035 79 10000 2.49 42 18:25 11.04.2021
422 Clouds -5 1035 79 10000 2.49 42 17:48 11.04.2021
423 Clouds -4 1034 80 10000 2.81 37 17:28 11.04.2021
424 Clouds -4 1034 80 10000 2.81 37 16:52 11.04.2021
425 Clouds -4 1034 80 10000 2.81 37 16:52 11.04.2021
426 Clouds -4 1033 79 10000 2.44 38 16:25 11.04.2021
427 Clouds -4 1033 79 10000 2.44 38 15:57 11.04.2021
428 Clouds -4 1033 79 10000 2.44 38 15:38 11.04.2021
429 Clouds -4 1032 77 10000 2.83 26 15:19 11.04.2021
430 Clouds -4 1032 77 10000 2.83 26 14:46 11.04.2021
431 Clouds -2 1030 67 10000 3.21 16 14:18 11.04.2021
432 Clouds -2 1030 72 10000 3.02 21 13:36 11.04.2021
433 Clouds 0 1028 54 10000 3.68 2 13:18 11.04.2021
434 Clouds 0 1026 44 10000 3.79 356 12:23 11.04.2021
435 Clouds 0 1026 44 10000 3.79 356 11:53 11.04.2021
436 Clouds 0 1026 44 10000 3.79 356 11:31 11.04.2021
437 Clouds 1 1026 40 10000 3.54 11 10:56 11.04.2021
438 Clouds 1 1026 40 10000 3.54 11 10:38 11.04.2021
439 Clouds 1 1026 42 10000 3.82 8 10:19 11.04.2021
440 Clouds 1 1026 42 10000 3.82 8 09:37 11.04.2021
441 Clouds 0 1026 46 10000 4.04 4 09:19 11.04.2021
442 Clouds 0 1026 46 10000 4.04 4 08:31 11.04.2021
443 Clouds -1 1028 58 10000 3.39 13 07:25 11.04.2021
444 Clouds -1 1028 58 10000 3.39 13 06:56 11.04.2021
445 Clouds -2 1028 59 10000 3.6 21 05:44 11.04.2021
446 Clouds -2 1028 62 10000 3.76 30 05:21 11.04.2021
447 Clouds -2 1028 62 10000 3.76 30 04:35 11.04.2021
448 Clouds -4 1028 79 10000 2.93 22 02:56 11.04.2021
449 Snow -6 1026 90 10000 3.16 14 00:40 11.04.2021
450 Snow -6 1026 90 10000 3.16 14 00:40 11.04.2021
451 Snow -6 1026 90 10000 3.16 14 00:40 11.04.2021
452 Snow -4 1023 89 10000 3.17 358 23:51 10.04.2021
453 Snow -3 1022 91 2426 3.07 344 23:27 10.04.2021
454 Snow -3 1022 91 2426 3.07 344 22:45 10.04.2021
455 Snow -2 1020 93 276 2.32 320 22:24 10.04.2021
456 Snow -2 1020 93 276 2.32 320 21:51 10.04.2021
457 Snow -2 1020 95 118 1.8 270 21:23 10.04.2021
458 Snow -2 1020 95 118 1.8 270 20:48 10.04.2021
459 Snow -2 1020 95 129 2.13 235 20:29 10.04.2021
460 Snow -2 1020 95 129 2.13 235 19:45 10.04.2021
461 Snow -2 1020 95 120 2.54 228 19:27 10.04.2021
462 Snow -2 1020 95 120 2.54 228 18:54 10.04.2021
463 Snow -2 1020 95 120 2.54 228 18:34 10.04.2021
464 Snow -2 1020 94 135 2.96 227 17:44 10.04.2021
465 Snow -1 1019 92 189 4.06 233 17:23 10.04.2021
466 Snow -1 1019 92 189 4.06 233 16:31 10.04.2021
467 Snow -1 1018 91 235 5.07 237 15:56 10.04.2021
468 Snow -1 1018 91 235 5.07 237 15:34 10.04.2021
469 Snow 0 1017 91 267 5.41 237 14:47 10.04.2021
470 Snow 1 1015 90 188 4.91 231 14:25 10.04.2021
471 Snow 0 1017 85 742 4.04 226 13:47 10.04.2021
472 Snow 2 1015 77 1842 5.12 239 13:28 10.04.2021
473 Snow 2 1015 77 1842 5.12 239 12:37 10.04.2021
474 Clouds 5 1011 48 5527 6.12 226 11:52 10.04.2021
475 Clouds 6 1009 42 10000 4.02 250 11:28 10.04.2021
476 Clouds 6 1009 42 10000 4.02 250 10:57 10.04.2021
477 Clouds 6 1009 42 10000 4.02 250 10:39 10.04.2021
478 Clouds 7 1009 35 10000 7.73 244 10:21 10.04.2021
479 Clouds 8 1009 27 10000 7.11 253 09:29 10.04.2021
480 Clouds 8 1009 27 10000 7.11 253 08:58 10.04.2021
481 Clouds 8 1010 26 10000 5.42 253 08:30 10.04.2021
482 Clouds 7 1010 25 10000 3.02 250 07:52 10.04.2021
483 Clouds 7 1012 27 10000 1.94 254 07:25 10.04.2021
484 Clouds 6 1013 29 10000 2.21 252 06:27 10.04.2021
485 Clouds 5 1014 32 10000 2.32 241 04:49 10.04.2021
486 Clouds 3 1015 39 10000 1.24 219 02:57 10.04.2021
487 Clouds 3 1015 39 10000 1.24 219 02:35 10.04.2021
488 Clouds 0 1015 48 10000 1.19 201 00:55 10.04.2021
489 Clouds 0 1015 48 10000 1.19 201 00:30 10.04.2021
490 Clouds 0 1014 45 10000 1.34 163 23:45 09.04.2021
491 Clouds 1 1014 40 10000 2.06 126 23:20 09.04.2021
492 Clouds 1 1014 40 10000 2.06 126 22:44 09.04.2021
493 Clouds 2 1014 38 10000 1.56 94 22:25 09.04.2021
494 Clouds 2 1014 38 10000 1.56 94 21:39 09.04.2021
495 Clouds 3 1013 36 10000 1.86 66 21:19 09.04.2021
496 Clouds 3 1013 36 10000 1.86 66 20:45 09.04.2021
497 Clouds 3 1013 35 10000 1.91 96 20:23 09.04.2021
498 Clouds 3 1013 35 10000 1.91 96 19:57 09.04.2021
499 Clouds 3 1013 35 10000 1.91 96 19:39 09.04.2021
500 Clouds 4 1013 32 10000 1.93 101 19:20 09.04.2021
501 Clouds 4 1013 32 10000 1.93 101 18:41 09.04.2021
502 Clouds 3 1013 34 10000 1.19 118 18:21 09.04.2021
503 Clouds 3 1013 34 10000 1.19 118 17:43 09.04.2021
504 Clouds 4 1013 33 10000 1.07 80 17:21 09.04.2021
505 Clouds 4 1013 33 10000 1.07 80 16:39 09.04.2021
506 Clouds 4 1013 33 10000 0.4 313 15:59 09.04.2021
507 Clouds 4 1013 33 10000 0.4 313 15:40 09.04.2021
508 Clouds 5 1013 31 10000 1.24 266 15:19 09.04.2021
509 Clouds 5 1013 31 10000 1.24 266 14:42 09.04.2021
510 Clouds 7 1012 28 10000 2.4 250 13:57 09.04.2021
511 Clouds 7 1012 28 10000 2.4 250 13:38 09.04.2021
512 Clouds 8 1012 22 10000 3.71 250 13:19 09.04.2021
513 Clouds 8 1012 22 10000 3.71 250 12:39 09.04.2021
514 Clouds 9 1011 21 10000 4.23 247 11:47 09.04.2021
515 Clouds 9 1012 22 10000 4.54 240 11:23 09.04.2021
516 Clouds 9 1012 22 10000 4.54 240 10:49 09.04.2021
517 Clouds 9 1012 22 10000 4.54 240 10:30 09.04.2021
518 Clouds 9 1012 22 10000 4.29 231 09:51 09.04.2021
519 Clouds 9 1013 22 10000 3.82 226 09:25 09.04.2021
520 Clouds 9 1013 22 10000 3.82 226 08:53 09.04.2021
521 Clouds 9 1014 22 10000 2.8 236 08:18 09.04.2021
522 Clouds 8 1014 23 10000 2.13 248 07:18 09.04.2021
523 Clouds 7 1016 23 10000 1.8 260 06:21 09.04.2021
524 Clouds 5 1017 27 10000 0.56 243 03:54 09.04.2021
525 Clouds 2 1019 37 10000 1.48 69 02:18 09.04.2021
526 Clouds 1 1019 41 10000 1.58 69 00:38 09.04.2021
527 Clouds 1 1019 42 10000 1.55 77 00:19 09.04.2021
528 Clouds 1 1019 41 10000 1.98 79 23:29 08.04.2021
529 Clouds 1 1019 41 10000 1.98 79 22:45 08.04.2021
530 Clouds 1 1018 41 10000 1.96 78 22:25 08.04.2021
531 Clouds 1 1018 41 10000 1.96 78 21:56 08.04.2021
532 Clouds 1 1018 41 10000 1.96 78 21:37 08.04.2021
533 Clouds 1 1018 41 10000 1.56 69 21:19 08.04.2021
534 Clouds 1 1018 41 10000 1.56 69 20:52 08.04.2021
535 Clouds 1 1018 41 10000 1.56 69 20:31 08.04.2021
536 Clear 2 1018 40 10000 1.51 41 19:49 08.04.2021
537 Clear 3 1017 38 10000 0.98 6 19:20 08.04.2021
538 Clear 3 1017 38 10000 0.98 6 18:51 08.04.2021
539 Clear 4 1017 37 10000 0.45 254 18:21 08.04.2021
540 Clear 4 1017 37 10000 0.45 254 17:50 08.04.2021
541 Clear 4 1016 35 10000 0.89 231 17:26 08.04.2021
542 Clear 4 1016 35 10000 0.89 231 16:54 08.04.2021
543 Clear 4 1016 35 10000 0.89 231 16:34 08.04.2021
544 Clear 5 1016 33 10000 0.99 225 15:49 08.04.2021
545 Clear 6 1016 33 10000 1.13 250 15:29 08.04.2021
546 Clear 6 1016 33 10000 1.13 250 14:58 08.04.2021
547 Clear 6 1016 30 10000 1.22 282 14:36 08.04.2021
548 Clear 7 1015 26 10000 1.96 269 14:18 08.04.2021
549 Clear 7 1015 26 10000 1.96 269 13:43 08.04.2021
550 Clear 9 1014 20 10000 3.49 261 13:23 08.04.2021
551 Clear 9 1014 20 10000 3.49 261 12:44 08.04.2021
552 Clear 10 1014 18 10000 4.17 252 12:25 08.04.2021
553 Clear 10 1014 18 10000 4.17 252 11:43 08.04.2021
554 Clear 10 1014 17 10000 4.2 245 11:18 08.04.2021
555 Clear 10 1014 17 10000 4.2 245 10:42 08.04.2021
556 Clear 10 1015 18 10000 3.56 243 10:19 08.04.2021
557 Clear 10 1015 18 10000 3.56 243 09:43 08.04.2021
558 Clear 10 1016 19 10000 2.88 246 08:47 08.04.2021
559 Clear 9 1017 20 10000 2.18 253 08:28 08.04.2021
560 Clear 9 1017 19 10000 2.23 255 07:59 08.04.2021
561 Clear 9 1017 19 10000 2.23 255 07:35 08.04.2021
562 Clear 5 1021 41 10000 1 127 04:18 08.04.2021
563 Clear -1 1024 65 10000 2.4 85 01:20 08.04.2021
564 Clear -1 1024 65 10000 2.32 89 00:21 08.04.2021
565 Clear -1 1024 65 10000 2.32 89 23:42 07.04.2021
566 Clear 0 1023 65 10000 2.42 88 23:22 07.04.2021
567 Clear 0 1023 65 10000 2.42 88 22:50 07.04.2021
568 Clear 0 1023 65 10000 2.42 88 22:32 07.04.2021
569 Clear 0 1023 65 10000 2.42 86 21:47 07.04.2021
570 Clear 0 1023 65 10000 2.53 88 21:26 07.04.2021
571 Clear 0 1023 65 10000 2.53 88 20:47 07.04.2021
572 Clear 1 1023 63 10000 2.65 90 20:26 07.04.2021
573 Clear 1 1023 63 10000 2.65 90 19:46 07.04.2021
574 Clear 1 1023 61 10000 2.62 98 19:26 07.04.2021
575 Clear 1 1023 61 10000 2.62 98 18:49 07.04.2021
576 Clouds 2 1023 60 10000 2.72 102 18:21 07.04.2021
577 Clouds 2 1023 60 10000 2.72 102 17:56 07.04.2021
578 Clouds 2 1023 60 10000 2.72 102 17:37 07.04.2021
579 Clouds 2 1022 56 10000 2.97 105 16:58 07.04.2021
580 Clouds 2 1022 56 10000 2.97 105 16:39 07.04.2021
581 Clouds 3 1021 46 10000 2.77 115 16:20 07.04.2021
582 Clouds 3 1021 46 10000 2.77 115 15:40 07.04.2021
583 Clouds 4 1020 34 10000 1.63 139 14:58 07.04.2021
584 Clouds 4 1020 42 10000 2.31 122 14:32 07.04.2021
585 Clouds 5 1019 31 10000 1.22 174 13:53 07.04.2021
586 Clouds 8 1018 22 10000 2.42 252 13:27 07.04.2021
587 Clouds 8 1018 22 10000 2.42 252 12:57 07.04.2021
588 Clouds 9 1018 20 10000 4.21 259 12:25 07.04.2021
589 Clouds 9 1018 20 10000 4.21 259 12:25 07.04.2021
590 Clouds 9 1018 20 10000 4.21 259 11:57 07.04.2021
591 Clouds 9 1018 20 10000 4.51 263 11:28 07.04.2021
592 Clouds 9 1018 20 10000 4.51 263 10:59 07.04.2021
593 Clouds 9 1018 21 10000 3.93 261 10:27 07.04.2021
594 Clouds 9 1018 21 10000 3.93 261 09:44 07.04.2021
595 Clouds 9 1019 22 10000 4.53 246 09:25 07.04.2021
596 Clouds 9 1019 22 10000 4.53 246 08:47 07.04.2021
597 Clouds 8 1020 22 10000 4.64 239 08:22 07.04.2021
598 Clouds 8 1020 22 10000 4.64 239 07:43 07.04.2021
599 Clouds 8 1020 23 10000 3.77 231 07:24 07.04.2021
600 Clouds 8 1020 23 10000 3.77 231 06:32 07.04.2021
601 Clouds 4 1025 25 10000 2.11 110 04:23 07.04.2021
602 Clouds -2 1029 29 10000 3.15 85 00:22 07.04.2021
603 Clouds -2 1029 29 10000 3.15 85 23:47 06.04.2021
604 Clouds -2 1029 29 10000 3.12 86 23:21 06.04.2021
605 Clouds -2 1029 29 10000 3.12 86 22:48 06.04.2021
606 Clouds -2 1029 28 10000 3.07 87 22:19 06.04.2021
607 Clouds -2 1029 28 10000 3.07 87 21:42 06.04.2021
608 Clouds -2 1029 28 10000 2.98 87 21:22 06.04.2021
609 Clouds -2 1029 28 10000 2.98 87 20:54 06.04.2021
610 Clouds -1 1029 29 10000 2.96 85 20:25 06.04.2021
611 Clouds -1 1029 29 10000 2.96 85 19:58 06.04.2021
612 Clouds -1 1029 29 10000 2.96 85 19:58 06.04.2021
613 Clouds -1 1029 29 10000 2.96 85 19:35 06.04.2021
614 Clouds -1 1029 30 10000 3.06 82 18:57 06.04.2021
615 Clouds -1 1029 30 10000 3.06 82 18:57 06.04.2021
616 Clouds -1 1029 30 10000 3.06 82 18:39 06.04.2021
617 Clouds -1 1029 32 10000 3.17 84 18:19 06.04.2021
618 Clouds -1 1029 32 10000 3.17 84 17:41 06.04.2021
619 Clear 0 1029 31 10000 3.15 88 17:18 06.04.2021
620 Clear 0 1029 31 10000 3.15 88 16:43 06.04.2021
621 Clear 1 1028 30 10000 2.95 91 15:59 06.04.2021
622 Clear 2 1026 27 10000 2.7 94 15:25 06.04.2021
623 Clear 2 1026 27 10000 2.7 94 14:43 06.04.2021
624 Clear 4 1023 23 10000 1.39 109 14:24 06.04.2021
625 Clear 4 1023 23 10000 1.39 109 13:46 06.04.2021
626 Clear 7 1022 16 10000 0.45 166 13:25 06.04.2021
627 Clear 7 1022 16 10000 0.45 166 12:45 06.04.2021
628 Clear 8 1022 14 10000 0.71 233 12:27 06.04.2021
629 Clear 8 1022 14 10000 0.71 233 11:55 06.04.2021
630 Clear 8 1022 14 10000 0.71 233 11:36 06.04.2021
631 Clear 8 1022 13 10000 1.1 239 11:18 06.04.2021
632 Clear 8 1022 13 10000 1.1 239 10:39 06.04.2021
633 Clear 8 1022 14 10000 1.27 233 10:21 06.04.2021
634 Clear 8 1022 14 10000 1.27 233 09:43 06.04.2021
635 Clear 8 1023 14 10000 1.13 224 08:57 06.04.2021
636 Clear 7 1023 15 10000 0.99 216 08:19 06.04.2021
637 Clear 6 1024 16 10000 0.92 213 07:22 06.04.2021
638 Clear 6 1024 16 10000 0.92 213 06:47 06.04.2021
639 Clear 2 1029 22 10000 1.39 106 03:54 06.04.2021
640 Clear -4 1032 30 10000 2.82 85 00:49 06.04.2021
641 Clear -4 1032 31 10000 2.84 83 00:22 06.04.2021
642 Clear -4 1032 31 10000 2.84 83 23:50 05.04.2021
643 Clear -3 1031 31 10000 2.78 85 23:28 05.04.2021
644 Clear -3 1031 31 10000 2.78 85 22:54 05.04.2021
645 Clear -3 1031 31 10000 2.78 85 22:35 05.04.2021
646 Clear -3 1031 32 10000 2.7 88 21:48 05.04.2021
647 Clear -3 1030 32 10000 2.7 86 21:27 05.04.2021
648 Clear -3 1030 32 10000 2.7 86 20:49 05.04.2021
649 Clear -3 1030 32 10000 2.7 86 20:30 05.04.2021
650 Clear -3 1030 32 10000 2.66 86 19:45 05.04.2021
651 Clear -2 1030 32 10000 2.69 83 19:25 05.04.2021
652 Clear -2 1030 32 10000 2.69 83 18:58 05.04.2021
653 Clear -2 1030 32 10000 2.69 83 18:39 05.04.2021
654 Clear -2 1029 33 10000 2.62 84 18:19 05.04.2021
655 Clear -2 1029 33 10000 2.62 84 17:46 05.04.2021
656 Clear -1 1028 32 10000 2.64 91 17:21 05.04.2021
657 Clear -1 1028 32 10000 2.64 91 16:45 05.04.2021
658 Clear 0 1027 30 10000 2.11 102 16:22 05.04.2021
659 Clear 0 1027 30 10000 2.11 102 15:56 05.04.2021
660 Clear 0 1027 30 10000 2.11 102 15:32 05.04.2021
661 Clear 1 1025 28 10000 1.7 115 14:58 05.04.2021
662 Clear 1 1024 28 10000 1.67 107 14:35 05.04.2021
663 Clear 3 1022 25 10000 1.21 155 13:42 05.04.2021
664 Clear 5 1020 18 10000 1.51 211 13:22 05.04.2021
665 Clear 5 1020 18 10000 1.51 211 12:45 05.04.2021
666 Clear 6 1019 17 10000 1.61 222 12:23 05.04.2021
667 Clear 6 1019 17 10000 1.61 222 11:46 05.04.2021
668 Clear 7 1019 17 10000 1.37 227 11:27 05.04.2021
669 Clear 7 1019 17 10000 1.37 227 10:48 05.04.2021
670 Clear 6 1019 16 10000 1.16 234 10:29 05.04.2021
671 Clear 6 1019 16 10000 1.16 234 09:48 05.04.2021
672 Clear 6 1019 15 10000 1.17 243 09:25 05.04.2021
673 Clear 6 1019 16 10000 1.28 240 08:45 05.04.2021
674 Clear 6 1020 15 10000 1.03 251 08:26 05.04.2021
675 Clear 5 1020 16 10000 1.11 245 07:38 05.04.2021
676 Clear 5 1021 16 10000 0.86 250 06:51 05.04.2021
677 Clear -2 1026 21 10000 2.06 88 02:36 05.04.2021
678 Clear -6 1027 26 10000 2.9 80 00:53 05.04.2021
679 Clear -5 1026 27 10000 2.92 81 23:52 04.04.2021
680 Clear -5 1026 27 10000 2.92 81 23:30 04.04.2021
681 Clear -5 1026 29 10000 2.94 82 22:54 04.04.2021
682 Clear -5 1026 29 10000 2.94 82 22:31 04.04.2021
683 Clear -5 1026 30 10000 2.97 81 21:48 04.04.2021
684 Clear -5 1026 31 10000 3 81 21:21 04.04.2021
685 Clear -5 1026 31 10000 3 81 20:37 04.04.2021
686 Clear -4 1026 32 10000 2.99 79 20:19 04.04.2021
687 Clear -4 1026 32 10000 2.99 79 19:38 04.04.2021
688 Clear -4 1026 33 10000 3 81 19:19 04.04.2021
689 Clear -4 1026 33 10000 3 81 18:47 04.04.2021
690 Clear -4 1026 34 10000 3.02 83 18:24 04.04.2021
691 Clear -4 1026 34 10000 3.02 83 17:55 04.04.2021
692 Clear -3 1026 34 10000 3.09 84 17:24 04.04.2021
693 Clear -3 1026 34 10000 3.09 84 16:54 04.04.2021
694 Clear -3 1026 34 10000 3.09 84 16:31 04.04.2021
695 Clear -2 1025 33 10000 3.13 83 15:37 04.04.2021
696 Clear -1 1024 31 10000 2.89 84 15:18 04.04.2021
697 Clear -1 1024 31 10000 2.89 84 14:37 04.04.2021
698 Clear 0 1022 27 10000 2.17 88 14:18 04.04.2021
699 Clear 4 1019 18 10000 1.06 102 13:26 04.04.2021
700 Clear 4 1019 18 10000 1.06 102 12:50 04.04.2021
701 Clear 5 1019 16 10000 0.66 109 12:27 04.04.2021
702 Clear 5 1019 16 10000 0.66 109 11:43 04.04.2021
703 Clear 5 1019 15 10000 0.56 126 11:25 04.04.2021
704 Clear 5 1019 15 10000 0.56 126 10:46 04.04.2021
705 Clear 5 1020 14 10000 0.61 135 10:19 04.04.2021
706 Clear 4 1021 14 10000 0.47 125 09:27 04.04.2021
707 Clear 4 1021 14 10000 0.47 125 08:59 04.04.2021
708 Clear 4 1021 14 10000 0.47 125 08:41 04.04.2021
709 Clear 4 1022 14 10000 0.34 92 08:23 04.04.2021
710 Clear 3 1024 16 10000 0.41 127 06:39 04.04.2021
711 Clear 3 1024 16 10000 0.41 127 06:39 04.04.2021
712 Clear 1 1026 18 10000 0.82 150 05:34 04.04.2021
713 Clear -7 1034 30 10000 2.7 86 01:49 04.04.2021
714 Clear -8 1034 31 10000 2.93 86 00:44 04.04.2021
715 Clear -7 1034 31 10000 2.95 82 23:59 03.04.2021
716 Clear -7 1034 31 10000 2.95 82 23:39 03.04.2021
717 Clear -7 1034 31 10000 2.89 84 22:54 03.04.2021
718 Clear -7 1034 31 10000 2.91 82 22:24 03.04.2021
719 Clear -7 1034 31 10000 2.91 82 21:59 03.04.2021
720 Clear -7 1034 31 10000 2.91 82 21:39 03.04.2021
721 Clear -7 1035 31 10000 2.87 84 21:19 03.04.2021
722 Clear -7 1035 31 10000 2.87 84 20:38 03.04.2021
723 Clear -7 1035 31 10000 2.87 85 20:18 03.04.2021
724 Clear -7 1035 31 10000 2.87 85 19:43 03.04.2021
725 Clear -6 1035 32 10000 2.84 85 19:18 03.04.2021
726 Clear -6 1035 32 10000 2.84 85 18:44 03.04.2021
727 Clear -6 1035 33 10000 2.84 90 17:58 03.04.2021
728 Clear -5 1035 33 10000 2.77 91 17:28 03.04.2021
729 Clear -5 1035 33 10000 2.77 91 16:58 03.04.2021
730 Clear -5 1035 33 10000 2.77 91 16:31 03.04.2021
731 Clear -5 1034 33 10000 2.76 89 15:53 03.04.2021
732 Clear -5 1034 33 10000 2.76 89 15:32 03.04.2021
733 Clear -4 1033 30 10000 2.58 95 14:59 03.04.2021
734 Clear -4 1033 33 10000 2.47 96 14:37 03.04.2021
735 Clear -3 1031 30 10000 1.94 121 14:18 03.04.2021
736 Clear -3 1031 30 10000 1.94 121 13:40 03.04.2021
737 Clear 0 1029 22 10000 1.72 163 13:20 03.04.2021
738 Clear 0 1029 22 10000 1.72 163 12:40 03.04.2021
739 Clear 1 1028 20 10000 1.44 171 12:19 03.04.2021
740 Clear 1 1028 20 10000 1.44 171 11:32 03.04.2021
741 Clear 2 1028 18 10000 1.04 181 10:49 03.04.2021
742 Clear 1 1028 17 10000 0.95 195 10:29 03.04.2021
743 Clear 1 1028 17 10000 0.95 195 09:50 03.04.2021
744 Clear 1 1029 17 10000 0.63 213 09:27 03.04.2021
745 Clear 1 1029 17 10000 0.63 213 08:40 03.04.2021
746 Clear 0 1030 17 10000 0.41 243 08:21 03.04.2021
747 Clear 0 1031 18 10000 0.35 258 07:27 03.04.2021
748 Clear -1 1033 21 10000 0.19 250 05:33 03.04.2021
749 Clear -6 1037 29 10000 1.74 86 03:18 03.04.2021
750 Clear -6 1037 29 10000 1.74 86 02:35 03.04.2021
751 Clear -9 1038 32 10000 2.36 82 01:45 03.04.2021
752 Clear -9 1038 34 10000 2.59 78 00:19 03.04.2021
753 Clear -9 1038 34 10000 2.59 78 23:46 02.04.2021
754 Clear -8 1037 34 10000 2.56 77 23:21 02.04.2021
755 Clear -8 1037 34 10000 2.56 77 22:50 02.04.2021
756 Clear -8 1037 34 10000 2.56 77 22:30 02.04.2021
757 Clear -8 1037 34 10000 2.56 78 21:42 02.04.2021
758 Clear -8 1036 34 10000 2.53 80 21:20 02.04.2021
759 Clear -8 1036 34 10000 2.53 80 20:48 02.04.2021
760 Clear -7 1036 33 10000 2.49 82 20:26 02.04.2021
761 Clear -8 1037 32 10000 2.47 83 19:43 02.04.2021
762 Clear -7 1037 32 10000 2.46 82 19:24 02.04.2021
763 Clear -7 1037 32 10000 2.46 82 18:56 02.04.2021
764 Clear -7 1037 32 10000 2.46 82 18:38 02.04.2021
765 Clear -7 1036 31 10000 2.44 82 18:19 02.04.2021
766 Clear -7 1036 31 10000 2.44 82 17:36 02.04.2021
767 Clear -6 1035 29 10000 2.5 87 16:44 02.04.2021
768 Clear -5 1034 25 10000 1.78 96 15:51 02.04.2021
769 Clear -5 1034 25 10000 1.78 96 15:32 02.04.2021
770 Clear -5 1032 24 10000 0.07 303 14:42 02.04.2021
771 Clouds -3 1030 23 10000 1.89 311 14:21 02.04.2021
772 Clouds -3 1030 23 10000 1.89 311 13:39 02.04.2021
773 Clouds -1 1029 19 10000 3.57 286 13:19 02.04.2021
774 Clouds -1 1029 19 10000 3.57 286 12:39 02.04.2021
775 Clouds 0 1028 19 10000 4.12 276 12:19 02.04.2021
776 Clouds 0 1028 19 10000 4.12 276 11:48 02.04.2021
777 Clouds 1 1027 18 10000 4.61 270 11:19 02.04.2021
778 Clouds 1 1027 18 10000 4.61 270 10:44 02.04.2021
779 Clouds 1 1027 18 10000 4.38 265 10:24 02.04.2021
780 Clouds 1 1027 18 10000 4.38 265 09:52 02.04.2021
781 Clouds 1 1028 19 10000 3.8 258 09:26 02.04.2021
782 Clouds 1 1028 19 10000 3.8 258 08:46 02.04.2021
783 Clouds 0 1028 22 10000 3.18 250 08:27 02.04.2021
784 Clear -1 1029 25 10000 2.46 251 07:22 02.04.2021
785 Clear -1 1029 25 10000 2.46 251 06:40 02.04.2021
786 Clear -5 1033 46 10000 0.73 83 03:54 02.04.2021
787 Clouds -8 1035 56 10000 2.02 75 02:19 02.04.2021
788 Clouds -8 1034 59 10000 2.14 73 00:47 02.04.2021
789 Clouds -8 1033 59 10000 2.21 74 23:58 01.04.2021
790 Clouds -8 1032 60 10000 2.26 71 23:27 01.04.2021
791 Clouds -8 1032 60 10000 2.26 71 22:51 01.04.2021
792 Clouds -7 1031 61 10000 2.41 68 22:18 01.04.2021
793 Clouds -7 1031 61 10000 2.41 68 21:45 01.04.2021
794 Clouds -7 1031 63 10000 2.5 66 21:24 01.04.2021
795 Clouds -7 1031 62 10000 2.59 67 20:42 01.04.2021
796 Clouds -7 1031 63 10000 2.63 64 20:22 01.04.2021
797 Clouds -7 1031 63 10000 2.63 64 19:46 01.04.2021
798 Clouds -7 1031 63 10000 2.67 62 19:27 01.04.2021
799 Clouds -7 1031 63 10000 2.67 62 18:45 01.04.2021
800 Clouds -6 1030 61 10000 2.83 61 18:18 01.04.2021
801 Clouds -6 1030 61 10000 2.83 61 17:47 01.04.2021
802 Clouds -6 1029 57 10000 3.08 57 17:24 01.04.2021
803 Clouds -6 1029 57 10000 3.08 57 16:50 01.04.2021
804 Clouds -6 1029 57 10000 3.08 57 16:50 01.04.2021
805 Clouds -5 1028 50 10000 2.79 52 16:24 01.04.2021
806 Clouds -5 1028 50 10000 2.79 52 15:43 01.04.2021
807 Clouds -3 1026 44 10000 2.32 35 15:19 01.04.2021
808 Clouds -3 1026 44 10000 2.32 35 14:42 01.04.2021
809 Clouds -2 1023 42 10000 2.31 47 14:23 01.04.2021
810 Clouds -2 1023 42 10000 2.31 47 13:52 01.04.2021
811 Clouds -2 1023 42 10000 2.31 47 13:30 01.04.2021
812 Clouds -2 1023 42 10000 2.31 47 13:30 01.04.2021
813 Clouds -1 1022 39 10000 3.19 40 12:49 01.04.2021
814 Clouds -1 1022 39 10000 3.19 40 12:30 01.04.2021
815 Clouds 0 1021 34 10000 3.32 15 11:47 01.04.2021
816 Clouds 1 1020 28 10000 2.09 340 11:24 01.04.2021
817 Clouds 1 1020 28 10000 2.09 340 10:53 01.04.2021
818 Clouds 1 1020 28 10000 2.09 340 10:53 01.04.2021
819 Clouds 1 1020 28 10000 2.09 340 10:35 01.04.2021
820 Clouds 1 1020 25 10000 1.55 304 09:54 01.04.2021
821 Clouds 0 1020 25 10000 1.36 284 09:27 01.04.2021
822 Clouds 0 1021 25 10000 1.32 299 08:33 01.04.2021
823 Clouds 0 1021 25 10000 1.48 292 07:57 01.04.2021
824 Clouds 0 1022 29 10000 1.53 293 07:19 01.04.2021
825 Clouds 0 1022 29 10000 1.53 293 06:47 01.04.2021
826 Clouds -3 1024 44 10000 1.12 29 03:30 01.04.2021
827 Clouds -5 1025 44 10000 1.53 73 00:59 01.04.2021
828 Clouds -5 1024 40 10000 1.77 91 23:44 31.03.2021
829 Clouds -5 1024 39 10000 1.77 83 23:19 31.03.2021
830 Clouds -5 1024 39 10000 1.77 83 22:41 31.03.2021
831 Clouds -6 1024 40 10000 2.09 90 22:20 31.03.2021
832 Clouds -6 1024 40 10000 2.09 90 21:46 31.03.2021
833 Clouds -6 1024 40 10000 2.23 87 21:23 31.03.2021
834 Clouds -6 1024 40 10000 2.23 87 20:56 31.03.2021
835 Clouds -6 1024 40 10000 2.23 87 20:38 31.03.2021
836 Clouds -5 1023 42 10000 2.29 89 20:18 31.03.2021
837 Clouds -5 1023 42 10000 2.29 89 19:38 31.03.2021
838 Clouds -5 1023 41 10000 2.66 94 19:18 31.03.2021
839 Clouds -5 1023 41 10000 2.66 94 18:49 31.03.2021
840 Clouds -4 1022 39 10000 2.1 92 17:57 31.03.2021
841 Clouds -4 1022 39 10000 2.1 92 17:36 31.03.2021
842 Clouds -2 1021 36 10000 1.22 87 17:18 31.03.2021
843 Clouds -2 1021 36 10000 1.22 87 16:42 31.03.2021
844 Clouds -2 1020 34 10000 0.84 65 16:22 31.03.2021
845 Clouds -2 1020 34 10000 0.84 65 15:50 31.03.2021
846 Clouds -1 1020 32 10000 2.08 324 15:19 31.03.2021
847 Clouds -1 1020 32 10000 2.08 324 14:44 31.03.2021
848 Clouds 0 1018 29 10000 4.32 310 14:22 31.03.2021
849 Clouds 0 1017 28 10000 4.59 307 13:42 31.03.2021
850 Clouds 2 1015 23 10000 6.29 301 12:42 31.03.2021
851 Clouds 3 1014 23 10000 6.32 288 12:21 31.03.2021
852 Clouds 3 1014 23 10000 6.32 288 12:21 31.03.2021
853 Clouds 3 1014 23 10000 6.32 288 12:21 31.03.2021
854 Clouds 3 1014 23 10000 6.32 288 11:59 31.03.2021
855 Clouds 4 1013 23 10000 6.21 270 11:21 31.03.2021
856 Clouds 4 1013 23 10000 6.21 270 10:47 31.03.2021
857 Clouds 4 1013 24 10000 5.98 253 10:26 31.03.2021
858 Clouds 4 1013 24 10000 5.98 253 09:43 31.03.2021
859 Clouds 4 1014 23 10000 5.27 247 09:18 31.03.2021
860 Clouds 4 1014 23 10000 5.35 247 08:39 31.03.2021
861 Clouds 4 1015 22 10000 4.29 239 07:54 31.03.2021
862 Clouds 3 1016 22 10000 2.8 248 06:49 31.03.2021
863 Clouds 0 1019 33 10000 1.54 28 03:52 31.03.2021
864 Clouds -2 1020 46 10000 1.87 57 01:43 31.03.2021
865 Clouds -2 1019 50 10000 1.88 68 00:53 31.03.2021
866 Clouds -2 1019 51 10000 2.01 74 00:21 31.03.2021
867 Clouds -2 1019 51 10000 2.01 74 23:46 30.03.2021
868 Clouds -2 1019 50 10000 2.14 76 23:19 30.03.2021
869 Clouds -2 1019 50 10000 2.14 76 22:41 30.03.2021
870 Clouds -2 1019 49 10000 2.25 87 22:23 30.03.2021
871 Clouds -2 1019 49 10000 2.25 87 21:51 30.03.2021
872 Clouds -2 1018 45 10000 2.29 91 21:21 30.03.2021
873 Clouds -2 1018 45 10000 2.29 91 20:55 30.03.2021
874 Clouds -1 1018 42 10000 1.78 110 20:28 30.03.2021
875 Clouds -1 1018 42 10000 1.78 110 19:51 30.03.2021
876 Clouds -1 1017 41 10000 1.36 117 19:28 30.03.2021
877 Clouds -1 1017 41 10000 1.36 117 18:40 30.03.2021
878 Clouds 0 1017 39 10000 1.18 109 18:20 30.03.2021
879 Clouds 0 1017 39 10000 1.18 109 17:41 30.03.2021
880 Clouds 1 1016 37 10000 1.42 130 17:23 30.03.2021
881 Clouds 1 1016 37 10000 1.42 130 16:45 30.03.2021
882 Clouds 2 1016 35 10000 1.57 141 16:24 30.03.2021
883 Clouds 2 1015 30 10000 1.23 133 15:21 30.03.2021
884 Clouds 1 1015 33 10000 0.63 100 14:57 30.03.2021
885 Clouds 1 1014 32 10000 0.08 298 14:22 30.03.2021
886 Clouds 1 1014 32 10000 0.08 298 13:59 30.03.2021
887 Clouds 1 1014 32 10000 0.08 298 13:37 30.03.2021
888 Clouds 3 1012 29 10000 0.75 283 12:49 30.03.2021
889 Clouds 4 1012 23 10000 1.31 280 12:29 30.03.2021
890 Clouds 4 1012 23 10000 1.31 280 11:58 30.03.2021
891 Clouds 4 1011 21 10000 0.65 299 11:23 30.03.2021
892 Clouds 4 1011 21 10000 0.65 299 10:46 30.03.2021
893 Clouds 4 1012 20 10000 0.56 282 10:26 30.03.2021
894 Clouds 4 1012 20 10000 0.56 282 09:50 30.03.2021
895 Clouds 4 1012 20 10000 0.56 282 09:50 30.03.2021
896 Clouds 4 1012 20 10000 0.56 282 09:31 30.03.2021
897 Clouds 4 1013 21 10000 0.51 282 08:56 30.03.2021
898 Clouds 4 1013 21 10000 0.51 282 08:37 30.03.2021
899 Clouds 3 1013 27 10000 1.02 256 07:51 30.03.2021
900 Clouds 2 1014 30 10000 0.86 234 07:22 30.03.2021
901 Clouds 2 1015 36 10000 1.29 224 05:40 30.03.2021
902 Clouds 0 1016 43 10000 1.15 178 05:19 30.03.2021
903 Clear -5 1018 60 10000 2.63 98 00:33 30.03.2021
904 Clear -5 1017 59 10000 2.19 102 23:34 29.03.2021
905 Clear -4 1016 59 10000 2.04 112 22:51 29.03.2021
906 Clouds -4 1015 59 10000 2.4 118 22:26 29.03.2021
907 Clouds -4 1015 59 10000 2.4 118 21:47 29.03.2021
908 Clouds -3 1014 59 10000 2.51 108 21:27 29.03.2021
909 Clouds -3 1014 59 10000 2.51 108 20:48 29.03.2021
910 Clouds -3 1013 58 10000 2.79 94 20:27 29.03.2021
911 Clouds -3 1013 58 10000 2.79 94 19:49 29.03.2021
912 Clouds -3 1012 58 10000 2.59 76 19:22 29.03.2021
913 Clouds -3 1012 58 10000 2.59 76 18:44 29.03.2021
914 Clouds -2 1011 57 10000 2.65 95 18:26 29.03.2021
915 Clouds -2 1011 57 10000 2.65 95 17:50 29.03.2021
916 Clouds -2 1011 57 10000 2.65 95 17:30 29.03.2021
917 Clouds -2 1010 56 10000 2.62 94 16:41 29.03.2021
918 Clouds -1 1010 55 10000 2.49 96 16:20 29.03.2021
919 Clouds -1 1010 55 10000 2.49 96 15:35 29.03.2021
920 Clouds 0 1008 54 10000 2.17 88 14:57 29.03.2021
921 Clouds 0 1008 54 10000 2.17 88 14:38 29.03.2021
922 Clouds 1 1006 53 10000 1.37 358 13:54 29.03.2021
923 Clouds 1 1006 53 10000 1.37 358 13:31 29.03.2021
924 Clouds 4 1004 44 10000 4.41 322 12:53 29.03.2021
925 Clouds 4 1004 44 10000 4.41 322 12:35 29.03.2021
926 Clouds 5 1002 37 10000 7.73 316 11:43 29.03.2021
927 Clouds 6 1001 33 10000 9.73 300 11:24 29.03.2021
928 Clouds 6 1001 33 10000 9.73 300 10:41 29.03.2021
929 Clouds 7 1000 34 10000 9.65 293 09:56 29.03.2021
930 Clouds 7 1000 32 10000 8.31 275 09:23 29.03.2021
931 Clouds 6 1000 37 10000 8.14 278 08:30 29.03.2021
932 Clouds 6 1000 37 10000 8.14 278 08:30 29.03.2021
933 Clouds 5 1001 44 10000 5.57 266 07:52 29.03.2021
934 Snow 4 1002 59 8539 4.21 259 06:53 29.03.2021
935 Snow 2 1003 75 7885 2.94 129 05:19 29.03.2021
936 Clouds 0 1004 41 10000 3.25 125 02:27 29.03.2021
937 Clouds -1 1005 39 10000 3.08 110 00:26 29.03.2021
938 Clouds -1 1005 39 10000 3.08 110 23:55 28.03.2021
939 Clouds -2 1005 39 10000 2.9 102 23:24 28.03.2021
940 Clouds -2 1005 39 10000 2.9 102 22:42 28.03.2021
941 Clouds -1 1005 37 10000 3.17 107 22:24 28.03.2021
942 Clouds -1 1005 37 10000 3.17 107 22:24 28.03.2021
943 Clouds -1 1005 37 10000 3.17 107 21:46 28.03.2021
944 Clouds -1 1006 36 10000 2.45 101 21:24 28.03.2021
945 Clouds -1 1006 36 10000 2.45 101 20:51 28.03.2021
946 Clouds -1 1006 37 10000 3.01 101 20:33 28.03.2021
947 Clouds -1 1007 35 10000 3.65 103 19:55 28.03.2021
948 Clouds -1 1007 35 10000 3.65 103 19:37 28.03.2021
949 Clouds -2 1008 35 10000 3.31 102 19:18 28.03.2021
950 Clouds -2 1008 35 10000 3.31 102 18:37 28.03.2021
951 Clouds -2 1008 35 10000 3.11 98 17:59 28.03.2021
952 Clouds -2 1008 35 10000 3.11 98 17:36 28.03.2021
953 Clouds -2 1009 35 10000 3.46 98 16:55 28.03.2021
954 Clouds -1 1009 36 10000 3.63 100 16:27 28.03.2021
955 Clouds -1 1009 36 10000 3.63 100 15:50 28.03.2021
956 Clouds 0 1008 35 10000 3.43 103 15:24 28.03.2021
957 Clouds 0 1008 35 10000 3.43 103 14:46 28.03.2021
958 Clouds 1 1007 33 10000 2.52 112 14:18 28.03.2021
959 Clouds 1 1007 33 10000 2.52 112 13:35 28.03.2021
960 Clear 3 1005 30 10000 1.12 105 12:56 28.03.2021
961 Clear 3 1005 30 10000 1.12 105 12:34 28.03.2021
962 Clear 5 1005 22 10000 1.03 241 11:52 28.03.2021
963 Clear 5 1005 22 10000 1.03 241 11:32 28.03.2021
964 Clear 6 1004 20 10000 1.43 220 10:48 28.03.2021
965 Clear 6 1005 20 10000 1.33 231 10:29 28.03.2021
966 Clear 3 1008 60 10000 1 78 09:51 28.03.2021
967 Clear 2 1008 55 10000 0.75 64 09:27 28.03.2021
968 Clear 2 1008 55 10000 0.75 64 08:48 28.03.2021
969 Clear 2 1008 55 10000 0.75 64 08:30 28.03.2021
970 Clouds 2 1009 50 10000 0.51 104 07:39 28.03.2021
971 Clouds 0 1012 45 10000 1.09 104 05:39 28.03.2021
972 Clouds -9 1021 57 10000 3.04 77 03:28 28.03.2021
973 Clouds -12 1024 55 10000 3.48 76 00:35 28.03.2021
974 Clouds -13 1025 55 10000 3.44 77 23:51 27.03.2021
975 Clouds -13 1025 55 10000 3.44 77 23:33 27.03.2021
976 Clear -13 1025 56 10000 3.46 77 22:40 27.03.2021
977 Clear -13 1025 56 10000 3.43 76 22:21 27.03.2021
978 Clear -13 1025 56 10000 3.43 76 21:41 27.03.2021
979 Clear -13 1026 57 10000 3.64 74 21:21 27.03.2021
980 Clear -13 1026 57 10000 3.64 74 20:55 27.03.2021
981 Clear -13 1026 57 10000 3.64 74 20:37 27.03.2021
982 Clear -13 1027 57 10000 3.77 72 19:46 27.03.2021
983 Clouds -14 1029 60 10000 3.83 74 19:24 27.03.2021
984 Clouds -14 1029 60 10000 3.83 74 18:57 27.03.2021
985 Clouds -14 1029 60 10000 3.83 74 18:38 27.03.2021
986 Clouds -15 1030 62 10000 3.76 75 18:19 27.03.2021
987 Clouds -14 1031 64 10000 3.55 76 17:28 27.03.2021
988 Clouds -14 1031 64 10000 3.55 76 16:54 27.03.2021
989 Clouds -14 1031 64 10000 3.55 76 16:36 27.03.2021
990 Clouds -14 1030 67 10000 3.64 76 16:18 27.03.2021
991 Clouds -14 1030 67 10000 3.64 76 15:36 27.03.2021
992 Clear -13 1030 69 10000 3.76 75 14:55 27.03.2021
993 Clear -13 1030 72 10000 3.71 74 14:22 27.03.2021
994 Clear -13 1030 72 10000 3.71 74 13:36 27.03.2021
995 Clear -12 1028 74 10000 3.35 76 13:18 27.03.2021
996 Clear -12 1028 74 10000 3.35 76 12:35 27.03.2021
997 Clear -8 1024 72 10000 2.06 82 11:47 27.03.2021
998 Clear -5 1022 69 10000 1.27 84 11:28 27.03.2021
999 Clear -5 1022 69 10000 1.27 84 10:48 27.03.2021
1000 Clear -4 1021 56 10000 1.26 85 10:28 27.03.2021
1001 Clear -4 1021 56 10000 1.26 85 09:41 27.03.2021
1002 Clear -4 1022 54 10000 0.94 80 09:18 27.03.2021
1003 Clear -4 1022 54 10000 0.94 80 08:33 27.03.2021
1004 Clear -5 1023 51 10000 0.45 358 07:41 27.03.2021
1005 Clear -6 1023 53 10000 0.74 1 06:58 27.03.2021
1006 Clear -6 1023 53 10000 0.74 1 06:37 27.03.2021
1007 Clear -8 1026 64 10000 0.78 51 04:41 27.03.2021
1008 Clouds -16 1033 89 10000 2.57 65 01:28 27.03.2021
1009 Clouds -16 1033 89 10000 2.57 65 00:32 27.03.2021
1010 Clouds -17 1032 90 10000 2.65 65 23:59 26.03.2021
1011 Clouds -16 1030 90 10000 2.41 67 23:23 26.03.2021
1012 Clouds -16 1030 90 10000 2.41 67 22:37 26.03.2021
1013 Clouds -15 1028 90 10000 2.35 41 21:41 26.03.2021
1014 Clouds -14 1026 89 10000 1.62 29 21:22 26.03.2021
1015 Clouds -14 1026 89 10000 1.62 29 20:49 26.03.2021
1016 Clouds -14 1026 89 10000 1.62 29 20:31 26.03.2021
1017 Clouds -14 1025 92 10000 2.08 48 19:50 26.03.2021
1018 Clouds -14 1025 92 10000 2.08 48 19:32 26.03.2021
1019 Clouds -13 1024 92 10000 1.78 33 18:47 26.03.2021
1020 Clouds -12 1022 89 10000 1.41 349 18:28 26.03.2021
1021 Clouds -12 1022 89 10000 1.41 349 17:50 26.03.2021
1022 Clouds -10 1018 85 10000 1.88 337 17:22 26.03.2021
1023 Clouds -10 1018 85 10000 1.88 337 16:34 26.03.2021
1024 Clouds -7 1013 77 10000 2.16 302 15:59 26.03.2021
1025 Clouds -6 1009 73 10000 1.43 269 15:26 26.03.2021
1026 Clouds -6 1009 73 10000 1.43 269 14:39 26.03.2021
1027 Clouds 0 1003 65 10000 4.01 280 13:46 26.03.2021
1028 Clouds 3 998 53 10000 9.81 285 13:22 26.03.2021
1029 Clouds 2 999 55 10000 8.39 299 12:35 26.03.2021
1030 Clouds 5 995 52 10000 11.85 237 11:47 26.03.2021
1031 Clouds 6 995 44 10000 12.91 233 11:27 26.03.2021
1032 Clouds 6 995 44 10000 12.91 233 10:42 26.03.2021
1033 Clouds 6 996 42 10000 11.14 225 10:19 26.03.2021
1034 Clouds 6 996 42 10000 11.14 225 09:40 26.03.2021
1035 Clouds 6 997 44 10000 9.34 221 08:46 26.03.2021
1036 Clouds 5 999 60 10000 3.87 209 08:25 26.03.2021
1037 Clouds 4 1000 77 10000 2.95 178 07:42 26.03.2021
1038 Clouds 3 1002 83 10000 2.03 165 07:21 26.03.2021
1039 Clouds 3 1002 83 10000 2.03 165 06:55 26.03.2021
1040 Clouds 3 1004 79 10000 1.89 180 05:31 26.03.2021
1041 Clouds -3 1012 67 10000 2.98 110 03:19 26.03.2021
1042 Clouds -7 1016 66 10000 3.01 102 00:33 26.03.2021
1043 Clouds -7 1016 64 10000 3.23 87 23:46 25.03.2021
1044 Clouds -8 1017 63 10000 3.53 87 23:21 25.03.2021
1045 Clouds -8 1017 63 10000 3.53 87 22:40 25.03.2021
1046 Clouds -8 1018 64 10000 3.28 89 21:55 25.03.2021
1047 Clouds -8 1018 64 10000 3.28 89 21:35 25.03.2021
1048 Clouds -8 1020 62 10000 3.5 87 20:59 25.03.2021
1049 Clouds -8 1020 62 10000 3.5 87 20:37 25.03.2021
1050 Clouds -9 1022 62 10000 3.43 85 20:18 25.03.2021
1051 Clouds -9 1022 62 10000 3.39 85 19:39 25.03.2021
1052 Clouds -10 1024 63 10000 3.46 82 19:21 25.03.2021
1053 Clouds -10 1024 63 10000 3.46 82 18:40 25.03.2021
1054 Clouds -9 1024 65 10000 3.45 83 18:22 25.03.2021
1055 Clouds -9 1024 65 10000 3.45 83 17:38 25.03.2021
1056 Clouds -9 1025 68 10000 3.47 82 16:58 25.03.2021
1057 Clouds -9 1025 68 10000 3.47 82 16:35 25.03.2021
1058 Clouds -10 1026 70 10000 3.5 80 15:49 25.03.2021
1059 Clouds -10 1026 73 10000 3.55 82 15:27 25.03.2021
1060 Clouds -10 1026 73 10000 3.55 82 14:58 25.03.2021
1061 Clouds -10 1026 73 10000 3.55 82 14:38 25.03.2021
1062 Clouds -8 1024 76 10000 3.17 86 13:29 25.03.2021
1063 Clouds -8 1024 76 10000 3.17 86 12:56 25.03.2021
1064 Clouds -8 1024 76 10000 3.17 86 12:36 25.03.2021
1065 Clouds -4 1020 76 10000 1.93 91 12:18 25.03.2021
1066 Clouds -4 1020 76 10000 1.93 91 11:44 25.03.2021
1067 Clouds -2 1018 72 10000 1.24 126 11:25 25.03.2021
1068 Clouds -2 1018 72 10000 1.24 126 10:49 25.03.2021
1069 Clear 0 1018 58 10000 1.1 130 10:21 25.03.2021
1070 Clear 0 1018 58 10000 1.1 130 09:50 25.03.2021
1071 Clear 0 1018 58 10000 1.1 130 09:31 25.03.2021
1072 Clear -1 1019 54 10000 0.66 131 08:37 25.03.2021
1073 Clear -1 1020 56 10000 0.68 231 07:51 25.03.2021
1074 Clear -1 1020 55 10000 1.17 237 06:57 25.03.2021
1075 Clear -2 1021 57 10000 1.18 228 06:24 25.03.2021
1076 Clear -3 1022 60 10000 0.83 193 05:21 25.03.2021
1077 Clear -10 1028 80 10000 2.17 92 02:28 25.03.2021
1078 Clouds -11 1026 79 10000 2.46 90 00:20 25.03.2021
1079 Clouds -11 1026 79 10000 2.46 90 23:42 24.03.2021
1080 Clouds -11 1025 77 10000 2.54 98 23:23 24.03.2021
1081 Clouds -11 1025 77 10000 2.54 98 22:40 24.03.2021
1082 Clouds -10 1024 77 10000 2.14 77 21:59 24.03.2021
1083 Clouds -10 1024 77 10000 2.14 77 21:39 24.03.2021
1084 Clouds -8 1020 76 10000 1.74 89 21:19 24.03.2021
1085 Clouds -8 1020 76 10000 1.74 89 20:41 24.03.2021
1086 Clouds -8 1020 76 10000 2.51 84 20:19 24.03.2021
1087 Clouds -8 1020 76 10000 2.51 84 19:34 24.03.2021
1088 Clouds -4 1016 75 10000 2.01 125 18:56 24.03.2021
1089 Clouds -4 1016 75 10000 2.01 125 18:38 24.03.2021
1090 Clouds -4 1016 76 10000 1.9 108 18:19 24.03.2021
1091 Clouds -4 1016 76 10000 1.9 108 17:34 24.03.2021
1092 Clouds -2 1014 75 10000 2.33 109 16:59 24.03.2021
1093 Clouds -2 1014 75 10000 2.33 109 16:41 24.03.2021
1094 Clouds -2 1014 73 10000 2.67 114 16:20 24.03.2021
1095 Clouds -2 1014 73 10000 2.67 114 15:41 24.03.2021
1096 Clouds -2 1015 74 10000 2.99 107 15:21 24.03.2021
1097 Clouds -2 1015 74 10000 2.99 107 14:41 24.03.2021
1098 Clouds -2 1015 74 10000 2.88 107 14:21 24.03.2021
1099 Clouds -2 1015 74 10000 2.88 107 13:44 24.03.2021
1100 Clouds -1 1014 74 10000 2.89 110 13:24 24.03.2021
1101 Clouds -1 1014 74 10000 2.89 110 12:40 24.03.2021
1102 Clouds 1 1012 78 10000 2.26 98 12:20 24.03.2021
1103 Clouds 1 1012 78 10000 2.26 98 11:41 24.03.2021
1104 Clouds 3 1010 83 10000 1.99 100 10:49 24.03.2021
1105 Clouds 3 1010 83 10000 1.99 100 10:31 24.03.2021
1106 Clouds 3 1011 90 10000 1.91 109 09:55 24.03.2021
1107 Clouds 3 1011 90 10000 1.91 109 09:33 24.03.2021
1108 Clouds 3 1011 94 8692 1.59 134 08:58 24.03.2021
1109 Clouds 3 1011 94 8692 1.59 134 08:39 24.03.2021
1110 Clouds 3 1011 94 10000 1.43 123 07:50 24.03.2021
1111 Clouds 3 1012 91 10000 1.88 114 07:19 24.03.2021
1112 Clouds 3 1012 91 10000 1.88 110 06:45 24.03.2021
1113 Clouds -6 1022 62 10000 3.15 90 02:29 24.03.2021
1114 Clouds -7 1023 59 10000 3.5 84 00:42 24.03.2021
1115 Clouds -8 1024 58 10000 3.58 85 23:52 23.03.2021
1116 Clouds -9 1024 57 10000 3.8 84 23:19 23.03.2021
1117 Clouds -9 1024 57 10000 3.8 84 22:50 23.03.2021
1118 Clouds -9 1025 56 10000 4.01 81 22:24 23.03.2021
1119 Clouds -9 1025 56 10000 4.01 81 21:45 23.03.2021
1120 Clouds -9 1026 57 10000 3.88 87 21:26 23.03.2021
1121 Clouds -9 1026 57 10000 3.88 87 20:45 23.03.2021
1122 Clouds -10 1026 54 10000 3.85 81 20:25 23.03.2021
1123 Clouds -10 1026 54 10000 3.85 81 19:47 23.03.2021
1124 Clear -10 1026 54 10000 4.1 82 19:26 23.03.2021
1125 Clear -10 1027 53 10000 4.03 82 18:44 23.03.2021
1126 Clear -10 1028 54 10000 3.96 82 18:22 23.03.2021
1127 Clear -10 1028 54 10000 3.96 82 17:46 23.03.2021
1128 Clear -10 1028 55 10000 3.99 82 17:21 23.03.2021
1129 Clear -10 1028 55 10000 3.99 82 16:42 23.03.2021
1130 Clear -10 1028 58 10000 4.01 81 16:24 23.03.2021
1131 Clear -10 1028 58 10000 4.01 81 15:46 23.03.2021
1132 Clear -9 1028 62 10000 4.14 82 14:57 23.03.2021
1133 Clear -9 1028 62 10000 4.14 82 14:37 23.03.2021
1134 Clear -9 1027 67 10000 3.9 85 14:18 23.03.2021
1135 Clear -9 1027 67 10000 3.9 85 13:41 23.03.2021
1136 Clouds -8 1026 71 10000 3.54 82 13:20 23.03.2021
1137 Clouds -8 1025 73 10000 3.42 81 12:43 23.03.2021
1138 Clouds -4 1022 76 10000 2.7 77 12:20 23.03.2021
1139 Clouds -4 1022 76 10000 2.7 77 11:45 23.03.2021
1140 Clouds 0 1019 76 10000 1.6 92 10:45 23.03.2021
1141 Clouds 2 1018 76 10000 1.26 45 10:26 23.03.2021
1142 Clouds 2 1018 76 10000 1.26 45 09:58 23.03.2021
1143 Clouds 2 1018 76 10000 1.26 45 09:39 23.03.2021
1144 Clouds 2 1019 74 10000 1.11 145 09:19 23.03.2021
1145 Clouds 2 1019 74 10000 1.11 145 08:40 23.03.2021
1146 Clouds 1 1020 65 10000 0.77 172 08:22 23.03.2021
1147 Clouds 1 1020 60 10000 0.92 156 07:28 23.03.2021
1148 Clouds 1 1020 60 10000 0.94 158 06:59 23.03.2021
1149 Clouds 1 1020 60 10000 0.94 158 06:33 23.03.2021
1150 Clouds -6 1027 68 10000 2.23 85 03:23 23.03.2021
1151 Clear -10 1030 67 10000 2.86 85 02:18 23.03.2021
1152 Clouds -12 1030 62 10000 3.35 83 23:43 22.03.2021
1153 Clouds -12 1030 62 10000 3.28 80 22:56 22.03.2021
1154 Clouds -12 1030 62 10000 3.28 80 22:37 22.03.2021
1155 Clouds -12 1030 62 10000 3.28 80 22:37 22.03.2021
1156 Clouds -11 1029 62 10000 3.29 86 22:18 22.03.2021
1157 Clouds -11 1029 62 10000 3.29 86 21:40 22.03.2021
1158 Clouds -11 1029 62 10000 3.29 86 21:40 22.03.2021
1159 Clouds -11 1028 62 10000 3.14 89 21:21 22.03.2021
1160 Clouds -11 1028 62 10000 3.14 89 20:41 22.03.2021
1161 Clouds -10 1027 65 10000 2.92 76 20:21 22.03.2021
1162 Clouds -10 1027 65 10000 2.92 76 19:53 22.03.2021
1163 Clouds -10 1027 65 10000 2.92 76 19:31 22.03.2021
1164 Clouds -7 1020 47 10000 2.21 66 18:47 22.03.2021
1165 Clouds -7 1019 49 10000 2.42 100 18:29 22.03.2021
1166 Clouds -7 1019 49 10000 2.42 100 17:59 22.03.2021
1167 Clouds -7 1019 49 10000 2.42 100 17:41 22.03.2021
1168 Clouds -6 1019 49 10000 2.45 88 17:19 22.03.2021
1169 Clouds -6 1019 49 10000 2.45 88 16:44 22.03.2021
1170 Clouds -6 1018 50 10000 2.37 96 16:18 22.03.2021
1171 Clouds -6 1018 50 10000 2.37 96 15:38 22.03.2021
1172 Clouds -4 1018 49 10000 1.97 107 15:18 22.03.2021
1173 Clouds -4 1018 49 10000 1.97 107 14:51 22.03.2021
1174 Clouds -4 1018 49 10000 1.97 107 14:32 22.03.2021
1175 Clouds -4 1018 51 10000 0.92 97 13:47 22.03.2021
1176 Clouds -3 1017 52 10000 0.18 36 13:26 22.03.2021
1177 Clouds -3 1017 52 10000 0.18 36 12:54 22.03.2021
1178 Clouds 0 1017 58 10000 0.76 208 12:24 22.03.2021
1179 Snow 0 1017 58 10000 0.76 208 11:49 22.03.2021
1180 Clouds 1 1016 61 10000 0.96 201 11:26 22.03.2021
1181 Clouds 1 1016 61 10000 0.96 201 10:44 22.03.2021
1182 Clouds 2 1015 70 10000 1.19 244 10:24 22.03.2021
1183 Clouds 2 1015 70 10000 1.19 244 09:46 22.03.2021
1184 Clouds 2 1015 71 10000 1.28 234 09:26 22.03.2021
1185 Clouds 2 1015 71 10000 1.28 234 08:45 22.03.2021
1186 Clouds 2 1015 74 10000 0.82 248 08:26 22.03.2021
1187 Clouds 2 1015 74 10000 0.82 248 07:47 22.03.2021
1188 Clouds 2 1016 55 10000 1.09 272 06:59 22.03.2021
1189 Clouds 2 1016 55 10000 1.09 272 06:36 22.03.2021
1190 Clouds -3 1018 51 10000 1.65 109 02:47 22.03.2021
1191 Clouds -7 1020 31 10000 2.23 96 00:33 22.03.2021
1192 Clouds -8 1019 31 10000 2.99 104 23:54 21.03.2021
1193 Clouds -8 1019 31 10000 2.87 99 23:20 21.03.2021
1194 Clouds -8 1019 31 10000 2.87 99 22:56 21.03.2021
1195 Clouds -8 1019 32 10000 3.01 101 22:29 21.03.2021
1196 Clouds -8 1019 32 10000 3.01 101 21:41 21.03.2021
1197 Clouds -8 1019 34 10000 2.88 102 21:23 21.03.2021
1198 Clouds -8 1019 34 10000 2.88 102 20:46 21.03.2021
1199 Clouds -8 1020 34 10000 2.98 93 20:27 21.03.2021
1200 Clouds -8 1020 34 10000 2.98 93 19:57 21.03.2021
1201 Clouds -7 1020 35 10000 3.17 95 19:23 21.03.2021
1202 Clouds -7 1020 35 10000 3.17 95 18:55 21.03.2021
1203 Clear -8 1021 35 10000 3.16 98 18:31 21.03.2021
1204 Clear -8 1021 36 10000 3.06 93 17:54 21.03.2021
1205 Clear -8 1021 36 10000 3.06 93 17:36 21.03.2021
1206 Clear -8 1021 36 10000 3.01 97 17:18 21.03.2021
1207 Clear -8 1021 36 10000 3.01 97 16:41 21.03.2021
1208 Clouds -8 1020 36 10000 3.28 98 16:22 21.03.2021
1209 Clouds -8 1020 36 10000 3.28 98 15:42 21.03.2021
1210 Clouds -7 1020 36 10000 3.44 97 15:20 21.03.2021
1211 Clouds -7 1020 36 10000 3.44 97 14:46 21.03.2021
1212 Clouds -7 1020 38 10000 3.34 101 14:27 21.03.2021
1213 Clouds -7 1020 38 10000 3.34 101 13:57 21.03.2021
1214 Clouds -7 1020 38 10000 3.34 101 13:38 21.03.2021
1215 Clouds -6 1020 44 10000 3.27 103 12:42 21.03.2021
1216 Clouds -4 1019 55 10000 2.75 104 12:24 21.03.2021
1217 Clouds -4 1019 55 10000 2.75 104 11:41 21.03.2021
1218 Clouds -1 1018 63 10000 1.8 122 11:20 21.03.2021
1219 Clouds -1 1018 63 10000 1.8 122 10:43 21.03.2021
1220 Clouds 1 1018 71 10000 1.23 142 10:25 21.03.2021
1221 Clouds 1 1018 71 10000 1.23 142 09:47 21.03.2021
1222 Clouds 1 1018 64 10000 1.31 135 09:29 21.03.2021
1223 Clouds 1 1018 64 10000 1.31 135 08:47 21.03.2021
1224 Clouds 1 1019 58 10000 1.51 133 08:26 21.03.2021
1225 Clouds 1 1019 58 10000 1.51 133 07:39 21.03.2021
1226 Clear 0 1021 52 10000 1.38 133 07:19 21.03.2021
1227 Clear -1 1023 49 10000 1.42 121 05:59 21.03.2021
1228 Clear -8 1029 51 10000 2.57 94 02:46 21.03.2021
1229 Clear -13 1032 32 10000 2.77 86 00:55 21.03.2021
1230 Clear -13 1032 32 10000 2.77 86 00:36 21.03.2021
1231 Clear -13 1033 32 10000 2.9 89 00:18 21.03.2021
1232 Clear -13 1033 32 10000 2.9 89 23:37 20.03.2021
1233 Clear -14 1034 32 10000 2.92 89 22:57 20.03.2021
1234 Clear -14 1034 33 10000 2.96 87 22:24 20.03.2021
1235 Clear -14 1034 33 10000 2.96 87 21:47 20.03.2021
1236 Clear -15 1035 34 10000 2.84 86 21:25 20.03.2021
1237 Clear -15 1035 34 10000 2.84 86 20:48 20.03.2021
1238 Clear -15 1036 37 10000 2.81 87 20:23 20.03.2021
1239 Clear -15 1036 37 10000 2.81 87 19:51 20.03.2021
1240 Clear -15 1037 40 10000 2.81 88 19:29 20.03.2021
1241 Clear -15 1037 40 10000 2.81 88 18:51 20.03.2021
1242 Clear -16 1039 42 10000 2.77 85 18:28 20.03.2021
1243 Clear -16 1039 42 10000 2.77 85 17:58 20.03.2021
1244 Clear -16 1039 42 10000 2.77 85 17:40 20.03.2021
1245 Clear -16 1039 47 10000 2.67 85 17:19 20.03.2021
1246 Clear -16 1039 47 10000 2.67 85 16:38 20.03.2021
1247 Clear -16 1039 54 10000 2.61 85 16:18 20.03.2021
1248 Clear -16 1039 54 10000 2.61 85 15:40 20.03.2021
1249 Clear -16 1039 54 10000 2.61 85 15:40 20.03.2021
1250 Clear -15 1039 59 10000 2.6 86 15:21 20.03.2021
1251 Clear -15 1039 59 10000 2.6 86 14:32 20.03.2021
1252 Clear -15 1039 59 10000 2.6 86 14:32 20.03.2021
1253 Clear -15 1039 63 10000 2.49 85 13:59 20.03.2021
1254 Clear -14 1039 67 10000 2.27 89 13:29 20.03.2021
1255 Clear -14 1038 80 10000 2.28 89 12:30 20.03.2021
1256 Clear -12 1037 71 10000 1.35 66 11:58 20.03.2021
1257 Clear -12 1037 71 10000 1.35 66 11:39 20.03.2021
1258 Clear -10 1036 74 10000 0.33 50 11:20 20.03.2021
1259 Clear -10 1036 74 10000 0.33 50 10:39 20.03.2021
1260 Clear -9 1036 64 10000 0.26 215 10:20 20.03.2021
1261 Clear -9 1036 64 10000 0.26 215 09:43 20.03.2021
1262 Clear -9 1036 59 10000 0.86 231 09:21 20.03.2021
1263 Clear -9 1036 59 10000 0.86 231 08:49 20.03.2021
1264 Clear -9 1037 59 10000 1.19 242 07:58 20.03.2021
1265 Clear -9 1037 59 10000 1.19 242 07:39 20.03.2021
1266 Clear -10 1038 59 10000 1.29 241 07:20 20.03.2021
1267 Clear -10 1038 58 10000 1.11 243 06:34 20.03.2021
1268 Clear -12 1041 58 10000 0.71 127 04:44 20.03.2021
1269 Clear -14 1043 63 10000 1.17 99 03:43 20.03.2021
1270 Clear -20 1047 71 10000 2.09 82 00:48 20.03.2021
1271 Clear -20 1047 72 10000 2.14 80 23:45 19.03.2021
1272 Clear -21 1047 74 10000 2.2 79 23:18 19.03.2021
1273 Clear -21 1047 74 10000 2.2 79 22:42 19.03.2021
1274 Clear -21 1046 75 10000 2.33 81 22:22 19.03.2021
1275 Clear -21 1046 75 10000 2.33 81 21:38 19.03.2021
1276 Clear -21 1046 75 10000 2.33 81 21:38 19.03.2021
1277 Clear -20 1046 76 10000 2.33 80 21:19 19.03.2021
1278 Clear -20 1046 76 10000 2.33 80 20:44 19.03.2021
1279 Clear -20 1046 77 10000 2.25 76 20:26 19.03.2021
1280 Clear -20 1046 77 10000 2.25 76 19:47 19.03.2021
1281 Clear -20 1046 80 10000 2.44 73 19:22 19.03.2021
1282 Clear -20 1046 80 10000 2.5 71 18:49 19.03.2021
1283 Clear -20 1046 79 10000 2.66 65 18:21 19.03.2021
1284 Clear -20 1046 79 10000 2.66 65 17:56 19.03.2021
1285 Clear -20 1046 79 10000 2.66 65 17:37 19.03.2021
1286 Clear -19 1046 80 10000 2.77 61 16:59 19.03.2021
1287 Clear -19 1046 80 10000 2.77 61 16:40 19.03.2021
1288 Clear -19 1045 81 10000 2.88 56 16:21 19.03.2021
1289 Clear -19 1045 81 10000 2.88 56 15:33 19.03.2021
1290 Clear -18 1044 81 10000 2.9 50 14:51 19.03.2021
1291 Clear -18 1044 81 10000 2.9 50 14:32 19.03.2021
1292 Clear -18 1043 80 10000 3.06 43 13:48 19.03.2021
1293 Clouds -16 1041 79 10000 2.98 32 13:18 19.03.2021
1294 Clouds -16 1042 83 10000 2.99 30 12:40 19.03.2021
1295 Clouds -14 1039 77 10000 2.97 8 11:55 19.03.2021
1296 Clouds -11 1038 75 10000 2.97 354 11:22 19.03.2021
1297 Clouds -11 1038 75 10000 2.97 354 10:42 19.03.2021
1298 Clouds -10 1037 66 10000 3.43 4 10:21 19.03.2021
1299 Clouds -10 1037 66 10000 3.43 4 09:43 19.03.2021
1300 Clouds -10 1036 64 10000 3.61 5 09:22 19.03.2021
1301 Clouds -10 1036 64 10000 3.61 5 08:51 19.03.2021
1302 Clouds -10 1037 63 10000 3.18 0 08:26 19.03.2021
1303 Clouds -10 1037 63 10000 3.18 0 07:43 19.03.2021
1304 Clouds -10 1037 62 10000 2.49 354 07:24 19.03.2021
1305 Clear -11 1038 55 10000 1.76 12 05:26 19.03.2021
1306 Clear -18 1041 66 10000 2.3 60 00:59 19.03.2021
1307 Clear -18 1040 67 10000 2.16 60 23:54 18.03.2021
1308 Clear -18 1038 67 10000 2.04 57 23:28 18.03.2021
1309 Clear -18 1038 67 10000 2.04 57 22:44 18.03.2021
1310 Clear -17 1037 65 10000 2.05 57 22:25 18.03.2021
1311 Clear -17 1037 65 10000 2.05 57 21:43 18.03.2021
1312 Clear -17 1037 63 10000 1.93 50 21:25 18.03.2021
1313 Clear -17 1037 63 10000 1.93 50 20:39 18.03.2021
1314 Clouds -16 1036 61 10000 2 50 20:20 18.03.2021
1315 Clouds -16 1036 61 10000 2 50 19:42 18.03.2021
1316 Clouds -16 1036 59 10000 1.93 50 19:22 18.03.2021
1317 Clouds -16 1036 59 10000 1.93 50 18:41 18.03.2021
1318 Clouds -15 1036 60 10000 1.98 57 17:55 18.03.2021
1319 Clouds -15 1036 59 10000 1.86 62 17:27 18.03.2021
1320 Clouds -15 1036 59 10000 1.86 62 16:54 18.03.2021
1321 Clouds -15 1036 59 10000 1.86 62 16:35 18.03.2021
1322 Clouds -14 1035 58 10000 1.88 66 15:59 18.03.2021
1323 Clouds -14 1035 58 10000 1.88 66 15:41 18.03.2021
1324 Clouds -13 1035 57 10000 1.91 62 15:18 18.03.2021
1325 Clouds -13 1035 57 10000 1.91 62 14:42 18.03.2021
1326 Clear -13 1034 57 10000 1.9 42 14:19 18.03.2021
1327 Clear -13 1034 57 10000 1.9 42 13:37 18.03.2021
1328 Clear -11 1032 53 10000 1.89 5 13:19 18.03.2021
1329 Clouds -11 1031 76 10000 1.96 10 12:37 18.03.2021
1330 Clouds -11 1031 76 10000 1.96 10 12:37 18.03.2021
1331 Clouds -11 1031 76 10000 1.96 10 12:37 18.03.2021
1332 Clouds -9 1030 48 10000 1.89 335 12:19 18.03.2021
1333 Clouds -9 1030 48 10000 1.89 335 11:44 18.03.2021
1334 Clear -7 1029 46 10000 1.56 313 11:20 18.03.2021
1335 Clear -7 1029 46 10000 1.56 313 10:41 18.03.2021
1336 Clear -6 1028 44 10000 1.61 303 10:23 18.03.2021
1337 Clear -6 1028 44 10000 1.61 303 09:45 18.03.2021
1338 Clear -6 1028 40 10000 1.62 309 09:26 18.03.2021
1339 Clear -6 1028 40 10000 1.62 309 08:45 18.03.2021
1340 Clear -6 1028 44 10000 1.58 288 08:23 18.03.2021
1341 Clear -6 1028 44 10000 1.58 288 07:45 18.03.2021
1342 Clouds -7 1029 77 10000 1.41 281 06:49 18.03.2021
1343 Clouds -8 1031 61 10000 1.07 268 06:25 18.03.2021
1344 Clouds -9 1032 71 10000 0.55 231 05:26 18.03.2021
1345 Clouds -14 1035 92 4638 1.19 78 00:48 18.03.2021
1346 Clouds -13 1034 93 3567 0.95 82 23:39 17.03.2021
1347 Clouds -13 1033 94 3541 0.9 65 22:42 17.03.2021
1348 Clouds -12 1033 94 2967 0.58 82 22:23 17.03.2021
1349 Clouds -12 1033 94 2967 0.58 82 21:51 17.03.2021
1350 Clouds -12 1033 94 2967 0.58 82 21:32 17.03.2021
1351 Clouds -12 1032 94 2898 0.15 96 20:54 17.03.2021
1352 Clouds -12 1032 94 2898 0.15 96 20:54 17.03.2021
1353 Clouds -12 1032 94 2898 0.15 96 20:36 17.03.2021
1354 Clouds -11 1032 95 1905 0.23 296 20:18 17.03.2021
1355 Clouds -11 1032 95 1905 0.23 296 19:41 17.03.2021
1356 Clouds -11 1031 95 646 0.62 240 19:20 17.03.2021
1357 Clouds -11 1031 95 646 0.62 240 18:50 17.03.2021
1358 Clouds -11 1031 94 1203 0.7 152 18:32 17.03.2021
1359 Snow -10 1030 94 1242 0.77 167 17:42 17.03.2021
1360 Snow -10 1029 93 712 0.71 191 17:22 17.03.2021
1361 Snow -10 1029 93 712 0.71 191 16:43 17.03.2021
1362 Snow -10 1028 95 352 0.73 180 16:21 17.03.2021
1363 Snow -10 1028 95 352 0.73 180 15:46 17.03.2021
1364 Clouds -9 1027 92 1060 1.13 184 15:28 17.03.2021
1365 Clouds -9 1027 92 1060 1.13 184 14:40 17.03.2021
1366 Clouds -9 1025 87 10000 1.01 198 14:20 17.03.2021
1367 Clouds -9 1025 87 10000 1.01 198 13:55 17.03.2021
1368 Clouds -7 1023 86 10000 1.38 211 13:25 17.03.2021
1369 Clouds -7 1023 86 10000 1.38 211 12:49 17.03.2021
1370 Snow -5 1021 84 10000 1.84 228 12:28 17.03.2021
1371 Snow -5 1021 84 10000 1.84 228 11:42 17.03.2021
1372 Snow -4 1020 87 764 3.26 254 11:23 17.03.2021
1373 Snow -4 1020 87 764 3.26 254 10:53 17.03.2021
1374 Snow -4 1019 89 345 3.2 236 10:24 17.03.2021
1375 Snow -4 1019 89 345 3.2 236 09:47 17.03.2021
1376 Snow -4 1019 85 263 3.27 253 09:21 17.03.2021
1377 Snow -4 1019 85 263 3.27 253 08:55 17.03.2021
1378 Snow -4 1019 85 263 3.27 253 08:35 17.03.2021
1379 Snow -2 1019 74 2414 3.36 242 07:48 17.03.2021
1380 Snow -3 1020 74 6683 1.7 238 07:19 17.03.2021
1381 Snow -4 1021 87 228 2.36 239 06:36 17.03.2021
1382 Clouds -5 1022 63 8740 0.74 157 04:19 17.03.2021
1383 Clouds -6 1023 59 10000 1.09 137 02:44 17.03.2021
1384 Clouds -9 1024 62 10000 1.81 88 00:39 17.03.2021
1385 Clouds -8 1024 61 10000 2.19 92 23:27 16.03.2021
1386 Clouds -8 1024 61 10000 2.19 92 22:47 16.03.2021
1387 Clouds -9 1023 64 10000 1.45 103 22:28 16.03.2021
1388 Clouds -9 1023 64 10000 1.45 103 21:45 16.03.2021
1389 Clouds -8 1023 62 10000 2.35 88 21:27 16.03.2021
1390 Clouds -8 1023 62 10000 2.35 88 20:58 16.03.2021
1391 Clouds -8 1023 63 10000 2.29 92 20:20 16.03.2021
1392 Clouds -8 1023 63 10000 2.29 92 19:54 16.03.2021
1393 Clouds -8 1023 63 10000 2.29 92 19:36 16.03.2021
1394 Clouds -8 1023 65 10000 2.13 98 18:59 16.03.2021
1395 Clouds -8 1023 83 10000 2.13 98 18:40 16.03.2021
1396 Clouds -8 1023 66 10000 2.13 98 18:20 16.03.2021
1397 Clouds -8 1023 66 10000 2.13 98 17:45 16.03.2021
1398 Clouds -7 1023 66 10000 2.36 93 17:24 16.03.2021
1399 Clouds -7 1023 66 10000 2.36 93 16:50 16.03.2021
1400 Clouds -7 1023 67 10000 2.36 99 16:26 16.03.2021
1401 Clouds -7 1023 67 10000 2.36 99 15:46 16.03.2021
1402 Clouds -6 1023 68 10000 2.74 96 15:21 16.03.2021
1403 Clouds -6 1023 68 10000 2.74 96 14:57 16.03.2021
1404 Clouds -6 1023 68 10000 2.74 96 14:39 16.03.2021
1405 Clouds -6 1022 68 10000 2.19 102 14:19 16.03.2021
1406 Clouds -6 1022 68 10000 2.19 102 13:46 16.03.2021
1407 Clouds -6 1021 70 10000 1.25 109 13:23 16.03.2021
1408 Clouds -5 1021 69 10000 1.39 90 12:50 16.03.2021
1409 Clouds -5 1021 69 10000 1.39 90 12:31 16.03.2021
1410 Clouds -4 1020 64 10000 0.58 80 11:41 16.03.2021
1411 Clouds -2 1019 59 10000 0.29 289 11:21 16.03.2021
1412 Clouds -1 1018 57 10000 0.47 264 10:27 16.03.2021
1413 Clouds -1 1018 57 10000 0.47 264 09:49 16.03.2021
1414 Clouds -1 1018 55 10000 0.42 200 09:29 16.03.2021
1415 Clouds -1 1018 55 10000 0.42 200 08:59 16.03.2021
1416 Clouds -1 1018 55 10000 0.42 200 08:40 16.03.2021
1417 Clouds -1 1019 54 10000 0.7 183 08:19 16.03.2021
1418 Clouds -1 1019 81 10000 0.7 183 07:35 16.03.2021
1419 Clouds -2 1021 59 10000 0.69 230 06:39 16.03.2021
1420 Clouds -3 1022 61 10000 0.43 52 05:52 16.03.2021
1421 Clouds -3 1022 61 10000 0.43 52 05:34 16.03.2021
1422 Clouds -8 1026 72 10000 1.68 97 02:45 16.03.2021
1423 Clouds -10 1027 74 10000 2.34 75 02:24 16.03.2021
1424 Clouds -11 1027 77 10000 2.09 91 23:58 15.03.2021
1425 Clouds -11 1026 76 10000 2.4 90 23:29 15.03.2021
1426 Clouds -11 1026 76 10000 2.4 90 23:29 15.03.2021
1427 Clouds -11 1026 76 10000 2.4 90 22:51 15.03.2021
1428 Clouds -11 1026 76 10000 2.4 90 22:33 15.03.2021
1429 Clouds -11 1026 76 10000 2.4 90 22:33 15.03.2021
1430 Clouds -10 1026 73 10000 2.29 92 21:55 15.03.2021
1431 Clouds -10 1026 73 10000 2.29 92 21:35 15.03.2021
1432 Clouds -9 1026 70 10000 2.19 99 20:59 15.03.2021
1433 Clouds -9 1026 70 10000 2.19 99 20:40 15.03.2021
1434 Clouds -9 1025 69 10000 2.09 107 20:22 15.03.2021
1435 Clouds -9 1025 69 10000 2.09 107 19:51 15.03.2021
1436 Clouds -9 1026 82 10000 1.85 105 19:32 15.03.2021
1437 Clouds -9 1025 69 10000 1.94 123 18:57 15.03.2021
1438 Clouds -9 1025 69 10000 1.94 123 18:32 15.03.2021
1439 Clouds -9 1026 77 10000 2.1 120 17:56 15.03.2021
1440 Clouds -9 1026 77 10000 2.1 120 17:32 15.03.2021
1441 Clouds -8 1026 82 10000 1.96 112 16:55 15.03.2021
1442 Clouds -8 1026 82 10000 1.96 112 16:35 15.03.2021
1443 Clouds -8 1025 86 10000 1.88 120 15:47 15.03.2021
1444 Clouds -7 1025 90 10000 1.65 105 15:26 15.03.2021
1445 Clouds -7 1025 90 10000 1.65 105 14:45 15.03.2021
1446 Snow -6 1025 93 1858 1.26 115 14:24 15.03.2021
1447 Snow -6 1025 93 1858 1.26 115 13:53 15.03.2021
1448 Snow -6 1025 93 1858 1.26 115 13:34 15.03.2021
1449 Snow -6 1024 95 613 0.84 179 12:51 15.03.2021
1450 Snow -5 1023 87 291 1.66 181 12:20 15.03.2021
1451 Snow -5 1023 87 291 1.66 181 11:56 15.03.2021
1452 Snow -5 1023 87 291 1.66 181 11:38 15.03.2021
1453 Snow -4 1022 68 2028 1.73 177 10:59 15.03.2021
1454 Snow -4 1022 68 2028 1.73 177 10:33 15.03.2021
1455 Snow -3 1022 53 2429 1.48 196 09:59 15.03.2021
1456 Snow -3 1022 53 2429 1.48 196 09:40 15.03.2021
1457 Snow -3 1022 43 2932 1.16 166 08:59 15.03.2021
1458 Snow -3 1022 43 2932 1.16 166 08:41 15.03.2021
1459 Snow -3 1022 40 3265 0.78 199 08:19 15.03.2021
1460 Snow -3 1022 40 3265 0.78 199 07:32 15.03.2021
1461 Clouds -4 1023 53 10000 0.89 217 06:44 15.03.2021
1462 Clouds -5 1024 50 10000 0.44 199 05:35 15.03.2021
1463 Clouds -9 1029 54 10000 1.25 94 03:18 15.03.2021
1464 Clouds -14 1031 50 10000 1.51 88 00:21 15.03.2021
1465 Clouds -15 1032 48 10000 1.06 107 23:21 14.03.2021
1466 Clouds -15 1032 48 10000 1.06 107 22:48 14.03.2021
1467 Clouds -16 1033 44 10000 1.71 101 22:25 14.03.2021
1468 Clouds -16 1033 44 10000 1.71 101 21:50 14.03.2021
1469 Clouds -17 1035 42 10000 2.22 82 21:21 14.03.2021
1470 Clouds -17 1035 42 10000 2.22 82 20:50 14.03.2021
1471 Clouds -18 1036 42 10000 2.48 66 20:27 14.03.2021
1472 Clouds -18 1036 42 10000 2.48 66 19:56 14.03.2021
1473 Clouds -18 1036 42 10000 2.48 66 19:37 14.03.2021
1474 Clouds -19 1037 43 10000 2.84 66 19:18 14.03.2021
1475 Clouds -19 1037 43 10000 2.84 66 18:31 14.03.2021
1476 Clouds -20 1038 45 10000 2.14 93 17:42 14.03.2021
1477 Clouds -20 1039 50 10000 1.11 66 17:23 14.03.2021
1478 Clouds -20 1039 50 10000 1.11 66 16:52 14.03.2021
1479 Clouds -20 1039 50 10000 1.11 66 16:33 14.03.2021
1480 Clouds -20 1039 50 10000 2.25 78 15:57 14.03.2021
1481 Clouds -20 1039 50 10000 2.25 78 15:39 14.03.2021
1482 Clouds -20 1040 52 10000 2.72 74 14:45 14.03.2021
1483 Clouds -20 1040 59 10000 1.87 59 14:26 14.03.2021
1484 Clouds -20 1040 59 10000 1.87 59 13:50 14.03.2021
1485 Clouds -20 1040 59 10000 1.87 59 13:31 14.03.2021
1486 Clouds -19 1038 62 10000 2.16 51 12:47 14.03.2021
1487 Clouds -18 1037 65 10000 1.91 26 12:29 14.03.2021
1488 Clouds -18 1037 65 10000 1.91 26 11:58 14.03.2021
1489 Clouds -18 1037 65 10000 1.91 26 11:36 14.03.2021
1490 Clouds -15 1036 69 10000 1.77 359 10:58 14.03.2021
1491 Clouds -15 1036 69 10000 1.77 359 10:37 14.03.2021
1492 Clouds -14 1035 55 10000 1.87 341 10:19 14.03.2021
1493 Clouds -14 1035 55 10000 1.87 341 09:44 14.03.2021
1494 Clouds -14 1035 50 10000 2.09 331 09:23 14.03.2021
1495 Clouds -14 1035 50 10000 2.09 331 08:49 14.03.2021
1496 Clouds -14 1035 50 10000 2.09 331 08:31 14.03.2021
1497 Clouds -14 1035 49 10000 2.37 357 07:47 14.03.2021
1498 Clouds -14 1035 48 10000 2.36 7 07:19 14.03.2021
1499 Clouds -14 1035 49 10000 2.69 9 05:33 14.03.2021
1500 Snow -12 1023 85 10000 4.57 9 00:53 14.03.2021
1501 Snow -5 1017 95 139 3.75 307 00:20 14.03.2021
1502 Snow -5 1017 95 139 3.75 307 23:53 13.03.2021
1503 Snow -5 1017 95 139 3.75 307 23:35 13.03.2021
1504 Snow -4 1011 96 132 2.43 261 22:55 13.03.2021
1505 Snow -4 1011 96 132 2.43 261 22:36 13.03.2021
1506 Snow -2 1005 93 646 4.59 297 21:49 13.03.2021
1507 Snow 2 1001 67 7803 6.21 238 21:27 13.03.2021
1508 Snow 2 1001 67 7803 6.21 238 20:53 13.03.2021
1509 Snow 2 1001 67 7803 6.21 238 20:31 13.03.2021
1510 Snow 0 999 66 4077 2.93 194 19:56 13.03.2021
1511 Snow 0 999 66 4077 2.93 194 19:32 13.03.2021
1512 Snow 0 998 62 10000 2.61 171 18:58 13.03.2021
1513 Snow 0 998 63 8129 2.69 181 18:39 13.03.2021
1514 Clouds -1 999 60 10000 2.51 177 18:18 13.03.2021
1515 Snow -1 999 60 10000 2.51 177 17:42 13.03.2021
1516 Clouds -1 1000 59 10000 1.78 175 17:24 13.03.2021
1517 Clouds -1 1000 59 10000 1.78 175 16:44 13.03.2021
1518 Clouds -1 1002 60 10000 2.59 143 16:24 13.03.2021
1519 Clouds -1 1002 60 10000 2.59 143 15:39 13.03.2021
1520 Clouds -2 1003 59 10000 2.61 129 14:51 13.03.2021
1521 Clouds -1 1003 60 10000 2.53 125 14:29 13.03.2021
1522 Clouds -1 1003 60 10000 2.53 125 13:47 13.03.2021
1523 Clouds 0 1003 60 10000 3.29 127 13:24 13.03.2021
1524 Snow 0 1002 63 10000 3.16 134 12:43 13.03.2021
1525 Clouds 2 1002 65 10000 2.66 131 12:20 13.03.2021
1526 Clouds 2 1002 65 10000 2.66 131 11:49 13.03.2021
1527 Clouds 2 1002 70 10000 2.25 131 11:28 13.03.2021
1528 Clouds 2 1002 70 10000 2.25 131 10:50 13.03.2021
1529 Clouds 3 1002 80 10000 2.24 142 10:29 13.03.2021
1530 Clouds 3 1002 80 10000 2.24 142 09:47 13.03.2021
1531 Clouds 3 1003 89 10000 1.9 153 08:59 13.03.2021
1532 Clouds 3 1003 89 10000 1.9 153 08:41 13.03.2021
1533 Clear 3 1004 91 10000 2.42 138 08:19 13.03.2021
1534 Clear 3 1004 91 10000 2.42 138 07:46 13.03.2021
1535 Clouds 2 1007 79 10000 2.39 120 06:18 13.03.2021
1536 Clouds -3 1014 65 10000 2.76 95 02:54 13.03.2021
1537 Clouds -6 1015 58 10000 3.31 102 00:56 13.03.2021
1538 Clouds -6 1016 58 10000 2.98 103 23:57 12.03.2021
1539 Clouds -6 1016 58 10000 2.98 103 23:32 12.03.2021
1540 Clear -6 1016 58 10000 2.98 98 22:43 12.03.2021
1541 Clear -6 1017 59 10000 3.03 99 22:23 12.03.2021
1542 Clear -6 1017 59 10000 3.03 99 21:44 12.03.2021
1543 Clear -6 1017 59 10000 3.03 99 21:44 12.03.2021
1544 Clear -6 1017 59 10000 2.92 97 21:25 12.03.2021
1545 Clear -6 1017 59 10000 2.92 97 20:55 12.03.2021
1546 Clear -6 1017 59 10000 2.92 97 20:32 12.03.2021
1547 Clear -5 1018 60 10000 3.05 89 19:58 12.03.2021
1548 Clear -5 1018 60 10000 3.05 89 19:39 12.03.2021
1549 Clouds -5 1018 60 10000 3.04 93 19:18 12.03.2021
1550 Clouds -6 1018 60 10000 3.04 93 18:35 12.03.2021
1551 Clouds -6 1018 60 10000 2.92 90 17:50 12.03.2021
1552 Clouds -6 1018 60 10000 2.92 90 17:30 12.03.2021
1553 Clouds -5 1018 60 10000 3.03 89 16:59 12.03.2021
1554 Clouds -5 1018 60 10000 3.03 89 16:36 12.03.2021
1555 Clouds -5 1018 61 10000 3.12 95 15:52 12.03.2021
1556 Clear -5 1018 62 10000 3.38 100 15:28 12.03.2021
1557 Clear -5 1018 62 10000 3.38 100 14:48 12.03.2021
1558 Clear -4 1018 65 10000 3.14 102 14:21 12.03.2021
1559 Clear -4 1018 65 10000 3.14 102 13:44 12.03.2021
1560 Clear -3 1017 68 10000 2.83 97 13:21 12.03.2021
1561 Clear -3 1017 68 10000 2.83 97 12:57 12.03.2021
1562 Clear -3 1017 87 10000 2.83 97 12:38 12.03.2021
1563 Clear -1 1016 71 10000 2.3 102 12:19 12.03.2021
1564 Clear -1 1016 71 10000 2.3 102 11:49 12.03.2021
1565 Clear 1 1015 74 10000 1.62 117 11:21 12.03.2021
1566 Clear 1 1015 74 10000 1.62 117 10:48 12.03.2021
1567 Clear 2 1015 78 10000 0.97 121 10:24 12.03.2021
1568 Clear 2 1015 78 10000 0.97 121 09:52 12.03.2021
1569 Clear 3 1016 88 10000 0.51 127 09:20 12.03.2021
1570 Clear 3 1016 88 10000 0.51 127 08:44 12.03.2021
1571 Clear 3 1017 91 10000 0.65 163 07:56 12.03.2021
1572 Clear 3 1017 82 10000 0.65 163 07:31 12.03.2021
1573 Clouds 2 1018 86 10000 0.8 145 06:46 12.03.2021
1574 Clouds 2 1018 75 10000 0.66 130 05:57 12.03.2021
1575 Clouds -5 1022 59 10000 2.29 88 02:20 12.03.2021
1576 Clouds -8 1023 45 10000 2.75 105 00:18 12.03.2021
1577 Clouds -8 1022 44 10000 2.97 100 23:19 11.03.2021
1578 Clouds -8 1022 44 10000 2.97 100 22:42 11.03.2021
1579 Clouds -8 1021 44 10000 3.12 93 22:22 11.03.2021
1580 Clouds -8 1021 44 10000 3.12 93 21:46 11.03.2021
1581 Clouds -8 1021 41 10000 3.46 102 21:26 11.03.2021
1582 Clouds -8 1021 41 10000 3.46 102 20:49 11.03.2021
1583 Clouds -8 1021 42 10000 2.64 92 20:27 11.03.2021
1584 Clouds -8 1021 42 10000 2.64 92 19:57 11.03.2021
1585 Clouds -8 1021 42 10000 2.64 92 19:38 11.03.2021
1586 Clouds -7 1021 45 10000 3.19 99 18:56 11.03.2021
1587 Clouds -7 1021 45 10000 3.19 99 18:37 11.03.2021
1588 Clouds -7 1021 46 10000 2.97 98 18:18 11.03.2021
1589 Clouds -7 1021 46 10000 2.97 98 17:40 11.03.2021
1590 Clouds -7 1022 50 10000 3.22 92 16:43 11.03.2021
1591 Clouds -6 1022 56 10000 3.43 93 16:24 11.03.2021
1592 Clouds -6 1022 56 10000 3.43 93 15:44 11.03.2021
1593 Clouds -7 1022 59 10000 3.29 94 15:21 11.03.2021
1594 Clouds -7 1022 59 10000 3.29 94 15:21 11.03.2021
1595 Clouds -7 1022 59 10000 3.29 94 14:45 11.03.2021
1596 Clouds -7 1022 59 10000 3.29 94 14:45 11.03.2021
1597 Clouds -6 1022 64 10000 3.2 89 14:19 11.03.2021
1598 Clouds -6 1022 64 10000 3.2 89 13:46 11.03.2021
1599 Clouds -5 1021 68 10000 2.53 89 13:23 11.03.2021
1600 Clouds -5 1021 66 10000 2.63 89 12:57 11.03.2021
1601 Clouds -5 1021 66 10000 2.63 89 12:36 11.03.2021
1602 Clouds -3 1019 70 10000 1.91 98 12:18 11.03.2021
1603 Clouds -3 1019 70 10000 1.91 98 11:42 11.03.2021
1604 Clouds -1 1018 72 10000 2.1 90 11:19 11.03.2021
1605 Clear 1 1018 88 10000 0.4 96 10:28 11.03.2021
1606 Clear 1 1018 88 10000 0.4 96 09:53 11.03.2021
1607 Clear 1 1018 88 10000 0.4 96 09:34 11.03.2021
1608 Clear 1 1018 84 10000 0.35 213 08:59 11.03.2021
1609 Clear 1 1018 84 10000 0.35 213 08:40 11.03.2021
1610 Clear 1 1019 85 10000 0.74 120 07:59 11.03.2021
1611 Clear 0 1020 87 10000 1.37 121 07:21 11.03.2021
1612 Clear 0 1020 87 10000 1.37 121 06:48 11.03.2021
1613 Clear -1 1021 87 10000 1.2 120 06:23 11.03.2021
1614 Clear -6 1025 88 10000 2.3 88 02:48 11.03.2021
1615 -273 0 0 0 0 0 00:34 11.03.2021
1616 Clouds -8 1025 85 10000 2.55 84 00:33 11.03.2021
1617 Clouds -7 1023 84 10000 2.43 93 23:23 10.03.2021
1618 Clouds -7 1023 84 10000 2.43 93 22:43 10.03.2021
1619 Clouds -5 1023 84 10000 2.58 95 22:21 10.03.2021
1620 Clouds -5 1023 84 10000 2.58 95 21:44 10.03.2021
1621 Clouds -5 1023 84 10000 2.58 95 21:44 10.03.2021
1622 Clouds -6 1022 81 10000 2.42 80 21:23 10.03.2021
1623 Clouds -7 1023 81 10000 2.52 61 20:46 10.03.2021
1624 Clouds -7 1023 80 10000 2.77 68 20:27 10.03.2021
1625 Clouds -7 1023 80 10000 2.77 68 19:48 10.03.2021
1626 Clouds -8 1022 79 10000 2.57 76 19:27 10.03.2021
1627 Clouds -8 1022 79 10000 2.57 76 18:46 10.03.2021
1628 Clouds -8 1022 78 10000 2.48 77 18:24 10.03.2021
1629 Clouds -8 1022 78 10000 2.48 77 18:24 10.03.2021
1630 Clouds -8 1022 78 10000 2.48 77 17:55 10.03.2021
1631 Clouds -8 1022 78 10000 2.48 77 17:37 10.03.2021
1632 Clouds -9 1023 78 10000 2.59 83 17:19 10.03.2021
1633 Clouds -9 1023 78 10000 2.59 83 16:42 10.03.2021
1634 Clouds -9 1022 78 10000 2.59 90 16:22 10.03.2021
1635 Clouds -9 1022 78 10000 2.59 90 15:45 10.03.2021
1636 Clouds -8 1022 80 10000 2.86 88 15:23 10.03.2021
1637 Clouds -8 1022 80 10000 2.86 88 14:48 10.03.2021
1638 Clouds -8 1021 82 10000 2.71 89 14:20 10.03.2021
1639 Clouds -8 1021 82 10000 2.71 89 14:20 10.03.2021
1640 Clouds -8 1021 82 10000 2.71 89 13:51 10.03.2021
1641 Clouds -8 1021 82 10000 2.66 88 13:30 10.03.2021
1642 Clear -7 1019 84 10000 2.37 90 12:46 10.03.2021
1643 Clear -6 1018 85 10000 1.38 107 12:19 10.03.2021
1644 Clear -6 1018 85 10000 1.38 107 11:43 10.03.2021
1645 Clear -3 1017 87 10000 0.66 170 11:19 10.03.2021
1646 Clear -3 1017 87 10000 0.66 170 10:46 10.03.2021
1647 Clear -1 1017 90 10000 1.07 216 10:28 10.03.2021
1648 Clear -1 1017 90 10000 1.07 216 09:45 10.03.2021
1649 Clear 0 1017 87 10000 1.42 225 09:24 10.03.2021
1650 Clear 0 1017 87 10000 1.42 225 09:24 10.03.2021
1651 Clear 0 1017 87 10000 1.42 225 09:24 10.03.2021
1652 Clear 0 1017 87 10000 1.42 225 09:24 10.03.2021
1653 Clear 0 1017 87 10000 1.42 225 08:57 10.03.2021
1654 Clear 0 1017 87 10000 1.42 225 08:39 10.03.2021
1655 Clear 0 1017 84 10000 1.45 205 08:20 10.03.2021
1656 Clear 0 1017 85 10000 1.45 212 07:33 10.03.2021
1657 Clear 0 1018 83 10000 0.87 176 06:57 10.03.2021
1658 Clear 0 1018 83 10000 0.87 176 06:32 10.03.2021
1659 Clear -7 1024 80 10000 2.7 86 02:42 10.03.2021
1660 Clear -11 1025 74 10000 3.09 84 23:52 09.03.2021
1661 Clear -11 1025 76 10000 2.98 87 23:25 09.03.2021
1662 Clear -11 1025 76 10000 2.98 87 22:44 09.03.2021
1663 Clear -10 1025 77 10000 2.84 86 22:26 09.03.2021
1664 Clear -10 1025 77 10000 2.84 86 21:55 09.03.2021
1665 Clear -10 1025 77 10000 2.84 86 21:36 09.03.2021
1666 Clear -10 1026 78 10000 2.72 85 21:18 09.03.2021
1667 Clear -10 1026 78 10000 2.72 85 20:41 09.03.2021
1668 Clear -10 1026 78 10000 2.65 82 20:21 09.03.2021
1669 Clear -10 1026 78 10000 2.65 82 19:51 09.03.2021
1670 Clear -10 1025 79 10000 2.59 81 19:27 09.03.2021
1671 Clear -10 1026 78 10000 2.59 82 18:51 09.03.2021
1672 Clear -10 1026 79 10000 2.54 81 18:27 09.03.2021
1673 Clear -10 1026 79 10000 2.54 81 17:53 09.03.2021
1674 Clear -10 1026 79 10000 2.54 81 17:33 09.03.2021
1675 Clear -9 1026 79 10000 2.6 83 16:55 09.03.2021
1676 Clear -9 1026 79 10000 2.6 83 16:37 09.03.2021
1677 Clear -9 1026 79 10000 2.56 85 16:18 09.03.2021
1678 Clear -9 1026 79 10000 2.56 85 15:43 09.03.2021
1679 Clear -8 1025 79 10000 2.37 82 15:21 09.03.2021
1680 Clear -8 1025 79 10000 2.37 82 14:31 09.03.2021
1681 Clear -7 1024 79 10000 2.05 76 13:59 09.03.2021
1682 Clear -7 1024 79 10000 2.05 76 13:38 09.03.2021
1683 Clouds -7 1023 79 10000 1.42 78 13:19 09.03.2021
1684 Clouds -7 1023 80 10000 1.13 73 12:39 09.03.2021
1685 Clouds -5 1021 82 10000 0.37 29 12:19 09.03.2021
1686 Clouds -5 1021 82 10000 0.37 29 11:42 09.03.2021
1687 Clouds -2 1020 86 10000 0.35 281 11:21 09.03.2021
1688 Clouds -2 1020 86 10000 0.35 281 10:55 09.03.2021
1689 Clouds -2 1020 86 10000 0.35 281 10:55 09.03.2021
1690 Clouds -2 1020 86 10000 0.35 281 10:36 09.03.2021
1691 Clouds 0 1019 89 10000 0.77 245 10:18 09.03.2021
1692 Clouds 0 1019 89 10000 0.77 245 09:41 09.03.2021
1693 Clouds 0 1019 84 10000 0.91 240 09:22 09.03.2021
1694 Clouds 0 1019 84 10000 0.91 240 08:37 09.03.2021
1695 Clouds 0 1019 83 10000 1.18 276 08:18 09.03.2021
1696 Clouds 0 1019 83 10000 1.18 276 07:37 09.03.2021
1697 Clouds 0 1019 84 10000 1.26 265 07:19 09.03.2021
1698 Clouds -1 1020 84 10000 1.23 248 05:55 09.03.2021
1699 Clouds -1 1020 84 10000 1.23 248 05:35 09.03.2021
1700 Clouds -9 1023 75 10000 2.56 94 00:21 09.03.2021
1701 Clouds -9 1023 75 10000 2.56 94 23:42 08.03.2021
1702 Clouds -9 1022 75 10000 2.72 94 23:23 08.03.2021
1703 Clouds -9 1022 75 10000 2.72 94 22:44 08.03.2021
1704 Clouds -9 1022 74 10000 2.73 92 22:26 08.03.2021
1705 Clouds -9 1022 74 10000 2.73 92 21:54 08.03.2021
1706 Clouds -9 1022 74 10000 2.73 92 21:35 08.03.2021
1707 Clouds -9 1023 74 10000 2.79 93 20:45 08.03.2021
1708 Clouds -9 1023 72 10000 2.79 93 20:25 08.03.2021
1709 Clouds -9 1023 72 10000 2.79 93 19:58 08.03.2021
1710 Clear -9 1023 71 10000 2.79 93 19:28 08.03.2021
1711 Clear -9 1023 71 10000 2.82 94 18:39 08.03.2021
1712 Clear -9 1023 70 10000 2.77 93 18:20 08.03.2021
1713 Clear -9 1023 70 10000 2.77 93 17:51 08.03.2021
1714 Clear -9 1023 69 10000 2.8 92 17:25 08.03.2021
1715 Clear -9 1023 69 10000 2.8 92 16:46 08.03.2021
1716 Clear -9 1023 68 10000 2.69 95 16:28 08.03.2021
1717 Clear -9 1023 68 10000 2.69 95 15:49 08.03.2021
1718 Clear -9 1023 70 10000 2.7 97 15:28 08.03.2021
1719 Clear -9 1023 70 10000 2.7 97 14:43 08.03.2021
1720 Clear -8 1023 74 10000 2.53 100 14:20 08.03.2021
1721 Clear -8 1023 74 10000 2.53 100 13:38 08.03.2021
1722 Clouds -7 1022 78 10000 2.19 97 13:19 08.03.2021
1723 Clouds -7 1021 77 10000 2.13 94 12:42 08.03.2021
1724 Clouds -7 1021 77 10000 2.13 94 12:42 08.03.2021
1725 Clouds -6 1020 80 10000 1.5 90 12:23 08.03.2021
1726 Clouds -6 1020 80 10000 1.5 90 11:40 08.03.2021
1727 Clouds -4 1019 83 10000 0.68 98 11:18 08.03.2021
1728 Clouds -4 1019 83 10000 0.68 98 10:43 08.03.2021
1729 Clouds -1 1019 87 10000 0.34 172 10:22 08.03.2021
1730 Clouds -1 1019 87 10000 0.34 172 09:41 08.03.2021
1731 Clouds 0 1019 86 10000 0.26 121 09:22 08.03.2021
1732 Clouds 0 1020 81 10000 0.43 120 08:28 08.03.2021
1733 Clouds -1 1021 80 10000 0.88 94 07:23 08.03.2021
1734 Clouds -1 1021 80 10000 0.88 94 06:43 08.03.2021
1735 Clouds -6 1024 81 10000 1.74 89 03:38 08.03.2021
1736 Clear -11 1026 60 10000 2.56 79 00:44 08.03.2021
1737 Clear -11 1026 61 10000 2.42 83 23:54 07.03.2021
1738 Clear -11 1025 62 10000 2.26 82 23:28 07.03.2021
1739 Clear -11 1025 62 10000 2.26 82 22:59 07.03.2021
1740 Clear -11 1025 62 10000 2.26 82 22:41 07.03.2021
1741 Clear -11 1024 63 10000 2.22 81 22:20 07.03.2021
1742 Clear -11 1024 63 10000 2.22 81 21:42 07.03.2021
1743 Clear -11 1024 65 10000 2.32 81 21:24 07.03.2021
1744 Clear -11 1024 65 10000 2.32 81 20:46 07.03.2021
1745 Clear -11 1024 67 10000 2.43 82 20:28 07.03.2021
1746 Clear -11 1024 67 10000 2.43 82 19:56 07.03.2021
1747 Clear -11 1024 67 10000 2.43 82 19:38 07.03.2021
1748 Clear -11 1025 68 10000 2.45 83 19:19 07.03.2021
1749 Clear -11 1025 68 10000 2.45 83 18:40 07.03.2021
1750 Clear -11 1025 72 10000 2.41 84 18:19 07.03.2021
1751 Clear -11 1025 72 10000 2.41 84 17:39 07.03.2021
1752 Clear -11 1024 75 10000 2.54 85 17:20 07.03.2021
1753 Clear -11 1024 75 10000 2.54 85 16:54 07.03.2021
1754 Clear -11 1024 75 10000 2.54 85 16:36 07.03.2021
1755 Clear -11 1024 75 10000 2.54 85 16:36 07.03.2021
1756 Clear -11 1024 78 10000 2.56 84 16:18 07.03.2021
1757 Clear -11 1024 78 10000 2.56 84 15:41 07.03.2021
1758 Clear -10 1023 81 10000 2.54 85 15:20 07.03.2021
1759 Clear -10 1023 81 10000 2.54 85 14:30 07.03.2021
1760 Clear -10 1023 81 10000 2.54 85 14:30 07.03.2021
1761 Clear -10 1023 83 10000 2.43 86 13:57 07.03.2021
1762 Clear -10 1023 83 10000 2.43 86 13:38 07.03.2021
1763 Clear -9 1022 85 10000 2.1 94 13:18 07.03.2021
1764 Clear -9 1022 85 10000 2.1 94 12:40 07.03.2021
1765 Clear -9 1022 85 10000 2.1 94 12:40 07.03.2021
1766 Clear -8 1020 86 10000 1.33 101 12:21 07.03.2021
1767 Clear -5 1019 88 10000 0.45 112 11:24 07.03.2021
1768 Clear -5 1019 88 10000 0.45 112 10:59 07.03.2021
1769 Clear -5 1019 88 10000 0.45 112 10:38 07.03.2021
1770 Clear -3 1018 90 10000 0.15 231 09:58 07.03.2021
1771 Clear -3 1018 90 10000 0.15 231 09:39 07.03.2021
1772 Clear -2 1018 87 10000 0.22 188 09:19 07.03.2021
1773 Clear -2 1018 87 10000 0.22 188 08:45 07.03.2021
1774 Clear -2 1018 86 10000 0.58 145 08:22 07.03.2021
1775 Clear -3 1020 86 10000 1.04 118 07:23 07.03.2021
1776 Clear -10 1024 85 10000 2.32 91 02:40 07.03.2021
1777 Clear -13 1026 82 10000 2.57 88 00:35 07.03.2021
1778 Clear -13 1025 82 10000 2.59 88 23:41 06.03.2021
1779 Clear -13 1025 82 10000 2.58 88 23:20 06.03.2021
1780 Clear -13 1025 82 10000 2.58 88 22:46 06.03.2021
1781 Clear -12 1025 82 10000 2.55 89 22:24 06.03.2021
1782 Clear -12 1025 82 10000 2.55 89 21:49 06.03.2021
1783 Clear -12 1025 82 10000 2.66 90 21:21 06.03.2021
1784 Clear -12 1025 82 10000 2.66 90 20:44 06.03.2021
1785 Clear -12 1025 83 10000 2.75 88 20:19 06.03.2021
1786 Clear -12 1025 83 10000 2.75 88 19:40 06.03.2021
1787 Clear -12 1026 82 10000 2.78 87 19:18 06.03.2021
1788 Clear -12 1026 82 10000 2.78 87 18:42 06.03.2021
1789 Clear -12 1026 82 10000 2.71 89 18:22 06.03.2021
1790 Clear -12 1026 82 10000 2.71 89 17:55 06.03.2021
1791 Clear -12 1026 82 10000 2.71 89 17:33 06.03.2021
1792 Clear -12 1026 82 10000 2.7 93 16:59 06.03.2021
1793 Clear -12 1026 82 10000 2.7 93 16:37 06.03.2021
1794 Clear -11 1025 83 10000 2.76 96 16:18 06.03.2021
1795 Clear -11 1025 83 10000 2.76 96 15:39 06.03.2021
1796 Clear -11 1025 84 10000 2.75 94 15:21 06.03.2021
1797 Clear -11 1025 84 10000 2.75 94 14:33 06.03.2021
1798 Clear -10 1025 86 10000 2.46 95 13:56 06.03.2021
1799 Clear -10 1025 86 10000 2.46 95 13:37 06.03.2021
1800 Clouds -9 1024 86 10000 1.96 106 13:19 06.03.2021
1801 Clouds -9 1024 86 10000 1.96 106 12:42 06.03.2021
1802 Clouds -9 1023 86 10000 0.97 132 12:19 06.03.2021
1803 Clouds -9 1023 86 10000 0.97 132 11:44 06.03.2021
1804 Clouds -6 1022 88 10000 0.42 194 11:20 06.03.2021
1805 Clouds -6 1022 88 10000 0.42 194 10:44 06.03.2021
1806 Clear -4 1022 90 10000 0.53 257 09:58 06.03.2021
1807 Clear -3 1022 86 10000 0.73 268 09:26 06.03.2021
1808 Clear -3 1022 86 10000 0.73 268 08:58 06.03.2021
1809 Clear -3 1022 86 10000 0.73 268 08:31 06.03.2021
1810 Clear -3 1023 84 10000 0.55 257 07:56 06.03.2021
1811 Clouds -4 1025 82 10000 0.21 85 07:22 06.03.2021
1812 Clouds -4 1025 82 10000 0.21 85 06:42 06.03.2021
1813 Clouds -7 1030 84 10000 1.4 110 03:49 06.03.2021
1814 Clouds -11 1031 77 10000 1.99 85 01:43 06.03.2021
1815 Clouds -11 1031 77 10000 2.05 88 00:47 06.03.2021
1816 Clouds -11 1031 78 10000 2.13 74 23:51 05.03.2021
1817 Clouds -11 1031 79 10000 1.71 87 23:22 05.03.2021
1818 Clouds -11 1031 79 10000 1.71 87 22:45 05.03.2021
1819 Clouds -11 1031 79 10000 1.99 104 22:22 05.03.2021
1820 Clouds -11 1031 79 10000 1.99 104 21:52 05.03.2021
1821 Clouds -11 1031 79 10000 1.99 104 21:32 05.03.2021
1822 Clouds -10 1031 82 10000 2.28 98 20:53 05.03.2021
1823 Clouds -10 1032 82 10000 2.15 87 20:26 05.03.2021
1824 Clouds -10 1032 82 10000 2.15 87 19:55 05.03.2021
1825 Clouds -11 1032 82 10000 2.52 97 19:26 05.03.2021
1826 Clouds -11 1032 82 10000 2.41 94 18:56 05.03.2021
1827 Clouds -11 1032 82 10000 2.41 94 18:38 05.03.2021
1828 Clouds -12 1032 81 10000 2.97 104 18:18 05.03.2021
1829 Clouds -12 1032 81 10000 2.97 104 18:18 05.03.2021
1830 Clouds -12 1032 81 10000 2.97 104 17:34 05.03.2021
1831 Clouds -13 1032 79 10000 2.61 100 16:46 05.03.2021
1832 Clouds -14 1031 78 10000 2.57 93 16:24 05.03.2021
1833 Clouds -14 1031 78 10000 2.57 93 16:24 05.03.2021
1834 Clouds -14 1031 78 10000 2.57 93 15:56 05.03.2021
1835 Clouds -14 1031 78 10000 2.57 93 15:37 05.03.2021
1836 Clouds -13 1031 80 10000 2.84 90 15:18 05.03.2021
1837 Clouds -13 1031 66 10000 2.75 94 14:38 05.03.2021
1838 Clouds -14 1031 66 10000 3.42 99 13:46 05.03.2021
1839 Clouds -13 1030 67 10000 3.39 104 13:22 05.03.2021
1840 Clouds -13 1030 67 10000 3.39 104 12:48 05.03.2021
1841 Clouds -12 1029 70 10000 2.44 107 11:43 05.03.2021
1842 Clear -10 1027 73 10000 2.13 120 11:23 05.03.2021
1843 Clear -10 1027 73 10000 2.13 120 10:59 05.03.2021
1844 Clear -10 1027 73 10000 2.13 120 10:39 05.03.2021
1845 Clear -7 1026 77 10000 1.89 122 10:20 05.03.2021
1846 Clear -7 1026 77 10000 1.89 122 09:46 05.03.2021
1847 Clear -7 1025 68 10000 2.17 126 09:26 05.03.2021
1848 Clear -7 1025 68 10000 2.17 126 08:40 05.03.2021
1849 Clear -7 1026 65 10000 2.1 126 08:21 05.03.2021
1850 Clear -7 1026 65 10000 2.1 126 07:38 05.03.2021
1851 Clear -8 1027 83 10000 2.07 126 06:49 05.03.2021
1852 Clear -8 1027 64 10000 2.07 126 06:30 05.03.2021
1853 Clear -18 1035 54 10000 2.83 94 01:47 05.03.2021
1854 Clear -18 1035 54 10000 2.83 94 01:47 05.03.2021
1855 Clear -18 1035 53 10000 2.83 93 00:34 05.03.2021
1856 Clear -18 1035 69 10000 2.87 89 23:31 04.03.2021
1857 Clear -18 1035 69 10000 2.81 90 22:38 04.03.2021
1858 Clear -18 1035 70 10000 2.67 88 21:56 04.03.2021
1859 Clear -18 1035 70 10000 2.67 88 21:34 04.03.2021
1860 Clear -18 1035 70 10000 2.67 88 21:34 04.03.2021
1861 Clear -18 1035 71 10000 2.62 86 20:59 04.03.2021
1862 Clear -18 1035 71 10000 2.62 86 20:41 04.03.2021
1863 Clear -18 1034 72 10000 2.68 85 20:21 04.03.2021
1864 Clear -18 1034 72 10000 2.68 85 19:53 04.03.2021
1865 Clear -18 1034 74 10000 2.58 82 19:27 04.03.2021
1866 Clear -18 1034 74 10000 2.59 82 18:54 04.03.2021
1867 Clear -18 1034 74 10000 2.59 82 18:31 04.03.2021
1868 Clear -17 1034 76 10000 2.57 80 17:58 04.03.2021
1869 Clear -17 1034 76 10000 2.57 80 17:39 04.03.2021
1870 Clear -17 1034 78 10000 2.6 79 17:18 04.03.2021
1871 Clear -17 1034 78 10000 2.6 79 16:43 04.03.2021
1872 Clear -17 1033 80 10000 2.57 77 16:24 04.03.2021
1873 Clear -17 1033 80 10000 2.57 77 15:46 04.03.2021
1874 Clear -16 1032 81 10000 2.49 75 15:27 04.03.2021
1875 Clear -16 1032 81 10000 2.49 75 14:44 04.03.2021
1876 Clear -15 1031 83 10000 2.4 73 14:18 04.03.2021
1877 Clear -15 1031 83 10000 2.4 73 13:42 04.03.2021
1878 Clouds -15 1030 85 10000 1.98 61 13:22 04.03.2021
1879 Clouds -14 1030 85 10000 2.06 59 12:42 04.03.2021
1880 Clouds -13 1028 88 10000 1.1 35 11:58 04.03.2021
1881 Clouds -13 1028 88 10000 1.1 35 11:40 04.03.2021
1882 Clouds -10 1026 89 10000 0.49 299 11:19 04.03.2021
1883 Clouds -10 1026 89 10000 0.49 299 10:37 04.03.2021
1884 Clouds -8 1024 90 10000 0.98 265 09:55 04.03.2021
1885 Clouds -7 1023 89 10000 1.46 268 09:28 04.03.2021
1886 Clouds -7 1023 89 10000 1.46 268 08:53 04.03.2021
1887 Clouds -7 1023 89 10000 1.68 274 08:28 04.03.2021
1888 Clouds -7 1023 89 10000 1.68 274 07:45 04.03.2021
1889 Clouds -7 1024 87 10000 1.45 295 06:48 04.03.2021
1890 Clouds -8 1024 88 10000 0.96 296 06:21 04.03.2021
1891 Snow -11 1023 90 572 1.18 80 02:39 04.03.2021
1892 Clouds -14 1021 85 10000 1.69 71 00:21 04.03.2021
1893 Clouds -13 1020 85 10000 1.13 83 22:39 03.03.2021
1894 Clouds -14 1018 85 10000 0.39 113 22:20 03.03.2021
1895 Clouds -14 1018 85 10000 0.39 113 21:41 03.03.2021
1896 Clouds -11 1018 85 10000 0.25 99 21:23 03.03.2021
1897 Clouds -11 1018 85 10000 0.25 99 20:54 03.03.2021
1898 Clouds -11 1018 85 10000 0.25 99 20:35 03.03.2021
1899 Clouds -11 1017 86 10000 0.2 146 19:51 03.03.2021
1900 Clouds -12 1018 87 10000 1.03 106 19:30 03.03.2021
1901 Clouds -9 1017 88 10000 1.04 69 18:56 03.03.2021
1902 Clouds -9 1017 88 10000 1.04 69 18:38 03.03.2021
1903 Clouds -8 1017 88 10000 0.51 122 17:58 03.03.2021
1904 Clouds -8 1016 87 10000 0.59 226 17:22 03.03.2021
1905 Clouds -8 1016 87 10000 0.59 226 16:54 03.03.2021
1906 Clouds -7 1015 88 10000 1.8 272 16:27 03.03.2021
1907 Clouds -7 1015 88 10000 1.8 272 15:54 03.03.2021
1908 Clouds -7 1015 88 10000 1.8 272 15:32 03.03.2021
1909 Clouds -6 1014 87 10000 3.21 270 14:50 03.03.2021
1910 Clouds -6 1014 87 10000 3.21 270 14:50 03.03.2021
1911 Clouds -5 1014 84 10000 4.63 256 14:27 03.03.2021
1912 Clouds -5 1014 84 10000 4.63 256 13:46 03.03.2021
1913 Clouds -5 1012 84 7755 4.56 255 13:26 03.03.2021
1914 Clouds -5 1012 84 10000 4.85 258 12:43 03.03.2021
1915 Clouds -5 1011 85 10000 4.36 254 12:23 03.03.2021
1916 Clouds -5 1011 85 10000 4.36 254 11:45 03.03.2021
1917 Clouds -4 1010 86 10000 4.73 262 11:27 03.03.2021
1918 Clouds -4 1010 86 10000 4.73 262 10:45 03.03.2021
1919 Clouds -3 1009 87 10000 4.56 256 10:22 03.03.2021
1920 Clouds -3 1009 87 10000 4.56 256 09:43 03.03.2021
1921 Clouds -2 1009 88 10000 6.16 247 08:54 03.03.2021
1922 Clouds -2 1009 88 10000 4.9 233 08:25 03.03.2021
1923 Clouds -2 1009 88 10000 4.9 233 07:58 03.03.2021
1924 Clouds -2 1009 88 10000 4.9 233 07:33 03.03.2021
1925 Clouds -4 1010 87 10000 3.81 250 06:29 03.03.2021
1926 Clouds -4 1010 87 10000 3.81 250 05:44 03.03.2021
1927 Clouds -4 1011 87 10000 2.78 238 04:48 03.03.2021
1928 Clouds -5 1012 87 10000 1.34 227 04:24 03.03.2021
1929 Clouds -9 1013 86 10000 1.11 140 00:37 03.03.2021
1930 Clouds -9 1013 86 10000 1.5 132 23:35 02.03.2021
1931 Clouds -10 1013 86 10000 1.47 148 22:53 02.03.2021
1932 Clouds -9 1013 86 10000 1.51 147 22:23 02.03.2021
1933 Clouds -9 1013 86 10000 1.51 147 21:55 02.03.2021
1934 Clouds -9 1013 86 10000 1.51 147 21:36 02.03.2021
1935 Clouds -9 1014 87 10000 1.62 150 20:58 02.03.2021
1936 Clouds -9 1014 87 10000 1.62 150 20:40 02.03.2021
1937 Clouds -9 1014 87 10000 1.47 158 20:21 02.03.2021
1938 Clouds -9 1014 87 10000 1.47 158 19:47 02.03.2021
1939 Clouds -8 1014 89 10000 1.37 152 19:28 02.03.2021
1940 Clouds -8 1014 89 10000 1.37 152 18:43 02.03.2021
1941 Clouds -7 1014 90 10000 1.85 144 18:24 02.03.2021
1942 Clouds -7 1014 90 10000 1.85 144 17:58 02.03.2021
1943 Clouds -7 1014 90 10000 1.85 144 17:39 02.03.2021
1944 Clouds -6 1015 91 10000 2.14 130 17:20 02.03.2021
1945 Clouds -6 1015 91 10000 2.14 130 16:47 02.03.2021
1946 Clouds -7 1015 89 7367 1.96 117 15:55 02.03.2021
1947 Clouds -7 1014 87 10000 1.87 121 15:27 02.03.2021
1948 Clouds -7 1014 87 10000 1.87 121 14:50 02.03.2021
1949 Clouds -8 1014 85 10000 1.49 125 14:19 02.03.2021
1950 Clouds -8 1014 85 10000 1.49 125 13:47 02.03.2021
1951 Clouds -7 1014 86 10000 1.18 145 13:24 02.03.2021
1952 Clouds -8 1014 85 10000 1.3 138 12:47 02.03.2021
1953 Clouds -7 1013 86 10000 0.84 156 12:25 02.03.2021
1954 Clouds -7 1013 86 10000 0.84 156 11:45 02.03.2021
1955 Clouds -5 1012 88 10000 0.93 208 11:23 02.03.2021
1956 Clouds -5 1012 88 10000 0.93 208 10:49 02.03.2021
1957 Clouds -3 1012 90 10000 1.03 215 10:29 02.03.2021
1958 Clouds -3 1012 90 10000 1.03 215 09:41 02.03.2021
1959 Clouds -3 1012 87 10000 1.25 227 09:22 02.03.2021
1960 Clouds -3 1012 87 10000 1.25 227 08:44 02.03.2021
1961 Clouds -3 1012 86 10000 1.49 224 08:26 02.03.2021
1962 Clouds -3 1012 86 10000 1.49 224 07:43 02.03.2021
1963 Clouds -4 1013 86 10000 1.85 222 06:37 02.03.2021
1964 Clouds -4 1014 85 10000 1.64 219 05:47 02.03.2021
1965 Clouds -5 1015 85 10000 1.21 212 05:29 02.03.2021
1966 Clouds -8 1017 85 10000 1.54 126 03:29 02.03.2021
1967 Clouds -10 1017 81 10000 1.64 115 01:42 02.03.2021
1968 Clouds -11 1018 80 10000 1.85 98 01:19 02.03.2021
1969 Clouds -11 1019 80 10000 2 91 23:29 01.03.2021
1970 Clouds -11 1019 80 10000 2 91 22:43 01.03.2021
1971 Clouds -12 1019 80 10000 2.17 94 22:25 01.03.2021
1972 Clouds -12 1019 80 10000 2.17 94 21:52 01.03.2021
1973 Clouds -12 1020 80 10000 2.26 94 21:24 01.03.2021
1974 Clouds -12 1020 80 10000 2.26 94 20:59 01.03.2021
1975 Clouds -12 1020 80 10000 2.26 94 20:39 01.03.2021
1976 Clouds -12 1020 80 10000 2.35 92 20:18 01.03.2021
1977 Clouds -12 1020 80 10000 2.35 92 19:42 01.03.2021
1978 Clouds -13 1021 79 10000 2.28 92 19:18 01.03.2021
1979 Clouds -13 1021 79 10000 2.28 92 18:40 01.03.2021
1980 Clouds -13 1021 79 10000 2.35 93 18:21 01.03.2021
1981 Clouds -13 1021 79 10000 2.35 93 17:42 01.03.2021
1982 Clouds -13 1022 79 10000 2.49 96 17:20 01.03.2021
1983 Clouds -13 1022 79 10000 2.49 96 16:46 01.03.2021
1984 Clouds -13 1022 79 10000 2.63 102 16:26 01.03.2021
1985 Clouds -13 1022 79 10000 2.63 102 16:26 01.03.2021
1986 Clouds -13 1022 79 10000 2.63 102 15:42 01.03.2021
1987 Clouds -13 1022 80 10000 2.52 106 15:22 01.03.2021
1988 Clouds -13 1022 80 10000 2.52 106 14:49 01.03.2021
1989 Clouds -13 1022 80 10000 2.52 106 14:30 01.03.2021
1990 Clear -13 1023 81 10000 2.33 112 13:44 01.03.2021
1991 Clouds -12 1022 82 10000 1.62 123 13:25 01.03.2021
1992 Clouds -12 1022 82 10000 1.62 123 13:24 01.03.2021
1993 Clouds -12 1022 82 10000 1.8 120 12:58 01.03.2021
1994 Clouds -12 1022 82 10000 1.8 120 12:38 01.03.2021
1995 Clouds -11 1022 84 10000 0.98 161 12:19 01.03.2021
1996 Clouds -11 1022 84 10000 0.98 161 11:42 01.03.2021
1997 Clouds -8 1021 86 10000 0.95 178 10:45 01.03.2021
1998 Clouds -7 1021 87 10000 0.74 155 10:23 01.03.2021
1999 Clouds -7 1021 87 10000 0.74 155 09:59 01.03.2021
2000 Clouds -7 1021 87 10000 0.74 155 09:40 01.03.2021
2001 Clouds -7 1022 82 10000 1.05 118 09:21 01.03.2021
2002 Clouds -7 1022 82 10000 1.05 118 09:21 01.03.2021
2003 Clouds -7 1022 82 10000 1.05 118 08:51 01.03.2021
2004 Clouds -7 1023 81 10000 1.55 109 08:20 01.03.2021
2005 Clouds -9 1025 80 10000 1.66 110 06:53 01.03.2021
2006 Clear -13 1030 79 10000 1.92 100 04:45 01.03.2021
2007 Clouds -21 1037 69 10000 2.66 88 00:56 01.03.2021
2008 Clouds -21 1037 69 10000 2.63 87 23:36 28.02.2021
2009 Clouds -22 1038 68 10000 2.73 87 22:51 28.02.2021
2010 Clouds -22 1038 68 10000 2.68 85 22:23 28.02.2021
2011 Clouds -22 1038 68 10000 2.68 85 21:51 28.02.2021
2012 Clouds -22 1039 68 10000 2.47 89 21:28 28.02.2021
2013 Clouds -22 1039 68 10000 2.47 89 21:28 28.02.2021
2014 Clouds -22 1039 68 10000 2.47 89 20:56 28.02.2021
2015 Clouds -22 1039 68 10000 2.47 89 20:36 28.02.2021
2016 Clear -22 1039 69 10000 2.47 90 19:47 28.02.2021
2017 Clear -23 1039 69 10000 2.54 87 19:28 28.02.2021
2018 Clear -23 1039 69 10000 2.54 87 18:59 28.02.2021
2019 Clear -23 1039 69 10000 2.54 87 18:38 28.02.2021
2020 Clear -23 1039 69 10000 2.53 87 18:19 28.02.2021
2021 Clear -23 1039 69 10000 2.53 87 17:46 28.02.2021
2022 Clear -23 1040 70 10000 2.48 87 17:27 28.02.2021
2023 Clear -23 1040 70 10000 2.48 87 16:51 28.02.2021
2024 Clear -23 1040 70 10000 2.48 87 16:30 28.02.2021
2025 Clear -22 1039 71 10000 2.42 88 15:53 28.02.2021
2026 Clear -22 1039 71 10000 2.42 88 15:31 28.02.2021
2027 Clear -22 1039 71 10000 2.36 89 14:59 28.02.2021
2028 Clear -22 1039 71 10000 2.36 89 14:39 28.02.2021
2029 Clear -21 1038 72 10000 2.26 87 14:20 28.02.2021
2030 Clear -22 1038 71 10000 2.31 86 13:42 28.02.2021
2031 Clear -21 1037 71 10000 1.98 84 13:19 28.02.2021
2032 Clear -21 1037 71 10000 1.98 84 12:55 28.02.2021
2033 Clear -21 1037 71 10000 1.98 84 12:36 28.02.2021
2034 Clear -20 1036 74 10000 1.15 68 12:18 28.02.2021
2035 Clear -20 1036 74 10000 1.15 68 11:42 28.02.2021
2036 Clear -18 1035 77 10000 0.48 13 11:22 28.02.2021
2037 Clear -18 1035 77 10000 0.48 13 10:49 28.02.2021
2038 Clear -15 1034 82 10000 0.51 303 10:26 28.02.2021
2039 Clear -15 1034 82 10000 0.51 303 09:42 28.02.2021
2040 Clear -15 1034 82 10000 0.51 303 09:42 28.02.2021
2041 Clear -14 1033 76 10000 0.81 283 09:24 28.02.2021
2042 Clear -14 1033 76 10000 0.81 283 08:47 28.02.2021
2043 Clear -14 1034 75 10000 1.09 278 08:29 28.02.2021
2044 Clear -14 1034 75 10000 1.09 278 07:52 28.02.2021
2045 Clear -14 1034 74 10000 1 289 07:30 28.02.2021
2046 Clear -15 1036 72 10000 0.46 236 06:27 28.02.2021
2047 Clear -17 1037 73 10000 0.69 128 05:24 28.02.2021
2048 Clear -21 1038 71 10000 1.79 86 03:26 28.02.2021
2049 Clear -23 1038 66 10000 2.07 84 01:41 28.02.2021
2050 Clear -23 1038 66 10000 2.09 83 00:49 28.02.2021
2051 Clear -23 1037 66 10000 2.3 78 00:25 28.02.2021
2052 Clear -23 1037 66 10000 2.3 78 23:44 27.02.2021
2053 Clear -23 1036 65 10000 2.36 78 23:19 27.02.2021
2054 Clear -23 1036 65 10000 2.36 78 22:44 27.02.2021
2055 Clear -23 1036 65 10000 2.26 82 22:19 27.02.2021
2056 Clear -23 1036 65 10000 2.26 82 21:42 27.02.2021
2057 Clear -23 1035 65 10000 2.19 82 21:23 27.02.2021
2058 Clear -23 1035 65 10000 2.19 82 20:48 27.02.2021
2059 Clear -23 1035 65 10000 2.28 83 20:27 27.02.2021
2060 Clear -23 1035 65 10000 2.28 83 19:45 27.02.2021
2061 Clear -23 1034 65 10000 2.43 85 19:27 27.02.2021
2062 Clear -23 1033 65 10000 2.42 83 18:45 27.02.2021
2063 Clear -23 1033 66 10000 2.46 82 18:21 27.02.2021
2064 Clear -23 1033 66 10000 2.46 82 17:55 27.02.2021
2065 Clear -23 1033 66 10000 2.46 82 17:36 27.02.2021
2066 Clear -23 1033 66 10000 2.46 82 17:36 27.02.2021
2067 Clear -23 1033 67 10000 2.6 84 17:18 27.02.2021
2068 Clear -23 1033 67 10000 2.6 84 16:48 27.02.2021
2069 Clear -23 1032 68 10000 2.69 84 16:25 27.02.2021
2070 Clear -23 1032 68 10000 2.69 84 15:41 27.02.2021
2071 Clear -22 1032 68 10000 2.69 83 14:57 27.02.2021
2072 Clear -22 1032 68 10000 2.69 83 14:39 27.02.2021
2073 Clear -22 1031 69 10000 2.64 81 14:19 27.02.2021
2074 Clear -22 1031 69 10000 2.64 81 13:37 27.02.2021
2075 Clear -21 1030 70 10000 2.41 76 13:18 27.02.2021
2076 Clear -21 1030 70 10000 2.41 76 12:40 27.02.2021
2077 Clear -20 1029 72 10000 1.57 70 12:22 27.02.2021
2078 Clear -20 1029 72 10000 1.57 70 11:43 27.02.2021
2079 Clear -18 1028 75 10000 0.67 63 11:24 27.02.2021
2080 Clear -18 1028 75 10000 0.67 63 10:47 27.02.2021
2081 Clear -15 1027 80 10000 0.33 15 10:28 27.02.2021
2082 Clear -15 1027 80 10000 0.33 15 09:51 27.02.2021
2083 Clear -14 1027 73 10000 0.49 279 09:26 27.02.2021
2084 Clear -14 1027 73 10000 0.49 279 08:42 27.02.2021
2085 Clear -14 1027 71 10000 0.96 250 08:21 27.02.2021
2086 Clear -14 1027 71 10000 0.96 250 07:42 27.02.2021
2087 Clear -17 1030 72 10000 1.25 104 05:18 27.02.2021
2088 Clear -24 1032 65 10000 2.04 84 00:56 27.02.2021
2089 Clear -24 1032 66 10000 2.07 82 23:55 26.02.2021
2090 Clear -24 1032 66 10000 2.07 82 23:30 26.02.2021
2091 Clear -24 1031 66 10000 2.03 81 22:59 26.02.2021
2092 Clear -24 1031 66 10000 2.03 81 22:30 26.02.2021
2093 Clear -23 1031 67 10000 2.06 84 21:47 26.02.2021
2094 Clear -23 1030 68 10000 2.19 88 21:28 26.02.2021
2095 Clear -23 1030 68 10000 2.19 88 20:44 26.02.2021
2096 Clear -23 1030 68 10000 2.19 88 20:44 26.02.2021
2097 Clear -23 1030 68 10000 2.28 89 20:22 26.02.2021
2098 Clear -23 1030 68 10000 2.28 89 19:52 26.02.2021
2099 Clear -22 1029 68 10000 2.3 92 19:25 26.02.2021
2100 Clear -22 1028 67 10000 2.28 81 18:46 26.02.2021
2101 Clear -22 1028 68 10000 1.97 68 18:23 26.02.2021
2102 Clear -22 1028 68 10000 1.97 68 17:44 26.02.2021
2103 Clear -21 1028 68 10000 1.65 69 17:26 26.02.2021
2104 Clear -21 1028 68 10000 1.65 69 16:53 26.02.2021
2105 Clear -21 1028 68 10000 1.65 69 16:32 26.02.2021
2106 Clouds -20 1027 68 10000 1.32 77 15:58 26.02.2021
2107 Clouds -20 1027 68 10000 1.32 77 15:39 26.02.2021
2108 Clouds -20 1026 69 10000 0.93 77 15:20 26.02.2021
2109 Clouds -20 1026 69 10000 0.93 77 14:47 26.02.2021
2110 Clouds -19 1025 71 10000 0.97 60 14:26 26.02.2021
2111 Clouds -19 1025 71 10000 0.97 60 13:46 26.02.2021
2112 Clouds -18 1024 71 10000 1.39 83 13:25 26.02.2021
2113 Clouds -18 1024 71 10000 1.39 83 12:40 26.02.2021
2114 Clouds -16 1022 75 10000 1.37 347 11:58 26.02.2021
2115 Clouds -16 1022 75 10000 1.37 347 11:38 26.02.2021
2116 Clouds -11 1019 82 10000 5.35 292 10:54 26.02.2021
2117 Clouds -9 1017 86 10000 4.97 243 09:59 26.02.2021
2118 Clouds -9 1017 86 10000 4.97 243 09:39 26.02.2021
2119 Clouds -8 1016 86 10000 5.33 252 09:21 26.02.2021
2120 Clouds -8 1015 83 10000 4.76 261 08:29 26.02.2021
2121 Clouds -8 1015 83 10000 4.76 261 07:52 26.02.2021
2122 Clouds -8 1016 81 10000 4.8 255 06:43 26.02.2021
2123 Clouds -8 1016 81 10000 4.8 255 06:43 26.02.2021
2124 Clouds -8 1016 80 10000 3.32 253 05:32 26.02.2021
2125 Clouds -8 1018 88 10000 2.47 245 03:49 26.02.2021
2126 Snow -8 1018 92 5892 1.81 191 02:36 26.02.2021
2127 Snow -6 1014 94 172 2.96 297 00:18 26.02.2021
2128 Snow -6 1013 95 105 2.29 276 23:28 25.02.2021
2129 Snow -6 1013 95 105 2.29 276 22:50 25.02.2021
2130 Snow -5 1011 95 191 1.1 234 22:27 25.02.2021
2131 Snow -5 1011 95 191 1.1 234 21:45 25.02.2021
2132 Snow -5 1010 93 300 1.03 287 21:26 25.02.2021
2133 Snow -5 1010 93 300 1.03 287 20:41 25.02.2021
2134 Clouds -5 1009 88 10000 1.46 117 20:23 25.02.2021
2135 Clouds -5 1009 88 10000 1.46 117 20:23 25.02.2021
2136 Clouds -5 1009 88 10000 1.46 117 19:52 25.02.2021
2137 Clouds -4 1009 88 10000 2.71 107 19:22 25.02.2021
2138 Clouds -4 1010 88 10000 2.66 96 18:58 25.02.2021
2139 Clouds -5 1009 86 10000 2.06 108 18:27 25.02.2021
2140 Clouds -5 1009 86 10000 2.06 108 17:49 25.02.2021
2141 Clouds -6 1009 85 10000 3.25 120 17:26 25.02.2021
2142 Clouds -6 1009 85 10000 3.25 120 16:48 25.02.2021
2143 Clouds -6 1008 84 10000 2.96 110 16:25 25.02.2021
2144 Clouds -6 1008 84 10000 2.96 110 15:30 25.02.2021
2145 Snow -6 1008 84 10000 2.74 108 14:58 25.02.2021
2146 Clouds -6 1008 84 10000 2.97 107 14:26 25.02.2021
2147 Clouds -6 1008 84 10000 2.97 107 13:53 25.02.2021
2148 Clouds -5 1008 85 10000 3.22 103 13:26 25.02.2021
2149 Clouds -5 1008 86 10000 2.95 103 12:55 25.02.2021
2150 Snow -4 1007 87 10000 3.71 109 12:22 25.02.2021
2151 Snow -4 1007 87 10000 3.71 109 11:47 25.02.2021
2152 Clouds -3 1007 87 5818 3.9 115 11:20 25.02.2021
2153 Clouds -3 1007 87 5818 3.9 115 10:45 25.02.2021
2154 Clouds -2 1007 88 10000 3.31 120 10:26 25.02.2021
2155 Clouds -2 1007 88 10000 3.31 120 09:43 25.02.2021
2156 Clouds -1 1007 88 10000 2.87 128 08:56 25.02.2021
2157 Clouds -1 1008 87 10000 2.65 115 08:25 25.02.2021
2158 Clouds -1 1008 87 10000 2.65 115 07:56 25.02.2021
2159 Clouds -1 1008 87 10000 2.7 114 07:31 25.02.2021
2160 Clouds -2 1009 87 10000 2.68 113 06:53 25.02.2021
2161 Clouds -10 1019 77 10000 3.26 102 01:59 25.02.2021
2162 Clouds -10 1019 76 10000 3.08 99 01:37 25.02.2021
2163 Clouds -10 1020 76 10000 3.21 102 00:41 25.02.2021
2164 Clouds -10 1021 75 10000 3.15 102 23:52 24.02.2021
2165 Clouds -10 1021 74 10000 3.24 102 23:27 24.02.2021
2166 Clouds -10 1021 74 10000 3.24 102 22:44 24.02.2021
2167 Clouds -10 1021 73 10000 3.16 94 22:25 24.02.2021
2168 Clouds -10 1021 73 10000 3.16 94 21:45 24.02.2021
2169 Clear -10 1022 73 10000 3.22 89 20:56 24.02.2021
2170 Clear -10 1022 73 10000 3.22 89 20:37 24.02.2021
2171 Clear -11 1023 73 10000 3.16 90 20:18 24.02.2021
2172 Clear -11 1023 73 10000 3.01 92 19:29 24.02.2021
2173 Clear -11 1023 73 10000 3.05 90 18:56 24.02.2021
2174 Clear -11 1023 73 10000 3.05 90 18:34 24.02.2021
2175 Clear -11 1023 73 10000 3.1 91 17:56 24.02.2021
2176 Clear -11 1023 73 10000 3.1 91 17:30 24.02.2021
2177 Clear -11 1023 73 10000 3.1 91 17:30 24.02.2021
2178 Clear -11 1023 73 10000 3.1 91 17:30 24.02.2021
2179 Clear -11 1024 72 10000 3.08 92 16:57 24.02.2021
2180 Clear -11 1024 72 10000 3.08 92 16:39 24.02.2021
2181 Clear -11 1023 73 10000 2.81 96 16:19 24.02.2021
2182 Clear -11 1023 73 10000 2.81 96 15:38 24.02.2021
2183 Clear -11 1023 74 10000 2.88 96 14:53 24.02.2021
2184 Clear -11 1023 74 10000 2.88 96 14:34 24.02.2021
2185 Clear -11 1023 75 10000 2.91 99 13:58 24.02.2021
2186 Clear -11 1023 75 10000 2.91 99 13:38 24.02.2021
2187 Clear -10 1022 77 10000 2.66 100 13:19 24.02.2021
2188 Clear -10 1022 77 10000 2.66 100 12:43 24.02.2021
2189 Clear -9 1021 79 10000 2.18 104 12:23 24.02.2021
2190 Clear -9 1021 79 10000 2.18 104 11:45 24.02.2021
2191 Clear -7 1020 82 10000 1.64 121 10:51 24.02.2021
2192 Clear -5 1020 86 10000 0.84 153 10:29 24.02.2021
2193 Clear -5 1020 86 10000 0.84 153 09:41 24.02.2021
2194 Clear -4 1020 88 10000 0.81 166 09:19 24.02.2021
2195 Clear -4 1020 88 10000 0.81 166 08:34 24.02.2021
2196 Clear -4 1020 83 10000 0.83 155 07:55 24.02.2021
2197 Clear -5 1021 81 10000 0.99 148 07:20 24.02.2021
2198 Clear -6 1022 80 10000 1.06 134 06:20 24.02.2021
2199 Clear -12 1026 77 10000 2.26 98 03:25 24.02.2021
2200 Clear -14 1025 74 10000 2.19 91 00:20 24.02.2021
2201 Clear -14 1024 75 10000 2.38 89 23:20 23.02.2021
2202 Clear -14 1024 75 10000 2.38 89 22:37 23.02.2021
2203 Clouds -14 1024 75 10000 2.47 89 22:19 23.02.2021
2204 Clouds -14 1024 75 10000 2.47 89 21:41 23.02.2021
2205 Clouds -13 1024 75 10000 2.46 84 21:22 23.02.2021
2206 Clouds -13 1024 75 10000 2.46 84 20:47 23.02.2021
2207 Clouds -13 1024 75 10000 2.46 84 20:47 23.02.2021
2208 Clouds -13 1023 76 10000 2.41 88 20:29 23.02.2021
2209 Clouds -13 1023 76 10000 2.41 88 19:47 23.02.2021
2210 Clouds -13 1023 77 10000 2.24 89 19:27 23.02.2021
2211 Clouds -14 1023 75 10000 2.21 90 18:53 23.02.2021
2212 Clouds -14 1023 75 10000 2.21 90 18:31 23.02.2021
2213 Clouds -13 1023 76 10000 2.44 87 17:54 23.02.2021
2214 Clouds -13 1023 76 10000 2.44 87 17:30 23.02.2021
2215 Clear -13 1023 77 10000 2.37 93 16:48 23.02.2021
2216 Clear -13 1023 78 10000 2.33 98 16:25 23.02.2021
2217 Clear -13 1023 78 10000 2.33 98 15:52 23.02.2021
2218 Clear -13 1023 78 10000 2.33 98 15:34 23.02.2021
2219 Clear -12 1022 78 10000 2.48 96 14:59 23.02.2021
2220 Clear -12 1022 78 10000 2.48 96 14:40 23.02.2021
2221 Clear -12 1021 79 10000 2.28 105 14:20 23.02.2021
2222 Clear -12 1021 79 10000 2.28 105 13:43 23.02.2021
2223 Clear -11 1021 80 10000 2.04 113 13:21 23.02.2021
2224 Clear -11 1021 80 10000 2.04 113 12:49 23.02.2021
2225 Clear -11 1020 82 10000 1.26 145 12:20 23.02.2021
2226 Clear -11 1020 82 10000 1.26 145 11:46 23.02.2021
2227 Clear -9 1020 84 10000 0.93 201 11:20 23.02.2021
2228 Clear -9 1020 84 10000 0.93 201 10:40 23.02.2021
2229 Clear -6 1019 87 10000 1.07 222 10:19 23.02.2021
2230 Clear -6 1019 87 10000 1.07 222 09:42 23.02.2021
2231 Clear -5 1019 85 10000 1.39 225 09:21 23.02.2021
2232 Clear -5 1019 85 10000 1.39 225 08:48 23.02.2021
2233 Clear -5 1019 82 10000 1.66 226 08:21 23.02.2021
2234 Clear -5 1019 82 10000 1.66 226 07:48 23.02.2021
2235 Clouds -8 1023 84 10000 0.74 148 05:29 23.02.2021
2236 Clouds -11 1025 83 10000 1.76 112 02:54 23.02.2021
2237 Clouds -11 1025 83 10000 1.76 112 02:33 23.02.2021
2238 Clear -15 1024 76 10000 1.48 100 00:20 23.02.2021
2239 Clear -15 1024 76 10000 1.48 100 23:46 22.02.2021
2240 Clear -14 1024 75 10000 1.93 115 23:18 22.02.2021
2241 Clear -14 1024 75 10000 1.93 115 22:39 22.02.2021
2242 Clear -14 1024 74 10000 1.85 119 22:20 22.02.2021
2243 Clear -14 1024 74 10000 1.85 119 21:38 22.02.2021
2244 Clear -14 1024 73 10000 1.9 118 21:20 22.02.2021
2245 Clear -14 1024 73 10000 1.9 118 20:48 22.02.2021
2246 Clear -14 1024 73 10000 2.01 121 20:27 22.02.2021
2247 Clear -14 1024 73 10000 2.01 121 19:50 22.02.2021
2248 Clear -14 1024 73 10000 2.01 121 19:30 22.02.2021
2249 Clear -14 1024 73 10000 2.01 121 19:30 22.02.2021
2250 Clouds -14 1025 72 10000 2.4 116 18:49 22.02.2021
2251 Clouds -13 1025 73 10000 2.67 110 18:29 22.02.2021
2252 Clouds -13 1025 73 10000 2.67 110 17:51 22.02.2021
2253 Clouds -13 1026 73 10000 2.81 105 17:22 22.02.2021
2254 Clouds -13 1026 73 10000 2.81 105 16:51 22.02.2021
2255 Clouds -13 1026 73 10000 2.81 105 16:30 22.02.2021
2256 Clear -13 1026 73 10000 2.95 100 15:36 22.02.2021
2257 Clear -13 1026 75 10000 2.93 101 14:54 22.02.2021
2258 Clear -13 1026 75 10000 2.93 101 14:35 22.02.2021
2259 Clear -13 1026 78 10000 3.13 95 13:58 22.02.2021
2260 Clear -13 1026 78 10000 3.13 95 13:36 22.02.2021
2261 Clear -12 1025 79 10000 2.94 100 12:52 22.02.2021
2262 Clear -11 1025 81 10000 2.06 114 12:23 22.02.2021
2263 Clear -11 1025 81 10000 2.06 114 11:56 22.02.2021
2264 Clear -11 1025 81 10000 2.06 114 11:32 22.02.2021
2265 Clear -9 1024 84 10000 1.54 170 10:59 22.02.2021
2266 Clear -9 1024 84 10000 1.54 170 10:39 22.02.2021
2267 Clear -7 1024 87 10000 1.08 173 10:19 22.02.2021
2268 Clear -7 1024 87 10000 1.08 173 09:37 22.02.2021
2269 Clear -6 1024 87 10000 1.4 223 09:19 22.02.2021
2270 Clear -6 1024 87 10000 1.4 223 08:49 22.02.2021
2271 Clear -6 1024 84 10000 1.82 234 08:20 22.02.2021
2272 Clear -6 1024 84 10000 1.82 234 07:42 22.02.2021
2273 Clear -7 1026 84 10000 1.77 230 07:20 22.02.2021
2274 Clear -7 1026 84 10000 1.25 200 06:25 22.02.2021
2275 Clear -10 1029 84 10000 1.75 127 04:25 22.02.2021
2276 Clear -13 1029 78 10000 1.78 113 03:22 22.02.2021
2277 Clouds -14 1029 75 10000 1.9 92 00:54 22.02.2021
2278 Clouds -13 1029 75 10000 2.15 95 00:28 22.02.2021
2279 Clouds -13 1029 75 10000 2.15 95 23:52 21.02.2021
2280 Clouds -14 1028 74 10000 2.17 92 23:23 21.02.2021
2281 Clouds -13 1028 75 10000 2 90 22:28 21.02.2021
2282 Clouds -13 1028 75 10000 2 90 21:52 21.02.2021
2283 Clouds -13 1028 75 10000 2 90 21:33 21.02.2021
2284 Clouds -13 1029 72 10000 2.24 94 20:57 21.02.2021
2285 Clouds -14 1030 70 10000 2.33 89 20:23 21.02.2021
2286 Clouds -14 1030 70 10000 2.33 89 19:59 21.02.2021
2287 Clouds -14 1030 70 10000 2.33 89 19:40 21.02.2021
2288 Clouds -15 1030 68 10000 2.65 88 19:21 21.02.2021
2289 Clouds -15 1030 68 10000 2.5 88 18:29 21.02.2021
2290 Clouds -15 1030 68 10000 2.5 88 17:57 21.02.2021
2291 Clouds -14 1030 69 10000 2.7 85 17:25 21.02.2021
2292 Clouds -14 1030 69 10000 2.7 85 16:53 21.02.2021
2293 Clouds -14 1030 69 10000 2.7 85 16:31 21.02.2021
2294 Clear -15 1030 69 10000 2.43 84 15:43 21.02.2021
2295 Clear -14 1029 73 10000 2.51 80 15:19 21.02.2021
2296 Clear -14 1029 73 10000 2.51 80 14:40 21.02.2021
2297 Clear -14 1029 76 10000 2.48 77 14:19 21.02.2021
2298 Clear -14 1029 76 10000 2.52 78 13:30 21.02.2021
2299 Clear -13 1029 79 10000 2.51 77 12:59 21.02.2021
2300 Clear -13 1028 82 10000 2.02 81 12:28 21.02.2021
2301 Clear -13 1028 82 10000 2.02 81 11:43 21.02.2021
2302 Clear -10 1027 85 10000 1.52 81 10:57 21.02.2021
2303 Clear -8 1026 88 10000 0.77 90 10:22 21.02.2021
2304 Clear -8 1026 88 10000 0.77 90 09:52 21.02.2021
2305 Clear -7 1026 87 10000 0.48 175 09:27 21.02.2021
2306 Clear -7 1026 87 10000 0.48 175 08:43 21.02.2021
2307 Clear -7 1026 86 10000 0.85 207 08:19 21.02.2021
2308 Clear -7 1027 86 10000 0.88 201 07:31 21.02.2021
2309 Clear -8 1027 86 10000 0.84 162 06:47 21.02.2021
2310 Clear -13 1030 86 10000 2.13 58 02:48 21.02.2021
2311 Clear -14 1029 85 10000 2.53 47 02:29 21.02.2021
2312 Clouds -14 1027 86 10000 0.85 81 00:37 21.02.2021
2313 Clouds -13 1026 87 10000 1.44 156 00:18 21.02.2021
2314 Clouds -12 1024 88 10000 1.83 164 22:59 20.02.2021
2315 Clouds -12 1024 88 10000 1.83 164 22:40 20.02.2021
2316 Clouds -11 1022 88 10000 1.82 183 22:19 20.02.2021
2317 Clouds -11 1022 88 10000 1.82 183 21:41 20.02.2021
2318 Clouds -10 1021 88 10000 1.79 168 21:19 20.02.2021
2319 Clouds -10 1021 88 10000 1.79 168 20:42 20.02.2021
2320 Clouds -10 1020 89 10000 1.83 172 20:21 20.02.2021
2321 Clouds -10 1020 89 10000 1.83 172 19:49 20.02.2021
2322 Clouds -8 1019 91 10000 1.96 189 19:19 20.02.2021
2323 Clouds -8 1019 91 10000 1.96 189 18:37 20.02.2021
2324 Snow -6 1018 93 7390 1.81 200 18:19 20.02.2021
2325 Snow -6 1018 93 7390 1.81 200 17:36 20.02.2021
2326 Snow -6 1017 93 1966 1.02 225 16:54 20.02.2021
2327 Snow -6 1017 93 5434 1.4 160 16:27 20.02.2021
2328 Snow -6 1017 93 5434 1.4 160 16:27 20.02.2021
2329 Snow -6 1017 93 5434 1.4 160 15:44 20.02.2021
2330 Snow -6 1016 92 7501 0.54 148 15:18 20.02.2021
2331 Snow -6 1016 92 7501 0.54 148 14:43 20.02.2021
2332 Clouds -7 1015 90 6041 1.07 348 14:22 20.02.2021
2333 Clouds -7 1015 90 6041 1.07 348 13:40 20.02.2021
2334 Clouds -4 1012 88 10000 0.55 230 13:22 20.02.2021
2335 Clouds -4 1012 88 10000 0.55 230 12:47 20.02.2021
2336 Clouds -4 1011 88 10000 0.98 234 11:56 20.02.2021
2337 Clouds -4 1011 88 10000 0.98 234 11:38 20.02.2021
2338 Clouds -2 1009 88 10000 1.29 230 10:55 20.02.2021
2339 Clouds -2 1009 88 10000 1.29 230 10:32 20.02.2021
2340 Clouds 0 1008 90 10000 2.16 226 09:48 20.02.2021
2341 Clouds 1 1006 84 10000 2.66 232 09:18 20.02.2021
2342 Clouds 1 1006 84 10000 2.66 232 08:31 20.02.2021
2343 Clouds 2 1006 82 10000 3.02 235 07:50 20.02.2021
2344 Clouds -2 1006 82 10000 1.28 108 02:37 20.02.2021
2345 Clouds -3 1006 79 10000 2.3 120 02:19 20.02.2021
2346 Clouds -4 1006 77 10000 1.58 103 01:21 20.02.2021
2347 Clouds -4 1006 77 10000 1.72 103 00:45 20.02.2021
2348 Clouds -5 1006 73 10000 1.9 111 23:43 19.02.2021
2349 Clouds -5 1006 73 10000 2.13 110 22:51 19.02.2021
2350 Clouds -5 1006 73 10000 2.04 120 22:26 19.02.2021
2351 Clouds -5 1006 73 10000 2.04 120 21:48 19.02.2021
2352 Clouds -5 1007 74 10000 1.62 119 21:28 19.02.2021
2353 Clouds -5 1007 74 10000 1.62 119 20:47 19.02.2021
2354 Clouds -4 1007 76 10000 2.51 104 20:27 19.02.2021
2355 Clouds -4 1007 76 10000 2.51 104 19:50 19.02.2021
2356 Clouds -4 1007 75 10000 1.95 112 19:20 19.02.2021
2357 Clouds -5 1008 73 10000 2.37 105 18:54 19.02.2021
2358 Clouds -4 1007 75 10000 1.95 112 18:31 19.02.2021
2359 Clouds -4 1008 76 10000 2.16 103 17:45 19.02.2021
2360 Clouds -4 1008 77 10000 2.3 106 16:50 19.02.2021
2361 Clouds -3 1008 79 10000 2.48 106 16:23 19.02.2021
2362 Clouds -3 1008 79 10000 2.48 106 15:57 19.02.2021
2363 Clouds -3 1008 49 10000 2.48 106 15:30 19.02.2021
2364 Clouds -2 1008 53 10000 2.4 104 14:55 19.02.2021
2365 Clouds -2 1008 53 10000 2.4 104 14:35 19.02.2021
2366 Clouds -2 1009 51 10000 2.43 116 13:57 19.02.2021
2367 Clouds -1 1008 53 10000 1.98 123 13:36 19.02.2021
2368 Clouds -1 1009 56 10000 2.01 137 12:58 19.02.2021
2369 Clouds -1 1009 56 10000 2.01 137 12:38 19.02.2021
2370 Clouds -1 1009 56 6572 1.6 149 12:20 19.02.2021
2371 Clouds -1 1009 56 6572 1.6 149 12:20 19.02.2021
2372 Clouds -1 1009 56 6572 1.6 149 11:41 19.02.2021
2373 Clouds 0 1008 59 10000 0.98 206 11:18 19.02.2021
2374 Clouds 0 1008 59 10000 0.98 206 10:38 19.02.2021
2375 Clouds 2 1008 61 10000 0.94 186 10:19 19.02.2021
2376 Clouds 3 1008 65 10000 1.15 155 09:29 19.02.2021
2377 Clouds 3 1008 65 10000 1.15 155 08:58 19.02.2021
2378 Clouds 3 1008 65 10000 1.15 155 08:40 19.02.2021
2379 Clouds 3 1009 72 10000 1.01 140 08:21 19.02.2021
2380 Clouds 3 1009 72 10000 1.01 140 07:43 19.02.2021
2381 Clouds 3 1010 71 10000 1.68 128 07:25 19.02.2021
2382 Clouds 3 1010 71 10000 1.68 128 06:41 19.02.2021
2383 Clouds 0 1012 65 10000 1.45 77 04:42 19.02.2021
2384 Clouds -3 1016 54 10000 2.18 98 02:47 19.02.2021
2385 Clouds -4 1017 52 10000 2.24 97 01:33 19.02.2021
2386 Clouds -6 1017 52 10000 2.14 90 00:35 19.02.2021
2387 Clouds -6 1017 51 10000 2.56 89 23:47 18.02.2021
2388 Clouds -5 1018 52 10000 2.44 90 23:29 18.02.2021
2389 Clouds -5 1018 52 10000 2.44 90 22:37 18.02.2021
2390 Clouds -5 1018 51 10000 2.26 101 22:18 18.02.2021
2391 Clouds -5 1018 51 10000 2.26 101 21:40 18.02.2021
2392 Clouds -5 1019 51 10000 2.12 89 21:21 18.02.2021
2393 Clouds -5 1019 51 10000 2.12 89 20:39 18.02.2021
2394 Clouds -5 1020 49 10000 2.25 102 20:21 18.02.2021
2395 Clouds -5 1020 49 10000 2.25 102 19:44 18.02.2021
2396 Clouds -5 1020 48 10000 1.94 106 19:20 18.02.2021
2397 Clouds -6 1020 49 10000 2.37 99 18:50 18.02.2021
2398 Clouds -6 1020 47 10000 2.07 105 18:26 18.02.2021
2399 Clouds -6 1020 47 10000 2.07 105 17:52 18.02.2021
2400 Clouds -6 1020 46 10000 1.92 102 17:25 18.02.2021
2401 Clouds -6 1020 46 10000 1.92 102 16:47 18.02.2021
2402 Clouds -6 1021 47 10000 1.76 101 16:29 18.02.2021
2403 Clouds -6 1021 47 10000 1.76 101 15:43 18.02.2021
2404 Clouds -5 1021 47 10000 1.62 97 15:24 18.02.2021
2405 Clouds -5 1021 47 10000 1.62 97 14:55 18.02.2021
2406 Clouds -5 1021 47 10000 1.62 97 14:34 18.02.2021
2407 Clouds -5 1021 45 10000 2.17 105 13:50 18.02.2021
2408 Clouds -4 1020 46 10000 1.99 107 13:22 18.02.2021
2409 Clouds -4 1020 46 10000 1.99 107 12:56 18.02.2021
2410 Clouds -4 1020 46 10000 1.99 107 12:33 18.02.2021
2411 Clouds -5 1020 51 10000 1.12 95 11:48 18.02.2021
2412 Clouds -5 1020 51 10000 1.12 95 11:48 18.02.2021
2413 Clouds -3 1019 52 10000 1.08 138 11:28 18.02.2021
2414 Clouds -3 1019 52 10000 1.08 138 10:58 18.02.2021
2415 Clouds -3 1019 52 10000 1.08 138 10:37 18.02.2021
2416 Clouds -2 1019 60 10000 0.74 174 10:19 18.02.2021
2417 Clouds -2 1019 84 10000 0.74 174 09:32 18.02.2021
2418 Clouds 0 1019 88 10000 0.93 179 08:59 18.02.2021
2419 Clouds 0 1019 88 10000 0.93 179 08:31 18.02.2021
2420 Clear 0 1020 86 10000 0.84 188 07:49 18.02.2021
2421 Clouds -1 1021 83 10000 0.6 183 07:24 18.02.2021
2422 Clouds -2 1022 82 10000 0.92 143 06:20 18.02.2021
2423 Clouds -9 1027 69 10000 2.22 87 00:53 18.02.2021
2424 Clear -9 1027 69 10000 2.45 91 23:47 17.02.2021
2425 Clear -9 1027 69 10000 2.41 85 23:19 17.02.2021
2426 Clear -9 1027 69 10000 2.41 85 22:40 17.02.2021
2427 Clear -9 1027 69 10000 2.4 84 22:22 17.02.2021
2428 Clear -9 1027 69 10000 2.4 84 21:46 17.02.2021
2429 Clear -9 1027 70 10000 2.33 88 21:21 17.02.2021
2430 Clear -9 1027 70 10000 2.33 88 20:43 17.02.2021
2431 Clear -9 1028 70 10000 2.28 89 20:24 17.02.2021
2432 Clear -9 1028 70 10000 2.28 89 19:38 17.02.2021
2433 Clear -9 1028 71 10000 2.22 87 19:19 17.02.2021
2434 Clear -9 1028 71 10000 2.29 87 18:41 17.02.2021
2435 Clear -9 1028 74 10000 2.22 84 18:18 17.02.2021
2436 Clear -9 1028 74 10000 2.22 84 17:37 17.02.2021
2437 Clear -9 1028 75 10000 2.17 84 17:18 17.02.2021
2438 Clear -9 1028 75 10000 2.17 84 16:43 17.02.2021
2439 Clear -9 1028 76 10000 2.13 85 16:22 17.02.2021
2440 Clear -9 1028 76 10000 2.13 85 15:44 17.02.2021
2441 Clear -9 1029 77 10000 2.19 87 15:23 17.02.2021
2442 Clear -9 1029 77 10000 2.19 87 14:45 17.02.2021
2443 Clear -9 1029 77 10000 2.14 88 14:26 17.02.2021
2444 Clear -9 1029 77 10000 2.14 88 13:45 17.02.2021
2445 Clear -8 1028 77 10000 1.92 91 13:27 17.02.2021
2446 Clear -8 1028 77 10000 1.9 91 12:44 17.02.2021
2447 Clear -8 1027 78 10000 1.19 88 12:22 17.02.2021
2448 Clear -8 1027 78 10000 1.19 88 11:38 17.02.2021
2449 Clear -7 1025 80 10000 0.29 120 11:18 17.02.2021
2450 Clear -7 1025 80 10000 0.29 120 10:44 17.02.2021
2451 Clear -4 1024 84 10000 0.54 261 10:24 17.02.2021
2452 Clear -4 1024 84 10000 0.54 261 09:44 17.02.2021
2453 Clear -2 1024 88 10000 0.71 249 09:25 17.02.2021
2454 Clear -2 1024 88 10000 0.71 249 08:43 17.02.2021
2455 Clear -1 1024 86 10000 0.71 229 08:22 17.02.2021
2456 Clear -1 1024 86 10000 0.71 229 07:33 17.02.2021
2457 Clouds -2 1026 82 10000 0.51 176 06:19 17.02.2021
2458 Clouds -7 1028 75 10000 1.73 89 02:34 17.02.2021
2459 Clouds -8 1029 70 10000 2.02 87 01:55 17.02.2021
2460 Clouds -9 1029 69 10000 2.26 85 00:33 17.02.2021
2461 Clouds -9 1029 70 10000 2.32 85 23:55 16.02.2021
2462 Clouds -9 1029 70 10000 2.32 85 23:36 16.02.2021
2463 Clouds -9 1029 70 10000 2.37 87 22:43 16.02.2021
2464 Clouds -9 1029 70 10000 2.4 86 22:25 16.02.2021
2465 Clouds -9 1029 70 10000 2.4 86 21:54 16.02.2021
2466 Clouds -9 1029 70 10000 2.4 86 21:36 16.02.2021
2467 Clouds -10 1030 70 10000 2.42 85 21:18 16.02.2021
2468 Clouds -10 1030 70 10000 2.42 85 20:41 16.02.2021
2469 Clouds -10 1030 70 10000 2.41 85 20:20 16.02.2021
2470 Clouds -10 1030 70 10000 2.41 85 19:42 16.02.2021
2471 Clouds -10 1031 71 10000 2.42 83 19:23 16.02.2021
2472 Clouds -10 1031 71 10000 2.42 83 18:41 16.02.2021
2473 Clouds -10 1031 73 10000 2.36 83 18:22 16.02.2021
2474 Clouds -10 1031 73 10000 2.36 83 17:52 16.02.2021
2475 Clouds -10 1031 75 10000 2.34 86 17:27 16.02.2021
2476 Clouds -10 1031 75 10000 2.34 86 16:51 16.02.2021
2477 Clouds -9 1031 76 10000 2.35 83 16:29 16.02.2021
2478 Clouds -9 1031 76 10000 2.35 83 15:47 16.02.2021
2479 Clouds -9 1030 78 10000 2.39 80 15:29 16.02.2021
2480 Clouds -9 1030 78 10000 2.39 80 14:55 16.02.2021
2481 Clouds -9 1030 78 10000 2.39 80 14:36 16.02.2021
2482 Clouds -9 1030 79 10000 2.38 80 14:18 16.02.2021
2483 Clouds -9 1030 79 10000 2.38 80 13:37 16.02.2021
2484 Clouds -8 1029 81 10000 2.39 81 12:47 16.02.2021
2485 Clouds -8 1029 83 10000 2.1 81 12:26 16.02.2021
2486 Clouds -8 1029 83 10000 2.1 81 11:55 16.02.2021
2487 Clouds -8 1029 83 10000 2.1 81 11:55 16.02.2021
2488 Clouds -8 1029 83 10000 2.1 81 11:37 16.02.2021
2489 Clouds -6 1028 86 10000 1.54 84 11:18 16.02.2021
2490 Clouds -6 1028 86 10000 1.54 84 10:45 16.02.2021
2491 Clouds -4 1027 88 10000 1.17 81 10:25 16.02.2021
2492 Clouds -4 1027 88 10000 1.17 81 09:48 16.02.2021
2493 Clouds -3 1027 91 10000 1.01 74 09:26 16.02.2021
2494 Clouds -3 1027 91 10000 1.01 74 08:48 16.02.2021
2495 Clouds -3 1028 88 10000 0.89 82 08:26 16.02.2021
2496 Clouds -3 1028 88 10000 0.89 82 07:32 16.02.2021
2497 Clouds -5 1030 88 10000 1.3 88 06:25 16.02.2021
2498 Clear -12 1035 83 10000 2.19 83 02:19 16.02.2021
2499 Clear -13 1036 83 10000 2.1 81 23:47 15.02.2021
2500 Clear -13 1036 83 10000 2.03 82 23:26 15.02.2021
2501 Clear -13 1036 83 10000 2.03 82 22:47 15.02.2021
2502 Clear -13 1036 83 10000 1.92 80 22:25 15.02.2021
2503 Clear -13 1036 83 10000 1.92 80 21:42 15.02.2021
2504 Clear -13 1036 84 10000 1.68 81 21:24 15.02.2021
2505 Clear -13 1036 84 10000 1.68 81 20:53 15.02.2021
2506 Clear -13 1036 84 10000 1.68 81 20:34 15.02.2021
2507 Clear -13 1037 84 10000 1.58 81 19:48 15.02.2021
2508 Clear -13 1037 84 10000 1.56 85 19:24 15.02.2021
2509 Clear -13 1037 84 10000 1.56 85 18:49 15.02.2021
2510 Clear -14 1037 84 10000 1.6 84 18:26 15.02.2021
2511 Clear -14 1037 84 10000 1.6 84 17:45 15.02.2021
2512 Clear -14 1037 84 10000 1.62 87 17:27 15.02.2021
2513 Clear -14 1037 84 10000 1.62 87 16:57 15.02.2021
2514 Clear -14 1037 84 10000 1.6 86 16:29 15.02.2021
2515 Clear -14 1037 84 10000 1.6 86 15:58 15.02.2021
2516 Clear -14 1037 84 10000 1.6 86 15:40 15.02.2021
2517 Clear -14 1037 84 10000 1.59 91 15:18 15.02.2021
2518 Clear -14 1037 84 10000 1.59 91 14:40 15.02.2021
2519 Clear -14 1036 83 10000 1.33 83 14:20 15.02.2021
2520 Clear -14 1036 83 10000 1.33 83 13:48 15.02.2021
2521 Clear -14 1035 84 10000 1.03 94 13:20 15.02.2021
2522 Clear -14 1035 84 10000 1.03 94 13:20 15.02.2021
2523 Clear -14 1035 84 10000 1.03 94 12:45 15.02.2021
2524 Clear -14 1034 84 10000 0.3 132 12:21 15.02.2021
2525 Clear -14 1034 84 10000 0.3 132 11:49 15.02.2021
2526 Clear -12 1033 85 10000 0.51 229 11:23 15.02.2021
2527 Clear -12 1033 85 10000 0.51 229 10:50 15.02.2021
2528 Clear -9 1032 88 10000 0.79 241 10:25 15.02.2021
2529 Clear -9 1032 88 10000 0.79 241 09:56 15.02.2021
2530 Clear -9 1032 88 10000 0.79 241 09:33 15.02.2021
2531 Clear -8 1032 87 10000 1.1 252 08:55 15.02.2021
2532 Clear -7 1031 85 10000 1.4 253 07:49 15.02.2021
2533 Clouds -7 1031 83 10000 1.1 245 06:59 15.02.2021
2534 Clouds -7 1031 83 10000 1.1 245 06:40 15.02.2021
2535 Clouds -13 1035 76 10000 1.5 85 02:32 15.02.2021
2536 Clouds -13 1035 76 10000 1.5 85 02:32 15.02.2021
2537 Clear -15 1034 75 10000 1.51 83 00:46 15.02.2021
2538 Clear -15 1034 74 10000 1.68 79 23:42 14.02.2021
2539 Clear -15 1034 74 10000 1.61 89 23:22 14.02.2021
2540 Clear -15 1034 74 10000 1.61 89 22:39 14.02.2021
2541 Clear -15 1034 74 10000 1.63 95 22:19 14.02.2021
2542 Clear -15 1034 74 10000 1.63 95 21:48 14.02.2021
2543 Clear -15 1034 74 10000 1.68 89 21:29 14.02.2021
2544 Clear -15 1034 74 10000 1.68 89 20:44 14.02.2021
2545 Clear -15 1035 75 10000 1.8 82 20:26 14.02.2021
2546 Clear -15 1035 75 10000 1.8 82 19:47 14.02.2021
2547 Clouds -15 1035 75 10000 1.94 81 18:52 14.02.2021
2548 Clouds -15 1035 75 10000 1.94 81 18:34 14.02.2021
2549 Clouds -15 1035 75 10000 1.87 78 17:56 14.02.2021
2550 Clouds -15 1035 75 10000 1.87 78 17:35 14.02.2021
2551 Clouds -15 1036 76 10000 1.72 86 16:52 14.02.2021
2552 Clouds -15 1036 77 10000 1.57 86 16:27 14.02.2021
2553 Clouds -15 1036 77 10000 1.57 86 15:49 14.02.2021
2554 Clouds -15 1036 77 10000 1.57 86 15:30 14.02.2021
2555 Clouds -16 1037 77 10000 1.56 90 14:48 14.02.2021
2556 Clouds -16 1037 77 10000 1.64 93 14:26 14.02.2021
2557 Clouds -16 1037 77 10000 1.64 93 13:48 14.02.2021
2558 Clouds -16 1037 78 10000 1.6 92 13:27 14.02.2021
2559 Clouds -16 1037 78 10000 1.6 92 12:38 14.02.2021
2560 Clouds -16 1038 79 10000 1.38 99 12:18 14.02.2021
2561 Clouds -16 1038 79 10000 1.38 99 11:47 14.02.2021
2562 Clouds -15 1037 81 10000 0.93 113 11:20 14.02.2021
2563 Clouds -15 1037 81 10000 0.93 113 10:34 14.02.2021
2564 Clouds -14 1037 84 10000 0.5 131 09:54 14.02.2021
2565 Clouds -14 1037 84 10000 0.5 131 09:36 14.02.2021
2566 Clouds -13 1037 81 10000 0.27 182 09:18 14.02.2021
2567 Clouds -13 1037 78 10000 0.59 200 08:21 14.02.2021
2568 Clouds -13 1037 78 10000 0.59 200 07:47 14.02.2021
2569 Clouds -14 1039 75 10000 0.61 102 06:26 14.02.2021
2570 Clear -16 1041 75 10000 0.88 85 04:34 14.02.2021
2571 Clear -21 1044 71 10000 1.77 83 02:30 14.02.2021
2572 Clouds -23 1043 71 10000 1.92 84 01:29 14.02.2021
2573 Clouds -23 1043 71 10000 1.87 86 00:41 14.02.2021
2574 Clouds -23 1043 73 10000 1.87 83 23:57 13.02.2021
2575 Clouds -23 1043 74 10000 1.84 80 23:25 13.02.2021
2576 Clouds -23 1043 74 10000 1.84 80 22:57 13.02.2021
2577 Clouds -23 1043 76 10000 1.87 82 22:22 13.02.2021
2578 Clouds -23 1043 76 10000 1.87 82 21:49 13.02.2021
2579 Clouds -23 1043 78 10000 1.85 80 21:27 13.02.2021
2580 Clouds -23 1043 78 10000 1.85 80 20:45 13.02.2021
2581 Clouds -23 1043 79 10000 1.9 79 20:26 13.02.2021
2582 Clouds -23 1043 79 10000 1.9 79 19:48 13.02.2021
2583 Clouds -22 1043 81 10000 1.83 84 19:24 13.02.2021
2584 Clouds -22 1043 81 10000 1.83 84 18:50 13.02.2021
2585 Clouds -23 1043 82 10000 1.83 81 18:27 13.02.2021
2586 Clouds -23 1043 82 10000 1.83 81 17:44 13.02.2021
2587 Clouds -23 1042 84 10000 1.77 81 17:25 13.02.2021
2588 Clouds -23 1042 84 10000 1.77 81 16:53 13.02.2021
2589 Clouds -23 1042 84 10000 1.77 81 16:34 13.02.2021
2590 Clouds -22 1042 85 10000 1.73 84 15:43 13.02.2021
2591 Clouds -21 1042 87 5421 1.56 80 15:25 13.02.2021
2592 Clouds -21 1042 87 5421 1.56 80 14:40 13.02.2021
2593 Clouds -21 1041 87 2876 1.25 74 13:49 13.02.2021
2594 Clouds -20 1039 87 2805 1 61 13:27 13.02.2021
2595 Clouds -20 1039 87 2805 1 61 12:52 13.02.2021
2596 Clouds -20 1037 88 2783 0.16 30 12:21 13.02.2021
2597 Clouds -20 1037 88 2783 0.16 30 12:21 13.02.2021
2598 Clouds -20 1037 88 2783 0.16 30 11:55 13.02.2021
2599 Clouds -17 1035 89 3841 0.69 249 11:22 13.02.2021
2600 Clouds -17 1035 89 3841 0.69 249 10:59 13.02.2021
2601 Clouds -17 1035 89 3841 0.69 249 10:41 13.02.2021
2602 Clouds -14 1034 91 3977 1.23 249 10:21 13.02.2021
2603 Clouds -14 1034 91 3977 1.23 249 09:45 13.02.2021
2604 Clouds -13 1033 90 2795 1.7 248 09:23 13.02.2021
2605 Clouds -13 1033 90 2795 1.7 248 08:46 13.02.2021
2606 Clouds -13 1032 89 2789 1.9 253 08:18 13.02.2021
2607 Clouds -13 1033 89 2498 1.71 255 06:50 13.02.2021
2608 Clouds -14 1033 89 2311 1.65 258 06:22 13.02.2021
2609 Clouds -14 1034 90 1834 1.37 259 04:31 13.02.2021
2610 Clouds -16 1035 89 1313 0.26 118 02:36 13.02.2021
2611 Clouds -17 1033 88 1811 0.57 71 00:54 13.02.2021
2612 Clouds -17 1032 88 3284 0.71 69 23:57 12.02.2021
2613 Clouds -17 1032 88 3284 0.71 69 23:39 12.02.2021
2614 Clouds -17 1032 87 6398 0.95 79 23:18 12.02.2021
2615 Clouds -17 1032 87 6398 0.95 79 22:31 12.02.2021
2616 Clouds -16 1032 87 6663 0.99 74 21:56 12.02.2021
2617 Clouds -16 1032 87 6663 0.99 74 21:37 12.02.2021
2618 Clouds -17 1032 86 10000 1.24 82 21:18 12.02.2021
2619 Clouds -17 1032 86 10000 1.24 82 20:39 12.02.2021
2620 Clouds -17 1032 84 10000 1.28 84 20:20 12.02.2021
2621 Clouds -17 1032 84 10000 1.28 84 19:49 12.02.2021
2622 Clouds -16 1032 83 10000 1.4 76 19:26 12.02.2021
2623 Clouds -17 1032 82 10000 1.6 73 18:31 12.02.2021
2624 Clouds -17 1033 83 10000 1.87 70 17:53 12.02.2021
2625 Clouds -17 1033 83 10000 1.87 70 17:35 12.02.2021
2626 Clouds -18 1033 83 10000 2.05 75 16:43 12.02.2021
2627 Clouds -19 1033 84 10000 2.13 79 15:48 12.02.2021
2628 Clouds -18 1034 86 10000 2.16 80 15:22 12.02.2021
2629 Clouds -18 1034 86 10000 2.16 80 14:59 12.02.2021
2630 Clouds -18 1034 86 10000 2.16 80 14:32 12.02.2021
2631 Clouds -18 1034 87 10000 2.01 82 13:42 12.02.2021
2632 Clouds -19 1033 88 10000 1.26 90 13:24 12.02.2021
2633 Clouds -18 1033 88 10000 1.45 87 12:51 12.02.2021
2634 Clouds -18 1033 88 10000 1.45 87 12:33 12.02.2021
2635 Clouds -19 1032 88 10000 0.39 152 11:46 12.02.2021
2636 Clouds -16 1031 90 10000 1.21 212 11:20 12.02.2021
2637 Clouds -16 1031 90 10000 1.21 212 10:47 12.02.2021
2638 Clouds -13 1030 91 10000 1.81 219 09:56 12.02.2021
2639 Clouds -13 1030 91 10000 1.81 219 09:38 12.02.2021
2640 Clouds -11 1029 89 10000 2.16 230 09:19 12.02.2021
2641 Clouds -11 1029 89 10000 2.16 230 08:40 12.02.2021
2642 Clouds -11 1029 90 2638 2.43 237 08:18 12.02.2021
2643 Clouds -11 1029 90 2638 2.43 237 07:51 12.02.2021
2644 Clouds -12 1029 90 1348 2.28 242 06:57 12.02.2021
2645 Snow -12 1029 91 632 2.14 248 05:49 12.02.2021
2646 Snow -12 1029 91 561 1.87 248 05:24 12.02.2021
2647 Clouds -15 1028 83 9713 0.59 56 01:56 12.02.2021
2648 Clouds -15 1026 75 10000 1.07 69 23:45 11.02.2021
2649 Clouds -15 1025 74 10000 1.03 79 23:22 11.02.2021
2650 Clouds -15 1025 74 10000 1.03 79 22:58 11.02.2021
2651 Clouds -15 1025 74 10000 1.03 79 22:39 11.02.2021
2652 Clouds -15 1025 73 10000 0.64 80 22:21 11.02.2021
2653 Clouds -15 1025 73 10000 0.64 80 21:39 11.02.2021
2654 Clouds -15 1025 73 10000 0.71 94 21:20 11.02.2021
2655 Clouds -15 1025 73 10000 0.71 94 20:46 11.02.2021
2656 Clouds -14 1024 72 10000 0.99 97 20:22 11.02.2021
2657 Clouds -14 1024 72 10000 0.99 97 19:50 11.02.2021
2658 Clouds -14 1024 72 10000 0.99 97 19:31 11.02.2021
2659 Clouds -14 1023 71 10000 1.03 117 18:58 11.02.2021
2660 Clouds -14 1023 71 10000 1.03 117 18:30 11.02.2021
2661 Clouds -14 1022 72 10000 1.08 113 17:58 11.02.2021
2662 Clouds -14 1022 72 10000 1.08 113 17:36 11.02.2021
2663 Clouds -13 1022 74 10000 1.16 91 17:18 11.02.2021
2664 Snow -13 1022 74 10000 1.16 91 16:41 11.02.2021
2665 Clouds -13 1022 74 10000 1.53 83 16:22 11.02.2021
2666 Clouds -13 1022 74 10000 1.53 83 15:44 11.02.2021
2667 Clouds -14 1022 73 10000 1.84 81 15:25 11.02.2021
2668 Clouds -14 1022 73 10000 1.84 81 14:47 11.02.2021
2669 Clouds -14 1022 72 10000 1.99 90 14:29 11.02.2021
2670 Clouds -14 1022 72 10000 1.99 90 13:41 11.02.2021
2671 Clear -15 1021 71 10000 2.06 92 13:19 11.02.2021
2672 Clear -15 1021 71 10000 2.13 94 12:51 11.02.2021
2673 Clear -15 1021 72 10000 1.68 82 12:28 11.02.2021
2674 Clear -15 1021 72 10000 1.68 82 11:46 11.02.2021
2675 Clear -14 1020 75 10000 1.27 86 11:22 11.02.2021
2676 Clear -14 1020 75 10000 1.27 86 10:45 11.02.2021
2677 Clear -14 1020 75 10000 1.27 86 10:45 11.02.2021
2678 Clear -12 1020 79 10000 1.07 96 10:26 11.02.2021
2679 Clear -12 1020 79 10000 1.07 96 09:53 11.02.2021
2680 Clear -10 1020 84 10000 0.92 102 09:22 11.02.2021
2681 Clear -10 1020 84 10000 0.92 102 08:51 11.02.2021
2682 Clear -10 1020 79 10000 1.05 105 08:23 11.02.2021
2683 Clear -11 1021 79 10000 1.06 102 07:30 11.02.2021
2684 Clear -11 1022 78 10000 1.34 95 06:40 11.02.2021
2685 Clear -14 1025 80 10000 2.1 100 04:58 11.02.2021
2686 Clear -19 1026 77 10000 2.01 92 02:29 11.02.2021
2687 Clear -19 1025 77 10000 1.73 99 00:50 11.02.2021
2688 Clear -19 1024 79 10000 1.01 96 00:20 11.02.2021
2689 Clear -19 1024 79 10000 1.01 96 23:40 10.02.2021
2690 Clear -18 1023 80 10000 1.28 100 22:52 10.02.2021
2691 Clear -18 1022 82 10000 1.4 107 22:29 10.02.2021
2692 Clear -18 1022 82 10000 1.4 107 22:29 10.02.2021
2693 Clear -18 1022 82 10000 1.4 107 21:58 10.02.2021
2694 Clear -18 1022 82 10000 1.4 107 21:38 10.02.2021
2695 Clear -17 1022 83 10000 1.32 113 21:19 10.02.2021
2696 Clear -17 1022 83 10000 1.32 113 20:40 10.02.2021
2697 Clear -17 1021 85 10000 1.33 133 20:22 10.02.2021
2698 Clear -17 1021 85 10000 1.33 133 19:45 10.02.2021
2699 Clouds -16 1020 87 10000 1.77 113 19:24 10.02.2021
2700 Clouds -16 1020 87 10000 1.69 103 18:40 10.02.2021
2701 Clouds -15 1020 89 10000 1.66 137 18:22 10.02.2021
2702 Clouds -15 1020 89 10000 1.66 137 17:51 10.02.2021
2703 Clouds -15 1020 90 10000 1.66 151 17:24 10.02.2021
2704 Clouds -15 1020 90 10000 1.66 151 16:53 10.02.2021
2705 Clouds -15 1020 90 10000 1.66 151 16:30 10.02.2021
2706 Clouds -14 1019 91 10000 1.1 161 15:54 10.02.2021
2707 Clouds -13 1019 91 6260 1.2 227 15:23 10.02.2021
2708 Clouds -13 1019 91 6260 1.2 227 14:47 10.02.2021
2709 Clouds -12 1017 91 7545 1.62 262 14:29 10.02.2021
2710 Clouds -12 1017 91 7545 1.62 262 13:52 10.02.2021
2711 Snow -9 1014 94 2486 2.2 252 13:28 10.02.2021
2712 Snow -9 1014 94 2486 2.2 252 12:50 10.02.2021
2713 Snow -9 1014 94 2486 2.2 252 12:30 10.02.2021
2714 Snow -7 1013 94 3760 2.28 225 11:54 10.02.2021
2715 Snow -7 1013 94 3760 2.28 225 11:36 10.02.2021
2716 Snow -4 1011 94 3403 2.82 212 11:18 10.02.2021
2717 Snow -3 1010 94 3994 3.36 230 10:21 10.02.2021
2718 Snow -3 1010 94 3994 3.36 230 09:44 10.02.2021
2719 Snow -3 1010 95 141 3.17 249 09:22 10.02.2021
2720 Snow -3 1010 95 141 3.17 249 08:50 10.02.2021
2721 Snow -3 1010 95 141 3.17 249 08:30 10.02.2021
2722 Snow -3 1010 95 127 2.93 204 07:22 10.02.2021
2723 Snow -3 1011 93 369 1.99 242 04:54 10.02.2021
2724 Clouds -6 1010 85 10000 2.87 107 01:21 10.02.2021
2725 Clouds -6 1010 84 10000 3.31 104 23:42 09.02.2021
2726 Clouds -7 1011 83 10000 2.79 99 23:23 09.02.2021
2727 Clouds -7 1011 83 10000 2.79 99 22:41 09.02.2021
2728 Snow -7 1012 82 10000 3.07 104 22:23 09.02.2021
2729 Clouds -7 1012 82 10000 3.07 104 21:42 09.02.2021
2730 Clouds -7 1012 81 10000 2.98 107 21:19 09.02.2021
2731 Clouds -7 1012 81 10000 2.98 107 20:42 09.02.2021
2732 Clouds -7 1013 80 10000 2.73 105 20:24 09.02.2021
2733 Clouds -7 1013 80 10000 2.73 105 19:42 09.02.2021
2734 Clouds -8 1013 80 10000 2.91 105 19:22 09.02.2021
2735 Clouds -8 1013 80 10000 2.91 105 18:43 09.02.2021
2736 Clouds -8 1014 78 10000 3.35 109 18:25 09.02.2021
2737 Clouds -8 1014 78 10000 3.35 109 17:47 09.02.2021
2738 Clouds -8 1014 79 10000 3.12 94 17:26 09.02.2021
2739 Clouds -8 1014 79 10000 3.12 94 16:52 09.02.2021
2740 Clouds -7 1014 80 10000 3.28 97 16:19 09.02.2021
2741 Clouds -7 1014 80 10000 3.28 97 15:51 09.02.2021
2742 Clouds -6 1015 81 10000 4.21 110 15:29 09.02.2021
2743 Clouds -6 1015 81 10000 4.21 110 14:59 09.02.2021
2744 Clouds -6 1015 81 10000 4.21 110 14:30 09.02.2021
2745 Clouds -6 1015 81 10000 2.82 111 13:59 09.02.2021
2746 Clouds -6 1015 81 10000 2.82 111 13:39 09.02.2021
2747 Clouds -5 1014 82 10000 1.78 95 13:19 09.02.2021
2748 Clouds -5 1014 82 10000 1.78 95 12:41 09.02.2021
2749 Clouds -4 1013 84 10000 2.88 108 12:22 09.02.2021
2750 Clouds -4 1013 84 10000 2.88 108 11:44 09.02.2021
2751 Clouds -3 1012 86 10000 2.2 110 11:21 09.02.2021
2752 Clouds -3 1012 86 10000 2.2 110 11:21 09.02.2021
2753 Clouds -3 1012 86 10000 2.2 110 10:55 09.02.2021
2754 Clouds -2 1012 87 10000 2.41 108 10:20 09.02.2021
2755 Clouds -2 1012 87 10000 2.41 108 09:46 09.02.2021
2756 Clouds -1 1013 89 10000 1.62 129 09:26 09.02.2021
2757 Clouds -1 1013 89 10000 1.62 129 08:53 09.02.2021
2758 Clouds 0 1013 89 10000 1.23 151 08:28 09.02.2021
2759 Clouds 0 1013 89 10000 1.23 151 07:39 09.02.2021
2760 Clouds -4 1017 84 10000 2.34 102 04:59 09.02.2021
2761 Clouds -6 1019 80 10000 2.78 99 03:45 09.02.2021
2762 Clouds -10 1021 72 10000 2.84 99 01:38 09.02.2021
2763 Clear -10 1022 71 10000 2.84 95 23:58 08.02.2021
2764 Clear -10 1022 72 10000 3.23 94 23:22 08.02.2021
2765 Clear -10 1022 72 10000 3.23 94 22:56 08.02.2021
2766 Clear -10 1022 72 10000 3.23 94 22:38 08.02.2021
2767 Clear -10 1022 72 10000 3.15 91 22:20 08.02.2021
2768 Clear -10 1022 72 10000 3.15 91 21:38 08.02.2021
2769 Clear -10 1024 73 10000 3.24 90 21:19 08.02.2021
2770 Clear -10 1024 73 10000 3.24 90 20:44 08.02.2021
2771 Clear -10 1025 73 10000 3.1 92 20:23 08.02.2021
2772 Clear -10 1025 73 10000 3.1 92 19:49 08.02.2021
2773 Clear -10 1026 74 10000 2.89 87 19:27 08.02.2021
2774 Clear -10 1026 74 10000 2.89 87 18:50 08.02.2021
2775 Clear -10 1026 74 10000 2.89 87 18:50 08.02.2021
2776 Clear -11 1026 74 10000 2.74 88 18:25 08.02.2021
2777 Clear -11 1026 74 10000 2.74 88 17:47 08.02.2021
2778 Clear -11 1027 76 10000 2.82 88 17:27 08.02.2021
2779 Clear -11 1027 76 10000 2.82 88 16:58 08.02.2021
2780 Clear -11 1027 76 10000 2.82 88 16:40 08.02.2021
2781 Clear -11 1027 77 10000 2.8 91 16:20 08.02.2021
2782 Clear -11 1027 77 10000 2.8 91 15:38 08.02.2021
2783 Clear -10 1027 79 10000 2.81 86 15:18 08.02.2021
2784 Clear -10 1027 79 10000 2.81 86 14:50 08.02.2021
2785 Clear -10 1027 80 10000 2.62 87 14:28 08.02.2021
2786 Clear -10 1027 80 10000 2.62 87 13:49 08.02.2021
2787 Clouds -10 1028 81 10000 2.29 88 13:28 08.02.2021
2788 Clear -10 1027 81 10000 2.36 87 12:39 08.02.2021
2789 Clear -9 1027 82 10000 2.01 82 12:19 08.02.2021
2790 Clear -9 1027 82 10000 2.01 82 11:39 08.02.2021
2791 Clear -8 1026 84 10000 1.3 85 10:47 08.02.2021
2792 Clear -6 1026 86 10000 0.85 87 10:26 08.02.2021
2793 Clear -6 1026 86 10000 0.85 87 09:56 08.02.2021
2794 Clear -6 1026 86 10000 0.85 87 09:36 08.02.2021
2795 Clouds -5 1025 89 10000 0.85 81 08:57 08.02.2021
2796 Clouds -5 1026 88 10000 0.95 76 08:27 08.02.2021
2797 Clouds -5 1026 88 10000 0.95 76 07:47 08.02.2021
2798 Clouds -5 1028 87 10000 0.79 68 06:39 08.02.2021
2799 Clouds -8 1031 88 10000 0.86 93 05:18 08.02.2021
2800 Clouds -13 1033 83 10000 1.93 88 02:27 08.02.2021
2801 Clouds -12 1033 84 10000 2.37 87 00:25 08.02.2021
2802 Clouds -12 1033 84 10000 2.37 87 23:55 07.02.2021
2803 Clouds -13 1033 83 10000 2.18 93 23:28 07.02.2021
2804 Clouds -13 1033 83 10000 2.18 93 22:58 07.02.2021
2805 Clouds -13 1033 83 10000 2.18 93 22:40 07.02.2021
2806 Clouds -13 1033 83 10000 2.12 91 22:21 07.02.2021
2807 Clouds -13 1033 83 10000 2.12 91 21:50 07.02.2021
2808 Clouds -13 1033 82 10000 2.29 92 21:25 07.02.2021
2809 Clouds -13 1033 82 10000 2.29 92 21:25 07.02.2021
2810 Clouds -13 1033 82 10000 2.29 92 20:50 07.02.2021
2811 Clouds -14 1034 80 10000 2.32 88 20:29 07.02.2021
2812 Clouds -14 1034 80 10000 2.32 88 19:52 07.02.2021
2813 Clear -14 1034 78 10000 2.61 89 19:29 07.02.2021
2814 Clear -14 1034 77 10000 2.58 88 18:49 07.02.2021
2815 Clear -14 1034 76 10000 2.6 91 18:29 07.02.2021
2816 Clear -14 1034 76 10000 2.6 91 17:58 07.02.2021
2817 Clear -14 1034 76 10000 2.6 91 17:39 07.02.2021
2818 Clear -14 1035 75 10000 2.34 93 17:18 07.02.2021
2819 Clear -14 1035 75 10000 2.34 93 16:42 07.02.2021
2820 Clear -14 1034 75 10000 2.48 90 16:21 07.02.2021
2821 Clear -14 1034 75 10000 2.48 90 15:44 07.02.2021
2822 Clear -14 1034 74 10000 2.53 93 15:22 07.02.2021
2823 Clear -14 1034 74 10000 2.53 93 14:46 07.02.2021
2824 Clear -13 1034 75 10000 2.54 95 14:27 07.02.2021
2825 Clear -13 1034 75 10000 2.54 95 13:52 07.02.2021
2826 Clear -13 1034 75 10000 2.54 95 13:33 07.02.2021
2827 Clear -13 1033 77 10000 2.45 95 12:43 07.02.2021
2828 Clear -12 1032 79 10000 2.16 93 12:22 07.02.2021
2829 Clear -12 1032 79 10000 2.16 93 11:49 07.02.2021
2830 Clear -10 1032 81 10000 1.63 95 11:27 07.02.2021
2831 Clear -10 1032 81 10000 1.63 95 10:48 07.02.2021
2832 Clear -8 1031 83 10000 1.12 103 10:24 07.02.2021
2833 Clear -8 1031 83 10000 1.12 103 09:46 07.02.2021
2834 Clear -7 1030 87 10000 0.92 111 09:21 07.02.2021
2835 Clear -6 1031 86 10000 0.84 105 08:23 07.02.2021
2836 Clear -7 1031 84 10000 1.13 89 06:34 07.02.2021
2837 Clear -8 1033 84 10000 1.47 89 05:57 07.02.2021
2838 Clear -12 1035 81 10000 2.11 86 03:50 07.02.2021
2839 Clear -15 1035 78 10000 2.42 83 01:27 07.02.2021
2840 Clear -15 1035 78 10000 2.41 82 00:35 07.02.2021
2841 Clear -15 1035 78 10000 2.39 82 23:44 06.02.2021
2842 Clear -15 1035 78 10000 2.39 81 22:40 06.02.2021
2843 Clear -15 1035 78 10000 2.36 81 21:40 06.02.2021
2844 Clear -15 1035 77 10000 2.28 83 21:21 06.02.2021
2845 Clear -15 1035 77 10000 2.28 83 20:51 06.02.2021
2846 Clear -15 1035 77 10000 2.31 84 20:25 06.02.2021
2847 Clear -15 1035 77 10000 2.31 84 19:57 06.02.2021
2848 Clear -15 1035 77 10000 2.31 84 19:31 06.02.2021
2849 Clear -15 1035 77 10000 2.33 82 18:49 06.02.2021
2850 Clear -15 1035 77 10000 2.33 82 18:31 06.02.2021
2851 Clear -15 1035 77 10000 2.36 79 17:48 06.02.2021
2852 Clear -15 1034 76 10000 2.36 78 17:22 06.02.2021
2853 Clear -15 1034 76 10000 2.36 78 16:59 06.02.2021
2854 Clear -15 1034 76 10000 2.36 78 16:40 06.02.2021
2855 Clear -15 1034 76 10000 2.29 80 16:22 06.02.2021
2856 Clear -15 1034 76 10000 2.29 80 15:45 06.02.2021
2857 Clear -15 1034 77 10000 2.29 80 15:21 06.02.2021
2858 Clear -15 1034 77 10000 2.29 80 14:45 06.02.2021
2859 Clear -15 1033 77 10000 2.29 78 14:25 06.02.2021
2860 Clear -15 1033 77 10000 2.29 78 13:49 06.02.2021
2861 Clear -15 1033 77 10000 2.29 78 13:49 06.02.2021
2862 Clouds -13 1031 79 10000 1.94 77 13:21 06.02.2021
2863 Clouds -12 1030 80 10000 1.78 70 12:22 06.02.2021
2864 Clouds -12 1030 80 10000 1.78 70 11:48 06.02.2021
2865 Clouds -11 1029 81 10000 1.34 69 11:22 06.02.2021
2866 Clouds -11 1029 81 10000 1.34 69 10:57 06.02.2021
2867 Clouds -11 1029 81 10000 1.34 69 10:39 06.02.2021
2868 Clouds -10 1028 84 10000 0.85 71 10:20 06.02.2021
2869 Snow -10 1028 84 10000 0.85 71 09:37 06.02.2021
2870 Clouds -9 1028 87 10000 0.55 76 09:18 06.02.2021
2871 Clouds -9 1028 87 10000 0.55 76 09:18 06.02.2021
2872 Clouds -9 1028 87 10000 0.55 76 08:38 06.02.2021
2873 Clouds -9 1028 84 10000 0.42 75 08:20 06.02.2021
2874 Clouds -10 1029 83 10000 1.02 84 05:44 06.02.2021
2875 Clouds -12 1030 84 10000 1.41 83 04:36 06.02.2021
2876 Clear -17 1031 78 10000 1.97 79 02:26 06.02.2021
2877 Clear -17 1031 79 10000 1.93 80 00:48 06.02.2021
2878 Clear -17 1031 79 10000 1.93 80 00:48 06.02.2021
2879 Clear -17 1030 80 10000 1.91 80 00:20 06.02.2021
2880 Clear -17 1030 80 10000 1.91 80 23:44 05.02.2021
2881 Clear -16 1029 81 10000 1.96 75 23:26 05.02.2021
2882 Clear -16 1029 81 10000 1.96 75 22:47 05.02.2021
2883 Clear -16 1029 81 10000 1.96 75 22:47 05.02.2021
2884 Clouds -16 1029 83 10000 1.9 69 22:23 05.02.2021
2885 Clouds -16 1029 83 10000 1.9 69 21:49 05.02.2021
2886 Clouds -16 1029 84 10000 1.9 64 21:28 05.02.2021
2887 Clouds -16 1029 84 10000 1.9 64 20:47 05.02.2021
2888 Clouds -15 1028 84 10000 1.87 58 19:53 05.02.2021
2889 Clouds -15 1027 85 10000 1.71 65 19:21 05.02.2021
2890 Clouds -15 1027 85 10000 1.71 65 18:54 05.02.2021
2891 Clouds -15 1027 85 10000 1.24 62 18:28 05.02.2021
2892 Clouds -15 1027 85 10000 1.24 62 17:47 05.02.2021
2893 Clouds -15 1027 85 10000 1.24 62 17:47 05.02.2021
2894 Clouds -14 1026 85 10000 1.05 63 17:27 05.02.2021
2895 Clouds -14 1026 85 10000 1.05 63 16:50 05.02.2021
2896 Clouds -14 1026 85 10000 1.05 63 16:50 05.02.2021
2897 Clouds -14 1025 85 10000 0.78 43 16:24 05.02.2021
2898 Clouds -14 1025 85 10000 0.78 43 15:57 05.02.2021
2899 Clouds -14 1025 85 10000 0.16 3 15:27 05.02.2021
2900 Clouds -14 1025 85 10000 0.16 3 14:55 05.02.2021
2901 Clouds -14 1025 85 10000 0.16 3 14:36 05.02.2021
2902 Clouds -12 1024 86 10000 0.47 213 14:18 05.02.2021
2903 Clouds -12 1024 86 10000 0.47 213 13:38 05.02.2021
2904 Clouds -11 1022 85 10000 0.68 213 12:57 05.02.2021
2905 Clouds -11 1022 85 10000 0.68 213 12:38 05.02.2021
2906 Snow -11 1021 85 10000 0.71 214 11:42 05.02.2021
2907 Clouds -10 1020 86 10000 0.91 243 11:22 05.02.2021
2908 Snow -10 1020 86 10000 0.91 243 10:59 05.02.2021
2909 Snow -8 1019 88 10000 0.99 232 10:27 05.02.2021
2910 Snow -8 1019 88 10000 0.99 232 09:48 05.02.2021
2911 Snow -6 1019 90 10000 1.06 235 09:29 05.02.2021
2912 Clouds -6 1019 90 10000 1.06 235 08:58 05.02.2021
2913 Snow -6 1019 88 10000 1.27 238 08:28 05.02.2021
2914 Clouds -6 1019 88 10000 1.27 238 07:38 05.02.2021
2915 Clouds -7 1019 87 10000 1.3 240 06:57 05.02.2021
2916 Clouds -7 1019 87 10000 1.3 240 06:57 05.02.2021
2917 Snow -7 1020 86 10000 1.07 223 05:38 05.02.2021
2918 Snow -11 1022 83 10000 1.28 82 03:23 05.02.2021
2919 Snow -12 1022 83 10000 1.47 99 02:25 05.02.2021
2920 Snow -13 1021 82 10000 1.62 87 00:41 05.02.2021
2921 Clouds -12 1021 82 10000 1.92 99 00:21 05.02.2021
2922 Clouds -12 1021 82 10000 1.92 99 23:59 04.02.2021
2923 Clouds -12 1021 82 10000 1.92 99 23:39 04.02.2021
2924 Clouds -13 1021 81 10000 1.76 102 23:20 04.02.2021
2925 Clouds -13 1021 81 10000 1.76 102 22:51 04.02.2021
2926 Clouds -13 1021 81 10000 1.91 101 22:27 04.02.2021
2927 Clouds -13 1021 81 10000 1.91 101 21:42 04.02.2021
2928 Clouds -13 1022 80 10000 1.26 104 21:21 04.02.2021
2929 Clouds -13 1022 80 10000 1.26 104 20:52 04.02.2021
2930 Clouds -13 1022 80 10000 1.26 104 20:34 04.02.2021
2931 Snow -13 1021 81 10000 0.5 73 19:45 04.02.2021
2932 Clouds -11 1021 82 10000 0.62 143 18:57 04.02.2021
2933 Snow -11 1022 81 10000 1.79 110 18:27 04.02.2021
2934 Clouds -11 1022 81 10000 1.79 110 17:56 04.02.2021
2935 Snow -11 1022 81 10000 1.79 110 17:37 04.02.2021
2936 Clouds -12 1022 81 10000 1.58 92 17:18 04.02.2021
2937 Snow -12 1022 81 10000 1.58 92 16:41 04.02.2021
2938 Snow -12 1022 81 10000 1.5 96 16:19 04.02.2021
2939 Clouds -12 1022 81 10000 1.5 96 15:40 04.02.2021
2940 Clouds -11 1022 81 10000 1.38 109 15:20 04.02.2021
2941 Snow -11 1022 81 10000 1.38 109 14:48 04.02.2021
2942 Clouds -12 1021 81 10000 1.16 114 14:21 04.02.2021
2943 Snow -12 1021 81 10000 1.16 114 13:48 04.02.2021
2944 Clouds -11 1021 81 10000 0.79 124 13:28 04.02.2021
2945 Clouds -11 1021 82 10000 0.62 146 12:54 04.02.2021
2946 Snow -10 1021 83 10000 0.41 185 11:57 04.02.2021
2947 Snow -10 1021 83 10000 0.41 185 11:37 04.02.2021
2948 Snow -9 1020 84 10000 0.9 201 11:18 04.02.2021
2949 Snow -9 1020 84 10000 0.9 201 10:35 04.02.2021
2950 Snow -7 1020 86 10000 0.52 199 09:46 04.02.2021
2951 Snow -6 1019 88 10000 0.63 272 09:23 04.02.2021
2952 Snow -6 1019 88 10000 0.63 272 08:57 04.02.2021
2953 Clouds -6 1020 85 10000 0.63 229 08:26 04.02.2021
2954 Clouds -6 1020 85 10000 0.63 229 07:57 04.02.2021
2955 Clouds -5 1019 84 10000 1.11 182 07:34 04.02.2021
2956 Clouds -6 1020 82 10000 0.37 173 06:52 04.02.2021
2957 Clouds -6 1020 82 10000 0.37 173 06:34 04.02.2021
2958 Clouds -13 1025 74 10000 1.97 85 02:41 04.02.2021
2959 Clear -14 1026 72 10000 2.13 89 02:23 04.02.2021
2960 Clear -14 1025 71 10000 2.28 84 00:29 04.02.2021
2961 Clear -14 1025 71 10000 2.28 84 23:34 03.02.2021
2962 Clear -14 1025 70 10000 2.31 88 22:40 03.02.2021
2963 Clear -14 1026 69 10000 2.23 88 22:21 03.02.2021
2964 Clear -14 1026 69 10000 2.23 88 21:55 03.02.2021
2965 Clear -15 1027 69 10000 2.09 90 21:25 03.02.2021
2966 Clear -15 1027 69 10000 2.09 90 20:57 03.02.2021
2967 Clear -15 1027 69 10000 2.09 90 20:36 03.02.2021
2968 Clear -15 1027 68 10000 2 94 19:57 03.02.2021
2969 Clouds -14 1028 68 10000 1.98 93 19:28 03.02.2021
2970 Clouds -14 1028 68 10000 1.98 93 18:59 03.02.2021
2971 Clouds -15 1028 69 10000 1.83 94 18:39 03.02.2021
2972 Clouds -15 1028 69 10000 1.83 94 18:39 03.02.2021
2973 Clouds -14 1028 68 10000 1.98 95 18:19 03.02.2021
2974 Clouds -14 1028 68 10000 1.98 95 17:48 03.02.2021
2975 Clouds -14 1028 68 10000 1.98 95 17:48 03.02.2021
2976 Clear -14 1028 69 10000 1.83 101 17:27 03.02.2021
2977 Clear -14 1028 69 10000 1.83 101 16:48 03.02.2021
2978 Clear -14 1028 69 10000 1.82 107 16:26 03.02.2021
2979 Clear -14 1028 69 10000 1.82 107 15:41 03.02.2021
2980 Clear -14 1029 70 10000 1.87 105 15:22 03.02.2021
2981 Clear -14 1029 70 10000 1.87 105 14:47 03.02.2021
2982 Clear -13 1029 70 10000 1.96 101 14:24 03.02.2021
2983 Clear -13 1029 70 10000 1.96 101 13:50 03.02.2021
2984 Clear -13 1029 71 10000 1.85 89 13:21 03.02.2021
2985 Clear -13 1028 72 10000 1.89 93 12:46 03.02.2021
2986 Clear -12 1028 73 10000 1.72 89 12:22 03.02.2021
2987 Clear -12 1028 73 10000 1.72 89 11:47 03.02.2021
2988 Clear -11 1028 76 10000 1.6 95 11:28 03.02.2021
2989 Clear -11 1028 76 10000 1.6 95 10:52 03.02.2021
2990 Clear -9 1027 78 10000 1.39 97 10:21 03.02.2021
2991 Clear -9 1027 78 10000 1.39 97 09:46 03.02.2021
2992 Clear -8 1028 82 10000 1.22 89 09:27 03.02.2021
2993 Clear -8 1028 82 10000 1.22 89 08:49 03.02.2021
2994 Clear -7 1029 84 10000 0.94 92 07:59 03.02.2021
2995 Clear -7 1029 84 10000 0.94 92 07:32 03.02.2021
2996 Clouds -8 1030 83 10000 1.03 80 06:38 03.02.2021
2997 Clouds -11 1033 79 10000 1.81 83 04:51 03.02.2021
2998 Clouds -14 1035 74 10000 2.05 83 04:27 03.02.2021
2999 Clouds -16 1037 67 10000 2.11 82 02:53 03.02.2021
3000 Clouds -17 1038 67 10000 2.11 80 02:23 03.02.2021
3001 Clear -17 1038 67 10000 1.94 82 00:27 03.02.2021
3002 Clear -17 1038 67 10000 1.94 82 23:47 02.02.2021
3003 Clear -17 1038 67 10000 1.83 82 23:28 02.02.2021
3004 Clear -17 1038 67 10000 1.83 82 22:54 02.02.2021
3005 Clear -18 1039 67 10000 1.67 85 22:22 02.02.2021
3006 Clear -18 1039 67 10000 1.67 85 21:54 02.02.2021
3007 Clear -18 1039 67 10000 1.53 85 21:29 02.02.2021
3008 Clear -18 1039 67 10000 1.53 85 20:52 02.02.2021
3009 Clear -18 1039 67 10000 1.49 88 20:27 02.02.2021
3010 Clear -18 1039 67 10000 1.49 88 19:59 02.02.2021
3011 Clear -18 1039 67 10000 1.49 88 19:40 02.02.2021
3012 Clear -18 1039 67 10000 1.46 88 19:22 02.02.2021
3013 Clear -18 1039 67 10000 1.46 88 18:43 02.02.2021
3014 Clear -18 1039 67 10000 1.4 88 18:24 02.02.2021
3015 Clear -18 1039 67 10000 1.4 88 17:48 02.02.2021
3016 Clear -18 1039 68 10000 1.47 79 17:21 02.02.2021
3017 Clear -18 1039 68 10000 1.47 79 16:55 02.02.2021
3018 Clear -18 1039 68 10000 1.47 79 16:36 02.02.2021
3019 Clear -18 1039 68 10000 1.39 78 15:57 02.02.2021
3020 Clear -18 1039 68 10000 1.39 78 15:38 02.02.2021
3021 Clear -18 1039 68 10000 1.35 73 15:18 02.02.2021
3022 Clear -18 1039 68 10000 1.35 73 14:39 02.02.2021
3023 Clear -18 1038 69 10000 1.32 69 14:18 02.02.2021
3024 Clear -18 1038 69 10000 1.32 69 13:44 02.02.2021
3025 Clear -18 1036 70 10000 1.23 67 13:25 02.02.2021
3026 Clear -18 1036 70 10000 1.23 67 12:55 02.02.2021
3027 Clear -18 1035 72 10000 0.95 67 12:24 02.02.2021
3028 Clear -18 1035 72 10000 0.95 67 11:40 02.02.2021
3029 Clear -17 1033 74 10000 0.24 47 11:19 02.02.2021
3030 Clear -17 1033 74 10000 0.24 47 10:47 02.02.2021
3031 Clear -14 1032 77 10000 0.36 259 10:26 02.02.2021
3032 Clear -14 1032 77 10000 0.36 259 09:46 02.02.2021
3033 Clear -12 1031 82 10000 0.69 255 09:23 02.02.2021
3034 Clear -12 1031 82 10000 0.69 255 08:43 02.02.2021
3035 Clear -11 1030 82 10000 1.12 251 07:50 02.02.2021
3036 Clouds -11 1030 80 10000 1.18 248 07:25 02.02.2021
3037 Clouds -11 1030 80 10000 1.21 252 06:40 02.02.2021
3038 Clouds -11 1030 80 10000 1.19 244 05:51 02.02.2021
3039 Clouds -12 1030 76 10000 0.41 208 04:21 02.02.2021
3040 Clouds -14 1030 67 10000 1.08 81 02:25 02.02.2021
3041 Clouds -14 1030 68 10000 1.32 72 00:46 02.02.2021
3042 Clouds -14 1030 68 10000 1.73 82 23:58 01.02.2021
3043 Clouds -14 1030 68 10000 1.97 82 23:18 01.02.2021
3044 Clouds -14 1030 68 10000 1.97 82 22:39 01.02.2021
3045 Clouds -15 1031 67 10000 1.88 80 22:20 01.02.2021
3046 Clouds -15 1031 67 10000 1.88 80 21:46 01.02.2021
3047 Clouds -15 1032 68 10000 1.78 83 21:22 01.02.2021
3048 Clouds -15 1032 68 10000 1.78 83 20:43 01.02.2021
3049 Clouds -15 1032 67 10000 1.87 81 20:24 01.02.2021
3050 Clouds -15 1032 67 10000 1.87 81 19:47 01.02.2021
3051 Clouds -16 1033 64 10000 2.18 78 19:21 01.02.2021
3052 Clear -17 1034 64 10000 2.18 80 18:56 01.02.2021
3053 Clear -17 1034 64 10000 2.18 80 18:37 01.02.2021
3054 Clear -17 1035 64 10000 2.1 81 18:19 01.02.2021
3055 Clear -17 1035 64 10000 2.1 81 17:41 01.02.2021
3056 Clear -17 1035 64 10000 2 82 17:19 01.02.2021
3057 Clear -17 1035 64 10000 2 82 16:33 01.02.2021
3058 Clear -17 1035 64 10000 1.97 84 15:56 01.02.2021
3059 Clear -17 1035 64 10000 1.97 84 15:37 01.02.2021
3060 Clear -17 1036 63 10000 2.13 83 15:19 01.02.2021
3061 Clear -17 1036 63 10000 2.13 83 14:46 01.02.2021
3062 Clear -17 1036 62 10000 2.17 81 13:57 01.02.2021
3063 Clear -17 1036 62 10000 2.17 81 13:38 01.02.2021
3064 Clear -17 1035 62 10000 2.18 78 13:20 01.02.2021
3065 Clear -17 1035 62 10000 2.18 78 12:44 01.02.2021
3066 Clear -17 1035 62 10000 2.18 78 12:44 01.02.2021
3067 Clear -17 1035 65 10000 2.09 79 12:23 01.02.2021
3068 Clear -17 1035 65 10000 2.09 79 11:42 01.02.2021
3069 Clear -16 1034 66 10000 1.71 78 11:20 01.02.2021
3070 Clear -16 1034 66 10000 1.71 78 10:46 01.02.2021
3071 Clear -15 1034 71 10000 1.2 77 10:20 01.02.2021
3072 Clear -15 1034 71 10000 1.2 77 09:45 01.02.2021
3073 Clear -13 1034 77 10000 0.96 77 09:24 01.02.2021
3074 Clear -13 1034 77 10000 0.96 77 08:54 01.02.2021
3075 Clear -13 1034 77 10000 0.86 75 07:53 01.02.2021
3076 Clouds -14 1035 74 10000 0.98 77 06:37 01.02.2021
3077 Clouds -17 1038 73 10000 1.33 86 04:32 01.02.2021
3078 Clear -23 1042 55 10000 1.82 84 01:46 01.02.2021
3079 Clear -24 1043 59 10000 1.68 84 23:46 31.01.2021
3080 Clear -24 1043 60 10000 1.81 81 22:45 31.01.2021
3081 Clear -24 1043 61 10000 1.86 79 22:25 31.01.2021
3082 Clear -24 1043 61 10000 1.86 79 21:56 31.01.2021
3083 Clear -24 1043 61 10000 1.86 79 21:37 31.01.2021
3084 Clear -24 1043 61 10000 1.86 79 21:37 31.01.2021
3085 Clear -24 1044 62 10000 2.01 78 21:18 31.01.2021
3086 Clear -24 1044 62 10000 2.01 78 20:40 31.01.2021
3087 Clear -24 1044 63 10000 2.02 76 20:18 31.01.2021
3088 Clear -24 1044 63 10000 2.02 76 19:37 31.01.2021
3089 Clear -24 1044 63 10000 1.99 75 19:19 31.01.2021
3090 Clear -24 1044 63 10000 1.99 75 18:44 31.01.2021
3091 Clear -24 1044 63 10000 2.03 74 18:24 31.01.2021
3092 Clear -24 1044 63 10000 2.03 74 17:49 31.01.2021
3093 Clear -24 1044 64 10000 1.99 75 17:24 31.01.2021
3094 Clear -24 1044 64 10000 1.99 75 16:59 31.01.2021
3095 Clear -24 1044 64 10000 1.99 75 16:39 31.01.2021
3096 Clear -24 1044 65 10000 2.03 71 16:19 31.01.2021
3097 Clear -24 1044 65 10000 2.03 71 15:48 31.01.2021
3098 Clear -24 1043 66 10000 2.1 71 14:55 31.01.2021
3099 Clear -24 1042 67 10000 1.99 72 14:28 31.01.2021
3100 Clear -24 1042 67 10000 1.99 72 13:59 31.01.2021
3101 Clear -24 1042 67 10000 1.99 72 13:38 31.01.2021
3102 Clear -23 1041 69 10000 1.86 70 12:57 31.01.2021
3103 Clear -23 1041 71 10000 1.89 70 12:38 31.01.2021
3104 Clear -23 1039 73 10000 1.44 61 12:20 31.01.2021
3105 Clear -23 1039 73 10000 1.44 61 11:38 31.01.2021
3106 Clear -22 1037 76 10000 0.51 54 11:19 31.01.2021
3107 Clear -22 1037 76 10000 0.51 54 10:44 31.01.2021
3108 Clear -20 1035 78 10000 0.25 256 10:25 31.01.2021
3109 Clear -20 1035 78 10000 0.25 256 09:34 31.01.2021
3110 Clear -17 1034 81 10000 0.65 262 08:34 31.01.2021
3111 Clear -17 1034 81 10000 0.65 262 08:34 31.01.2021
3112 Clear -17 1034 81 10000 0.65 262 08:34 31.01.2021
3113 Clear -16 1034 80 10000 0.64 262 07:55 31.01.2021
3114 Clear -16 1034 79 10000 0.49 216 06:36 31.01.2021
3115 Clear -23 1035 78 10000 0.93 67 02:19 31.01.2021
3116 Clear -22 1034 80 10000 0.69 78 00:28 31.01.2021
3117 Clear -22 1034 80 10000 0.69 78 00:28 31.01.2021
3118 Clear -22 1034 80 10000 0.69 78 23:43 30.01.2021
3119 Clear -22 1033 80 10000 0.42 89 23:22 30.01.2021
3120 Clear -22 1033 80 10000 0.42 89 22:37 30.01.2021
3121 Clear -21 1032 81 10000 0.63 115 21:45 30.01.2021
3122 Clear -20 1031 81 10000 0.62 101 21:24 30.01.2021
3123 Clear -20 1031 81 10000 0.62 101 21:24 30.01.2021
3124 Clear -20 1031 81 10000 0.62 101 20:55 30.01.2021
3125 Clear -20 1031 81 10000 0.62 101 20:35 30.01.2021
3126 Clear -20 1031 80 10000 0.66 92 19:59 30.01.2021
3127 Clear -20 1031 80 10000 0.66 92 19:40 30.01.2021
3128 Clouds -19 1029 80 10000 0.83 101 19:19 30.01.2021
3129 Clouds -19 1029 80 10000 0.83 101 18:40 30.01.2021
3130 Clouds -19 1029 80 10000 0.8 84 18:19 30.01.2021
3131 Clouds -19 1029 80 10000 0.8 84 17:45 30.01.2021
3132 Clouds -18 1028 80 10000 0.56 84 17:18 30.01.2021
3133 Clouds -18 1028 80 10000 0.56 84 16:40 30.01.2021
3134 Clouds -18 1027 80 10000 0.43 88 16:21 30.01.2021
3135 Clouds -18 1027 80 10000 0.43 88 15:47 30.01.2021
3136 Clouds -16 1026 81 10000 0.43 116 15:24 30.01.2021
3137 Clouds -16 1026 81 10000 0.43 116 14:52 30.01.2021
3138 Clouds -16 1026 81 10000 0.85 147 14:28 30.01.2021
3139 Clouds -16 1026 81 10000 0.85 147 13:53 30.01.2021
3140 Clouds -15 1026 82 10000 0.64 133 13:20 30.01.2021
3141 Clouds -15 1026 82 10000 0.64 133 12:43 30.01.2021
3142 Clouds -15 1026 82 10000 0.69 202 12:23 30.01.2021
3143 Clouds -15 1026 82 10000 0.69 202 11:43 30.01.2021
3144 Clouds -14 1025 83 10000 0.89 198 10:56 30.01.2021
3145 Clear -13 1025 84 10000 0.37 237 10:26 30.01.2021
3146 Clear -13 1025 84 10000 0.37 237 09:41 30.01.2021
3147 Clear -11 1025 87 10000 0.67 215 09:22 30.01.2021
3148 Clear -11 1025 87 10000 0.67 215 08:43 30.01.2021
3149 Clouds -10 1025 86 10000 0.85 194 07:40 30.01.2021
3150 Clouds -11 1027 85 10000 0.58 150 06:21 30.01.2021
3151 Clouds -14 1029 85 10000 1.2 116 03:43 30.01.2021
3152 Clouds -16 1030 84 10000 1.14 104 02:40 30.01.2021
3153 Clouds -16 1030 85 10000 1.2 87 02:21 30.01.2021
3154 Clouds -16 1030 84 10000 1.49 108 00:49 30.01.2021
3155 Clouds -15 1029 85 10000 1.03 111 00:21 30.01.2021
3156 Clouds -15 1029 85 10000 1.03 111 23:49 29.01.2021
3157 Clouds -14 1029 85 10000 1.83 100 23:27 29.01.2021
3158 Clouds -14 1029 85 10000 1.83 100 22:45 29.01.2021
3159 Clouds -14 1030 83 10000 1.49 96 22:23 29.01.2021
3160 Clouds -14 1030 83 10000 1.49 96 21:44 29.01.2021
3161 Clouds -14 1030 81 10000 1.33 110 21:26 29.01.2021
3162 Clouds -14 1030 81 10000 1.33 110 20:42 29.01.2021
3163 Clouds -14 1031 79 10000 1.69 101 20:21 29.01.2021
3164 Clouds -14 1031 79 10000 1.69 101 19:39 29.01.2021
3165 Clouds -14 1032 80 10000 1.41 106 19:20 29.01.2021
3166 Snow -14 1032 80 10000 1.41 106 18:45 29.01.2021
3167 Clouds -15 1032 79 10000 1.1 97 17:46 29.01.2021
3168 Clouds -14 1032 79 10000 1.03 100 17:22 29.01.2021
3169 Clouds -14 1032 79 10000 1.03 100 16:47 29.01.2021
3170 Clouds -15 1032 79 10000 1.22 100 16:24 29.01.2021
3171 Clouds -15 1032 79 10000 1.22 100 15:54 29.01.2021
3172 Clouds -15 1032 79 10000 1.22 100 15:36 29.01.2021
3173 Clouds -15 1032 79 10000 1.3 104 14:57 29.01.2021
3174 Clouds -14 1032 80 10000 1.28 110 14:21 29.01.2021
3175 Clouds -14 1032 80 10000 1.28 110 13:45 29.01.2021
3176 Clouds -14 1032 81 10000 1.3 111 13:26 29.01.2021
3177 Clouds -14 1032 80 10000 1.53 113 12:30 29.01.2021
3178 Clouds -14 1031 82 10000 1.2 118 11:51 29.01.2021
3179 Clouds -14 1031 82 10000 1.2 118 11:51 29.01.2021
3180 Clouds -14 1031 82 10000 1.15 119 11:21 29.01.2021
3181 Clouds -14 1031 82 10000 1.15 119 10:58 29.01.2021
3182 Clouds -14 1031 82 10000 1.15 119 10:39 29.01.2021
3183 Clouds -13 1030 83 10000 0.69 138 09:56 29.01.2021
3184 Clouds -13 1030 83 10000 0.69 138 09:36 29.01.2021
3185 Clouds -11 1030 86 10000 0.57 183 08:48 29.01.2021
3186 Clear -11 1031 86 10000 0.74 190 08:26 29.01.2021
3187 Clear -11 1031 86 10000 0.74 190 07:44 29.01.2021
3188 Clear -11 1031 84 10000 0.72 188 07:23 29.01.2021
3189 Clear -11 1031 84 10000 0.72 188 06:34 29.01.2021
3190 Clear -16 1035 80 10000 1.4 102 03:53 29.01.2021
3191 Clear -18 1035 77 10000 1.82 85 00:47 29.01.2021
3192 Clear -18 1035 77 10000 1.79 90 00:23 29.01.2021
3193 Clear -18 1035 77 10000 1.79 90 00:23 29.01.2021
3194 Clear -18 1035 77 10000 1.79 90 23:47 28.01.2021
3195 Clear -19 1035 77 10000 1.71 92 23:27 28.01.2021
3196 Clear -19 1035 77 10000 1.71 92 22:59 28.01.2021
3197 Clear -19 1035 77 10000 1.71 92 22:38 28.01.2021
3198 Clear -19 1035 76 10000 1.58 93 22:20 28.01.2021
3199 Clear -19 1035 76 10000 1.58 93 21:42 28.01.2021
3200 Clear -19 1036 76 10000 1.54 90 21:21 28.01.2021
3201 Clear -19 1036 76 10000 1.54 90 20:44 28.01.2021
3202 Clear -18 1036 76 10000 1.49 92 20:19 28.01.2021
3203 Clear -18 1036 76 10000 1.49 92 19:49 28.01.2021
3204 Clouds -18 1036 75 10000 1.42 88 19:27 28.01.2021
3205 Clouds -18 1036 75 10000 1.42 88 18:49 28.01.2021
3206 Clouds -18 1036 75 10000 1.42 88 18:30 28.01.2021
3207 Clouds -18 1035 75 10000 1.42 82 17:53 28.01.2021
3208 Clouds -18 1035 75 10000 1.42 82 17:32 28.01.2021
3209 Clouds -18 1035 75 10000 1.37 81 16:57 28.01.2021
3210 Clouds -18 1035 75 10000 1.37 81 16:37 28.01.2021
3211 Clouds -18 1034 75 10000 1.23 96 16:18 28.01.2021
3212 Clouds -17 1034 75 10000 1.17 100 15:25 28.01.2021
3213 Clouds -17 1034 75 10000 1.17 100 14:47 28.01.2021
3214 Clouds -17 1034 76 10000 1.21 91 14:23 28.01.2021
3215 Clouds -17 1034 76 10000 1.21 91 13:55 28.01.2021
3216 Clouds -16 1034 76 10000 1.29 96 13:23 28.01.2021
3217 Clouds -16 1034 76 10000 1.29 96 12:49 28.01.2021
3218 Clouds -16 1033 77 10000 1.1 94 12:26 28.01.2021
3219 Clouds -16 1033 77 10000 1.1 94 11:44 28.01.2021
3220 Clouds -15 1032 78 10000 0.68 88 11:22 28.01.2021
3221 Clouds -15 1032 78 10000 0.68 88 10:57 28.01.2021
3222 Clouds -15 1032 78 10000 0.68 88 10:39 28.01.2021
3223 Clouds -14 1031 80 10000 0.2 97 10:20 28.01.2021
3224 Clouds -14 1031 80 10000 0.2 97 09:36 28.01.2021
3225 Clouds -12 1030 83 10000 0.29 232 09:18 28.01.2021
3226 Clouds -12 1030 83 10000 0.29 232 08:40 28.01.2021
3227 Clouds -11 1030 84 10000 0.46 242 07:49 28.01.2021
3228 Clouds -11 1032 82 10000 0.39 239 07:18 28.01.2021
3229 Clouds -11 1032 82 10000 0.39 239 06:44 28.01.2021
3230 Clouds -13 1034 82 10000 0.92 112 04:30 28.01.2021
3231 Clouds -17 1035 76 10000 1.88 92 02:33 28.01.2021
3232 Clouds -18 1035 77 10000 2.14 83 00:29 28.01.2021
3233 Clouds -18 1035 78 10000 1.8 80 23:25 27.01.2021
3234 Clouds -18 1035 78 10000 1.8 80 22:44 27.01.2021
3235 Clouds -18 1035 79 10000 1.27 81 22:26 27.01.2021
3236 Clouds -18 1035 79 10000 1.27 81 22:26 27.01.2021
3237 Clouds -18 1035 79 10000 1.27 81 21:57 27.01.2021
3238 Clouds -18 1035 79 10000 1.27 81 21:39 27.01.2021
3239 Clouds -18 1036 79 10000 0.8 82 21:21 27.01.2021
3240 Clouds -18 1036 79 10000 0.8 82 20:40 27.01.2021
3241 Clouds -19 1036 80 10000 0.83 92 19:57 27.01.2021
3242 Clouds -19 1036 80 10000 0.83 92 19:38 27.01.2021
3243 Clouds -18 1037 79 10000 1.83 84 19:20 27.01.2021
3244 Clouds -18 1037 79 10000 1.83 84 18:41 27.01.2021
3245 Clouds -19 1038 78 10000 2.17 79 18:22 27.01.2021
3246 Clouds -19 1038 78 10000 2.17 79 17:45 27.01.2021
3247 Clouds -20 1039 77 10000 2.09 80 17:21 27.01.2021
3248 Clouds -20 1039 77 10000 2.09 80 16:47 27.01.2021
3249 Clouds -21 1040 77 10000 1.84 82 16:28 27.01.2021
3250 Clouds -21 1040 77 10000 1.84 82 16:28 27.01.2021
3251 Clouds -21 1040 77 10000 1.84 82 15:50 27.01.2021
3252 Clouds -21 1040 77 10000 1.84 82 15:30 27.01.2021
3253 Clouds -21 1040 76 10000 1.83 85 14:42 27.01.2021
3254 Clouds -21 1040 77 10000 1.88 88 14:21 27.01.2021
3255 Clouds -21 1040 77 10000 1.88 88 13:43 27.01.2021
3256 Clouds -22 1041 77 10000 1.78 90 12:48 27.01.2021
3257 Clouds -23 1041 77 10000 1.8 94 12:26 27.01.2021
3258 Clouds -23 1041 77 10000 1.8 94 11:55 27.01.2021
3259 Clouds -23 1041 77 10000 1.8 94 11:36 27.01.2021
3260 Clouds -22 1041 79 10000 1.68 106 11:18 27.01.2021
3261 Clouds -22 1041 79 10000 1.68 106 10:36 27.01.2021
3262 Clouds -21 1040 81 10000 1.18 119 10:18 27.01.2021
3263 Clouds -21 1040 81 10000 1.18 119 09:40 27.01.2021
3264 Clouds -20 1040 83 10000 0.91 128 08:56 27.01.2021
3265 Clouds -20 1040 82 10000 0.98 134 07:59 27.01.2021
3266 Clouds -20 1040 82 10000 0.98 134 07:40 27.01.2021
3267 Clouds -21 1042 82 10000 1.11 118 06:50 27.01.2021
3268 Clouds -23 1044 82 10000 1.25 116 06:18 27.01.2021
3269 Clouds -23 1044 82 10000 1.25 116 05:35 27.01.2021
3270 Clouds -28 1047 80 10000 2.1 98 02:47 27.01.2021
3271 Clouds -29 1047 81 10000 2.01 96 02:23 27.01.2021
3272 Clouds -29 1047 81 10000 2.01 96 01:47 27.01.2021
3273 Clouds -29 1047 81 10000 1.99 96 00:32 27.01.2021
3274 Clouds -29 1046 82 10000 1.64 101 23:48 26.01.2021
3275 Clouds -29 1045 82 10000 1.24 103 23:26 26.01.2021
3276 Clouds -29 1045 82 10000 1.24 103 22:46 26.01.2021
3277 Clouds -29 1044 83 7912 0.88 107 22:22 26.01.2021
3278 Clouds -29 1044 83 7912 0.88 107 21:53 26.01.2021
3279 Clouds -29 1043 83 6183 0.59 109 21:28 26.01.2021
3280 Clouds -29 1043 83 6183 0.59 109 20:58 26.01.2021
3281 Clouds -29 1043 83 6183 0.59 109 20:38 26.01.2021
3282 Clouds -28 1042 83 6720 0.61 116 20:20 26.01.2021
3283 Clouds -28 1042 83 6720 0.61 116 19:43 26.01.2021
3284 Clouds -27 1041 83 5932 0.39 74 19:20 26.01.2021
3285 Clouds -27 1042 82 10000 0.84 53 18:46 26.01.2021
3286 Clouds -26 1041 83 10000 0.81 34 18:24 26.01.2021
3287 Clouds -26 1041 83 10000 0.81 34 18:24 26.01.2021
3288 Clouds -26 1041 83 10000 0.81 34 17:49 26.01.2021
3289 Clouds -25 1040 83 9034 0.8 27 17:27 26.01.2021
3290 Clouds -25 1040 83 9034 0.8 27 16:55 26.01.2021
3291 Clouds -25 1040 83 9034 0.8 27 16:37 26.01.2021
3292 Clouds -24 1039 83 6127 0.78 18 16:18 26.01.2021
3293 Clouds -24 1039 83 6127 0.78 18 15:39 26.01.2021
3294 Clouds -24 1038 82 4707 0.52 20 15:19 26.01.2021
3295 Snow -24 1038 82 4707 0.52 20 14:35 26.01.2021
3296 Snow -24 1038 82 4707 0.52 20 14:35 26.01.2021
3297 Snow -24 1037 80 5178 0.24 270 13:59 26.01.2021
3298 Snow -24 1037 80 5178 0.24 270 13:33 26.01.2021
3299 Clouds -23 1036 77 10000 0.62 235 12:56 26.01.2021
3300 Clouds -23 1036 77 10000 0.62 235 12:37 26.01.2021
3301 Clouds -23 1035 75 10000 0.63 229 12:19 26.01.2021
3302 Snow -23 1035 75 10000 0.63 229 11:49 26.01.2021
3303 Snow -22 1033 77 10000 0.76 259 11:18 26.01.2021
3304 Snow -22 1033 77 10000 0.76 259 10:34 26.01.2021
3305 Snow -20 1032 79 10000 0.93 280 09:57 26.01.2021
3306 Clouds -20 1032 79 10000 0.93 280 09:36 26.01.2021
3307 Snow -19 1031 78 10000 0.96 279 09:18 26.01.2021
3308 Snow -19 1031 78 10000 0.96 279 08:42 26.01.2021
3309 Clouds -18 1032 73 10000 0.58 259 07:54 26.01.2021
3310 Clouds -19 1032 72 10000 0.35 134 06:58 26.01.2021
3311 Clouds -19 1034 73 10000 0.89 89 05:46 26.01.2021
3312 Clouds -21 1035 75 10000 1.42 84 05:25 26.01.2021
3313 Clouds -23 1037 74 10000 1.96 80 03:32 26.01.2021
3314 Clouds -26 1039 75 10000 2.4 80 00:59 26.01.2021
3315 Clouds -26 1040 77 10000 2.57 80 00:24 26.01.2021
3316 Clouds -27 1040 78 10000 2.69 79 23:28 25.01.2021
3317 Clouds -27 1040 78 10000 2.69 79 22:44 25.01.2021
3318 Clouds -27 1040 78 10000 2.69 79 22:44 25.01.2021
3319 Clouds -27 1041 79 10000 2.56 81 22:25 25.01.2021
3320 Clouds -27 1041 79 10000 2.56 81 21:41 25.01.2021
3321 Clouds -27 1041 79 10000 2.47 82 21:18 25.01.2021
3322 Clouds -27 1041 79 10000 2.47 82 20:40 25.01.2021
3323 Clouds -27 1041 79 10000 2.28 86 20:20 25.01.2021
3324 Clouds -27 1041 79 10000 2.28 86 19:47 25.01.2021
3325 Clouds -27 1041 79 10000 2.29 93 19:22 25.01.2021
3326 Clouds -27 1041 79 10000 2.29 93 18:44 25.01.2021
3327 Clouds -27 1042 79 10000 2.26 95 18:24 25.01.2021
3328 Clouds -27 1042 79 10000 2.26 95 17:48 25.01.2021
3329 Clouds -26 1042 80 10000 2.04 102 17:24 25.01.2021
3330 Clouds -26 1042 80 10000 2.04 102 16:49 25.01.2021
3331 Clouds -26 1041 80 10000 1.77 114 16:25 25.01.2021
3332 Clouds -26 1041 80 10000 1.77 114 15:55 25.01.2021
3333 Clouds -26 1041 80 10000 1.77 114 15:34 25.01.2021
3334 Clouds -26 1041 81 10000 1.26 110 14:57 25.01.2021
3335 Clouds -26 1041 81 10000 1.26 110 14:38 25.01.2021
3336 Clouds -25 1040 82 10000 0.67 125 14:18 25.01.2021
3337 Clouds -25 1040 82 10000 0.67 125 13:40 25.01.2021
3338 Clouds -24 1039 83 10000 0.89 144 13:19 25.01.2021
3339 Clouds -25 1039 83 10000 1.17 162 12:40 25.01.2021
3340 Clouds -24 1038 84 10000 0.78 178 12:18 25.01.2021
3341 Clouds -23 1036 85 10000 1.02 244 11:28 25.01.2021
3342 Clouds -23 1036 85 10000 1.02 244 10:49 25.01.2021
3343 Clouds -20 1035 86 10000 1.67 240 10:22 25.01.2021
3344 Clouds -20 1035 86 10000 1.67 240 10:22 25.01.2021
3345 Clouds -20 1035 86 10000 1.67 240 09:52 25.01.2021
3346 Clouds -18 1034 86 10000 2.06 235 09:28 25.01.2021
3347 Clouds -18 1034 86 10000 2.06 235 08:38 25.01.2021
3348 Clouds -17 1034 85 9104 2.17 245 07:57 25.01.2021
3349 Clouds -17 1034 86 3719 1.56 242 07:28 25.01.2021
3350 Clouds -18 1035 86 1486 1.16 157 06:28 25.01.2021
3351 Snow -22 1038 82 10000 1.91 92 02:32 25.01.2021
3352 Clouds -23 1038 82 10000 1.91 92 00:40 25.01.2021
3353 Clouds -24 1038 83 10000 2.05 91 23:38 24.01.2021
3354 Clouds -24 1038 84 10000 2.1 92 23:18 24.01.2021
3355 Clouds -24 1038 84 10000 2.1 92 22:40 24.01.2021
3356 Clouds -24 1038 84 10000 2.1 92 22:40 24.01.2021
3357 Clouds -24 1038 84 10000 1.92 99 22:18 24.01.2021
3358 Clouds -24 1038 84 10000 1.92 99 21:31 24.01.2021
3359 Clouds -24 1038 85 10000 1.62 108 20:49 24.01.2021
3360 Clouds -24 1038 85 10000 1.17 103 20:24 24.01.2021
3361 Clouds -24 1038 85 10000 1.17 103 19:58 24.01.2021
3362 Clouds -24 1038 85 10000 1.17 103 19:39 24.01.2021
3363 Clouds -24 1038 85 10000 0.58 104 19:20 24.01.2021
3364 Clouds -24 1038 85 10000 0.58 104 18:55 24.01.2021
3365 Clouds -23 1038 85 10000 0.18 236 18:36 24.01.2021
3366 Clouds -21 1038 86 10000 0.71 201 18:18 24.01.2021
3367 Clouds -21 1038 86 10000 0.71 201 17:43 24.01.2021
3368 Clouds -20 1037 87 10000 0.9 192 17:19 24.01.2021
3369 Clouds -20 1037 87 10000 0.9 192 16:42 24.01.2021
3370 Clouds -20 1036 87 8152 0.99 168 16:21 24.01.2021
3371 Clouds -20 1036 87 8152 0.99 168 15:47 24.01.2021
3372 Clouds -20 1035 85 3731 0.6 165 15:21 24.01.2021
3373 Clouds -20 1035 85 3731 0.6 165 14:57 24.01.2021
3374 Clouds -20 1035 85 3731 0.6 165 14:33 24.01.2021
3375 Clouds -21 1034 86 10000 0.63 179 13:40 24.01.2021
3376 Clouds -19 1033 86 10000 1.17 184 12:56 24.01.2021
3377 Clouds -19 1033 87 10000 1.19 187 12:36 24.01.2021
3378 Clouds -18 1032 88 10000 0.76 180 12:18 24.01.2021
3379 Clouds -18 1032 88 10000 0.76 180 11:45 24.01.2021
3380 Clouds -16 1030 89 10000 1.15 229 11:22 24.01.2021
3381 Clouds -16 1030 89 10000 1.15 229 10:36 24.01.2021
3382 Clouds -14 1028 90 10000 1.69 242 09:53 24.01.2021
3383 Clouds -13 1027 91 10000 2.24 247 09:22 24.01.2021
3384 Clouds -13 1027 91 10000 2.24 247 08:52 24.01.2021
3385 Snow -12 1025 90 10000 2.26 245 06:49 24.01.2021
3386 Snow -12 1025 92 145 1.27 248 02:21 24.01.2021
3387 Snow -12 1024 92 129 0.84 250 00:58 24.01.2021
3388 Snow -11 1023 92 168 0.26 205 00:23 24.01.2021
3389 Snow -11 1023 92 168 0.26 205 23:46 23.01.2021
3390 Snow -12 1022 92 163 0.21 247 23:22 23.01.2021
3391 Snow -12 1022 92 163 0.21 247 22:41 23.01.2021
3392 Snow -12 1022 92 227 0.45 84 22:21 23.01.2021
3393 Snow -12 1022 92 227 0.45 84 21:47 23.01.2021
3394 Snow -12 1022 91 502 0.65 89 21:19 23.01.2021
3395 Clouds -12 1022 91 502 0.65 89 20:40 23.01.2021
3396 Clouds -11 1022 90 1191 0.56 55 20:21 23.01.2021
3397 Snow -11 1022 90 1191 0.56 55 19:45 23.01.2021
3398 Snow -11 1022 86 8318 0.08 345 19:20 23.01.2021
3399 Snow -11 1022 86 8318 0.08 345 19:20 23.01.2021
3400 Snow -11 1022 85 8495 0.39 329 18:44 23.01.2021
3401 Snow -11 1022 82 10000 0.37 52 18:24 23.01.2021
3402 Snow -11 1022 82 10000 0.37 52 17:45 23.01.2021
3403 Clouds -11 1022 81 10000 0.32 167 17:26 23.01.2021
3404 Snow -11 1022 81 10000 0.32 167 16:46 23.01.2021
3405 Snow -11 1021 80 10000 0.88 117 16:24 23.01.2021
3406 Snow -11 1021 80 10000 0.88 117 15:31 23.01.2021
3407 Snow -11 1021 80 10000 0.94 128 14:58 23.01.2021
3408 Clouds -11 1021 80 10000 0.94 128 14:30 23.01.2021
3409 Snow -12 1021 79 10000 0.47 173 13:50 23.01.2021
3410 Snow -12 1021 79 10000 0.47 173 13:50 23.01.2021
3411 Clouds -12 1021 79 10000 0.47 173 13:32 23.01.2021
3412 Clouds -11 1021 80 10000 0.87 144 12:49 23.01.2021
3413 Clouds -10 1020 80 10000 0.94 169 12:26 23.01.2021
3414 Clouds -10 1020 80 10000 0.94 169 11:45 23.01.2021
3415 Clouds -10 1018 79 10000 0.75 204 11:19 23.01.2021
3416 Clouds -10 1018 79 10000 0.75 204 10:46 23.01.2021
3417 Clouds -8 1016 80 10000 1.09 112 10:18 23.01.2021
3418 Clouds -8 1016 80 10000 1.09 112 09:44 23.01.2021
3419 Clouds -6 1016 84 10000 1.09 130 08:53 23.01.2021
3420 Clouds -5 1016 85 10000 1.05 138 07:57 23.01.2021
3421 Clouds -5 1016 84 10000 1.63 103 07:18 23.01.2021
3422 Clouds -10 1019 76 10000 2.6 93 03:36 23.01.2021
3423 Clear -12 1019 71 10000 2.77 87 00:38 23.01.2021
3424 Clear -12 1019 72 10000 2.71 89 23:38 22.01.2021
3425 Clear -12 1019 72 10000 2.71 89 23:38 22.01.2021
3426 Clouds -13 1019 73 10000 2.63 88 22:46 22.01.2021
3427 Clear -13 1019 74 10000 2.44 89 22:22 22.01.2021
3428 Clear -13 1019 74 10000 2.44 89 21:45 22.01.2021
3429 Clear -13 1019 75 10000 2.06 88 21:26 22.01.2021
3430 Clear -13 1019 75 10000 2.06 88 20:55 22.01.2021
3431 Clear -13 1019 75 10000 2.06 88 20:33 22.01.2021
3432 Clear -12 1019 76 10000 2.65 92 19:48 22.01.2021
3433 Clouds -12 1019 77 10000 2.43 94 19:21 22.01.2021
3434 Clouds -12 1019 77 10000 2.43 94 18:55 22.01.2021
3435 Clouds -12 1019 78 10000 2.31 91 18:28 22.01.2021
3436 Clouds -12 1019 78 10000 2.31 91 17:58 22.01.2021
3437 Clouds -12 1019 78 10000 2.31 91 17:39 22.01.2021
3438 Clouds -12 1018 79 10000 2.29 94 16:59 22.01.2021
3439 Clouds -12 1018 79 10000 2.29 94 16:36 22.01.2021
3440 Clouds -12 1018 79 10000 2.1 94 15:55 22.01.2021
3441 Clouds -11 1018 80 10000 2.17 93 15:25 22.01.2021
3442 Clouds -11 1018 80 10000 2.17 93 14:43 22.01.2021
3443 Clouds -11 1017 81 10000 2.35 94 14:25 22.01.2021
3444 Clouds -11 1017 81 10000 2.35 94 13:46 22.01.2021
3445 Clouds -10 1016 82 10000 2.44 93 13:26 22.01.2021
3446 Clouds -11 1017 81 10000 2.38 91 12:40 22.01.2021
3447 Clear -11 1017 82 10000 2.33 92 12:18 22.01.2021
3448 Clear -11 1017 82 10000 2.33 92 11:39 22.01.2021
3449 Clear -10 1016 83 10000 2.06 91 10:48 22.01.2021
3450 Clear -8 1015 85 10000 1.77 89 10:25 22.01.2021
3451 Clear -8 1015 85 10000 1.77 89 09:45 22.01.2021
3452 Clear -7 1015 86 10000 1.47 91 08:59 22.01.2021
3453 Clear -7 1015 86 10000 1.47 91 08:32 22.01.2021
3454 Clear -6 1015 88 10000 1.27 87 07:59 22.01.2021
3455 Clear -8 1017 88 10000 1.58 90 06:24 22.01.2021
3456 Clear -13 1020 80 10000 2.27 83 02:29 22.01.2021
3457 Clouds -13 1020 80 10000 2.31 89 00:30 22.01.2021
3458 Clouds -12 1020 80 10000 2.11 96 23:50 21.01.2021
3459 Clouds -12 1019 79 10000 1.69 102 23:21 21.01.2021
3460 Clouds -12 1019 79 10000 1.69 102 22:48 21.01.2021
3461 Clouds -12 1019 79 10000 1.69 102 22:48 21.01.2021
3462 Clouds -12 1019 79 10000 1.24 98 22:18 21.01.2021
3463 Clouds -12 1019 79 10000 1.24 98 21:41 21.01.2021
3464 Clouds -10 1020 80 10000 1.39 105 21:19 21.01.2021
3465 Clouds -10 1020 80 10000 1.39 105 20:47 21.01.2021
3466 Clouds -10 1020 80 10000 1.72 105 20:22 21.01.2021
3467 Clouds -10 1020 80 10000 1.72 105 19:51 21.01.2021
3468 Clouds -9 1020 80 10000 1.7 99 19:27 21.01.2021
3469 Clouds -9 1020 80 10000 1.7 99 18:54 21.01.2021
3470 Clouds -9 1020 80 10000 1.7 99 18:54 21.01.2021
3471 Clouds -9 1020 80 10000 1.7 99 18:36 21.01.2021
3472 Clouds -9 1020 81 10000 1.83 91 18:18 21.01.2021
3473 Clouds -9 1020 81 10000 1.83 91 17:41 21.01.2021
3474 Clouds -10 1020 80 10000 2.01 85 17:18 21.01.2021
3475 Clouds -10 1020 80 10000 2.01 85 16:41 21.01.2021
3476 Clouds -11 1021 79 10000 2.16 91 16:23 21.01.2021
3477 Clouds -11 1021 79 10000 2.16 91 15:49 21.01.2021
3478 Clouds -11 1021 79 10000 2.27 92 15:28 21.01.2021
3479 Clouds -11 1021 79 10000 2.27 92 14:48 21.01.2021
3480 Clouds -10 1022 79 10000 2.44 87 14:29 21.01.2021
3481 Clouds -10 1022 79 10000 2.44 87 13:47 21.01.2021
3482 Clouds -10 1022 80 10000 2.49 86 13:26 21.01.2021
3483 Clouds -10 1022 80 10000 2.49 86 12:46 21.01.2021
3484 Clouds -10 1021 80 10000 2.4 86 12:25 21.01.2021
3485 Clouds -10 1021 80 10000 2.4 86 11:56 21.01.2021
3486 Clouds -10 1021 80 10000 2.4 86 11:35 21.01.2021
3487 Clouds -9 1021 81 10000 2.16 86 10:57 21.01.2021
3488 Clouds -9 1021 81 10000 2.16 86 10:38 21.01.2021
3489 Clouds -9 1021 81 10000 2.16 86 10:38 21.01.2021
3490 Clouds -7 1021 82 10000 1.71 91 09:56 21.01.2021
3491 Clouds -7 1021 82 10000 1.71 91 09:37 21.01.2021
3492 Clouds -6 1021 83 10000 1.23 91 09:18 21.01.2021
3493 Clouds -6 1021 83 10000 1.23 91 08:34 21.01.2021
3494 Clouds -6 1022 85 10000 1.19 86 07:46 21.01.2021
3495 Clear -6 1023 85 10000 1.32 86 07:26 21.01.2021
3496 Clear -7 1024 84 10000 1.55 88 06:26 21.01.2021
3497 Clear -9 1025 81 10000 1.79 89 04:54 21.01.2021
3498 Clear -12 1026 73 10000 2.14 84 02:19 21.01.2021
3499 Clear -12 1026 72 10000 2.19 87 00:42 21.01.2021
3500 Clear -12 1026 71 10000 2.13 90 23:44 20.01.2021
3501 Clear -12 1025 71 10000 1.97 88 23:24 20.01.2021
3502 Clear -12 1025 71 10000 1.97 88 22:52 20.01.2021
3503 Clear -12 1025 71 10000 1.97 88 22:30 20.01.2021
3504 Clear -12 1025 70 10000 1.85 86 21:54 20.01.2021
3505 Clear -12 1025 70 10000 1.93 88 21:23 20.01.2021
3506 Clear -12 1025 70 10000 1.93 88 21:23 20.01.2021
3507 Clear -12 1025 70 10000 1.93 88 20:52 20.01.2021
3508 Clear -12 1024 69 10000 1.91 84 20:23 20.01.2021
3509 Clear -12 1024 69 10000 1.91 84 19:48 20.01.2021
3510 Clear -11 1024 69 10000 1.99 84 19:29 20.01.2021
3511 Clear -11 1024 69 10000 1.99 84 18:49 20.01.2021
3512 Clouds -12 1024 69 10000 1.9 83 18:30 20.01.2021
3513 Clear -11 1024 69 10000 1.97 90 17:52 20.01.2021
3514 Clear -11 1024 69 10000 1.97 90 17:34 20.01.2021
3515 Clear -11 1023 69 10000 2.14 94 16:51 20.01.2021
3516 Clear -11 1023 69 10000 2.11 91 16:23 20.01.2021
3517 Clear -11 1023 69 10000 2.11 91 15:45 20.01.2021
3518 Clear -11 1022 69 10000 2.03 90 15:19 20.01.2021
3519 Clear -11 1022 69 10000 2.03 90 14:41 20.01.2021
3520 Clear -11 1022 71 10000 1.81 98 14:20 20.01.2021
3521 Clear -11 1022 71 10000 1.81 98 13:38 20.01.2021
3522 Clear -10 1021 71 10000 1.77 100 12:57 20.01.2021
3523 Clear -10 1019 72 10000 1.36 98 12:24 20.01.2021
3524 Clear -10 1019 72 10000 1.36 98 11:42 20.01.2021
3525 Clear -9 1018 74 10000 1.05 87 11:21 20.01.2021
3526 Clear -9 1018 74 10000 1.05 87 10:50 20.01.2021
3527 Clear -9 1018 74 10000 1.05 87 10:50 20.01.2021
3528 Clear -8 1016 77 10000 0.67 92 10:27 20.01.2021
3529 Clear -8 1016 77 10000 0.67 92 10:27 20.01.2021
3530 Clear -8 1016 77 10000 0.67 92 09:39 20.01.2021
3531 Clouds -6 1016 80 10000 0.72 99 09:19 20.01.2021
3532 Clouds -6 1016 80 10000 0.72 99 08:45 20.01.2021
3533 Clouds -5 1016 83 10000 1.16 100 08:23 20.01.2021
3534 Clouds -5 1016 83 10000 1.16 100 07:54 20.01.2021
3535 Clouds -5 1016 83 10000 1.37 107 07:24 20.01.2021
3536 Clouds -8 1017 80 10000 1.58 89 04:44 20.01.2021
3537 Clouds -10 1018 73 10000 2.35 111 02:58 20.01.2021
3538 Clouds -10 1018 71 10000 2.19 95 00:58 20.01.2021
3539 Clear -11 1018 71 10000 2.43 92 23:59 19.01.2021
3540 Clear -11 1018 71 10000 2.43 92 23:41 19.01.2021
3541 Clear -11 1018 71 10000 2.45 89 22:59 19.01.2021
3542 Clear -11 1018 71 10000 2.45 89 22:40 19.01.2021
3543 Clear -11 1019 70 10000 2.4 87 22:21 19.01.2021
3544 Clear -11 1019 70 10000 2.4 87 21:55 19.01.2021
3545 Clear -11 1019 70 10000 2.4 87 21:36 19.01.2021
3546 Clear -11 1020 68 10000 2.52 91 20:50 19.01.2021
3547 Clear -11 1020 68 10000 2.52 91 20:30 19.01.2021
3548 Clear -11 1020 67 10000 2.63 96 19:56 19.01.2021
3549 Clear -11 1020 67 10000 2.63 96 19:56 19.01.2021
3550 Clear -11 1020 67 10000 2.63 96 19:37 19.01.2021
3551 Clear -12 1021 66 10000 2.21 99 19:19 19.01.2021
3552 Clear -12 1021 66 10000 2.21 99 19:19 19.01.2021
3553 Clear -12 1021 66 10000 2.21 99 18:39 19.01.2021
3554 Clear -12 1021 65 10000 2.59 101 18:21 19.01.2021
3555 Clear -12 1021 65 10000 2.59 101 17:44 19.01.2021
3556 Clear -12 1021 66 10000 2.37 97 17:22 19.01.2021
3557 Clear -12 1021 66 10000 2.37 97 16:41 19.01.2021
3558 Clear -12 1020 67 10000 2.21 98 16:23 19.01.2021
3559 Clear -12 1020 67 10000 2.21 98 15:52 19.01.2021
3560 Clear -12 1020 67 10000 2.21 98 15:33 19.01.2021
3561 Clear -12 1020 69 10000 1.85 96 14:49 19.01.2021
3562 Clear -12 1020 70 10000 1.96 101 14:28 19.01.2021
3563 Clear -12 1020 70 10000 1.96 101 13:52 19.01.2021
3564 Clouds -11 1020 70 10000 1.93 100 13:28 19.01.2021
3565 Clouds -11 1019 70 10000 1.73 105 12:55 19.01.2021
3566 Clouds -11 1019 70 10000 1.73 105 12:30 19.01.2021
3567 Clouds -12 1019 70 10000 1.22 97 11:54 19.01.2021
3568 Clouds -12 1019 70 10000 1.22 97 11:30 19.01.2021
3569 Clouds -11 1018 72 10000 0.88 98 10:59 19.01.2021
3570 Clouds -11 1018 72 10000 0.88 98 10:40 19.01.2021
3571 Clouds -9 1016 76 10000 0.48 136 10:18 19.01.2021
3572 Clouds -9 1016 76 10000 0.48 136 09:46 19.01.2021
3573 Clouds -7 1016 80 10000 0.41 169 09:19 19.01.2021
3574 Clouds -7 1016 80 10000 0.41 169 08:33 19.01.2021
3575 Clouds -7 1016 81 10000 0.83 114 07:51 19.01.2021
3576 Clouds -7 1017 81 10000 0.57 128 06:59 19.01.2021
3577 Clear -11 1019 68 10000 1.54 85 04:18 19.01.2021
3578 Clear -13 1019 65 10000 1.85 84 02:22 19.01.2021
3579 Clear -12 1019 64 10000 1.91 89 00:34 19.01.2021
3580 Clear -12 1019 63 10000 2.04 91 23:47 18.01.2021
3581 Clear -12 1019 63 10000 2.02 87 23:23 18.01.2021
3582 Clear -12 1019 63 10000 2.02 87 22:41 18.01.2021
3583 Clear -12 1019 63 10000 2.02 83 22:21 18.01.2021
3584 Clear -12 1019 63 10000 2.02 83 21:47 18.01.2021
3585 Clear -12 1019 63 10000 2.02 83 21:47 18.01.2021
3586 Clear -12 1019 63 10000 2.04 83 21:22 18.01.2021
3587 Clear -12 1019 63 10000 2.04 83 20:55 18.01.2021
3588 Clear -12 1019 63 10000 2.04 83 20:33 18.01.2021
3589 Clear -12 1019 62 10000 2.07 85 19:54 18.01.2021
3590 Clear -12 1019 62 10000 2.07 85 19:34 18.01.2021
3591 Clouds -12 1020 63 10000 2.04 83 18:48 18.01.2021
3592 Clouds -12 1020 62 10000 1.95 80 18:26 18.01.2021
3593 Clouds -12 1020 62 10000 1.95 80 17:47 18.01.2021
3594 Clouds -12 1020 63 10000 2.02 78 17:29 18.01.2021
3595 Clouds -12 1020 63 10000 2.02 78 16:50 18.01.2021
3596 Clouds -12 1020 63 10000 2.02 78 16:50 18.01.2021
3597 Clouds -12 1020 65 10000 1.95 79 16:25 18.01.2021
3598 Clouds -12 1020 65 10000 1.95 79 15:52 18.01.2021
3599 Clouds -12 1020 66 10000 1.88 80 15:27 18.01.2021
3600 Clouds -12 1020 66 10000 1.88 80 14:56 18.01.2021
3601 Clouds -12 1020 66 10000 1.88 80 14:38 18.01.2021
3602 Clouds -12 1020 67 10000 1.67 77 14:19 18.01.2021
3603 Clouds -12 1020 67 10000 1.67 77 13:44 18.01.2021
3604 Clouds -12 1020 68 10000 1.46 80 13:20 18.01.2021
3605 Clouds -12 1019 69 10000 1.33 82 12:45 18.01.2021
3606 Clouds -11 1019 71 10000 1.07 81 12:18 18.01.2021
3607 Clouds -11 1019 71 10000 1.07 81 11:42 18.01.2021
3608 Clouds -11 1018 73 10000 0.84 78 11:23 18.01.2021
3609 Clouds -11 1018 73 10000 0.84 78 10:47 18.01.2021
3610 Clouds -10 1018 76 10000 0.6 70 10:21 18.01.2021
3611 Clouds -10 1018 76 10000 0.6 70 09:39 18.01.2021
3612 Clouds -8 1017 79 10000 0.43 33 09:18 18.01.2021
3613 Clear -7 1018 82 10000 0.36 349 08:26 18.01.2021
3614 Clear -7 1018 82 10000 0.36 349 07:48 18.01.2021
3615 Clear -7 1019 83 10000 0.55 241 06:35 18.01.2021
3616 Clear -7 1019 83 10000 0.55 241 06:35 18.01.2021
3617 Clear -9 1021 78 10000 0.69 77 04:43 18.01.2021
3618 Clear -11 1022 72 10000 1.09 66 04:24 18.01.2021
3619 Clear -11 1022 72 10000 1.09 66 03:47 18.01.2021
3620 Clear -12 1022 72 10000 1.05 66 03:26 18.01.2021
3621 Clear -12 1022 72 10000 1.05 66 02:54 18.01.2021
3622 Clear -12 1021 71 10000 0.93 87 02:19 18.01.2021
3623 Clouds -12 1020 71 10000 0.77 87 00:41 18.01.2021
3624 Clouds -11 1019 72 10000 0.9 128 23:51 17.01.2021
3625 Clouds -10 1019 73 10000 1.27 110 23:25 17.01.2021
3626 Clouds -10 1019 73 10000 1.27 110 22:50 17.01.2021
3627 Clouds -10 1018 74 10000 1.37 101 22:22 17.01.2021
3628 Clouds -10 1018 74 10000 1.37 101 21:43 17.01.2021
3629 Clouds -9 1018 75 10000 1.99 88 21:24 17.01.2021
3630 Clouds -9 1018 75 10000 1.99 88 20:51 17.01.2021
3631 Clouds -9 1018 75 10000 1.99 88 20:32 17.01.2021
3632 Clouds -9 1019 77 10000 2.23 83 19:53 17.01.2021
3633 Clouds -9 1019 77 10000 2.23 83 19:34 17.01.2021
3634 Clouds -9 1020 78 10000 2.5 85 18:53 17.01.2021
3635 Clouds -9 1021 79 10000 2.48 84 18:29 17.01.2021
3636 Clouds -9 1021 79 10000 2.48 84 17:50 17.01.2021
3637 Clear -10 1022 78 10000 2.29 83 17:29 17.01.2021
3638 Clear -10 1022 78 10000 2.29 83 16:45 17.01.2021
3639 Clear -10 1023 77 10000 2.03 84 16:25 17.01.2021
3640 Clear -10 1023 77 10000 2.03 84 15:53 17.01.2021
3641 Clear -10 1024 76 10000 2.15 84 15:27 17.01.2021
3642 Clear -10 1024 76 10000 2.15 84 14:59 17.01.2021
3643 Clear -10 1024 76 10000 2.15 84 14:39 17.01.2021
3644 Clear -11 1025 73 10000 2.17 82 14:21 17.01.2021
3645 Clear -11 1025 73 10000 2.17 82 13:41 17.01.2021
3646 Clear -11 1025 70 10000 2.29 80 13:23 17.01.2021
3647 Clear -11 1025 71 10000 2.25 81 12:44 17.01.2021
3648 Clear -11 1025 69 10000 1.98 80 12:24 17.01.2021
3649 Clear -11 1026 69 10000 1.66 82 11:26 17.01.2021
3650 Clear -11 1026 69 10000 1.66 82 10:52 17.01.2021
3651 Clear -11 1026 71 10000 1.16 80 10:28 17.01.2021
3652 Clear -11 1026 71 10000 1.16 80 09:57 17.01.2021
3653 Clear -9 1027 76 10000 1.15 81 08:59 17.01.2021
3654 Clear -9 1027 76 10000 1.15 81 08:40 17.01.2021
3655 Clear -12 1032 74 10000 1.34 78 04:32 17.01.2021
3656 Clear -16 1034 61 10000 1.98 76 02:51 17.01.2021
3657 Clouds -17 1034 60 10000 1.86 81 00:57 17.01.2021
3658 Clouds -17 1035 60 10000 2.1 81 00:21 17.01.2021
3659 Clouds -17 1035 60 10000 2.1 81 23:52 16.01.2021
3660 Clouds -17 1036 61 10000 1.88 84 23:24 16.01.2021
3661 Clouds -17 1036 61 10000 1.88 84 22:54 16.01.2021
3662 Clear -18 1037 60 10000 2.14 79 22:19 16.01.2021
3663 Clear -18 1037 60 10000 2.14 79 21:46 16.01.2021
3664 Clear -18 1038 60 10000 1.96 85 21:23 16.01.2021
3665 Clear -18 1038 60 10000 1.96 85 20:48 16.01.2021
3666 Clear -19 1038 61 10000 1.84 91 20:24 16.01.2021
3667 Clear -19 1038 61 10000 1.84 91 19:49 16.01.2021
3668 Clear -19 1038 61 10000 1.84 91 19:30 16.01.2021
3669 Clouds -19 1039 61 10000 1.56 94 18:46 16.01.2021
3670 Clouds -18 1040 64 10000 1.46 93 18:27 16.01.2021
3671 Clouds -18 1040 64 10000 1.46 93 17:51 16.01.2021
3672 Clouds -18 1040 64 10000 1.46 93 17:31 16.01.2021
3673 Clouds -18 1041 65 10000 1.35 95 16:53 16.01.2021
3674 Clouds -18 1041 65 10000 1.35 95 16:35 16.01.2021
3675 Clouds -17 1042 68 10000 1.34 93 15:58 16.01.2021
3676 Clouds -17 1042 68 10000 1.34 93 15:39 16.01.2021
3677 Clouds -17 1042 69 10000 1.22 90 14:33 16.01.2021
3678 Clouds -19 1043 67 10000 1.51 87 13:53 16.01.2021
3679 Clouds -19 1043 67 10000 1.51 87 13:53 16.01.2021
3680 Clouds -19 1043 67 10000 1.51 87 13:31 16.01.2021
3681 Clouds -19 1043 67 10000 1.71 84 12:48 16.01.2021
3682 Clouds -20 1043 69 10000 1.91 83 12:27 16.01.2021
3683 Clouds -20 1043 69 10000 1.91 83 11:55 16.01.2021
3684 Clouds -19 1044 71 10000 1.84 85 11:26 16.01.2021
3685 Clouds -19 1044 71 10000 1.84 85 10:54 16.01.2021
3686 Clouds -19 1044 71 10000 1.84 85 10:35 16.01.2021
3687 Clouds -19 1044 74 10000 1.59 85 09:54 16.01.2021
3688 Clouds -19 1045 77 10000 1.33 83 09:19 16.01.2021
3689 Clouds -19 1046 79 10000 1.19 83 08:18 16.01.2021
3690 Clouds -19 1047 77 10000 1.08 87 06:49 16.01.2021
3691 Clouds -22 1052 76 10000 1.28 89 04:53 16.01.2021
3692 Clear -26 1055 71 10000 1.65 85 03:18 16.01.2021
3693 Clear -26 1055 71 10000 1.65 85 02:37 16.01.2021
3694 Clear -27 1056 71 10000 1.57 84 00:45 16.01.2021
3695 Clear -28 1056 71 10000 1.63 81 00:21 16.01.2021
3696 Clear -28 1056 71 10000 1.63 81 23:36 15.01.2021
3697 Clear -28 1056 71 10000 1.45 89 22:38 15.01.2021
3698 Clear -28 1056 72 10000 1.49 89 22:18 15.01.2021
3699 Clear -28 1056 72 10000 1.49 89 21:42 15.01.2021
3700 Clear -28 1057 72 10000 1.49 86 20:48 15.01.2021
3701 Clear -28 1056 72 10000 1.57 84 20:23 15.01.2021
3702 Clear -28 1056 72 10000 1.57 84 19:48 15.01.2021
3703 Clear -28 1057 72 10000 1.47 83 19:28 15.01.2021
3704 Clear -28 1057 72 10000 1.38 84 18:47 15.01.2021
3705 Clear -28 1057 73 10000 1.28 89 18:21 15.01.2021
3706 Clear -28 1057 73 10000 1.28 89 17:59 15.01.2021
3707 Clear -28 1057 73 10000 1.28 89 17:40 15.01.2021
3708 Clear -28 1057 73 10000 1.3 84 17:21 15.01.2021
3709 Clear -28 1057 73 10000 1.3 84 17:21 15.01.2021
3710 Clear -28 1057 73 10000 1.3 84 16:44 15.01.2021
3711 Clear -28 1057 73 10000 1.37 79 16:23 15.01.2021
3712 Clear -28 1057 73 10000 1.37 79 15:41 15.01.2021
3713 Clear -28 1056 74 10000 1.35 76 15:21 15.01.2021
3714 Clear -28 1056 74 10000 1.35 76 14:42 15.01.2021
3715 Clear -27 1055 74 10000 1.3 76 14:24 15.01.2021
3716 Clear -27 1055 74 10000 1.3 76 13:41 15.01.2021
3717 Clear -27 1055 75 10000 1.19 67 13:20 15.01.2021
3718 Clear -27 1055 75 10000 1.19 67 12:49 15.01.2021
3719 Clear -27 1055 75 10000 1.18 71 12:30 15.01.2021
3720 Clear -27 1054 75 10000 0.97 58 11:43 15.01.2021
3721 Clear -27 1052 77 10000 0.54 33 11:23 15.01.2021
3722 Clear -27 1052 77 10000 0.54 33 10:52 15.01.2021
3723 Clear -27 1052 77 10000 0.54 33 10:33 15.01.2021
3724 Clear -25 1050 77 10000 0.31 334 09:50 15.01.2021
3725 Clear -22 1049 79 10000 0.58 281 09:30 15.01.2021
3726 Clear -22 1049 79 10000 0.58 281 08:31 15.01.2021
3727 Clear -21 1048 81 10000 0.59 280 07:47 15.01.2021
3728 Clouds -21 1048 77 10000 0.58 297 07:24 15.01.2021
3729 Clear -21 1048 77 10000 0.56 293 06:52 15.01.2021
3730 Clear -25 1050 73 10000 1.25 60 03:46 15.01.2021
3731 Clouds -26 1047 70 10000 1.66 54 00:57 15.01.2021
3732 Clouds -26 1047 71 10000 1.67 55 23:47 14.01.2021
3733 Clouds -25 1046 70 10000 1.68 51 22:59 14.01.2021
3734 Clouds -25 1046 70 10000 1.68 51 22:40 14.01.2021
3735 Clouds -25 1046 70 10000 1.56 52 22:22 14.01.2021
3736 Clouds -25 1046 70 10000 1.56 52 21:42 14.01.2021
3737 Clouds -24 1045 70 10000 1.55 54 21:21 14.01.2021
3738 Clouds -24 1045 70 10000 1.55 54 20:49 14.01.2021
3739 Clouds -24 1044 70 10000 1.6 51 20:25 14.01.2021
3740 Clouds -24 1044 70 10000 1.6 51 19:43 14.01.2021
3741 Clouds -23 1043 71 10000 1.61 49 19:25 14.01.2021
3742 Clouds -24 1043 71 10000 1.71 48 18:52 14.01.2021
3743 Clouds -23 1042 71 10000 1.76 46 18:27 14.01.2021
3744 Clouds -23 1042 71 10000 1.76 46 17:46 14.01.2021
3745 Clouds -22 1041 71 10000 1.84 43 17:26 14.01.2021
3746 Clouds -22 1041 71 10000 1.84 43 16:43 14.01.2021
3747 Clouds -22 1041 71 10000 1.91 45 15:58 14.01.2021
3748 Clouds -22 1041 71 10000 1.91 45 15:39 14.01.2021
3749 Clouds -22 1040 72 10000 1.93 47 14:59 14.01.2021
3750 Clouds -22 1040 72 10000 1.93 47 14:38 14.01.2021
3751 Clouds -21 1039 72 10000 1.98 46 14:19 14.01.2021
3752 Clouds -21 1039 72 10000 1.98 46 13:52 14.01.2021
3753 Clouds -21 1037 73 10000 2 46 13:21 14.01.2021
3754 Clouds -21 1037 73 10000 2 46 12:47 14.01.2021
3755 Clouds -22 1036 75 10000 1.95 47 12:19 14.01.2021
3756 Clouds -22 1036 75 10000 1.95 47 11:43 14.01.2021
3757 Clouds -21 1034 79 10000 1.47 36 11:21 14.01.2021
3758 Clouds -21 1034 79 10000 1.47 36 10:52 14.01.2021
3759 Clouds -20 1032 83 10000 0.71 2 10:25 14.01.2021
3760 Clouds -20 1032 83 10000 0.71 2 09:48 14.01.2021
3761 Clouds -18 1030 85 10000 0.67 293 09:23 14.01.2021
3762 Clouds -18 1030 85 10000 0.67 293 08:49 14.01.2021
3763 Clouds -16 1029 85 10000 0.89 269 08:25 14.01.2021
3764 Clouds -16 1029 85 10000 0.89 269 07:48 14.01.2021
3765 Clouds -16 1028 84 10000 0.69 281 06:52 14.01.2021
3766 Clouds -17 1029 81 10000 1.29 3 05:50 14.01.2021
3767 Clouds -18 1025 85 10000 1.03 24 00:46 14.01.2021
3768 Clouds -18 1023 88 3876 0.56 346 23:54 13.01.2021
3769 Snow -17 1021 89 898 0.74 334 23:23 13.01.2021
3770 Snow -16 1020 89 276 0.96 4 22:29 13.01.2021
3771 Snow -16 1020 89 276 0.96 4 21:57 13.01.2021
3772 Snow -16 1020 89 276 0.96 4 21:39 13.01.2021
3773 Snow -17 1019 89 211 0.58 320 20:59 13.01.2021
3774 Snow -17 1019 89 211 0.58 320 20:37 13.01.2021
3775 Clouds -16 1017 87 2843 1.06 225 20:18 13.01.2021
3776 Clouds -16 1017 87 2843 1.06 225 19:42 13.01.2021
3777 Snow -16 1016 87 10000 1.15 200 19:20 13.01.2021
3778 Snow -16 1016 86 9725 0.86 198 18:41 13.01.2021
3779 Clouds -16 1015 85 10000 1.67 225 17:51 13.01.2021
3780 Snow -16 1014 84 10000 1.55 201 17:25 13.01.2021
3781 Snow -16 1014 84 10000 1.55 201 16:58 13.01.2021
3782 Clouds -16 1013 84 10000 1.39 202 16:22 13.01.2021
3783 Snow -16 1013 84 10000 1.39 202 15:56 13.01.2021
3784 Snow -16 1013 84 10000 1.39 202 15:38 13.01.2021
3785 Snow -15 1012 85 10000 1.29 181 14:49 13.01.2021
3786 Snow -15 1010 85 10000 0.98 232 13:58 13.01.2021
3787 Clouds -15 1010 85 10000 0.98 232 13:32 13.01.2021
3788 Clouds -14 1009 86 10000 0.62 64 12:59 13.01.2021
3789 Clouds -14 1009 86 10000 0.62 64 12:39 13.01.2021
3790 Clouds -14 1008 86 10000 0.76 194 12:19 13.01.2021
3791 Clouds -14 1008 86 10000 0.76 194 11:45 13.01.2021
3792 Clouds -11 1007 85 10000 1.74 206 11:22 13.01.2021
3793 Clouds -11 1007 85 10000 1.74 206 10:42 13.01.2021
3794 Clouds -10 1007 86 10000 1.65 251 10:24 13.01.2021
3795 Clouds -10 1007 86 10000 1.65 251 09:37 13.01.2021
3796 Snow -8 1007 86 10000 0.98 200 08:57 13.01.2021
3797 Snow -8 1007 86 10000 0.98 200 08:33 13.01.2021
3798 Snow -8 1007 87 10000 1.08 286 07:51 13.01.2021
3799 Clouds -7 1007 86 10000 1.25 236 07:24 13.01.2021
3800 Clouds -11 1009 82 10000 0.62 201 04:21 13.01.2021
3801 Clouds -11 1009 82 10000 0.62 201 03:49 13.01.2021
3802 Clouds -11 1009 82 10000 0.62 201 03:30 13.01.2021
3803 Clouds -11 1010 79 10000 0.66 167 02:19 13.01.2021
3804 Clouds -11 1009 80 10000 0.99 189 00:38 13.01.2021
3805 Snow -12 1009 78 10000 0.3 192 23:31 12.01.2021
3806 Clouds -12 1009 78 10000 0.78 126 22:47 12.01.2021
3807 Clouds -12 1009 77 10000 1.52 105 22:25 12.01.2021
3808 Clouds -12 1009 77 10000 1.52 105 21:53 12.01.2021
3809 Clouds -12 1009 77 10000 1.52 105 21:35 12.01.2021
3810 Clouds -12 1009 77 10000 1.52 105 21:35 12.01.2021
3811 Snow -12 1011 77 10000 1.61 117 20:56 12.01.2021
3812 Clouds -12 1011 77 10000 1.61 117 20:37 12.01.2021
3813 Clouds -13 1011 77 10000 1.68 101 20:19 12.01.2021
3814 Clouds -13 1011 77 10000 1.68 101 19:37 12.01.2021
3815 Clouds -13 1012 77 10000 1.85 88 18:52 12.01.2021
3816 Clouds -13 1014 76 10000 2.2 105 18:25 12.01.2021
3817 Clouds -13 1014 76 10000 2.2 105 17:55 12.01.2021
3818 Clouds -13 1014 76 10000 2.2 105 17:32 12.01.2021
3819 Clouds -14 1015 75 10000 1.96 107 16:44 12.01.2021
3820 Clouds -15 1016 74 10000 2.08 110 16:25 12.01.2021
3821 Clouds -15 1016 74 10000 2.08 110 15:45 12.01.2021
3822 Clouds -15 1017 74 10000 1.95 112 15:24 12.01.2021
3823 Clouds -15 1017 74 10000 1.95 112 14:49 12.01.2021
3824 Clouds -14 1017 75 10000 1.63 113 14:26 12.01.2021
3825 Clouds -14 1017 75 10000 1.63 113 13:54 12.01.2021
3826 Clouds -14 1017 75 10000 1.63 113 13:36 12.01.2021
3827 Clouds -15 1015 75 10000 1.61 111 12:33 12.01.2021
3828 Clouds -15 1015 77 10000 0.99 128 11:45 12.01.2021
3829 Clouds -15 1015 78 10000 0.82 171 11:26 12.01.2021
3830 Clouds -15 1015 78 10000 0.82 171 10:43 12.01.2021
3831 Clouds -13 1014 81 10000 0.88 182 10:19 12.01.2021
3832 Clouds -13 1014 81 10000 0.88 182 09:52 12.01.2021
3833 Clouds -11 1014 85 10000 1.17 222 09:22 12.01.2021
3834 Clouds -10 1013 87 10000 1.33 216 08:27 12.01.2021
3835 Clouds -10 1013 87 10000 1.33 216 07:44 12.01.2021
3836 Clouds -10 1013 84 10000 0.8 203 07:26 12.01.2021
3837 Clouds -10 1013 84 10000 0.73 216 05:40 12.01.2021
3838 Clouds -13 1014 80 10000 0.78 217 03:46 12.01.2021
3839 Clouds -13 1014 78 10000 1.21 203 03:19 12.01.2021
3840 Clouds -14 1013 78 10000 0.98 206 01:43 12.01.2021
3841 Snow -14 1012 79 10000 1.07 189 00:32 12.01.2021
3842 Clouds -14 1011 79 10000 1.38 174 23:40 11.01.2021
3843 Clouds -14 1011 78 10000 0.95 154 23:18 11.01.2021
3844 Clouds -14 1011 78 10000 0.95 154 22:45 11.01.2021
3845 Clouds -14 1012 78 10000 0.93 145 22:27 11.01.2021
3846 Clouds -14 1012 78 10000 0.93 145 21:45 11.01.2021
3847 Clouds -13 1013 79 10000 0.66 127 21:25 11.01.2021
3848 Clouds -13 1013 79 10000 0.66 127 20:57 11.01.2021
3849 Clouds -13 1013 79 10000 0.87 153 20:36 11.01.2021
3850 Clouds -13 1013 79 10000 0.87 153 20:36 11.01.2021
3851 Clouds -14 1013 78 10000 1.16 139 20:18 11.01.2021
3852 Clouds -14 1013 78 10000 1.16 139 19:41 11.01.2021
3853 Clouds -15 1014 77 10000 1.12 132 19:21 11.01.2021
3854 Snow -15 1014 77 10000 1.12 132 18:42 11.01.2021
3855 Clouds -15 1015 77 10000 1.6 129 18:23 11.01.2021
3856 Clouds -15 1015 77 10000 1.6 129 17:42 11.01.2021
3857 Clouds -15 1016 77 10000 1.66 103 17:24 11.01.2021
3858 Clouds -15 1016 77 10000 1.66 103 16:47 11.01.2021
3859 Clouds -15 1017 77 10000 1.84 111 16:28 11.01.2021
3860 Clouds -15 1017 77 10000 1.84 111 15:53 11.01.2021
3861 Snow -15 1017 77 10000 1.84 111 15:33 11.01.2021
3862 Clouds -14 1019 78 10000 1.75 106 14:51 11.01.2021
3863 Snow -14 1019 78 10000 1.75 106 14:32 11.01.2021
3864 Clouds -15 1021 78 10000 1.78 107 13:45 11.01.2021
3865 Clouds -15 1022 78 10000 1.95 106 13:22 11.01.2021
3866 Snow -15 1022 78 10000 1.95 106 12:42 11.01.2021
3867 Clouds -15 1023 78 10000 1.75 123 12:24 11.01.2021
3868 Clouds -15 1023 78 10000 1.75 123 11:45 11.01.2021
3869 Snow -15 1024 78 10000 1.66 132 10:58 11.01.2021
3870 Snow -15 1024 78 10000 1.66 132 10:38 11.01.2021
3871 Clouds -16 1025 78 10000 0.65 163 09:59 11.01.2021
3872 Snow -16 1025 78 10000 0.65 163 09:36 11.01.2021
3873 Clouds -14 1026 82 10000 0.84 215 08:52 11.01.2021
3874 Clouds -14 1026 82 10000 0.84 215 08:34 11.01.2021
3875 Snow -13 1026 84 10000 0.99 206 07:48 11.01.2021
3876 Snow -13 1027 81 10000 0.89 145 07:25 11.01.2021
3877 Clouds -13 1027 81 10000 0.89 145 06:49 11.01.2021
3878 Clouds -19 1033 74 10000 2.12 99 02:31 11.01.2021
3879 Clouds -20 1034 70 10000 1.85 116 00:57 11.01.2021
3880 Clouds -22 1034 69 10000 0.73 139 23:48 10.01.2021
3881 Clouds -21 1034 70 10000 0.89 161 22:59 10.01.2021
3882 Clouds -21 1034 70 10000 0.89 161 22:40 10.01.2021
3883 Clouds -19 1035 72 10000 0.57 142 22:19 10.01.2021
3884 Clouds -19 1035 72 10000 0.57 142 21:40 10.01.2021
3885 Clouds -18 1036 73 10000 1.41 96 21:18 10.01.2021
3886 Clouds -18 1036 73 10000 1.41 96 20:49 10.01.2021
3887 Clouds -18 1036 73 10000 1.81 99 20:27 10.01.2021
3888 Clouds -18 1036 73 10000 1.81 99 19:40 10.01.2021
3889 Clouds -18 1036 72 10000 1.63 85 19:22 10.01.2021
3890 Clouds -18 1036 72 10000 1.63 85 19:22 10.01.2021
3891 Clouds -19 1036 73 10000 1.81 86 18:45 10.01.2021
3892 Clouds -19 1037 72 10000 2.1 87 18:20 10.01.2021
3893 Clouds -20 1039 72 10000 2.22 86 17:26 10.01.2021
3894 Clouds -20 1039 72 10000 2.22 86 16:51 10.01.2021
3895 Clouds -20 1039 72 10000 2.22 86 16:30 10.01.2021
3896 Clouds -22 1041 70 10000 2.29 86 15:41 10.01.2021
3897 Clouds -23 1043 70 10000 2.09 85 15:22 10.01.2021
3898 Clouds -23 1043 70 10000 2.09 85 14:41 10.01.2021
3899 Clear -23 1044 71 10000 1.99 88 14:22 10.01.2021
3900 Clear -23 1044 71 10000 1.99 88 13:46 10.01.2021
3901 Clear -24 1045 71 10000 1.81 88 13:27 10.01.2021
3902 Clear -24 1045 71 10000 1.81 88 12:59 10.01.2021
3903 Clear -23 1044 71 10000 1.94 86 12:40 10.01.2021
3904 Clear -24 1045 73 10000 1.66 86 11:56 10.01.2021
3905 Clear -24 1045 74 10000 1.27 93 11:21 10.01.2021
3906 Clear -24 1045 74 10000 1.27 93 10:51 10.01.2021
3907 Clear -23 1046 77 10000 0.89 97 10:24 10.01.2021
3908 Clear -23 1046 77 10000 0.89 97 09:46 10.01.2021
3909 Clear -22 1046 79 10000 0.1 321 08:49 10.01.2021
3910 Clear -21 1046 81 10000 0.4 264 07:47 10.01.2021
3911 Clear -22 1047 80 10000 0.3 246 06:52 10.01.2021
3912 Clear -23 1047 79 10000 0.17 205 06:18 10.01.2021
3913 Clear -24 1049 79 10000 0.21 177 05:28 10.01.2021
3914 Clear -28 1050 78 10000 0.56 79 02:37 10.01.2021
3915 Clouds -28 1048 82 10000 0.12 21 00:25 10.01.2021
3916 Clouds -28 1048 82 10000 0.12 21 23:42 09.01.2021
3917 Clouds -26 1047 82 10000 0.24 289 23:22 09.01.2021
3918 Clouds -26 1046 82 10000 0.19 240 22:25 09.01.2021
3919 Clouds -26 1046 82 10000 0.19 240 21:59 09.01.2021
3920 Clouds -26 1046 82 10000 0.19 240 21:39 09.01.2021
3921 Clouds -25 1046 82 10000 0.43 266 21:21 09.01.2021
3922 Clouds -25 1046 82 10000 0.43 266 20:56 09.01.2021
3923 Clouds -25 1046 82 10000 0.43 266 20:36 09.01.2021
3924 Clouds -25 1046 81 10000 0.56 265 19:40 09.01.2021
3925 Clouds -24 1045 81 10000 0.51 264 19:21 09.01.2021
3926 Clouds -24 1045 82 10000 0.57 257 18:38 09.01.2021
3927 Clouds -24 1045 81 10000 0.7 251 18:19 09.01.2021
3928 Clouds -24 1045 81 10000 0.7 251 17:42 09.01.2021
3929 Clouds -23 1044 81 10000 0.83 250 17:22 09.01.2021
3930 Clouds -22 1044 80 10000 0.82 242 16:29 09.01.2021
3931 Snow -22 1044 80 10000 0.82 242 15:42 09.01.2021
3932 Clouds -22 1043 79 10000 0.68 239 15:24 09.01.2021
3933 Snow -22 1043 79 10000 0.68 239 14:37 09.01.2021
3934 Snow -22 1043 79 10000 0.59 258 14:19 09.01.2021
3935 Clouds -22 1043 79 10000 0.59 258 13:46 09.01.2021
3936 Clouds -21 1043 78 10000 0.53 251 13:27 09.01.2021
3937 Snow -22 1042 79 10000 0.45 261 12:46 09.01.2021
3938 Clouds -21 1042 78 10000 0.3 267 12:21 09.01.2021
3939 Clouds -21 1042 78 10000 0.3 267 11:41 09.01.2021
3940 Clouds -21 1042 79 10000 0.38 256 11:23 09.01.2021
3941 Snow -21 1042 79 10000 0.38 256 10:50 09.01.2021
3942 Clouds -19 1041 79 10000 0.83 243 10:26 09.01.2021
3943 Clouds -19 1041 79 10000 0.83 243 09:45 09.01.2021
3944 Clouds -18 1041 81 10000 0.6 254 09:21 09.01.2021
3945 Clouds -17 1042 80 10000 0.98 251 08:25 09.01.2021
3946 Clouds -17 1042 78 10000 0.79 261 06:55 09.01.2021
3947 Clouds -18 1042 78 10000 1.05 255 06:36 09.01.2021
3948 Clouds -22 1046 71 10000 0.85 65 04:25 09.01.2021
3949 Clouds -24 1046 70 10000 0.47 137 02:46 09.01.2021
3950 Clear -25 1047 70 10000 0.46 89 02:27 09.01.2021
3951 Clear -23 1046 70 10000 0.49 209 01:25 09.01.2021
3952 Clear -23 1046 71 10000 0.87 227 00:34 09.01.2021
3953 Clear -23 1045 71 10000 1.25 72 23:49 08.01.2021
3954 Clear -23 1046 71 10000 1.45 64 22:47 08.01.2021
3955 Clear -25 1047 72 10000 0.71 66 21:54 08.01.2021
3956 Clear -25 1048 72 10000 0.63 88 21:26 08.01.2021
3957 Clear -25 1048 72 10000 0.63 88 20:38 08.01.2021
3958 Clear -25 1048 72 10000 0.41 62 19:58 08.01.2021
3959 Clear -25 1048 73 10000 0.79 73 19:25 08.01.2021
3960 Clear -25 1048 73 10000 0.79 73 18:54 08.01.2021
3961 Clear -25 1048 73 10000 0.71 66 18:33 08.01.2021
3962 Clear -25 1048 73 10000 1 72 17:55 08.01.2021
3963 Clear -26 1048 74 10000 0.54 66 17:25 08.01.2021
3964 Clear -26 1048 74 10000 0.54 66 16:49 08.01.2021
3965 Clear -26 1048 74 10000 0.02 122 15:52 08.01.2021
3966 Clear -26 1048 74 10000 0.02 122 15:32 08.01.2021
3967 Clear -25 1048 73 10000 0.1 85 14:40 08.01.2021
3968 Clear -25 1049 74 10000 0.14 107 13:55 08.01.2021
3969 Clouds -25 1048 74 10000 0.16 77 13:22 08.01.2021
3970 Clouds -25 1048 74 10000 0.16 77 12:52 08.01.2021
3971 Clear -24 1048 75 10000 0.74 69 12:22 08.01.2021
3972 Clear -24 1048 75 10000 0.74 69 12:22 08.01.2021
3973 Clear -24 1048 75 10000 0.74 69 11:50 08.01.2021
3974 Clear -24 1048 75 10000 0.74 69 11:30 08.01.2021
3975 Clear -25 1048 76 10000 0.62 64 10:56 08.01.2021
3976 Clear -25 1048 76 10000 0.62 64 10:38 08.01.2021
3977 Clear -23 1048 77 10000 0.4 41 09:53 08.01.2021
3978 Clear -23 1048 77 10000 0.4 41 09:34 08.01.2021
3979 Clear -22 1048 78 10000 0.16 301 08:42 08.01.2021
3980 Clear -21 1048 78 10000 0.91 245 07:29 08.01.2021
3981 Clear -21 1048 78 10000 0.96 250 06:43 08.01.2021
3982 Clear -26 1052 71 10000 0.34 64 00:35 08.01.2021
3983 Clear -26 1053 72 10000 0.71 69 23:42 07.01.2021
3984 Clear -26 1054 72 10000 0.97 67 22:51 07.01.2021
3985 Clear -26 1054 72 10000 0.97 67 22:33 07.01.2021
3986 Clear -27 1055 73 10000 0.69 70 21:49 07.01.2021
3987 Clear -27 1056 73 10000 0.12 129 21:29 07.01.2021
3988 Clear -27 1056 73 10000 0.12 129 20:48 07.01.2021
3989 Clear -27 1056 73 10000 0.07 139 20:29 07.01.2021
3990 Clear -27 1056 73 10000 0.07 139 19:47 07.01.2021
3991 Clear -27 1055 73 10000 0.37 71 19:23 07.01.2021
3992 Clear -27 1055 73 10000 0.37 71 18:46 07.01.2021
3993 Clear -27 1056 73 10000 0.72 71 18:20 07.01.2021
3994 Clear -27 1056 73 10000 0.72 71 17:32 07.01.2021
3995 Clear -27 1057 74 10000 0.82 72 16:55 07.01.2021
3996 Clear -27 1057 74 10000 0.82 72 16:32 07.01.2021
3997 Clear -27 1058 74 10000 0.79 73 15:48 07.01.2021
3998 Clear -27 1058 74 10000 0.79 73 15:30 07.01.2021
3999 Clear -28 1058 75 10000 0.55 69 14:27 07.01.2021
4000 Clear -28 1058 75 10000 0.55 69 13:49 07.01.2021
4001 Clear -28 1058 75 10000 0.25 91 13:28 07.01.2021
4002 Clear -28 1058 76 10000 0.32 106 12:52 07.01.2021
4003 Clear -27 1058 76 10000 0.59 68 12:21 07.01.2021
4004 Clear -27 1058 76 10000 0.59 68 11:38 07.01.2021
4005 Clear -27 1057 77 10000 0.58 71 10:54 07.01.2021
4006 Clear -27 1057 77 10000 0.58 71 10:35 07.01.2021
4007 Clear -26 1057 77 10000 0.32 61 09:50 07.01.2021
4008 Clear -26 1057 77 10000 0.32 61 09:32 07.01.2021
4009 Clear -25 1056 78 10000 0.22 328 08:31 07.01.2021
4010 Clear -24 1056 80 10000 0.25 264 07:57 07.01.2021
4011 Clear -24 1056 80 10000 0.25 264 07:38 07.01.2021
4012 Clear -25 1056 76 10000 0.52 247 05:46 07.01.2021
4013 Clear -29 1058 74 10000 0.76 70 00:59 07.01.2021
4014 Clear -30 1057 73 10000 0.8 69 23:52 06.01.2021
4015 Clear -30 1057 73 10000 0.63 75 22:50 06.01.2021
4016 Clear -30 1057 73 10000 0.56 93 22:19 06.01.2021
4017 Clear -30 1057 73 10000 0.56 93 21:41 06.01.2021
4018 Clear -30 1058 72 10000 0.55 82 21:22 06.01.2021
4019 Clear -30 1058 72 10000 0.55 82 20:40 06.01.2021
4020 Clear -30 1058 72 10000 0.44 80 20:19 06.01.2021
4021 Clear -30 1058 72 10000 0.44 80 19:42 06.01.2021
4022 Clouds -30 1058 72 10000 0.31 65 19:24 06.01.2021
4023 Clouds -30 1058 72 10000 0.31 65 18:45 06.01.2021
4024 Clouds -30 1058 72 10000 0.47 64 18:26 06.01.2021
4025 Clouds -30 1058 72 10000 0.47 64 17:43 06.01.2021
4026 Clouds -30 1058 72 10000 0.58 68 17:25 06.01.2021
4027 Clouds -30 1058 72 10000 0.58 68 16:51 06.01.2021
4028 Clouds -30 1058 72 10000 0.76 81 16:20 06.01.2021
4029 Clouds -30 1058 72 10000 0.76 81 15:57 06.01.2021
4030 Clouds -30 1058 72 10000 0.76 81 15:33 06.01.2021
4031 Clear -30 1059 72 10000 0.77 82 14:56 06.01.2021
4032 Clear -30 1059 72 10000 0.77 82 14:30 06.01.2021
4033 Clear -30 1059 72 10000 0.77 82 14:30 06.01.2021
4034 Clear -30 1059 72 10000 0.68 69 13:47 06.01.2021
4035 Clear -30 1059 72 10000 0.68 67 13:24 06.01.2021
4036 Clear -30 1059 72 10000 0.69 76 12:53 06.01.2021
4037 Clear -30 1059 73 10000 0.9 70 12:29 06.01.2021
4038 Clear -30 1059 73 10000 0.9 70 11:40 06.01.2021
4039 Clear -30 1060 73 10000 0.77 83 11:21 06.01.2021
4040 Clear -30 1060 73 10000 0.77 83 10:31 06.01.2021
4041 Clear -29 1059 74 10000 0.34 105 09:52 06.01.2021
4042 Clear -28 1059 76 10000 0.18 223 09:22 06.01.2021
4043 Clear -28 1059 76 10000 0.18 223 08:41 06.01.2021
4044 Clear -27 1059 76 10000 0.42 251 08:18 06.01.2021
4045 Clear -27 1059 74 10000 0.78 250 07:27 06.01.2021
4046 Clear -27 1060 73 10000 0.79 255 05:52 06.01.2021
4047 Clear -28 1062 73 10000 0.28 240 04:41 06.01.2021
4048 Clear -31 1064 69 10000 0.74 65 02:47 06.01.2021
4049 Clear -32 1065 69 10000 1.12 62 02:26 06.01.2021
4050 Clear -32 1065 69 10000 1.12 62 01:34 06.01.2021
4051 Clear -32 1065 69 10000 1.25 70 23:34 05.01.2021
4052 Clear -32 1065 69 10000 1.22 69 22:45 05.01.2021
4053 Clear -32 1065 68 10000 1.19 70 22:22 05.01.2021
4054 Clear -32 1065 68 10000 1.19 70 21:57 05.01.2021
4055 Clear -33 1065 69 10000 1.19 66 21:18 05.01.2021
4056 Clear -33 1065 68 10000 1.08 52 20:29 05.01.2021
4057 Clear -33 1065 68 10000 1.08 52 19:45 05.01.2021
4058 Clear -33 1065 69 10000 0.93 55 19:24 05.01.2021
4059 Clear -33 1064 69 10000 1.03 53 18:46 05.01.2021
4060 Clear -33 1064 69 10000 1.08 54 18:28 05.01.2021
4061 Clear -33 1064 69 10000 1.08 54 17:53 05.01.2021
4062 Clear -33 1064 69 10000 1.08 54 17:31 05.01.2021
4063 Clear -33 1063 69 10000 1.26 55 16:53 05.01.2021
4064 Clear -32 1063 70 10000 1.47 48 16:23 05.01.2021
4065 Clear -32 1063 70 10000 1.47 48 15:58 05.01.2021
4066 Clear -32 1063 70 10000 1.47 48 15:34 05.01.2021
4067 Clear -32 1063 71 10000 1.52 51 14:47 05.01.2021
4068 Clear -32 1062 72 10000 1.69 51 13:55 05.01.2021
4069 Clear -32 1062 72 10000 1.69 51 13:36 05.01.2021
4070 Clear -32 1062 74 10000 1.81 55 12:52 05.01.2021
4071 Clouds -32 1062 76 10000 1.58 43 12:29 05.01.2021
4072 Clouds -32 1062 76 10000 1.58 43 11:53 05.01.2021
4073 -273 0 0 0 0 0 11:29 05.01.2021
4074 -273 0 0 0 0 0 11:28 05.01.2021
4075 Clouds -31 1061 78 10000 1.21 13 11:26 05.01.2021
4076 Clouds -31 1061 78 10000 1.21 13 10:44 05.01.2021
4077 Clouds -30 1059 80 10000 0.8 314 10:18 05.01.2021
4078 Clouds -30 1059 80 10000 0.8 314 09:41 05.01.2021
4079 Clouds -28 1057 81 10000 0.91 285 08:45 05.01.2021
4080 Clouds -27 1056 81 10000 0.75 294 08:18 05.01.2021
4081 Clouds -27 1057 81 10000 0.73 283 05:32 05.01.2021
4082 Clouds -31 1058 80 10000 0.54 86 02:58 05.01.2021
4083 Clouds -31 1057 81 4570 0.82 82 00:23 05.01.2021
4084 Clouds -31 1057 81 4570 0.82 82 23:41 04.01.2021
4085 Clouds -30 1057 81 3884 0.94 85 23:21 04.01.2021
4086 Clouds -30 1057 81 3884 0.94 85 22:45 04.01.2021
4087 Clouds -30 1057 81 3640 0.98 84 21:58 04.01.2021
4088 Clouds -30 1057 81 3640 0.98 84 21:40 04.01.2021
4089 Clouds -30 1057 82 3698 0.92 92 20:58 04.01.2021
4090 Clouds -30 1057 82 3698 0.92 92 20:37 04.01.2021
4091 Clouds -30 1057 82 4059 0.61 105 20:18 04.01.2021
4092 Clouds -30 1057 82 4059 0.61 105 19:41 04.01.2021
4093 Clouds -29 1056 82 2488 0.44 105 19:19 04.01.2021
4094 Clouds -29 1056 82 2567 0.35 126 18:43 04.01.2021
4095 Clouds -28 1056 82 1649 0.44 139 17:49 04.01.2021
4096 Clouds -28 1056 82 1363 0.62 138 17:28 04.01.2021
4097 Clouds -28 1056 82 1363 0.62 138 16:58 04.01.2021
4098 Clouds -28 1056 82 1363 0.62 138 16:39 04.01.2021
4099 Clouds -28 1055 82 1364 0.56 139 16:21 04.01.2021
4100 Clouds -28 1055 82 1364 0.56 139 15:47 04.01.2021
4101 Clouds -28 1055 82 1500 0.74 145 14:55 04.01.2021
4102 Clouds -28 1055 81 1562 0.88 137 13:57 04.01.2021
4103 Clouds -28 1055 81 1562 0.88 137 13:35 04.01.2021
4104 Clouds -29 1056 80 3478 0.89 123 12:53 04.01.2021
4105 Clouds -30 1056 80 5719 0.91 109 12:27 04.01.2021
4106 Clouds -30 1056 80 5719 0.91 109 11:40 04.01.2021
4107 Clouds -30 1055 79 10000 0.65 131 11:18 04.01.2021
4108 Clouds -30 1055 79 10000 0.65 131 10:44 04.01.2021
4109 Clouds -30 1055 79 10000 0.44 165 10:22 04.01.2021
4110 Clouds -28 1054 80 10000 0.19 210 09:26 04.01.2021
4111 Clouds -28 1054 80 10000 0.19 210 08:57 04.01.2021
4112 Clouds -27 1054 79 10000 0.64 248 08:22 04.01.2021
4113 Clouds -27 1054 79 10000 0.64 248 07:46 04.01.2021
4114 Clear -28 1058 77 10000 0.54 174 05:36 04.01.2021
4115 Clear -29 1059 77 10000 0.66 128 04:56 04.01.2021
4116 Clear -33 1059 75 10000 1.33 86 01:31 04.01.2021
4117 Clouds -33 1060 75 10000 1.19 86 00:20 04.01.2021
4118 Clouds -33 1060 75 10000 1.19 86 23:37 03.01.2021
4119 Clouds -33 1059 75 10000 1.03 93 22:57 03.01.2021
4120 Clouds -33 1059 75 10000 1.03 93 22:39 03.01.2021
4121 Clouds -33 1059 75 10000 0.98 89 22:21 03.01.2021
4122 Clouds -33 1059 75 10000 0.98 89 21:40 03.01.2021
4123 Clear -33 1059 75 10000 0.96 82 20:56 03.01.2021
4124 Clear -33 1059 75 10000 0.96 82 20:38 03.01.2021
4125 Clear -33 1059 75 10000 0.89 82 20:18 03.01.2021
4126 Clear -33 1059 75 10000 0.89 82 19:44 03.01.2021
4127 Clouds -33 1059 75 10000 1.12 78 19:22 03.01.2021
4128 Clouds -33 1059 76 10000 1.11 80 18:43 03.01.2021
4129 Clouds -33 1059 76 10000 1.21 76 18:23 03.01.2021
4130 Clouds -33 1059 76 10000 1.21 76 17:51 03.01.2021
4131 Clouds -32 1059 77 10000 1.25 71 17:27 03.01.2021
4132 Clouds -32 1059 77 10000 1.25 71 16:54 03.01.2021
4133 Clouds -32 1059 77 10000 1.25 71 16:36 03.01.2021
4134 Clouds -32 1058 78 10000 1.28 80 16:18 03.01.2021
4135 Clouds -32 1058 78 10000 1.28 80 15:39 03.01.2021
4136 Clouds -32 1057 79 10000 1.18 83 14:58 03.01.2021
4137 Clouds -32 1057 79 10000 1.18 83 14:33 03.01.2021
4138 Clouds -32 1057 79 10000 1.22 81 13:48 03.01.2021
4139 Clouds -32 1056 80 10000 1.23 72 13:24 03.01.2021
4140 Clouds -32 1056 80 10000 1.23 72 12:51 03.01.2021
4141 Clouds -31 1055 81 9184 0.91 75 11:44 03.01.2021
4142 Clouds -31 1054 81 10000 0.47 83 11:25 03.01.2021
4143 Clouds -31 1054 81 10000 0.47 83 10:55 03.01.2021
4144 Clouds -31 1054 81 10000 0.47 83 10:30 03.01.2021
4145 Clouds -30 1053 82 10000 0.12 228 09:41 03.01.2021
4146 Clouds -27 1052 83 10000 0.51 256 09:23 03.01.2021
4147 Clouds -26 1051 83 10000 0.61 262 07:54 03.01.2021
4148 Clouds -26 1052 82 6037 0.45 181 05:59 03.01.2021
4149 Clouds -30 1052 82 4842 0.83 82 02:28 03.01.2021
4150 Clouds -30 1052 82 4842 0.83 82 01:47 03.01.2021
4151 Clouds -30 1052 82 4842 0.83 82 01:47 03.01.2021
4152 Clouds -29 1051 83 2287 0.75 85 00:21 03.01.2021
4153 Clouds -29 1051 83 2287 0.75 85 23:30 02.01.2021
4154 Clouds -29 1050 83 2510 0.54 81 22:56 02.01.2021
4155 Clouds -29 1050 83 2510 0.54 81 22:32 02.01.2021
4156 Clouds -28 1050 83 3094 0.68 73 21:52 02.01.2021
4157 Clouds -28 1050 83 3094 0.68 73 21:32 02.01.2021
4158 Clouds -27 1050 84 2663 0.71 80 20:56 02.01.2021
4159 Clouds -27 1050 84 2663 0.71 80 20:38 02.01.2021
4160 Clouds -27 1049 84 1752 0.41 100 20:19 02.01.2021
4161 Snow -26 1048 84 1275 0.21 147 19:21 02.01.2021
4162 Clouds -26 1048 84 1275 0.21 147 18:58 02.01.2021
4163 Clouds -27 1049 84 2040 0.22 122 18:40 02.01.2021
4164 Clouds -26 1048 84 1828 0.3 131 18:20 02.01.2021
4165 Clouds -26 1048 84 1828 0.3 131 17:45 02.01.2021
4166 Clouds -26 1048 84 1316 0.38 129 16:59 02.01.2021
4167 Clouds -25 1048 85 931 0.26 147 16:23 02.01.2021
4168 Clouds -25 1048 85 931 0.26 147 15:54 02.01.2021
4169 Clouds -25 1048 85 931 0.26 147 15:33 02.01.2021
4170 Clouds -25 1047 85 901 0.26 211 14:58 02.01.2021
4171 Clouds -25 1047 85 901 0.26 211 14:36 02.01.2021
4172 Clouds -25 1047 85 893 0.35 242 13:51 02.01.2021
4173 Clouds -24 1046 85 1210 0.48 242 13:22 02.01.2021
4174 Clouds -24 1046 85 1210 0.48 242 12:48 02.01.2021
4175 Clouds -23 1045 86 1134 0.76 233 12:28 02.01.2021
4176 Clouds -23 1045 86 1134 0.76 233 11:44 02.01.2021
4177 Clouds -23 1044 86 1190 0.84 242 11:21 02.01.2021
4178 Clouds -23 1044 86 1190 0.84 242 10:42 02.01.2021
4179 Clouds -22 1043 86 2081 0.92 241 10:24 02.01.2021
4180 Clouds -22 1043 86 2081 0.92 241 09:43 02.01.2021
4181 Clouds -20 1042 86 2167 0.89 258 09:22 02.01.2021
4182 Clouds -20 1042 86 2167 0.89 258 08:49 02.01.2021
4183 Clouds -20 1041 85 2868 1.01 262 08:21 02.01.2021
4184 Clouds -20 1041 85 2868 1.01 262 07:43 02.01.2021
4185 Clouds -20 1042 83 6011 1.07 258 07:19 02.01.2021
4186 Clouds -20 1043 78 10000 0.57 230 06:25 02.01.2021
4187 Clouds -22 1044 76 10000 0.67 96 04:27 02.01.2021
4188 Clouds -24 1043 74 10000 1.01 83 00:54 02.01.2021
4189 Clouds -24 1043 74 10000 1.19 82 00:35 02.01.2021
4190 Clouds -24 1043 74 10000 1.46 82 23:44 01.01.2021
4191 Clouds -25 1043 73 10000 1.74 80 23:20 01.01.2021
4192 Clouds -25 1043 73 10000 1.74 80 22:47 01.01.2021
4193 Clouds -26 1044 73 10000 1.92 78 22:22 01.01.2021
4194 Clouds -26 1044 73 10000 1.92 78 21:43 01.01.2021
4195 Clouds -26 1044 73 10000 1.94 78 21:21 01.01.2021
4196 Clouds -26 1044 73 10000 1.94 78 20:52 01.01.2021
4197 Clear -26 1043 74 10000 1.86 77 20:20 01.01.2021
4198 Clear -26 1043 74 10000 1.86 77 19:43 01.01.2021
4199 Clear -26 1043 74 10000 1.87 78 19:23 01.01.2021
4200 Clear -26 1044 74 10000 1.98 78 18:52 01.01.2021
4201 Clear -26 1044 74 10000 1.98 78 18:34 01.01.2021
4202 Clear -26 1044 74 10000 2 79 17:59 01.01.2021
4203 Clear -26 1044 74 10000 2 79 17:41 01.01.2021
4204 Clear -26 1044 75 10000 1.95 80 17:18 01.01.2021
4205 Clear -26 1044 75 10000 1.95 80 16:37 01.01.2021
4206 Clear -26 1043 75 10000 1.86 79 15:45 01.01.2021
4207 Clear -26 1043 76 10000 1.81 78 14:56 01.01.2021
4208 Clear -26 1043 76 10000 1.81 78 14:37 01.01.2021
4209 Clear -26 1043 76 10000 1.85 77 13:46 01.01.2021
4210 Clear -26 1043 77 10000 1.85 75 13:25 01.01.2021
4211 Clear -26 1043 77 10000 1.85 75 12:43 01.01.2021
4212 Clear -25 1041 78 10000 1.78 78 12:18 01.01.2021
4213 Clear -25 1041 78 10000 1.78 78 11:39 01.01.2021
4214 Clouds -25 1041 78 10000 1.58 75 11:18 01.01.2021
4215 Clouds -25 1041 78 10000 1.58 75 10:43 01.01.2021
4216 Clouds -24 1039 79 10000 1.25 75 09:48 01.01.2021
4217 Clouds -22 1039 80 10000 0.94 75 09:21 01.01.2021
4218 Clouds -21 1039 81 10000 0.76 76 08:30 01.01.2021
4219 Clouds -23 1040 79 10000 1.21 89 04:53 01.01.2021
4220 Clouds -25 1041 73 10000 1.77 92 02:56 01.01.2021
4221 Clouds -26 1040 71 10000 1.71 91 01:37 01.01.2021
4222 Clouds -26 1039 70 10000 1.11 101 00:28 01.01.2021
4223 Clouds -26 1039 70 10000 1.11 101 23:37 31.12.2020
4224 Clouds -26 1038 69 10000 1.19 102 23:19 31.12.2020
4225 Clouds -26 1038 69 10000 1.19 102 22:40 31.12.2020
4226 Clouds -26 1038 68 10000 0.95 90 22:20 31.12.2020
4227 Clouds -26 1038 68 10000 0.95 90 21:47 31.12.2020
4228 Clouds -25 1038 68 10000 1.03 113 21:25 31.12.2020
4229 Clouds -25 1038 68 10000 1.03 113 20:54 31.12.2020
4230 Clouds -24 1037 67 10000 1.21 121 20:21 31.12.2020
4231 Clouds -24 1037 67 10000 1.21 121 19:48 31.12.2020
4232 Clouds -24 1037 67 10000 1.21 121 19:30 31.12.2020
4233 Clouds -25 1036 67 10000 1.06 125 18:50 31.12.2020
4234 Clouds -24 1036 70 10000 1.04 173 18:24 31.12.2020
4235 Clouds -24 1036 70 10000 1.04 173 17:45 31.12.2020
4236 Clouds -22 1036 72 10000 0.97 193 17:24 31.12.2020
4237 Clouds -22 1036 72 10000 0.97 193 16:44 31.12.2020
4238 Clouds -21 1035 74 10000 0.98 160 16:25 31.12.2020
4239 Clouds -21 1035 74 10000 0.98 160 15:54 31.12.2020
4240 Clouds -21 1035 74 10000 0.98 160 15:36 31.12.2020
4241 Clouds -21 1035 75 10000 1.19 145 15:18 31.12.2020
4242 Clouds -21 1035 75 10000 1.19 145 14:39 31.12.2020
4243 Clouds -21 1035 75 10000 1.19 145 14:39 31.12.2020
4244 Clouds -21 1034 76 10000 0.83 93 14:21 31.12.2020
4245 Clouds -21 1034 76 10000 0.83 93 13:39 31.12.2020
4246 Clouds -21 1034 75 10000 1.27 92 13:21 31.12.2020
4247 Clouds -21 1033 80 10000 1.09 114 12:55 31.12.2020
4248 Snow -21 1033 80 10000 1.09 114 12:36 31.12.2020
4249 Clouds -22 1033 79 10000 1 103 11:52 31.12.2020
4250 Clouds -22 1033 79 10000 1 103 11:32 31.12.2020
4251 Clouds -22 1032 78 10000 0.82 130 10:50 31.12.2020
4252 Clouds -22 1032 78 10000 0.82 130 10:30 31.12.2020
4253 Clouds -20 1031 78 10000 0.32 156 09:58 31.12.2020
4254 Clouds -20 1031 78 10000 0.32 156 09:38 31.12.2020
4255 Clouds -18 1030 79 10000 0.43 246 09:18 31.12.2020
4256 Clouds -18 1030 79 10000 0.43 246 08:45 31.12.2020
4257 Clouds -16 1030 82 10000 0.52 250 08:27 31.12.2020
4258 Clouds -16 1030 82 10000 0.52 250 07:51 31.12.2020
4259 Clouds -16 1030 79 10000 0.75 215 06:46 31.12.2020
4260 Clouds -16 1032 71 10000 0.48 200 05:29 31.12.2020
4261 Clouds -19 1032 62 10000 0.4 173 02:59 31.12.2020
4262 Clouds -20 1032 57 10000 0.65 110 02:26 31.12.2020
4263 Clouds -20 1032 57 10000 0.65 110 01:49 31.12.2020
4264 Clouds -21 1032 58 10000 0.72 96 01:28 31.12.2020
4265 Clouds -21 1032 58 10000 0.72 96 00:51 31.12.2020
4266 Clouds -21 1032 58 10000 0.46 123 23:55 30.12.2020
4267 Clouds -21 1033 57 10000 0.91 98 23:20 30.12.2020
4268 Clouds -21 1033 57 10000 0.91 98 22:52 30.12.2020
4269 Clouds -21 1033 57 10000 0.91 98 22:32 30.12.2020
4270 Clouds -20 1033 57 10000 0.93 84 21:48 30.12.2020
4271 Clouds -20 1034 57 10000 1.46 83 21:25 30.12.2020
4272 Clouds -20 1034 57 10000 1.46 83 20:52 30.12.2020
4273 Clouds -20 1034 56 10000 1.67 81 20:24 30.12.2020
4274 Clouds -20 1034 56 10000 1.67 81 19:42 30.12.2020
4275 Clouds -20 1035 54 10000 1.71 83 19:23 30.12.2020
4276 Clouds -20 1035 54 10000 1.71 83 18:56 30.12.2020
4277 Clouds -20 1035 56 10000 1.71 83 18:37 30.12.2020
4278 Clouds -20 1036 55 10000 1.64 85 18:18 30.12.2020
4279 Clouds -20 1036 55 10000 1.64 85 17:41 30.12.2020
4280 Clouds -20 1037 54 10000 1.61 88 17:20 30.12.2020
4281 Clouds -20 1037 54 10000 1.61 88 17:20 30.12.2020
4282 Clouds -20 1037 54 10000 1.61 88 16:37 30.12.2020
4283 Clouds -20 1038 53 10000 1.49 90 15:49 30.12.2020
4284 Clouds -20 1040 51 10000 1.5 93 15:26 30.12.2020
4285 Clouds -20 1040 51 10000 1.5 93 14:45 30.12.2020
4286 Clouds -20 1040 52 10000 1.49 92 14:26 30.12.2020
4287 Clouds -20 1040 52 10000 1.49 92 13:53 30.12.2020
4288 Clouds -20 1041 53 10000 1.78 89 12:49 30.12.2020
4289 Clear -20 1042 54 10000 2.11 84 12:24 30.12.2020
4290 Clear -20 1042 54 10000 2.11 84 11:39 30.12.2020
4291 Clear -20 1043 56 10000 2.28 81 11:20 30.12.2020
4292 Clear -20 1043 56 10000 2.28 81 10:54 30.12.2020
4293 Clear -20 1043 56 10000 2.28 81 10:35 30.12.2020
4294 Clear -19 1043 61 10000 1.94 83 09:53 30.12.2020
4295 Clear -19 1043 61 10000 1.94 83 09:35 30.12.2020
4296 Clear -18 1044 66 10000 1.63 87 08:35 30.12.2020
4297 Clear -18 1045 70 10000 1.75 86 07:32 30.12.2020
4298 Clear -18 1046 71 10000 1.93 84 06:54 30.12.2020
4299 Clear -18 1046 71 10000 1.93 84 06:32 30.12.2020
4300 Clear -19 1048 69 10000 2.04 85 05:45 30.12.2020
4301 Clear -21 1050 65 10000 2.07 86 05:27 30.12.2020
4302 Clear -25 1054 53 10000 2.41 87 03:28 30.12.2020
4303 Clear -25 1054 53 10000 2.41 87 02:45 30.12.2020
4304 Clear -25 1054 52 10000 2.36 85 02:25 30.12.2020
4305 Clear -25 1054 52 10000 2.36 85 01:34 30.12.2020
4306 Clear -26 1055 52 10000 2.41 85 00:51 30.12.2020
4307 Clear -26 1055 52 10000 2.4 85 00:32 30.12.2020
4308 Clear -26 1055 52 10000 2.38 85 23:57 29.12.2020
4309 Clear -26 1055 52 10000 2.38 85 23:39 29.12.2020
4310 Clear -26 1056 53 10000 2.29 84 23:18 29.12.2020
4311 Clear -26 1056 53 10000 2.29 84 22:41 29.12.2020
4312 Clear -27 1058 53 10000 2.22 86 22:23 29.12.2020
4313 Clear -27 1058 53 10000 2.22 86 21:46 29.12.2020
4314 Clear -27 1059 52 10000 2.27 84 21:26 29.12.2020
4315 Clear -27 1059 52 10000 2.27 84 20:48 29.12.2020
4316 Clear -27 1059 53 10000 2.26 83 20:26 29.12.2020
4317 Clear -27 1059 53 10000 2.26 83 19:56 29.12.2020
4318 Clear -27 1059 53 10000 2.26 83 19:37 29.12.2020
4319 Clear -27 1060 52 10000 2.19 83 19:18 29.12.2020
4320 Clear -27 1060 52 10000 2.23 82 18:39 29.12.2020
4321 Clear -28 1060 52 10000 2.15 83 18:18 29.12.2020
4322 Clear -28 1060 52 10000 2.15 83 17:38 29.12.2020
4323 Clear -28 1060 52 10000 2.15 83 17:38 29.12.2020
4324 Clear -28 1061 53 10000 1.99 85 17:19 29.12.2020
4325 Clear -28 1061 53 10000 1.99 85 16:36 29.12.2020
4326 Clear -28 1062 54 10000 1.79 85 15:59 29.12.2020
4327 Clear -28 1062 54 10000 1.79 85 15:36 29.12.2020
4328 Clear -28 1062 54 10000 1.78 85 14:58 29.12.2020
4329 Clear -28 1062 54 10000 1.78 85 14:36 29.12.2020
4330 Clear -28 1062 55 10000 1.78 81 14:18 29.12.2020
4331 Clear -28 1062 55 10000 1.78 81 13:39 29.12.2020
4332 Clear -28 1062 56 10000 1.85 78 13:18 29.12.2020
4333 Clear -28 1062 56 10000 1.9 77 12:37 29.12.2020
4334 Clear -28 1062 57 10000 1.87 80 12:19 29.12.2020
4335 Clear -28 1062 57 10000 1.87 80 11:52 29.12.2020
4336 Clear -28 1062 57 10000 1.87 80 11:31 29.12.2020
4337 Clear -28 1062 61 10000 0.94 79 10:23 29.12.2020
4338 Clear -28 1062 61 10000 0.94 79 09:48 29.12.2020
4339 Clear -27 1062 63 10000 0.46 70 09:19 29.12.2020
4340 Clear -27 1062 63 10000 0.46 70 08:50 29.12.2020
4341 Clear -26 1061 68 10000 0.36 69 07:58 29.12.2020
4342 Clear -26 1062 70 10000 0.67 74 07:26 29.12.2020
4343 Clear -27 1063 68 10000 1.01 75 06:19 29.12.2020
4344 Clear -32 1067 58 10000 1.73 79 03:18 29.12.2020
4345 Clear -32 1066 58 10000 1.61 78 00:44 29.12.2020
4346 Clear -33 1066 59 10000 1.52 78 23:41 28.12.2020
4347 Clear -33 1066 59 10000 1.57 77 22:58 28.12.2020
4348 Clear -33 1065 60 10000 1.6 80 22:23 28.12.2020
4349 Clear -33 1065 60 10000 1.6 80 21:44 28.12.2020
4350 Clear -33 1065 60 10000 1.68 80 21:23 28.12.2020
4351 Clear -33 1065 60 10000 1.68 80 20:40 28.12.2020
4352 Clear -33 1065 60 10000 1.61 81 20:22 28.12.2020
4353 Clear -33 1065 60 10000 1.61 81 19:42 28.12.2020
4354 Clear -33 1065 60 10000 1.5 79 19:23 28.12.2020
4355 Clear -33 1065 60 10000 1.5 79 18:50 28.12.2020
4356 Clear -33 1064 59 10000 1.56 79 18:28 28.12.2020
4357 Clear -33 1064 59 10000 1.56 79 17:44 28.12.2020
4358 Clear -32 1064 59 10000 1.6 77 17:25 28.12.2020
4359 Clear -32 1064 59 10000 1.6 77 16:43 28.12.2020
4360 Clear -32 1064 59 10000 1.67 77 16:23 28.12.2020
4361 Clear -32 1064 59 10000 1.67 77 15:46 28.12.2020
4362 Clear -32 1063 59 10000 1.63 82 14:57 28.12.2020
4363 Clear -32 1063 60 10000 1.66 82 13:56 28.12.2020
4364 Clear -32 1063 60 10000 1.66 82 13:35 28.12.2020
4365 Clear -32 1063 61 10000 1.58 79 12:51 28.12.2020
4366 Clear -32 1062 62 10000 1.4 76 12:23 28.12.2020
4367 Clear -32 1062 62 10000 1.4 76 11:47 28.12.2020
4368 Clear -32 1062 63 10000 1.19 77 11:24 28.12.2020
4369 Clear -32 1062 63 10000 1.19 77 10:49 28.12.2020
4370 Clear -31 1060 65 10000 0.89 77 10:27 28.12.2020
4371 Clear -31 1060 65 10000 0.89 77 09:46 28.12.2020
4372 Clear -29 1059 67 10000 0.66 79 09:20 28.12.2020
4373 Clear -28 1059 71 10000 0.33 87 07:40 28.12.2020
4374 Clear -27 1059 70 10000 0.31 89 06:50 28.12.2020
4375 Clear -30 1060 68 10000 1.09 86 04:37 28.12.2020
4376 Clear -33 1060 62 10000 1.9 72 02:27 28.12.2020
4377 Clear -32 1059 62 10000 2.03 66 00:53 28.12.2020
4378 Clear -32 1059 62 10000 2.03 66 00:53 28.12.2020
4379 Clear -32 1058 62 10000 1.88 65 23:46 27.12.2020
4380 Clear -32 1057 63 10000 1.84 63 23:19 27.12.2020
4381 Clear -31 1056 63 10000 1.86 57 21:58 27.12.2020
4382 Clear -31 1055 64 10000 1.94 55 21:26 27.12.2020
4383 Clear -31 1055 64 10000 1.94 55 20:47 27.12.2020
4384 Clear -30 1054 65 10000 1.9 51 19:46 27.12.2020
4385 Clouds -30 1052 65 10000 1.91 47 19:22 27.12.2020
4386 Clouds -30 1052 66 10000 2.28 48 18:42 27.12.2020
4387 Clouds -29 1051 66 10000 2.36 44 18:19 27.12.2020
4388 Clouds -29 1051 66 10000 2.36 44 17:47 27.12.2020
4389 Clouds -28 1050 67 10000 2.16 38 17:27 27.12.2020
4390 Clouds -28 1050 67 10000 2.16 38 16:37 27.12.2020
4391 Clouds -27 1048 68 10000 2.16 34 15:56 27.12.2020
4392 Clouds -26 1047 70 10000 2.31 29 14:59 27.12.2020
4393 Clouds -26 1047 70 10000 2.31 29 14:41 27.12.2020
4394 Clouds -25 1046 72 10000 2.3 25 14:19 27.12.2020
4395 Clouds -23 1044 74 10000 2.23 26 13:22 27.12.2020
4396 Clouds -23 1043 74 10000 2.35 22 12:43 27.12.2020
4397 Clouds -22 1041 76 10000 2.48 23 11:56 27.12.2020
4398 Clouds -22 1041 76 10000 2.48 23 11:36 27.12.2020
4399 Clouds -21 1040 79 10000 2.57 20 10:52 27.12.2020
4400 Clouds -19 1038 81 10000 2.57 12 10:24 27.12.2020
4401 Clouds -19 1038 81 10000 2.57 12 09:47 27.12.2020
4402 Snow -18 1036 83 10000 2.42 3 08:39 27.12.2020
4403 Snow -17 1035 84 10000 2.27 359 08:20 27.12.2020
4404 Clouds -17 1034 86 6178 2 360 07:26 27.12.2020
4405 Snow -17 1033 83 10000 1.68 16 05:44 27.12.2020
4406 Clouds -19 1034 82 10000 1.6 48 03:59 27.12.2020
4407 Snow -20 1034 81 10000 1.55 53 03:19 27.12.2020
4408 Clouds -21 1033 82 10000 1.47 63 01:34 27.12.2020
4409 Clouds -21 1033 81 10000 1.96 69 00:20 27.12.2020
4410 Clouds -21 1032 84 10000 1.41 71 23:27 26.12.2020
4411 Clouds -21 1032 84 10000 1.41 71 22:50 26.12.2020
4412 Clouds -20 1032 86 10000 1.2 79 22:21 26.12.2020
4413 Clouds -20 1032 86 10000 1.2 79 21:59 26.12.2020
4414 Clouds -20 1032 86 10000 1.2 79 21:40 26.12.2020
4415 Clouds -19 1032 87 7345 1.14 59 21:19 26.12.2020
4416 Clouds -19 1032 87 7345 1.14 59 20:41 26.12.2020
4417 Clouds -19 1031 88 2053 0.81 42 20:18 26.12.2020
4418 Clouds -18 1030 89 694 0.76 343 19:26 26.12.2020
4419 Clouds -18 1030 89 708 0.48 312 18:50 26.12.2020
4420 Clouds -17 1029 89 333 0.99 283 18:28 26.12.2020
4421 Clouds -17 1029 89 333 0.99 283 17:41 26.12.2020
4422 Clouds -16 1028 90 449 1.14 255 17:20 26.12.2020
4423 Clouds -16 1028 90 449 1.14 255 16:36 26.12.2020
4424 Snow -14 1026 91 324 1.61 196 15:27 26.12.2020
4425 Snow -14 1026 91 324 1.61 196 14:51 26.12.2020
4426 Snow -14 1025 91 179 1.17 249 14:28 26.12.2020
4427 Snow -14 1025 91 179 1.17 249 13:47 26.12.2020
4428 Snow -14 1024 89 298 0.38 252 13:28 26.12.2020
4429 Snow -14 1024 89 298 0.38 252 12:45 26.12.2020
4430 Clouds -14 1023 87 5960 0.31 156 12:22 26.12.2020
4431 Clouds -14 1023 87 5960 0.31 156 11:51 26.12.2020
4432 Clouds -14 1022 85 10000 1.3 132 11:22 26.12.2020
4433 Clouds -14 1022 85 10000 1.3 132 10:54 26.12.2020
4434 Clouds -13 1021 85 10000 0.38 85 10:27 26.12.2020
4435 Clouds -13 1021 85 10000 0.38 85 09:51 26.12.2020
4436 Clouds -12 1021 84 10000 0.6 357 09:28 26.12.2020
4437 Clouds -12 1021 84 10000 0.6 357 08:33 26.12.2020
4438 Clouds -11 1020 85 10000 0.12 28 07:53 26.12.2020
4439 Clouds -12 1020 85 10000 0.64 104 06:31 26.12.2020
4440 Clear -17 1024 79 10000 2.32 81 03:19 26.12.2020
4441 Clear -17 1024 79 10000 2.31 82 01:35 26.12.2020
4442 Clear -17 1024 79 10000 2.13 87 00:26 26.12.2020
4443 Clear -17 1024 79 10000 2.13 87 23:40 25.12.2020
4444 Clear -17 1023 79 10000 2.01 92 23:22 25.12.2020
4445 Clear -17 1023 79 10000 2.01 92 22:42 25.12.2020
4446 Clear -17 1023 79 10000 2.27 96 21:58 25.12.2020
4447 Clear -17 1023 79 10000 2.27 96 21:58 25.12.2020
4448 Clear -17 1023 79 10000 2.27 96 21:34 25.12.2020
4449 Clear -17 1024 79 10000 2.06 79 20:56 25.12.2020
4450 Clear -17 1024 79 10000 2.06 79 20:37 25.12.2020
4451 Clear -17 1024 79 10000 1.89 83 19:48 25.12.2020
4452 Clear -16 1024 79 10000 2.11 93 19:21 25.12.2020
4453 Clear -16 1024 79 10000 2.11 93 18:39 25.12.2020
4454 Clear -17 1024 78 10000 1.79 84 17:47 25.12.2020
4455 Clear -16 1023 78 10000 1.89 95 17:28 25.12.2020
4456 Clear -16 1023 78 10000 1.89 95 16:33 25.12.2020
4457 Clear -16 1023 78 10000 1.93 91 15:59 25.12.2020
4458 Clear -16 1023 78 10000 1.93 91 15:36 25.12.2020
4459 Clear -16 1023 78 10000 1.98 94 14:54 25.12.2020
4460 Clear -16 1023 78 10000 1.93 95 14:29 25.12.2020
4461 Clear -16 1023 78 10000 1.93 95 13:45 25.12.2020
4462 Clear -16 1023 78 10000 1.88 95 13:26 25.12.2020
4463 Clear -16 1023 78 10000 1.88 95 12:45 25.12.2020
4464 Clear -15 1022 78 10000 1.55 93 11:58 25.12.2020
4465 Clear -15 1022 78 10000 1.55 93 11:40 25.12.2020
4466 Clear -15 1021 78 10000 1.36 101 11:19 25.12.2020
4467 Clear -14 1020 80 10000 1.08 116 10:27 25.12.2020
4468 Clear -14 1020 80 10000 1.08 116 09:37 25.12.2020
4469 Clear -13 1020 81 10000 0.74 108 08:48 25.12.2020
4470 Clear -12 1019 83 10000 0.49 121 08:25 25.12.2020
4471 Clouds -11 1020 84 10000 0.72 146 06:47 25.12.2020
4472 Clouds -14 1021 79 10000 1.33 102 04:29 25.12.2020
4473 Clouds -14 1021 78 10000 1.58 85 01:42 25.12.2020
4474 Clouds -14 1021 78 10000 1.88 86 00:18 25.12.2020
4475 Clouds -14 1021 78 10000 1.89 83 23:23 24.12.2020
4476 Clouds -14 1021 78 10000 1.89 83 22:51 24.12.2020
4477 Clouds -14 1022 78 10000 1.97 87 22:22 24.12.2020
4478 Clouds -14 1022 78 10000 1.97 87 21:36 24.12.2020
4479 Clouds -14 1022 77 10000 1.94 81 20:42 24.12.2020
4480 Clouds -13 1023 78 10000 1.8 81 18:52 24.12.2020
4481 Clouds -14 1023 78 10000 1.87 85 18:19 24.12.2020
4482 Clouds -14 1023 78 10000 1.87 85 17:37 24.12.2020
4483 Clouds -14 1023 77 10000 2.06 83 16:45 24.12.2020
4484 Clouds -15 1023 75 10000 2.12 80 16:22 24.12.2020
4485 Clouds -15 1023 75 10000 2.12 80 15:42 24.12.2020
4486 Clouds -15 1024 75 10000 2.14 84 15:19 24.12.2020
4487 Clouds -15 1024 75 10000 2.14 84 14:49 24.12.2020
4488 Clouds -15 1024 74 10000 2.17 83 14:24 24.12.2020
4489 Clouds -15 1024 74 10000 2.17 83 13:43 24.12.2020
4490 Clouds -15 1024 73 10000 2.11 83 13:25 24.12.2020
4491 Clouds -15 1024 73 10000 1.98 83 12:44 24.12.2020
4492 Clouds -15 1024 73 10000 1.83 86 12:21 24.12.2020
4493 Clouds -15 1024 73 10000 1.83 86 11:47 24.12.2020
4494 Clouds -15 1024 74 10000 1.53 96 11:21 24.12.2020
4495 Clouds -15 1024 74 10000 1.53 96 10:53 24.12.2020
4496 Clouds -15 1024 74 10000 1.53 96 10:34 24.12.2020
4497 Clouds -14 1023 75 10000 1.34 104 09:52 24.12.2020
4498 Clouds -14 1023 75 10000 1.34 104 09:52 24.12.2020
4499 Clouds -13 1023 77 10000 1.14 113 09:25 24.12.2020
4500 Clouds -12 1023 79 10000 0.89 122 08:25 24.12.2020
4501 Clouds -12 1023 79 10000 0.89 122 07:41 24.12.2020
4502 Clouds -12 1023 80 10000 0.76 127 07:18 24.12.2020
4503 Clouds -13 1023 80 10000 1.05 129 05:36 24.12.2020
4504 Clear -18 1027 73 10000 2.41 88 01:57 24.12.2020
4505 Clear -18 1027 73 10000 2.41 88 01:57 24.12.2020
4506 Clear -18 1027 73 10000 2.41 88 01:57 24.12.2020
4507 Clear -18 1027 73 10000 2.41 88 01:36 24.12.2020
4508 Clear -19 1028 73 10000 2.54 89 01:18 24.12.2020
4509 Clear -19 1028 73 10000 2.54 89 01:18 24.12.2020
4510 Clear -19 1028 73 10000 2.68 88 00:21 24.12.2020
4511 Clear -19 1028 73 10000 2.68 88 23:46 23.12.2020
4512 Clear -20 1029 71 10000 2.77 92 23:26 23.12.2020
4513 Clear -20 1029 71 10000 2.77 92 22:55 23.12.2020
4514 Clear -20 1029 71 10000 2.77 92 22:30 23.12.2020
4515 Clear -20 1030 70 10000 2.67 89 21:52 23.12.2020
4516 Clear -20 1032 68 10000 2.48 87 21:27 23.12.2020
4517 Clear -20 1032 68 10000 2.48 87 20:54 23.12.2020
4518 Clear -20 1032 68 10000 2.48 87 20:36 23.12.2020
4519 Clear -21 1032 66 10000 2.41 88 20:18 23.12.2020
4520 Clear -21 1032 66 10000 2.41 88 19:39 23.12.2020
4521 Clear -21 1033 66 10000 2.35 90 19:20 23.12.2020
4522 Clear -21 1033 65 10000 2.33 90 18:47 23.12.2020
4523 Clear -21 1033 65 10000 2.19 93 18:22 23.12.2020
4524 Clear -21 1033 65 10000 2.19 93 17:39 23.12.2020
4525 Clear -21 1033 65 10000 2.19 93 17:39 23.12.2020
4526 Clear -21 1034 65 10000 2.23 97 17:20 23.12.2020
4527 Clear -21 1034 65 10000 2.23 97 16:47 23.12.2020
4528 Clear -22 1034 66 10000 2.05 92 16:29 23.12.2020
4529 Clear -22 1034 66 10000 2.05 92 15:54 23.12.2020
4530 Clear -22 1034 67 10000 2.1 91 15:29 23.12.2020
4531 Clear -22 1034 67 10000 2.1 91 14:59 23.12.2020
4532 Clear -22 1034 67 10000 2.1 91 14:39 23.12.2020
4533 Clouds -22 1034 68 10000 2.23 97 14:20 23.12.2020
4534 Clouds -22 1034 68 10000 2.23 97 13:43 23.12.2020
4535 Clear -22 1033 69 10000 2.09 92 13:19 23.12.2020
4536 Clear -22 1033 69 10000 2.09 92 12:52 23.12.2020
4537 Clear -21 1033 70 10000 2.19 93 12:28 23.12.2020
4538 Clear -21 1033 70 10000 2.19 93 11:49 23.12.2020
4539 Clear -21 1033 71 10000 2.08 93 11:20 23.12.2020
4540 Clear -21 1033 71 10000 2.08 93 10:50 23.12.2020
4541 Clear -21 1033 71 10000 2.08 93 10:31 23.12.2020
4542 Clear -20 1033 73 10000 1.82 97 09:36 23.12.2020
4543 Clear -19 1032 75 10000 1.53 99 08:50 23.12.2020
4544 Clear -18 1032 78 10000 1.42 100 08:21 23.12.2020
4545 Clear -18 1032 78 10000 1.42 100 07:37 23.12.2020
4546 Clouds -19 1033 79 10000 1.35 100 06:41 23.12.2020
4547 Clouds -20 1034 78 10000 1.57 100 05:41 23.12.2020
4548 Clouds -21 1036 76 10000 1.78 95 04:59 23.12.2020
4549 Clouds -25 1037 71 10000 2.25 93 01:31 23.12.2020
4550 Clouds -24 1038 71 10000 2.12 92 00:25 23.12.2020
4551 Clouds -24 1038 71 10000 2.12 92 23:36 22.12.2020
4552 Clouds -25 1038 71 10000 2.02 93 23:18 22.12.2020
4553 Clouds -25 1038 71 10000 2.02 93 22:41 22.12.2020
4554 Clouds -24 1038 71 10000 2.04 94 22:20 22.12.2020
4555 Clouds -24 1038 71 10000 2.04 94 21:45 22.12.2020
4556 Clouds -24 1038 72 10000 1.98 90 21:20 22.12.2020
4557 Clouds -24 1038 72 10000 1.98 90 20:49 22.12.2020
4558 Clouds -24 1038 73 10000 2 91 20:25 22.12.2020
4559 Clouds -24 1038 73 10000 2 91 19:49 22.12.2020
4560 Clouds -24 1038 73 10000 2 88 19:26 22.12.2020
4561 Clouds -24 1038 73 10000 1.95 94 18:56 22.12.2020
4562 Clouds -24 1038 73 10000 1.95 94 18:36 22.12.2020
4563 Clouds -24 1038 73 10000 1.99 91 18:18 22.12.2020
4564 Clouds -24 1038 73 10000 1.99 91 17:36 22.12.2020
4565 Clouds -24 1038 74 10000 2.07 88 17:18 22.12.2020
4566 Clouds -24 1038 74 10000 2.07 88 16:46 22.12.2020
4567 Clouds -24 1039 75 10000 2.14 86 16:19 22.12.2020
4568 Clouds -24 1039 75 10000 2.14 86 15:45 22.12.2020
4569 Clear -24 1039 76 10000 2.1 86 15:27 22.12.2020
4570 Clear -24 1039 76 10000 2.1 86 14:46 22.12.2020
4571 Clear -24 1039 77 10000 2.09 83 14:28 22.12.2020
4572 Clear -24 1039 77 10000 2.09 83 13:55 22.12.2020
4573 Clear -24 1039 77 10000 2.09 83 13:36 22.12.2020
4574 Clear -24 1038 78 10000 2.06 87 13:18 22.12.2020
4575 Clear -24 1038 78 10000 2.06 87 12:42 22.12.2020
4576 Clear -24 1038 80 10000 1.88 90 12:22 22.12.2020
4577 Clear -24 1038 80 10000 1.88 90 11:55 22.12.2020
4578 Clear -24 1038 80 10000 1.88 90 11:37 22.12.2020
4579 Clear -24 1038 81 10000 1.35 90 11:18 22.12.2020
4580 Clear -24 1038 81 10000 1.35 90 10:45 22.12.2020
4581 Clear -23 1037 83 10000 0.67 92 10:23 22.12.2020
4582 Clear -23 1037 83 10000 0.67 92 09:49 22.12.2020
4583 Clear -21 1037 83 10000 0.2 143 09:21 22.12.2020
4584 Clear -21 1037 83 10000 0.2 143 08:45 22.12.2020
4585 Clear -20 1036 84 10000 0.1 145 08:25 22.12.2020
4586 Clear -20 1036 84 10000 0.1 145 07:47 22.12.2020
4587 Clouds -19 1037 84 10000 0.22 240 06:37 22.12.2020
4588 Clouds -19 1037 84 10000 0.04 297 05:39 22.12.2020
4589 Clouds -23 1038 83 10000 1.25 32 02:36 22.12.2020
4590 Clouds -21 1035 86 5342 1.08 352 00:43 22.12.2020
4591 Clouds -20 1033 87 2297 0.83 284 23:51 21.12.2020
4592 Clouds -19 1032 88 2404 1.28 251 23:23 21.12.2020
4593 Clouds -19 1032 88 2404 1.28 251 22:37 21.12.2020
4594 Clouds -17 1030 89 2241 1.33 250 22:19 21.12.2020
4595 Clouds -17 1030 89 2241 1.33 250 21:48 21.12.2020
4596 Clouds -17 1030 89 2241 1.33 250 21:30 21.12.2020
4597 Clouds -15 1029 90 2340 1.32 252 20:46 21.12.2020
4598 Snow -14 1028 91 326 1.13 275 20:23 21.12.2020
4599 Snow -14 1028 91 326 1.13 275 19:55 21.12.2020
4600 Snow -14 1028 91 326 1.13 275 19:36 21.12.2020
4601 Snow -14 1026 91 160 1.75 286 19:18 21.12.2020
4602 Snow -14 1027 91 244 1.71 262 18:45 21.12.2020
4603 Snow -14 1026 91 128 1.66 253 18:27 21.12.2020
4604 Snow -14 1026 91 128 1.66 253 17:43 21.12.2020
4605 Snow -13 1025 92 184 1.56 223 17:23 21.12.2020
4606 Snow -13 1025 92 184 1.56 223 16:45 21.12.2020
4607 Snow -13 1024 92 168 1.5 199 16:23 21.12.2020
4608 Snow -13 1024 92 168 1.5 199 15:43 21.12.2020
4609 Snow -12 1024 92 188 0.93 178 15:18 21.12.2020
4610 Snow -12 1024 92 188 0.93 178 14:54 21.12.2020
4611 Snow -13 1023 90 452 0.4 22 14:20 21.12.2020
4612 Snow -13 1023 90 452 0.4 22 13:42 21.12.2020
4613 Clouds -12 1023 79 10000 0.74 331 13:22 21.12.2020
4614 Clouds -12 1023 77 10000 1.07 351 12:43 21.12.2020
4615 Clouds -12 1023 76 10000 0.69 276 12:23 21.12.2020
4616 Clouds -12 1023 76 10000 0.69 276 11:43 21.12.2020
4617 Clouds -12 1023 72 10000 0.88 217 11:23 21.12.2020
4618 Clouds -12 1023 72 10000 0.88 217 10:58 21.12.2020
4619 Snow -12 1023 72 10000 0.88 217 10:40 21.12.2020
4620 Clouds -11 1023 72 10000 1.23 86 09:59 21.12.2020
4621 Snow -11 1023 72 10000 1.23 86 09:40 21.12.2020
4622 Clouds -10 1022 74 10000 1.39 82 09:22 21.12.2020
4623 Clouds -10 1022 74 10000 1.39 82 08:47 21.12.2020
4624 Clouds -10 1022 77 10000 1.53 102 07:31 21.12.2020
4625 Clouds -11 1025 77 10000 1.07 172 05:50 21.12.2020
4626 Clouds -12 1026 74 10000 1.07 118 04:31 21.12.2020
4627 Clouds -15 1028 62 10000 1.82 90 00:38 21.12.2020
4628 Clouds -15 1028 63 10000 1.86 85 23:52 20.12.2020
4629 Clouds -15 1028 62 10000 2 84 23:21 20.12.2020
4630 Clouds -15 1028 62 10000 2 84 22:55 20.12.2020
4631 Clouds -15 1028 62 10000 2 84 22:37 20.12.2020
4632 Clouds -15 1029 62 10000 2.13 91 22:19 20.12.2020
4633 Clouds -15 1029 62 10000 2.13 91 21:38 20.12.2020
4634 Clouds -16 1030 63 10000 2.11 89 21:19 20.12.2020
4635 Clouds -16 1030 63 10000 2.11 89 20:45 20.12.2020
4636 Clouds -16 1030 63 10000 2.16 91 20:22 20.12.2020
4637 Clouds -16 1030 63 10000 2.16 91 19:44 20.12.2020
4638 Clouds -15 1030 63 10000 2.1 94 19:24 20.12.2020
4639 Clouds -16 1030 63 10000 2.15 98 18:54 20.12.2020
4640 Clouds -16 1030 63 10000 2.15 98 18:36 20.12.2020
4641 Clouds -16 1030 63 10000 2.15 98 18:36 20.12.2020
4642 Clouds -16 1030 63 10000 2.07 96 17:55 20.12.2020
4643 Clouds -16 1030 63 10000 2.07 96 17:36 20.12.2020
4644 Clouds -16 1030 64 10000 2.15 94 17:18 20.12.2020
4645 Clouds -16 1030 64 10000 2.15 94 16:43 20.12.2020
4646 Clouds -15 1031 65 10000 2.25 93 16:23 20.12.2020
4647 Clouds -15 1031 65 10000 2.25 93 15:40 20.12.2020
4648 Clouds -15 1031 66 10000 2.2 98 15:22 20.12.2020
4649 Clouds -15 1031 66 10000 2.2 98 14:45 20.12.2020
4650 Clear -15 1031 66 10000 2.26 103 14:27 20.12.2020
4651 Clear -15 1031 66 10000 2.26 103 13:44 20.12.2020
4652 Clear -14 1031 68 10000 2.07 98 13:23 20.12.2020
4653 Clear -14 1031 68 10000 2.07 98 12:51 20.12.2020
4654 Clear -14 1031 69 10000 2.25 99 12:23 20.12.2020
4655 Clear -14 1031 69 10000 2.25 99 11:51 20.12.2020
4656 Clear -13 1031 71 10000 2.16 91 11:26 20.12.2020
4657 Clear -13 1031 71 10000 2.16 91 10:49 20.12.2020
4658 Clear -12 1030 74 10000 2.1 88 10:22 20.12.2020
4659 Clear -12 1030 74 10000 2.1 88 09:56 20.12.2020
4660 Clear -12 1030 74 10000 2.1 88 09:37 20.12.2020
4661 Clear -11 1030 76 10000 1.82 85 09:18 20.12.2020
4662 Clear -11 1030 76 10000 1.82 85 08:47 20.12.2020
4663 Clear -10 1031 79 10000 1.7 85 08:28 20.12.2020
4664 Clear -10 1032 80 10000 1.64 86 07:21 20.12.2020
4665 Clear -14 1036 74 10000 2.19 87 03:44 20.12.2020
4666 Clear -17 1038 72 10000 2.36 81 01:25 20.12.2020
4667 Clear -17 1038 72 10000 2.28 79 23:58 19.12.2020
4668 Clear -17 1039 73 10000 2.17 78 23:18 19.12.2020
4669 Clear -17 1039 73 10000 2.17 78 22:44 19.12.2020
4670 Clear -17 1039 73 10000 2.15 76 22:25 19.12.2020
4671 Clear -17 1039 73 10000 2.15 76 21:58 19.12.2020
4672 Clear -17 1039 73 10000 2.15 76 21:38 19.12.2020
4673 Clear -17 1040 73 10000 2.06 80 21:20 19.12.2020
4674 Clear -17 1040 73 10000 2.06 80 20:37 19.12.2020
4675 Clear -18 1040 73 10000 1.89 81 20:18 19.12.2020
4676 Clear -18 1040 73 10000 1.89 81 19:46 19.12.2020
4677 Clear -18 1040 73 10000 1.69 81 19:24 19.12.2020
4678 Clear -18 1040 73 10000 1.71 80 18:34 19.12.2020
4679 Clear -18 1040 73 10000 1.66 81 17:58 19.12.2020
4680 Clear -18 1040 73 10000 1.66 81 17:37 19.12.2020
4681 Clear -18 1040 73 10000 1.67 88 17:19 19.12.2020
4682 Clear -18 1040 73 10000 1.67 88 16:40 19.12.2020
4683 Clear -17 1040 73 10000 1.7 81 16:22 19.12.2020
4684 Clear -17 1040 73 10000 1.7 81 15:54 19.12.2020
4685 Clear -17 1040 73 10000 1.7 81 15:30 19.12.2020
4686 Clear -17 1041 73 10000 1.8 82 14:40 19.12.2020
4687 Clear -17 1040 73 10000 1.78 86 13:59 19.12.2020
4688 Clear -17 1040 73 10000 1.78 86 13:41 19.12.2020
4689 Clouds -17 1040 73 10000 1.63 81 13:19 19.12.2020
4690 Clouds -17 1040 73 10000 1.63 81 12:42 19.12.2020
4691 Clouds -17 1040 74 10000 1.64 80 12:24 19.12.2020
4692 Clouds -17 1040 74 10000 1.64 80 11:56 19.12.2020
4693 Clouds -17 1040 74 10000 1.64 80 11:35 19.12.2020
4694 Clouds -16 1040 74 10000 1.38 78 10:42 19.12.2020
4695 Clouds -16 1039 75 10000 1.12 76 10:21 19.12.2020
4696 Clouds -16 1039 75 10000 1.12 76 09:42 19.12.2020
4697 Clouds -14 1038 76 10000 0.96 80 08:59 19.12.2020
4698 Clear -13 1038 79 10000 0.79 83 08:25 19.12.2020
4699 Clouds -13 1039 80 10000 0.88 86 07:24 19.12.2020
4700 Clouds -13 1039 80 10000 0.88 86 06:51 19.12.2020
4701 Clouds -14 1039 79 10000 1.23 87 06:18 19.12.2020
4702 Clouds -15 1041 77 10000 1.51 83 05:18 19.12.2020
4703 Clear -18 1043 72 10000 1.89 84 02:55 19.12.2020
4704 Clear -18 1042 72 10000 2.02 83 00:36 19.12.2020
4705 Clear -19 1042 73 10000 1.99 82 00:18 19.12.2020
4706 Clear -19 1042 73 10000 1.99 82 23:45 18.12.2020
4707 Clear -19 1043 74 10000 1.99 85 23:23 18.12.2020
4708 Clear -19 1043 74 10000 1.99 85 22:45 18.12.2020
4709 Clear -19 1043 74 10000 2.04 82 22:21 18.12.2020
4710 Clear -19 1043 74 10000 2.04 82 21:50 18.12.2020
4711 Clear -19 1043 74 10000 2.04 82 21:31 18.12.2020
4712 Clear -19 1043 75 10000 1.96 79 20:40 18.12.2020
4713 Clear -19 1044 75 10000 1.96 81 20:20 18.12.2020
4714 Clear -19 1044 75 10000 1.96 81 19:42 18.12.2020
4715 Clear -19 1044 75 10000 2.06 82 19:20 18.12.2020
4716 Clear -19 1044 75 10000 2.07 82 18:40 18.12.2020
4717 Clear -19 1044 76 10000 2.02 80 18:22 18.12.2020
4718 Clear -19 1045 76 10000 1.91 79 17:24 18.12.2020
4719 Clear -19 1045 76 10000 1.91 79 16:49 18.12.2020
4720 Clear -19 1045 76 10000 1.93 79 16:27 18.12.2020
4721 Clear -19 1045 76 10000 1.93 79 15:59 18.12.2020
4722 Clear -19 1045 76 10000 1.93 79 15:41 18.12.2020
4723 Clear -19 1045 75 10000 1.93 78 15:22 18.12.2020
4724 Clear -19 1045 75 10000 1.93 78 14:54 18.12.2020
4725 Clear -19 1045 75 10000 1.86 79 14:21 18.12.2020
4726 Clear -19 1045 75 10000 1.86 79 13:50 18.12.2020
4727 Clouds -19 1045 75 10000 1.75 79 13:27 18.12.2020
4728 Clear -19 1044 75 10000 1.75 80 12:47 18.12.2020
4729 Clouds -19 1045 75 10000 1.54 78 11:59 18.12.2020
4730 Clouds -19 1044 76 10000 1.16 75 11:23 18.12.2020
4731 Clouds -19 1044 76 10000 1.16 75 10:40 18.12.2020
4732 Clouds -19 1044 76 10000 1.16 75 10:40 18.12.2020
4733 Clouds -18 1043 77 10000 0.66 81 10:20 18.12.2020
4734 Clouds -18 1043 77 10000 0.66 81 09:39 18.12.2020
4735 Clouds -16 1043 78 10000 0.3 82 09:21 18.12.2020
4736 Clouds -16 1043 78 10000 0.3 82 08:54 18.12.2020
4737 Clouds -16 1043 78 10000 0.3 82 08:30 18.12.2020
4738 Clouds -15 1042 80 10000 0.31 54 07:39 18.12.2020
4739 Clouds -15 1042 81 10000 0.44 52 07:18 18.12.2020
4740 Clouds -15 1042 81 10000 0.44 52 06:49 18.12.2020
4741 Clear -15 1043 80 10000 0.67 74 05:41 18.12.2020
4742 Clear -17 1044 78 10000 1 85 04:51 18.12.2020
4743 Clear -20 1044 74 10000 1.36 83 01:58 18.12.2020
4744 Clear -20 1044 74 10000 1.36 83 01:39 18.12.2020
4745 Clouds -19 1043 74 10000 1.55 78 23:59 17.12.2020
4746 Clouds -19 1043 75 10000 1.64 79 23:25 17.12.2020
4747 Clouds -19 1043 75 10000 1.64 79 22:58 17.12.2020
4748 Clouds -19 1043 75 10000 1.64 79 22:58 17.12.2020
4749 Clouds -19 1043 75 10000 1.64 79 22:40 17.12.2020
4750 Clouds -19 1043 75 10000 1.64 79 22:40 17.12.2020
4751 Clouds -18 1043 75 10000 1.67 79 22:22 17.12.2020
4752 Clouds -18 1043 75 10000 1.67 79 21:42 17.12.2020
4753 Clouds -18 1043 75 10000 1.67 79 21:42 17.12.2020
4754 Clouds -19 1043 75 10000 1.71 81 21:19 17.12.2020
4755 Clouds -19 1043 75 10000 1.71 81 20:41 17.12.2020
4756 Clouds -19 1043 75 10000 1.63 84 20:19 17.12.2020
4757 Clouds -19 1043 75 10000 1.63 84 19:48 17.12.2020
4758 Clouds -19 1043 74 10000 1.67 87 19:24 17.12.2020
4759 Clouds -19 1043 74 10000 1.67 87 19:24 17.12.2020
4760 Clouds -19 1043 74 10000 1.73 86 18:42 17.12.2020
4761 Clouds -19 1043 74 10000 1.73 86 18:42 17.12.2020
4762 Clouds -19 1043 74 10000 1.79 86 18:24 17.12.2020
4763 Clouds -19 1043 74 10000 1.79 86 17:54 17.12.2020
4764 Clouds -19 1043 74 10000 1.79 86 17:33 17.12.2020
4765 Clear -19 1044 74 10000 1.92 82 16:47 17.12.2020
4766 Clear -19 1044 74 10000 1.92 82 16:47 17.12.2020
4767 Clear -19 1044 74 10000 2 83 16:28 17.12.2020
4768 Clear -19 1044 74 10000 2 83 15:57 17.12.2020
4769 Clear -19 1044 74 10000 2 83 15:39 17.12.2020
4770 Clear -19 1044 75 10000 1.97 82 14:57 17.12.2020
4771 Clear -19 1044 75 10000 1.97 82 14:37 17.12.2020
4772 Clear -19 1044 75 10000 1.97 82 14:37 17.12.2020
4773 Clear -19 1044 75 10000 1.86 87 13:59 17.12.2020
4774 Clear -19 1044 75 10000 1.86 87 13:39 17.12.2020
4775 Clear -19 1043 76 10000 1.67 88 12:56 17.12.2020
4776 Clear -19 1043 76 10000 1.67 88 12:33 17.12.2020
4777 Clear -19 1043 76 10000 1.4 85 11:47 17.12.2020
4778 Clear -18 1042 77 10000 1.14 86 11:26 17.12.2020
4779 Clear -18 1042 77 10000 1.14 86 10:57 17.12.2020
4780 Clear -18 1042 77 10000 1.14 86 10:33 17.12.2020
4781 Clear -17 1042 78 10000 0.81 89 09:36 17.12.2020
4782 Clear -16 1041 79 10000 0.68 80 08:39 17.12.2020
4783 Clear -15 1041 81 10000 0.74 70 07:40 17.12.2020
4784 Clear -14 1042 82 10000 0.83 67 07:18 17.12.2020
4785 Clear -14 1042 82 10000 0.79 64 06:44 17.12.2020
4786 Clear -15 1043 81 10000 0.97 72 06:26 17.12.2020
4787 Clear -20 1045 75 10000 1.49 80 01:57 17.12.2020
4788 Clear -20 1043 74 10000 1.49 79 00:19 17.12.2020
4789 Clear -20 1043 74 10000 1.49 79 23:38 16.12.2020
4790 Clear -20 1043 73 10000 1.36 79 23:18 16.12.2020
4791 Clear -20 1043 73 10000 1.36 79 22:47 16.12.2020
4792 Clear -20 1043 73 10000 1.3 74 22:27 16.12.2020
4793 Clear -20 1043 73 10000 1.3 74 21:41 16.12.2020
4794 Clear -20 1043 73 10000 1.37 75 21:21 16.12.2020
4795 Clear -20 1043 73 10000 1.37 75 20:46 16.12.2020
4796 Clear -20 1043 72 10000 1.31 81 20:20 16.12.2020
4797 Clear -20 1043 72 10000 1.31 81 19:37 16.12.2020
4798 Clear -19 1043 71 10000 1.35 77 19:18 16.12.2020
4799 Clear -19 1043 72 10000 1.52 75 18:42 16.12.2020
4800 Clear -19 1042 71 10000 1.51 76 18:22 16.12.2020
4801 Clear -19 1042 71 10000 1.51 76 17:35 16.12.2020
4802 Clear -19 1042 70 10000 1.57 75 16:43 16.12.2020
4803 Clear -19 1042 70 10000 1.5 78 16:24 16.12.2020
4804 Clear -19 1042 70 10000 1.5 78 15:54 16.12.2020
4805 Clear -19 1042 70 10000 1.5 78 15:36 16.12.2020
4806 Clear -19 1042 70 10000 1.37 77 14:56 16.12.2020
4807 Clear -19 1042 70 10000 1.37 77 14:37 16.12.2020
4808 Clear -19 1042 70 10000 1.31 70 14:19 16.12.2020
4809 Clear -19 1042 70 10000 1.31 70 13:39 16.12.2020
4810 Clouds -19 1041 71 10000 1.13 70 13:19 16.12.2020
4811 Clouds -18 1041 72 10000 1.04 66 12:42 16.12.2020
4812 Clouds -18 1040 73 10000 0.79 66 11:49 16.12.2020
4813 Clouds -17 1040 74 10000 0.58 67 11:23 16.12.2020
4814 Clouds -17 1040 74 10000 0.58 67 10:53 16.12.2020
4815 Clouds -15 1039 76 10000 0.11 52 10:27 16.12.2020
4816 Clouds -15 1039 76 10000 0.11 52 10:27 16.12.2020
4817 Clouds -15 1039 76 10000 0.11 52 09:54 16.12.2020
4818 Clouds -13 1038 79 10000 0.18 301 09:24 16.12.2020
4819 Clouds -12 1037 81 10000 0.37 301 08:22 16.12.2020
4820 Clouds -12 1037 81 10000 0.37 301 07:44 16.12.2020
4821 Clouds -12 1037 81 10000 0.19 260 07:20 16.12.2020
4822 Clouds -16 1040 73 10000 1.47 80 03:35 16.12.2020
4823 Clouds -18 1039 70 10000 1.76 85 01:57 16.12.2020
4824 Clear -18 1039 71 10000 1.93 79 23:46 15.12.2020
4825 Clear -18 1040 71 10000 1.93 77 23:18 15.12.2020
4826 Clear -18 1040 71 10000 1.93 77 22:40 15.12.2020
4827 Clear -18 1040 71 10000 1.97 79 22:20 15.12.2020
4828 Clear -18 1040 71 10000 1.97 79 21:45 15.12.2020
4829 Clear -19 1040 71 10000 1.93 79 21:22 15.12.2020
4830 Clear -19 1040 71 10000 1.93 79 20:45 15.12.2020
4831 Clear -19 1040 72 10000 1.9 79 20:26 15.12.2020
4832 Clear -19 1040 72 10000 1.9 79 19:55 15.12.2020
4833 Clear -19 1040 72 10000 1.9 79 19:30 15.12.2020
4834 Clear -19 1040 72 10000 1.96 80 18:40 15.12.2020
4835 Clear -19 1041 72 10000 1.93 78 18:22 15.12.2020
4836 Clear -19 1041 72 10000 1.93 78 17:56 15.12.2020
4837 Clear -19 1041 72 10000 1.93 78 17:37 15.12.2020
4838 Clear -19 1041 73 10000 1.94 78 17:18 15.12.2020
4839 Clear -19 1041 73 10000 1.94 78 16:32 15.12.2020
4840 Clear -19 1041 73 10000 2.02 77 15:50 15.12.2020
4841 Clear -19 1042 73 10000 2.02 81 15:28 15.12.2020
4842 Clear -19 1042 73 10000 2.02 81 14:44 15.12.2020
4843 Clear -19 1042 73 10000 2.01 83 14:21 15.12.2020
4844 Clear -19 1042 73 10000 2.01 83 13:51 15.12.2020
4845 Clear -19 1042 73 10000 2.01 83 13:32 15.12.2020
4846 Clear -19 1042 74 10000 1.95 82 12:47 15.12.2020
4847 Clear -19 1042 74 10000 1.95 82 12:47 15.12.2020
4848 Clear -19 1041 74 10000 1.89 82 12:20 15.12.2020
4849 Clear -19 1041 74 10000 1.89 82 11:55 15.12.2020
4850 Clear -19 1041 75 10000 1.72 80 11:26 15.12.2020
4851 Clear -19 1041 75 10000 1.72 80 10:53 15.12.2020
4852 Clear -18 1040 77 10000 1.47 77 10:24 15.12.2020
4853 Clear -18 1040 77 10000 1.47 77 09:50 15.12.2020
4854 Clear -18 1040 77 10000 1.47 77 09:32 15.12.2020
4855 Clear -17 1040 78 10000 1.23 75 08:49 15.12.2020
4856 Clear -16 1040 80 10000 1.02 76 08:26 15.12.2020
4857 Clear -16 1040 80 10000 1.02 76 07:49 15.12.2020
4858 Clear -16 1040 80 10000 1.02 76 07:49 15.12.2020
4859 Clear -16 1040 80 10000 1.02 76 07:49 15.12.2020
4860 Clear -16 1040 81 10000 1.09 81 07:25 15.12.2020
4861 Clear -16 1040 81 10000 1.08 81 06:32 15.12.2020
4862 Clear -21 1044 77 10000 1.98 82 03:25 15.12.2020
4863 Clear -22 1045 77 10000 2.06 80 00:34 15.12.2020
4864 Clear -22 1044 76 10000 1.85 86 23:26 14.12.2020
4865 Clear -22 1044 76 10000 1.85 86 22:56 14.12.2020
4866 Clear -22 1044 76 10000 1.85 86 22:32 14.12.2020
4867 Clear -23 1045 76 10000 1.75 88 21:45 14.12.2020
4868 Clear -23 1046 75 10000 1.67 85 21:22 14.12.2020
4869 Clear -23 1046 75 10000 1.67 85 20:51 14.12.2020
4870 Clear -23 1046 75 10000 1.67 85 20:51 14.12.2020
4871 Clear -23 1046 74 10000 1.55 84 20:29 14.12.2020
4872 Clear -23 1046 74 10000 1.55 84 19:53 14.12.2020
4873 Clear -23 1046 73 10000 1.38 84 19:29 14.12.2020
4874 Clear -23 1046 74 10000 1.45 84 18:50 14.12.2020
4875 Clear -23 1046 74 10000 1.45 84 18:30 14.12.2020
4876 Clear -23 1045 73 10000 1.37 84 17:46 14.12.2020
4877 Clear -23 1045 72 10000 1.27 89 17:24 14.12.2020
4878 Clear -23 1045 72 10000 1.27 89 16:50 14.12.2020
4879 Clear -23 1045 71 10000 1.33 90 16:29 14.12.2020
4880 Clear -23 1045 71 10000 1.33 90 15:39 14.12.2020
4881 Clear -23 1045 69 10000 1.32 82 15:20 14.12.2020
4882 Clear -23 1045 69 10000 1.32 82 14:42 14.12.2020
4883 Clear -23 1045 68 10000 1.33 80 14:23 14.12.2020
4884 Clear -23 1045 68 10000 1.33 80 13:42 14.12.2020
4885 Clear -23 1044 67 10000 1.29 78 13:18 14.12.2020
4886 Clear -23 1044 67 10000 1.23 78 12:52 14.12.2020
4887 Clear -23 1044 67 10000 1.04 75 12:24 14.12.2020
4888 Clear -23 1044 67 10000 1.04 75 11:32 14.12.2020
4889 Clear -23 1043 67 10000 0.86 73 10:38 14.12.2020
4890 Clear -22 1042 69 10000 0.7 73 10:19 14.12.2020
4891 Clear -21 1041 70 10000 0.38 40 09:29 14.12.2020
4892 Clear -21 1041 70 10000 0.38 40 08:46 14.12.2020
4893 Clear -19 1041 74 10000 0.27 7 08:28 14.12.2020
4894 Clear -19 1041 75 10000 0.06 60 07:28 14.12.2020
4895 Clear -19 1041 75 10000 0.06 60 06:45 14.12.2020
4896 Clear -20 1041 71 10000 0.77 87 04:52 14.12.2020
4897 Clear -24 1042 65 10000 1.42 78 02:26 14.12.2020
4898 Clouds -23 1041 66 10000 1.58 76 00:55 14.12.2020
4899 Clouds -23 1041 66 10000 1.58 76 00:31 14.12.2020
4900 Clouds -23 1041 67 10000 1.55 79 23:48 13.12.2020
4901 Clouds -23 1041 67 10000 1.41 79 23:25 13.12.2020
4902 Clouds -23 1041 67 10000 1.41 79 22:46 13.12.2020
4903 Clouds -23 1040 67 10000 1.38 87 22:19 13.12.2020
4904 Clouds -23 1040 67 10000 1.38 87 21:42 13.12.2020
4905 Clouds -23 1040 68 10000 1.39 92 21:23 13.12.2020
4906 Clouds -23 1040 68 10000 1.39 92 20:35 13.12.2020
4907 Clouds -23 1040 69 10000 1.47 87 19:53 13.12.2020
4908 Clouds -23 1040 69 10000 1.47 87 19:32 13.12.2020
4909 Clouds -22 1040 69 10000 1.72 83 18:58 13.12.2020
4910 Clouds -22 1040 69 10000 1.72 83 18:39 13.12.2020
4911 Clouds -22 1040 70 10000 1.87 81 18:19 13.12.2020
4912 Clouds -22 1040 70 10000 1.87 81 17:46 13.12.2020
4913 Clouds -22 1040 71 10000 1.97 80 17:21 13.12.2020
4914 Clouds -22 1040 71 10000 1.97 80 16:54 13.12.2020
4915 Clouds -22 1040 71 10000 1.97 80 16:36 13.12.2020
4916 Clouds -22 1040 71 10000 2.05 80 15:57 13.12.2020
4917 Clouds -22 1040 71 10000 2.05 80 15:38 13.12.2020
4918 Clouds -22 1041 71 10000 2.04 82 15:18 13.12.2020
4919 Clouds -22 1041 71 10000 2.04 82 14:42 13.12.2020
4920 Clear -23 1041 71 10000 2.01 82 14:19 13.12.2020
4921 Clear -23 1041 71 10000 2.01 82 13:41 13.12.2020
4922 Clear -23 1041 71 10000 1.98 80 13:22 13.12.2020
4923 Clear -23 1041 71 10000 1.98 79 12:39 13.12.2020
4924 Clear -23 1041 71 10000 1.97 77 12:20 13.12.2020
4925 Clear -23 1041 71 10000 1.97 77 11:35 13.12.2020
4926 Clear -23 1041 70 10000 1.75 78 10:49 13.12.2020
4927 Clear -23 1041 70 10000 1.75 78 10:30 13.12.2020
4928 Clear -22 1041 71 10000 1.27 80 09:52 13.12.2020
4929 Clear -21 1041 72 10000 1.03 81 08:53 13.12.2020
4930 Clear -21 1041 72 10000 1.03 81 08:32 13.12.2020
4931 Clouds -20 1042 76 10000 0.98 72 07:29 13.12.2020
4932 Clear -24 1047 68 10000 1.88 80 03:31 13.12.2020
4933 Clear -26 1048 66 10000 2.16 80 02:40 13.12.2020
4934 Clear -27 1049 66 10000 2.12 77 01:37 13.12.2020
4935 Clear -27 1049 67 10000 1.95 80 00:47 13.12.2020
4936 Clear -28 1050 67 10000 1.86 83 23:50 12.12.2020
4937 Clear -28 1050 68 10000 1.74 84 23:29 12.12.2020
4938 Clear -28 1050 68 10000 1.74 84 22:39 12.12.2020
4939 Clear -28 1050 68 10000 1.74 84 22:39 12.12.2020
4940 Clear -28 1050 68 10000 1.7 87 21:49 12.12.2020
4941 Clear -28 1050 68 10000 1.7 87 21:31 12.12.2020
4942 Clear -28 1050 69 10000 1.75 86 20:48 12.12.2020
4943 Clear -28 1051 69 10000 1.88 86 20:24 12.12.2020
4944 Clear -28 1051 69 10000 1.88 86 19:54 12.12.2020
4945 Clear -28 1051 69 10000 1.88 86 19:35 12.12.2020
4946 Clear -29 1051 70 10000 2.11 78 18:58 12.12.2020
4947 Clear -29 1051 70 10000 2.11 78 18:40 12.12.2020
4948 Clear -29 1051 70 10000 2.11 81 18:22 12.12.2020
4949 Clear -29 1051 70 10000 2.11 81 17:41 12.12.2020
4950 Clear -29 1051 71 10000 2.08 83 16:54 12.12.2020
4951 Clear -29 1051 71 10000 2.03 83 15:59 12.12.2020
4952 Clear -29 1051 71 10000 2.03 83 15:40 12.12.2020
4953 Clear -29 1051 71 10000 2.02 83 14:55 12.12.2020
4954 Clear -29 1051 71 10000 2.02 83 14:35 12.12.2020
4955 Clear -29 1051 72 10000 1.99 86 13:47 12.12.2020
4956 Clear -29 1051 72 10000 2 86 13:26 12.12.2020
4957 Clear -29 1051 72 10000 2 86 12:43 12.12.2020
4958 Clear -28 1051 73 10000 1.88 83 11:41 12.12.2020
4959 Clear -28 1050 74 10000 1.51 85 10:52 12.12.2020
4960 Clear -27 1049 75 10000 1.06 100 09:31 12.12.2020
4961 Clear -26 1048 77 10000 0.73 126 08:42 12.12.2020
4962 Clear -29 1051 77 10000 1.68 70 02:28 12.12.2020
4963 Clouds -29 1048 78 10000 1.54 66 23:40 11.12.2020
4964 Clouds -28 1046 79 10000 1.08 68 22:21 11.12.2020
4965 Clouds -28 1044 79 10000 1.01 53 20:25 11.12.2020
4966 Clouds -27 1042 78 10000 1.81 16 17:40 11.12.2020
4967 Clouds -23 1038 84 10000 1.54 324 14:40 11.12.2020
4968 Clouds -21 1036 86 10000 0.99 321 13:57 11.12.2020
4969 Clouds -20 1034 87 1808 1.57 304 12:36 11.12.2020
4970 Clouds -20 1033 88 388 1.3 267 11:57 11.12.2020
4971 Clouds -20 1033 88 388 1.3 267 11:38 11.12.2020
4972 Clouds -19 1031 88 287 1.64 240 10:41 11.12.2020
4973 Snow -16 1027 89 254 2.48 243 08:23 11.12.2020
4974 Clouds -16 1027 89 298 1.46 244 05:38 11.12.2020
4975 Snow -17 1028 89 322 0.92 216 04:47 11.12.2020
4976 Clouds -20 1029 85 8110 1.67 87 01:20 11.12.2020
4977 Clouds -20 1029 85 10000 1.81 89 23:37 10.12.2020
4978 Clouds -19 1029 86 7680 1.8 99 21:59 10.12.2020
4979 Clouds -20 1030 87 2627 1.46 104 21:29 10.12.2020
4980 Clouds -20 1030 87 2627 1.46 104 20:38 10.12.2020
4981 Clouds -20 1030 88 1301 0.89 111 19:33 10.12.2020
4982 Clouds -19 1030 88 919 0.63 123 18:50 10.12.2020
4983 Clouds -19 1030 88 1252 0.57 149 17:45 10.12.2020
4984 Clouds -18 1030 89 895 0.78 209 16:24 10.12.2020
4985 Clouds -18 1029 89 781 0.73 212 15:24 10.12.2020
4986 Clouds -18 1029 89 781 0.73 212 14:47 10.12.2020
4987 Snow -17 1029 89 441 0.66 244 14:21 10.12.2020
4988 Clouds -17 1029 90 435 0.9 244 12:24 10.12.2020
4989 Clouds -16 1028 90 556 1.24 223 10:59 10.12.2020
4990 Clouds -14 1026 91 415 1.28 248 08:44 10.12.2020
4991 Snow -14 1026 90 369 1.17 250 07:34 10.12.2020
4992 Clouds -14 1027 90 365 0.86 246 06:33 10.12.2020
4993 Clouds -17 1030 87 1811 1.27 102 02:51 10.12.2020
4994 Clouds -18 1030 84 5564 1.33 88 01:56 10.12.2020
4995 Clouds -19 1029 83 10000 1.79 74 23:49 09.12.2020
4996 Clouds -18 1029 86 10000 1.93 75 20:41 09.12.2020
4997 Clouds -18 1029 87 10000 1.63 76 20:20 09.12.2020
4998 Clouds -17 1029 87 10000 1.48 76 18:58 09.12.2020
4999 Clouds -17 1029 88 10000 1.26 81 17:36 09.12.2020
5000 Clouds -16 1029 89 3767 1.1 78 16:40 09.12.2020
5001 Clouds -16 1029 89 1684 0.93 82 16:20 09.12.2020
5002 Clouds -16 1029 89 2285 0.93 88 14:51 09.12.2020
5003 Clouds -16 1029 90 1360 0.8 64 14:27 09.12.2020
5004 Clouds -16 1029 90 1360 0.8 64 13:46 09.12.2020
5005 Clouds -15 1028 90 1278 0.77 60 13:18 09.12.2020
5006 Clouds -15 1028 89 1954 0.85 61 12:43 09.12.2020
5007 Snow -15 1027 90 1477 0.98 58 11:43 09.12.2020
5008 Clouds -14 1026 88 2151 0.72 33 09:54 09.12.2020
5009 Clouds -12 1025 87 2624 0.33 301 08:42 09.12.2020
5010 Snow -11 1024 80 10000 1.16 232 06:56 09.12.2020
5011 Snow -11 1024 80 10000 0.75 246 05:42 09.12.2020
5012 Clouds -15 1026 75 10000 1.69 82 02:57 09.12.2020
5013 Clouds -17 1027 72 10000 2.28 89 00:52 09.12.2020
5014 Clouds -18 1027 71 10000 2.44 88 23:36 08.12.2020
5015 Clouds -18 1028 70 10000 2.57 88 22:43 08.12.2020
5016 Clear -20 1031 68 10000 2.13 88 20:48 08.12.2020
5017 Clear -20 1031 67 10000 2.19 86 19:31 08.12.2020
5018 Clear -20 1032 68 10000 2.09 88 18:41 08.12.2020
5019 Clear -21 1033 67 10000 1.68 82 17:20 08.12.2020
5020 Clear -21 1035 67 10000 1.75 85 15:25 08.12.2020
5021 Clear -21 1035 67 10000 1.79 84 13:53 08.12.2020
5022 Clear -21 1036 67 10000 1.77 84 12:46 08.12.2020
5023 Clear -21 1035 67 10000 1.72 84 12:20 08.12.2020
5024 Clear -21 1035 66 10000 1.5 94 11:27 08.12.2020
5025 Clear -21 1035 66 10000 1.5 94 10:41 08.12.2020
5026 Clear -20 1035 67 10000 0.93 91 09:45 08.12.2020
5027 Clear -18 1034 72 10000 0.31 160 07:41 08.12.2020
5028 Clear -18 1035 72 10000 0.43 85 05:42 08.12.2020
5029 Clouds -22 1037 55 10000 1.31 87 02:49 08.12.2020
5030 Clouds -22 1038 52 10000 1.42 80 00:45 08.12.2020
5031 Clouds -22 1038 51 10000 1.43 86 23:46 07.12.2020
5032 Clouds -23 1038 47 10000 1.21 85 22:21 07.12.2020
5033 Clouds -23 1038 47 10000 1.21 85 21:47 07.12.2020
5034 Clear -23 1038 44 10000 1.07 80 19:36 07.12.2020
5035 Clear -22 1039 45 10000 1.04 83 17:59 07.12.2020
5036 Clear -22 1039 44 10000 1.13 85 17:22 07.12.2020
5037 Clear -22 1039 44 10000 1.13 85 16:43 07.12.2020
5038 Clear -22 1039 46 10000 1.41 83 15:25 07.12.2020
5039 Clear -22 1039 46 10000 1.41 83 14:33 07.12.2020
5040 Clear -22 1040 46 10000 1.46 81 13:37 07.12.2020
5041 Clouds -22 1040 47 10000 1.41 83 12:31 07.12.2020
5042 Clouds -22 1040 48 10000 1.37 81 11:42 07.12.2020
5043 Clouds -22 1040 52 10000 1.19 81 10:36 07.12.2020
5044 Clouds -20 1040 57 10000 0.75 70 09:24 07.12.2020
5045 Clouds -19 1040 65 10000 0.59 67 07:40 07.12.2020
5046 Clouds -20 1043 61 10000 0.8 91 05:27 07.12.2020
5047 Clouds -20 1043 61 10000 0.8 91 04:35 07.12.2020
5048 Clouds -24 1047 48 10000 1.45 77 00:52 07.12.2020
5049 Clouds -24 1047 54 10000 1.28 86 22:53 06.12.2020
5050 Clouds -24 1048 56 10000 1.23 87 21:53 06.12.2020
5051 Clouds -24 1048 60 10000 1.31 83 20:46 06.12.2020
5052 Clouds -24 1048 62 10000 1.2 80 20:26 06.12.2020
5053 Clouds -24 1048 62 10000 1.2 80 20:26 06.12.2020
5054 Clouds -24 1048 62 10000 1.2 80 19:30 06.12.2020
5055 Clouds -24 1050 68 10000 1.48 80 17:45 06.12.2020
5056 Clouds -24 1050 70 10000 1.68 78 16:34 06.12.2020
5057 Clouds -24 1050 73 10000 1.7 84 14:49 06.12.2020
5058 Clear -24 1050 75 10000 1.38 88 13:23 06.12.2020
5059 Clear -24 1050 74 10000 1.53 84 12:33 06.12.2020
5060 Clear -24 1050 75 10000 1.36 86 11:53 06.12.2020
5061 Clear -24 1050 76 10000 1.2 83 11:25 06.12.2020
5062 Clear -24 1050 76 10000 1.2 83 10:35 06.12.2020
5063 Clear -23 1049 78 10000 0.91 85 09:31 06.12.2020
5064 Clear -20 1049 80 10000 0.11 77 07:41 06.12.2020
5065 Clear -21 1050 79 10000 0.75 90 04:51 06.12.2020
5066 Clear -25 1050 76 10000 1.32 81 00:46 06.12.2020
5067 Clear -25 1049 76 10000 1.24 80 00:26 06.12.2020
5068 Clear -25 1049 76 10000 1.24 80 23:56 05.12.2020
5069 Clear -25 1049 75 10000 1.01 88 22:25 05.12.2020
5070 Clear -25 1049 75 10000 1.01 88 21:55 05.12.2020
5071 Clear -25 1049 75 10000 1.01 88 21:30 05.12.2020
5072 Clear -25 1048 75 10000 1.02 90 19:54 05.12.2020
5073 Clear -25 1048 75 10000 1 88 18:46 05.12.2020
5074 Clear -24 1047 75 10000 0.97 85 17:51 05.12.2020
5075 Clear -24 1047 75 10000 0.91 88 16:45 05.12.2020
5076 Clear -24 1046 75 10000 0.86 92 16:25 05.12.2020
5077 Clear -24 1046 75 10000 0.68 95 14:39 05.12.2020
5078 Clear -24 1045 75 10000 0.86 89 12:35 05.12.2020
5079 Clear -24 1044 76 10000 0.83 88 11:50 05.12.2020
5080 Clear -23 1043 76 10000 0.6 76 10:35 05.12.2020
5081 Clear -20 1040 78 10000 0.64 244 08:40 05.12.2020
5082 Clear -19 1039 80 10000 0.87 252 07:47 05.12.2020
5083 Clear -18 1039 76 10000 0.72 241 05:33 05.12.2020
5084 Clear -22 1038 70 10000 0.87 79 23:59 04.12.2020
5085 Clear -22 1037 70 10000 0.84 70 23:20 04.12.2020
5086 Clear -22 1036 70 10000 1.16 80 20:39 04.12.2020
5087 Clear -21 1036 70 10000 1.39 80 18:54 04.12.2020
5088 Clear -21 1036 70 10000 1.4 77 18:28 04.12.2020
5089 Clear -21 1036 70 10000 1.4 77 17:41 04.12.2020
5090 Clear -21 1037 70 10000 1.58 83 16:29 04.12.2020
5091 Clear -21 1037 70 10000 1.65 83 15:21 04.12.2020
5092 Clear -20 1037 70 10000 1.69 79 13:36 04.12.2020
5093 Clear -20 1037 70 10000 1.73 81 13:18 04.12.2020
5094 Clear -20 1036 70 10000 1.56 82 12:20 04.12.2020
5095 Clear -20 1036 71 10000 1.32 77 10:37 04.12.2020
5096 Clear -16 1036 77 10000 0.68 74 08:29 04.12.2020
5097 Clear -16 1036 78 10000 0.79 81 06:40 04.12.2020
5098 Clear -18 1039 75 10000 1.3 89 04:52 04.12.2020
5099 Clear -21 1043 70 10000 1.87 83 01:20 04.12.2020
5100 Clear -21 1044 70 10000 1.83 86 22:47 03.12.2020
5101 Clear -21 1045 70 10000 1.76 86 21:22 03.12.2020
5102 Clear -21 1045 70 10000 1.76 86 20:41 03.12.2020
5103 Clear -21 1046 71 10000 1.74 85 19:22 03.12.2020
5104 Clear -21 1046 71 10000 1.74 85 18:40 03.12.2020
5105 Clear -21 1047 72 10000 1.8 85 17:21 03.12.2020
5106 Clear -21 1048 72 10000 1.82 87 15:59 03.12.2020
5107 Clear -21 1048 72 10000 1.82 87 15:32 03.12.2020
5108 Clear -21 1048 72 10000 1.71 89 14:48 03.12.2020
5109 Clear -21 1048 73 10000 1.67 92 13:54 03.12.2020
5110 Clear -20 1048 73 10000 1.63 89 12:44 03.12.2020
5111 Clear -20 1048 74 10000 1.54 86 12:22 03.12.2020
5112 Clear -20 1048 74 10000 1.32 83 10:40 03.12.2020
5113 Clear -17 1047 77 10000 0.63 73 08:41 03.12.2020
5114 Clear -19 1051 75 10000 1.33 88 03:45 03.12.2020
5115 Clear -22 1052 74 10000 1.48 86 01:46 03.12.2020
5116 Clear -21 1051 75 10000 1.64 81 23:56 02.12.2020
5117 Clear -21 1051 76 10000 1.64 81 22:45 02.12.2020
5118 Clear -21 1051 76 10000 1.55 82 21:43 02.12.2020
5119 Clear -21 1052 76 10000 1.61 81 20:49 02.12.2020
5120 Clear -21 1052 76 10000 1.61 81 20:31 02.12.2020
5121 Clear -21 1052 77 10000 1.63 78 19:40 02.12.2020
5122 Clear -21 1052 78 10000 1.71 80 17:49 02.12.2020
5123 Clear -21 1052 78 10000 1.71 80 17:30 02.12.2020
5124 Clear -21 1052 79 10000 1.7 81 15:46 02.12.2020
5125 Clear -21 1052 80 10000 1.67 78 13:41 02.12.2020
5126 Clear -20 1051 80 10000 1.32 83 11:33 02.12.2020
5127 Clear -19 1050 81 10000 0.48 85 10:25 02.12.2020
5128 Clear -16 1049 84 10000 0.31 300 07:46 02.12.2020
5129 Clouds -20 1051 78 10000 0.71 92 23:40 01.12.2020
5130 Clouds -20 1051 78 10000 0.75 81 22:20 01.12.2020
5131 Clouds -21 1052 77 10000 0.89 101 19:37 01.12.2020
5132 Clouds -21 1052 77 10000 0.98 93 18:56 01.12.2020
5133 Clouds -22 1052 77 10000 1.01 91 16:48 01.12.2020
5134 Clear -21 1052 78 10000 1.26 92 14:53 01.12.2020
5135 Clear -21 1051 79 10000 1.19 86 12:48 01.12.2020
5136 Clear -21 1051 79 10000 1.04 85 11:40 01.12.2020
5137 Clear -21 1050 80 10000 0.79 81 10:53 01.12.2020
5138 Clouds -19 1049 81 10000 0.3 70 10:26 01.12.2020
5139 Clouds -16 1048 84 10000 0.17 224 07:46 01.12.2020
5140 Clouds -17 1049 80 10000 0.27 102 06:25 01.12.2020
5141 Clear -21 1050 78 10000 1.67 73 01:33 01.12.2020
5142 Clouds -21 1050 78 10000 1.69 69 00:38 01.12.2020
5143 Clouds -21 1048 78 10000 1.56 66 23:20 30.11.2020
5144 Clouds -21 1048 78 10000 1.56 66 22:42 30.11.2020
5145 Clouds -21 1048 79 10000 1.46 63 22:22 30.11.2020
5146 Clouds -20 1048 79 10000 1.36 59 19:50 30.11.2020
5147 Clouds -20 1048 79 10000 1.36 59 19:31 30.11.2020
5148 Clouds -19 1048 79 10000 1.45 62 18:21 30.11.2020
5149 Clouds -19 1048 79 10000 1.45 62 17:46 30.11.2020
5150 Clouds -19 1048 79 10000 1.39 62 16:53 30.11.2020
5151 Clouds -19 1046 80 10000 0.93 75 14:53 30.11.2020
5152 Clouds -17 1046 81 10000 0.77 78 13:55 30.11.2020
5153 Clouds -17 1045 81 10000 0.62 69 13:22 30.11.2020
5154 Clouds -17 1044 83 10000 0.39 120 12:25 30.11.2020
5155 Clouds -17 1044 83 10000 0.39 120 11:34 30.11.2020
5156 Clouds -16 1043 83 10000 0.12 79 10:24 30.11.2020
5157 Clouds -15 1042 84 10000 0.14 303 08:53 30.11.2020
5158 Clouds -18 1042 78 10000 1.18 83 01:28 30.11.2020
5159 Clouds -18 1041 79 10000 1.44 65 23:28 29.11.2020
5160 Clouds -18 1041 79 10000 0.6 107 21:44 29.11.2020
5161 Clouds -18 1041 79 10000 0.6 107 21:44 29.11.2020
5162 Clouds -17 1041 80 10000 0.95 89 21:25 29.11.2020
5163 Clouds -16 1041 80 10000 1.23 80 19:19 29.11.2020
5164 Clouds -16 1041 79 10000 0.55 93 17:34 29.11.2020
5165 Clouds -15 1041 80 10000 1.16 77 14:22 29.11.2020
5166 Clouds -15 1040 81 10000 1.27 80 12:45 29.11.2020
5167 Clouds -15 1040 81 10000 0.72 85 11:37 29.11.2020
5168 Clouds -13 1039 84 10000 0.48 21 08:54 29.11.2020
5169 Clouds -13 1039 84 10000 0.48 21 08:34 29.11.2020
5170 Clear -17 1043 79 10000 1.3 85 02:31 29.11.2020
5171 Clear -18 1042 79 10000 1 105 22:59 28.11.2020
5172 Clear -17 1043 79 10000 1.22 88 22:26 28.11.2020
5173 Clear -17 1042 79 10000 0.83 91 19:59 28.11.2020
5174 Clear -17 1041 79 10000 1.07 87 19:28 28.11.2020
5175 Clear -17 1041 79 10000 1.07 87 18:57 28.11.2020
5176 Clear -17 1042 80 10000 1.14 85 18:20 28.11.2020
5177 Clear -17 1042 80 10000 1.13 80 16:57 28.11.2020
5178 Clear -17 1042 81 10000 1.19 82 14:59 28.11.2020
5179 Clear -16 1041 81 10000 1.2 83 13:54 28.11.2020
5180 Clouds -15 1040 83 10000 0.7 83 11:27 28.11.2020
5181 Clouds -13 1039 86 10000 0.22 18 09:26 28.11.2020
5182 Clouds -15 1042 84 10000 0.93 95 03:40 28.11.2020
5183 Clouds -16 1043 83 10000 1.26 72 01:53 28.11.2020
5184 Clouds -16 1040 87 10000 0.74 57 23:22 27.11.2020
5185 Clouds -16 1040 87 10000 0.74 57 22:33 27.11.2020
5186 Clouds -14 1041 89 4848 0.66 57 20:39 27.11.2020
5187 Clouds -14 1041 89 2914 0.69 60 19:34 27.11.2020
5188 Clouds -14 1040 88 3077 0.85 63 18:57 27.11.2020
5189 Clouds -14 1040 87 6045 0.43 70 16:55 27.11.2020
5190 Clouds -14 1040 87 6045 0.43 70 16:55 27.11.2020
5191 Clouds -14 1040 87 6045 0.43 70 16:55 27.11.2020
5192 Clouds -13 1041 83 10000 0.28 185 14:45 27.11.2020
5193 Clouds -13 1040 80 10000 0.67 216 13:20 27.11.2020
5194 Clouds -13 1040 80 10000 0.67 216 12:47 27.11.2020
5195 Clouds -13 1040 79 10000 0.45 112 11:34 27.11.2020
5196 Snow -13 1039 79 10000 0.84 66 10:44 27.11.2020
5197 Clouds -12 1039 80 10000 0.81 65 09:51 27.11.2020
5198 Clear -17 1045 79 10000 1.89 85 23:50 26.11.2020
5199 Clear -17 1046 79 10000 2.08 79 22:25 26.11.2020
5200 Clear -17 1046 79 10000 2.08 79 21:46 26.11.2020
5201 Clear -17 1046 79 10000 1.9 85 20:43 26.11.2020
5202 Clear -17 1047 80 10000 2.03 78 18:37 26.11.2020
5203 Clear -17 1047 80 10000 1.87 87 17:31 26.11.2020
5204 Clear -17 1046 81 10000 1.67 91 14:24 26.11.2020
5205 Clear -17 1046 82 10000 1.46 89 12:58 26.11.2020
5206 Clear -17 1046 82 10000 1.46 89 12:40 26.11.2020
5207 Clear -17 1044 83 10000 1.08 83 11:20 26.11.2020
5208 Clear -16 1043 84 10000 0.68 83 10:23 26.11.2020
5209 Clear -16 1043 84 10000 0.68 83 09:37 26.11.2020
5210 Clear -14 1042 85 10000 0.28 59 09:18 26.11.2020
5211 Clear -14 1042 85 10000 0.28 59 08:34 26.11.2020
5212 Clear -19 1044 81 10000 1.33 80 02:19 26.11.2020
5213 Clear -18 1043 83 10000 1.45 80 22:30 25.11.2020
5214 Clouds -18 1042 84 10000 1.4 77 20:38 25.11.2020
5215 Clouds -18 1041 86 10000 1.43 79 19:26 25.11.2020
5216 Clouds -17 1041 87 10000 1.31 84 17:29 25.11.2020
5217 Clouds -17 1041 88 9546 1.19 79 15:47 25.11.2020
5218 Clouds -16 1041 89 4806 1.04 82 15:23 25.11.2020
5219 Clouds -16 1040 90 3124 0.88 78 13:46 25.11.2020
5220 Clouds -16 1039 90 2588 0.67 67 12:58 25.11.2020
5221 Clouds -14 1037 91 3002 0.28 266 11:26 25.11.2020
5222 Clouds -12 1036 91 3129 0.87 261 09:22 25.11.2020
5223 Clouds -12 1036 91 3129 0.87 261 08:50 25.11.2020
5224 Clouds -11 1035 90 3317 1.03 257 07:53 25.11.2020
5225 Clouds -13 1037 89 3160 0.42 97 03:54 25.11.2020
5226 Clouds -15 1037 87 10000 0.82 94 01:50 25.11.2020
5227 Clouds -15 1035 86 4497 1.01 96 00:22 25.11.2020
5228 Clouds -15 1035 86 4497 1.01 96 23:36 24.11.2020
5229 Clouds -15 1035 85 10000 1.04 100 22:51 24.11.2020
5230 Clouds -15 1035 84 10000 1.04 100 21:50 24.11.2020
5231 Clouds -15 1036 84 10000 1.07 99 21:27 24.11.2020
5232 Clouds -16 1035 84 10000 1.08 102 20:19 24.11.2020
5233 Clouds -16 1035 85 10000 1.03 93 17:47 24.11.2020
5234 Clouds -16 1035 85 10000 1.01 99 17:27 24.11.2020
5235 Clouds -16 1035 85 10000 1.01 99 16:38 24.11.2020
5236 Clouds -16 1035 85 10000 1.01 99 16:38 24.11.2020
5237 Clouds -16 1035 85 10000 1.06 99 15:56 24.11.2020
5238 Clouds -15 1035 86 10000 1.04 91 15:20 24.11.2020
5239 Clouds -15 1035 86 10000 1.04 91 14:45 24.11.2020
5240 Clouds -15 1035 86 10000 0.67 93 13:56 24.11.2020
5241 Clouds -15 1034 86 10000 0.32 143 12:40 24.11.2020
5242 Clouds -15 1033 86 10000 0.16 127 12:21 24.11.2020
5243 Clouds -15 1033 86 10000 0.16 127 11:34 24.11.2020
5244 Clouds -13 1032 87 10000 0.15 21 10:25 24.11.2020
5245 Clouds -13 1032 87 10000 0.15 21 10:25 24.11.2020
5246 Clouds -13 1032 87 10000 0.15 21 09:42 24.11.2020
5247 Clouds -12 1031 88 10000 0.18 304 09:21 24.11.2020
5248 Clouds -11 1031 85 10000 0.74 255 06:50 24.11.2020
5249 Clouds -13 1034 84 10000 0.52 74 03:59 24.11.2020
5250 Clouds -15 1033 82 10000 0.84 86 22:25 23.11.2020
5251 Clouds -15 1033 82 10000 0.84 86 21:33 23.11.2020
5252 Clouds -15 1033 82 10000 1.04 84 20:49 23.11.2020
5253 Clear -15 1033 82 10000 0.96 87 20:19 23.11.2020
5254 Clear -15 1033 82 10000 1.07 82 17:59 23.11.2020
5255 Clear -14 1033 82 10000 1.11 87 17:21 23.11.2020
5256 Clear -14 1033 82 10000 1.12 85 16:19 23.11.2020
5257 Clear -14 1033 83 10000 1.17 87 14:46 23.11.2020
5258 Clear -14 1033 83 10000 1.16 81 12:55 23.11.2020
5259 Clear -14 1033 83 10000 1.15 78 12:34 23.11.2020
5260 Clear -13 1033 84 10000 0.95 78 11:44 23.11.2020
5261 Clear -13 1032 84 10000 0.53 69 10:47 23.11.2020
5262 Clear -12 1032 85 10000 0.04 15 09:31 23.11.2020
5263 Clear -10 1031 87 10000 0.14 346 08:39 23.11.2020
5264 Clear -9 1032 84 10000 0.26 11 06:57 23.11.2020
5265 Clear -15 1036 81 10000 1.07 89 00:23 23.11.2020
5266 Clear -15 1037 82 10000 1.1 86 22:46 22.11.2020
5267 Clear -15 1037 82 10000 1.11 79 21:37 22.11.2020
5268 Clear -15 1037 82 10000 1.01 82 20:43 22.11.2020
5269 Clear -15 1038 82 10000 0.92 90 19:52 22.11.2020
5270 Clear -15 1038 82 10000 1.01 81 18:40 22.11.2020
5271 Clear -14 1039 82 10000 1.25 76 16:50 22.11.2020
5272 Clear -15 1039 82 10000 1.25 79 15:30 22.11.2020
5273 Clear -15 1040 82 10000 1.19 75 14:28 22.11.2020
5274 Clouds -14 1040 83 10000 1.23 79 12:49 22.11.2020
5275 Clouds -14 1040 83 10000 1.05 72 11:56 22.11.2020
5276 Clouds -14 1040 83 10000 0.64 66 11:20 22.11.2020
5277 Clouds -14 1040 83 10000 0.64 66 10:38 22.11.2020
5278 Clouds -12 1039 86 10000 0.28 346 08:36 22.11.2020
5279 Clouds -17 1045 79 10000 1.19 77 01:47 22.11.2020
5280 Clouds -18 1045 78 10000 1.07 86 22:56 21.11.2020
5281 Clouds -18 1045 78 10000 1.13 82 21:39 21.11.2020
5282 Clear -18 1045 78 10000 1.05 89 20:55 21.11.2020
5283 Clear -18 1045 78 10000 1.05 89 20:31 21.11.2020
5284 Clear -18 1046 79 10000 1.07 88 19:52 21.11.2020
5285 Clear -18 1046 79 10000 1.18 83 19:26 21.11.2020
5286 Clear -18 1046 79 10000 1.26 86 17:57 21.11.2020
5287 Clear -18 1046 79 10000 1.14 85 16:48 21.11.2020
5288 Clear -17 1047 79 10000 1.29 97 15:51 21.11.2020
5289 Clear -17 1047 80 10000 1.27 85 15:21 21.11.2020
5290 Clear -17 1047 80 10000 1.27 85 14:42 21.11.2020
5291 Clear -17 1047 80 10000 1.3 91 13:41 21.11.2020
5292 Clear -17 1046 81 10000 1.1 76 12:24 21.11.2020
5293 Clear -17 1046 81 10000 1.1 76 11:54 21.11.2020
5294 Clear -17 1046 82 10000 0.67 63 10:39 21.11.2020
5295 Clear -15 1045 82 10000 0.09 326 09:32 21.11.2020
5296 Clear -14 1044 83 10000 0.39 269 08:51 21.11.2020
5297 Clear -14 1045 78 10000 0.16 237 05:43 21.11.2020
5298 Clear -16 1048 79 10000 0.71 96 04:24 21.11.2020
5299 Clear -20 1048 78 10000 1.08 76 00:26 21.11.2020
5300 Clear -20 1048 78 10000 1.05 78 23:25 20.11.2020
5301 Clear -20 1049 78 10000 1 77 21:48 20.11.2020
5302 Clear -20 1049 78 10000 1.09 76 21:26 20.11.2020
5303 Clear -20 1049 78 10000 1.09 76 20:55 20.11.2020
5304 Clear -20 1049 78 10000 1.28 75 19:43 20.11.2020
5305 Clear -20 1049 79 10000 1.43 74 18:29 20.11.2020
5306 Clear -20 1049 79 10000 1.43 74 17:34 20.11.2020
5307 Clear -20 1049 79 10000 1.54 72 16:57 20.11.2020
5308 Clear -20 1049 79 10000 1.54 72 16:37 20.11.2020
5309 Clear -20 1050 79 10000 1.66 67 15:48 20.11.2020
5310 Clear -20 1049 79 10000 1.77 59 14:23 20.11.2020
5311 Clear -20 1049 79 10000 1.85 50 13:29 20.11.2020
5312 Clear -20 1048 79 10000 1.86 47 12:59 20.11.2020
5313 Clear -19 1048 79 10000 1.94 38 12:28 20.11.2020
5314 Clear -19 1048 79 10000 1.94 38 11:36 20.11.2020
5315 Clear -17 1045 80 10000 1.53 358 09:56 20.11.2020
5316 Clear -15 1045 78 10000 1.49 340 08:35 20.11.2020
5317 Clear -15 1044 75 10000 1.7 331 07:52 20.11.2020
5318 Clear -17 1045 73 10000 1.32 22 05:19 20.11.2020
5319 Clouds -21 1044 79 10000 1.81 46 00:41 20.11.2020
5320 Clouds -19 1042 81 10000 1.73 37 22:30 19.11.2020
5321 Clouds -19 1042 83 10000 1.77 40 21:54 19.11.2020
5322 Clouds -18 1041 84 10000 1.8 36 20:58 19.11.2020
5323 Clouds -17 1040 85 10000 1.72 39 20:21 19.11.2020
5324 Clouds -17 1039 86 10000 1.6 31 19:27 19.11.2020
5325 Clouds -17 1039 86 10000 1.6 31 18:54 19.11.2020
5326 Clouds -16 1039 86 8754 1.6 22 17:35 19.11.2020
5327 Clouds -15 1038 87 6002 1.44 12 16:33 19.11.2020
5328 Clouds -14 1037 88 3091 1.46 2 15:31 19.11.2020
5329 Clouds -12 1034 90 1459 1.48 332 13:55 19.11.2020
5330 Clouds -12 1034 90 1459 1.48 332 13:36 19.11.2020
5331 Clouds -11 1033 90 2041 1.59 330 12:54 19.11.2020
5332 Clouds -11 1033 90 2041 1.59 330 12:33 19.11.2020
5333 Clouds -10 1031 91 819 1.89 315 11:41 19.11.2020
5334 Snow -10 1030 92 174 1.95 298 11:22 19.11.2020
5335 Clouds -10 1030 92 174 1.95 298 10:31 19.11.2020
5336 Clouds -9 1029 92 135 2.37 263 09:47 19.11.2020
5337 Snow -9 1028 92 142 2.43 246 09:27 19.11.2020
5338 Snow -8 1027 92 166 2.49 238 08:25 19.11.2020
5339 Clouds -8 1027 92 166 2.49 238 07:35 19.11.2020
5340 Clouds -8 1027 93 142 2.37 233 01:47 19.11.2020
5341 Snow -8 1026 93 124 2.34 232 00:32 19.11.2020
5342 Snow -8 1026 93 127 2.37 226 23:31 18.11.2020
5343 Clouds -7 1025 93 126 2.42 226 22:59 18.11.2020
5344 Snow -7 1025 94 118 2.66 240 22:29 18.11.2020
5345 Snow -7 1025 94 118 2.66 240 22:29 18.11.2020
5346 Snow -7 1025 94 118 2.66 240 21:43 18.11.2020
5347 Snow -6 1024 94 105 2.7 236 21:25 18.11.2020
5348 Snow -6 1024 94 105 2.7 236 20:32 18.11.2020
5349 Snow -6 1024 94 175 2.49 216 19:42 18.11.2020
5350 Snow -6 1024 94 197 2.57 213 19:21 18.11.2020
5351 Clouds -6 1024 94 127 2.42 231 18:40 18.11.2020
5352 Clouds -6 1024 94 229 2.37 220 17:44 18.11.2020
5353 Snow -5 1023 92 552 2.26 190 16:27 18.11.2020
5354 Clouds -5 1023 92 552 2.26 190 15:58 18.11.2020
5355 Clouds -4 1023 84 10000 2.47 195 14:41 18.11.2020
5356 Clouds -4 1023 84 10000 2.1 180 13:47 18.11.2020
5357 Clouds -4 1023 87 10000 1.46 199 13:21 18.11.2020
5358 Clouds -4 1023 87 10000 1.46 199 12:42 18.11.2020
5359 Clouds -4 1023 87 10000 1.35 207 11:51 18.11.2020
5360 Clouds -4 1022 86 10000 1.61 210 10:54 18.11.2020
5361 Clouds -2 1020 83 10000 2.5 208 10:27 18.11.2020
5362 Clouds -2 1020 81 10000 3.06 210 08:33 18.11.2020
5363 Clouds -2 1020 81 10000 2.34 219 06:41 18.11.2020
5364 Clouds -5 1023 85 10000 1.44 159 02:51 18.11.2020
5365 Clouds -7 1022 85 10000 1.11 188 00:18 18.11.2020
5366 Clouds -6 1022 84 10000 1.08 158 23:23 17.11.2020
5367 Clouds -6 1022 84 10000 1.08 158 22:41 17.11.2020
5368 Clouds -7 1021 85 10000 1.03 153 22:23 17.11.2020
5369 Clouds -7 1021 85 10000 1.03 153 21:46 17.11.2020
5370 Clouds -6 1021 83 10000 2.17 130 20:58 17.11.2020
5371 Clouds -6 1021 83 10000 2.17 130 20:40 17.11.2020
5372 Clouds -5 1022 83 10000 2.1 132 20:22 17.11.2020
5373 Clouds -5 1022 86 10000 2.03 131 18:36 17.11.2020
5374 Clouds -5 1022 88 10000 1.81 133 18:18 17.11.2020
5375 Clear -6 1022 90 10000 1.52 128 16:59 17.11.2020
5376 Clear -6 1022 91 10000 1.06 137 16:29 17.11.2020
5377 Clear -6 1022 91 10000 1.06 137 15:45 17.11.2020
5378 Clear -5 1021 92 10000 1.44 133 15:27 17.11.2020
5379 Clear -5 1021 92 10000 1.44 133 14:56 17.11.2020
5380 Clear -5 1021 92 10000 1.19 129 14:28 17.11.2020
5381 Clear -5 1021 92 10000 1.19 129 13:38 17.11.2020
5382 Clear -5 1021 91 10000 0.67 164 13:18 17.11.2020
5383 Clouds -5 1021 92 10000 0.58 164 12:40 17.11.2020
5384 Clear -4 1021 92 10000 0.61 171 11:44 17.11.2020
5385 Clear -4 1020 92 10000 0.67 231 10:49 17.11.2020
5386 Clear -1 1019 88 10000 1.58 259 10:23 17.11.2020
5387 Clear -1 1019 88 10000 1.58 259 09:50 17.11.2020
5388 Clouds 0 1018 86 10000 1.51 240 09:27 17.11.2020
5389 Clouds 0 1017 86 10000 0.4 195 08:22 17.11.2020
5390 Clouds 0 1017 86 10000 0.4 195 07:44 17.11.2020
5391 Clouds -1 1018 88 10000 0.56 213 06:33 17.11.2020
5392 Clouds -2 1020 88 10000 0.82 226 03:31 17.11.2020
5393 Clouds -3 1020 88 10000 0.61 195 02:35 17.11.2020
5394 Clouds -4 1020 88 10000 0.23 156 01:23 17.11.2020
5395 Clouds -4 1020 88 10000 0.23 156 01:23 17.11.2020
5396 Snow -4 1020 89 10000 0.4 193 00:50 17.11.2020
5397 Snow -3 1020 87 10000 0.3 233 23:45 16.11.2020
5398 Clouds -3 1020 87 10000 0.11 276 23:23 16.11.2020
5399 Snow -3 1020 87 10000 0.11 276 22:42 16.11.2020
5400 Clouds -4 1019 86 10000 0.36 313 22:20 16.11.2020
5401 Snow -4 1019 86 10000 0.36 313 21:44 16.11.2020
5402 Clouds -4 1019 86 10000 0.41 304 21:24 16.11.2020
5403 Clouds -3 1020 86 10000 0.58 11 20:27 16.11.2020
5404 Clouds -3 1020 86 10000 0.58 11 19:56 16.11.2020
5405 Clouds -3 1020 86 10000 0.58 11 19:32 16.11.2020
5406 Clouds -4 1020 86 10000 0.5 357 18:56 16.11.2020
5407 Clouds -3 1020 85 10000 0.7 50 18:28 16.11.2020
5408 Clouds -3 1020 85 10000 0.7 50 17:41 16.11.2020
5409 Clouds -3 1020 86 10000 0.74 46 17:19 16.11.2020
5410 Clouds -3 1020 86 10000 0.74 46 16:51 16.11.2020
5411 Clouds -3 1020 87 10000 0.95 52 16:26 16.11.2020
5412 Clouds -3 1020 87 10000 0.95 52 15:47 16.11.2020
5413 Clouds -3 1020 88 10000 1.3 28 15:28 16.11.2020
5414 Clouds -3 1020 88 10000 1.3 28 14:53 16.11.2020
5415 Clouds -3 1020 88 10000 1.34 31 13:50 16.11.2020
5416 Clouds -3 1020 89 10000 1.17 18 13:21 16.11.2020
5417 Clouds -3 1020 89 10000 1.09 16 12:30 16.11.2020
5418 Clouds -2 1019 90 10000 0.91 31 11:43 16.11.2020
5419 Clouds -2 1019 89 10000 0.88 355 11:22 16.11.2020
5420 Clouds -2 1019 89 10000 0.88 355 10:44 16.11.2020
5421 Clouds 0 1018 86 10000 0.54 353 10:26 16.11.2020
5422 Clouds 0 1018 86 10000 0.54 353 09:52 16.11.2020
5423 Clouds 0 1018 86 10000 0.54 353 09:34 16.11.2020
5424 Clouds 1 1017 78 10000 1.41 298 08:48 16.11.2020
5425 Clouds 1 1017 78 10000 1.32 299 08:19 16.11.2020
5426 Clouds 1 1017 79 10000 1.29 304 06:56 16.11.2020
5427 Clouds 1 1017 79 10000 1.29 304 06:38 16.11.2020
5428 Clouds 1 1017 83 10000 0.59 285 05:44 16.11.2020
5429 Clouds 0 1018 86 10000 0.78 29 03:54 16.11.2020
5430 Clouds 0 1018 86 10000 0.78 29 03:54 16.11.2020
5431 Clouds -2 1018 86 10000 0.94 309 01:44 16.11.2020
5432 Snow -3 1017 83 10000 1.05 289 00:26 16.11.2020
5433 Clouds -3 1017 84 10000 0.05 237 23:29 15.11.2020
5434 Clouds -3 1017 84 10000 0.05 237 22:57 15.11.2020
5435 Clouds -3 1016 83 10000 0.33 24 22:22 15.11.2020
5436 Snow -3 1016 83 10000 0.33 24 21:51 15.11.2020
5437 Clouds -3 1017 83 10000 0.52 102 21:29 15.11.2020
5438 Clouds -3 1017 83 10000 0.52 102 20:51 15.11.2020
5439 Clouds -3 1017 83 10000 0.52 102 20:32 15.11.2020
5440 Snow -3 1017 83 10000 0.44 105 19:55 15.11.2020
5441 Clouds -3 1017 83 10000 0.44 105 19:36 15.11.2020
5442 Clouds -2 1017 82 10000 0.93 127 19:18 15.11.2020
5443 Clouds -2 1017 82 10000 0.93 127 18:43 15.11.2020
5444 Clouds -2 1018 82 10000 0.89 134 18:24 15.11.2020
5445 Clouds -2 1018 82 10000 0.89 134 17:47 15.11.2020
5446 Clouds -2 1018 82 10000 0.84 147 17:25 15.11.2020
5447 Clouds -2 1018 82 10000 0.84 147 16:52 15.11.2020
5448 Clouds -1 1018 81 10000 0.86 143 16:23 15.11.2020
5449 Snow -1 1018 81 10000 0.86 143 15:57 15.11.2020
5450 Clouds -1 1018 81 10000 0.86 143 15:39 15.11.2020
5451 Clouds -1 1017 80 10000 1.41 126 15:20 15.11.2020
5452 Clouds -1 1017 80 10000 1.41 126 14:41 15.11.2020
5453 Clouds -1 1017 79 10000 1.46 118 14:21 15.11.2020
5454 Clouds -1 1017 79 10000 1.46 118 13:40 15.11.2020
5455 Clouds 0 1018 79 10000 1.64 119 12:53 15.11.2020
5456 Clouds 0 1017 79 10000 1.7 121 12:26 15.11.2020
5457 Clouds 0 1017 79 10000 1.7 121 11:58 15.11.2020
5458 Clouds 0 1017 79 10000 1.7 121 11:40 15.11.2020
5459 Clouds 0 1017 79 10000 1.1 122 11:18 15.11.2020
5460 Clouds 0 1017 79 10000 1.1 122 10:46 15.11.2020
5461 Clouds 1 1017 76 10000 0.27 85 10:27 15.11.2020
5462 Clouds 1 1017 76 10000 0.27 85 09:45 15.11.2020
5463 Clouds 3 1016 67 10000 0.88 139 09:22 15.11.2020
5464 Clouds 3 1016 67 10000 0.88 139 08:53 15.11.2020
5465 Clouds 3 1016 67 10000 0.88 139 08:30 15.11.2020
5466 Clouds 4 1016 60 10000 1.35 131 07:43 15.11.2020
5467 Clouds 2 1019 73 10000 0.9 114 05:18 15.11.2020
5468 Clouds 2 1019 73 10000 0.9 114 04:49 15.11.2020
5469 Clouds -1 1019 81 10000 1.44 107 00:49 15.11.2020
5470 Clouds 0 1019 79 3796 1.97 84 00:28 15.11.2020
5471 Clouds 0 1019 79 3796 1.97 84 23:37 14.11.2020
5472 Clouds -1 1020 79 3655 2.33 96 22:50 14.11.2020
5473 Clouds -1 1020 79 3655 2.33 96 22:30 14.11.2020
5474 Clouds -1 1019 76 2290 1.95 82 21:43 14.11.2020
5475 Snow -2 1020 75 10000 2.37 93 21:22 14.11.2020
5476 Clouds -2 1020 75 10000 2.37 93 20:57 14.11.2020
5477 Clouds -2 1020 74 10000 2.61 85 20:28 14.11.2020
5478 Clouds -2 1020 74 10000 2.61 85 19:52 14.11.2020
5479 Clouds -2 1020 74 10000 2.61 85 19:32 14.11.2020
5480 Clouds -2 1022 74 10000 2.3 79 18:44 14.11.2020
5481 Clouds -3 1022 74 10000 2.27 87 18:25 14.11.2020
5482 Clouds -3 1022 74 10000 2.27 87 17:57 14.11.2020
5483 Clouds -3 1022 74 10000 2.27 87 17:39 14.11.2020
5484 Clouds -3 1022 72 10000 2.48 84 17:19 14.11.2020
5485 Clouds -3 1022 72 10000 2.48 84 16:41 14.11.2020
5486 Clouds -3 1022 72 10000 2.58 88 16:20 14.11.2020
5487 Clouds -3 1022 72 10000 2.58 88 15:52 14.11.2020
5488 Clouds -3 1022 73 10000 2.71 84 15:26 14.11.2020
5489 Clouds -3 1022 73 10000 2.71 84 14:42 14.11.2020
5490 Clouds -3 1022 75 10000 2.54 80 14:23 14.11.2020
5491 Clouds -3 1022 75 10000 2.54 80 13:42 14.11.2020
5492 Clouds -2 1023 76 10000 2.5 86 13:23 14.11.2020
5493 Clouds -2 1023 76 10000 2.5 86 12:46 14.11.2020
5494 Clouds -2 1022 78 10000 2.14 84 12:28 14.11.2020
5495 Clouds -2 1022 78 10000 2.14 84 11:46 14.11.2020
5496 Clouds -2 1021 81 10000 1.53 81 11:25 14.11.2020
5497 Clouds -2 1021 81 10000 1.53 81 10:45 14.11.2020
5498 Clouds 1 1021 74 10000 1.79 74 10:25 14.11.2020
5499 Clouds 1 1021 74 10000 1.79 74 09:49 14.11.2020
5500 Clouds 2 1020 68 10000 1.21 90 09:28 14.11.2020
5501 Clouds 2 1020 68 10000 1.21 90 08:50 14.11.2020
5502 Clouds 3 1019 65 10000 0.34 133 08:29 14.11.2020
5503 Clouds 3 1019 65 10000 0.34 133 07:50 14.11.2020
5504 Clouds 3 1020 66 10000 0.98 83 07:26 14.11.2020
5505 Clouds 3 1019 65 10000 0.84 81 06:32 14.11.2020
5506 Clouds 2 1020 67 10000 0.62 96 05:31 14.11.2020
5507 Clouds 0 1021 78 10000 1.65 94 04:18 14.11.2020
5508 Clouds -4 1021 78 10000 1.86 94 00:59 14.11.2020
5509 Clouds -4 1021 78 10000 1.69 94 23:47 13.11.2020
5510 Clouds -4 1021 78 10000 1.63 90 23:25 13.11.2020
5511 Clouds -4 1021 78 10000 1.63 90 22:46 13.11.2020
5512 Clouds -4 1021 79 10000 1.75 84 22:26 13.11.2020
5513 Clouds -4 1021 79 10000 1.75 84 21:55 13.11.2020
5514 Clouds -4 1021 79 10000 1.75 84 21:37 13.11.2020
5515 Clouds -4 1021 79 10000 1.59 92 21:19 13.11.2020
5516 Clouds -4 1021 79 10000 1.59 92 20:41 13.11.2020
5517 Clear -3 1021 78 10000 1.77 102 20:21 13.11.2020
5518 Clear -3 1021 78 10000 1.77 102 19:46 13.11.2020
5519 Clouds -3 1021 78 10000 0.94 97 19:23 13.11.2020
5520 Clouds -3 1021 78 10000 0.94 97 18:54 13.11.2020
5521 Clouds -2 1021 77 10000 1.49 104 18:21 13.11.2020
5522 Clouds -2 1021 77 10000 1.49 104 17:41 13.11.2020
5523 Clouds -2 1021 77 10000 1.35 104 17:18 13.11.2020
5524 Clouds -2 1021 77 10000 1.35 104 16:48 13.11.2020
5525 Clouds -2 1021 77 10000 1.6 87 16:23 13.11.2020
5526 Clouds -2 1021 77 10000 1.6 87 15:47 13.11.2020
5527 Clouds -2 1021 77 10000 1.69 82 15:27 13.11.2020
5528 Clouds -2 1021 77 10000 1.69 82 14:45 13.11.2020
5529 Clouds -2 1021 78 10000 1.97 83 14:22 13.11.2020
5530 Clouds -2 1021 78 10000 1.97 83 13:47 13.11.2020
5531 Clouds -2 1021 78 10000 1.78 76 13:23 13.11.2020
5532 Clouds -2 1021 78 10000 1.78 76 12:46 13.11.2020
5533 Clouds -2 1020 79 10000 2.31 109 12:24 13.11.2020
5534 Clouds -2 1020 79 10000 2.31 109 11:48 13.11.2020
5535 Clouds -1 1020 80 10000 1.67 120 11:27 13.11.2020
5536 Clouds -1 1020 80 10000 1.67 120 10:55 13.11.2020
5537 Clouds -1 1020 80 10000 1.67 120 10:34 13.11.2020
5538 Clouds 1 1018 76 10000 1.27 137 09:56 13.11.2020
5539 Clouds 1 1018 76 10000 1.27 137 09:34 13.11.2020
5540 Clouds 3 1017 65 10000 0.55 205 09:00 13.11.2020
5541 Clouds 3 1017 65 10000 0.55 205 08:34 13.11.2020
5542 Clear 4 1017 60 10000 0.88 129 07:57 13.11.2020
5543 Clear 4 1017 60 10000 0.88 129 07:38 13.11.2020
5544 Clear 4 1017 60 10000 1.66 128 07:20 13.11.2020
5545 Clear 4 1017 60 10000 1.66 128 06:45 13.11.2020
5546 Clear 3 1018 62 10000 0.56 159 05:42 13.11.2020
5547 Clear 2 1019 67 10000 2.22 101 04:57 13.11.2020
5548 Clear -4 1021 74 10000 2.43 102 01:45 13.11.2020
5549 Clear -4 1021 73 10000 2.68 100 00:37 13.11.2020
5550 Clear -4 1022 73 10000 2.73 98 00:18 13.11.2020
5551 Clear -4 1022 73 10000 2.73 98 23:37 12.11.2020
5552 Clear -4 1022 73 10000 3.19 106 23:18 12.11.2020
5553 Clear -4 1022 73 10000 3.19 106 22:48 12.11.2020
5554 Clear -4 1022 73 10000 3.19 106 22:30 12.11.2020
5555 Clear -4 1022 73 10000 3.09 107 21:42 12.11.2020
5556 Clear -4 1022 74 10000 2.65 102 21:24 12.11.2020
5557 Clear -4 1022 74 10000 2.65 102 20:57 12.11.2020
5558 Clear -4 1022 74 10000 2.65 102 20:38 12.11.2020
5559 Clouds -4 1023 74 10000 2.7 101 20:18 12.11.2020
5560 Clouds -4 1023 74 10000 2.7 101 19:43 12.11.2020
5561 Clouds -3 1023 74 10000 3.23 106 19:24 12.11.2020
5562 Clouds -4 1023 74 10000 2.95 104 18:48 12.11.2020
5563 Clouds -4 1024 74 10000 2.83 103 18:23 12.11.2020
5564 Clouds -4 1024 74 10000 2.83 103 17:45 12.11.2020
5565 Clouds -3 1024 74 10000 2.7 103 17:26 12.11.2020
5566 Clouds -3 1024 74 10000 2.7 103 16:46 12.11.2020
5567 Clouds -3 1024 74 10000 2.89 100 16:25 12.11.2020
5568 Clouds -3 1024 74 10000 2.89 100 15:57 12.11.2020
5569 Clouds -3 1024 74 10000 2.89 100 15:32 12.11.2020
5570 Clouds -3 1025 74 10000 2.97 98 14:59 12.11.2020
5571 Clouds -3 1025 74 10000 2.97 98 14:41 12.11.2020
5572 Clouds -3 1025 74 10000 3.09 97 14:21 12.11.2020
5573 Clouds -3 1025 74 10000 3.09 97 13:46 12.11.2020
5574 Clouds -3 1025 75 10000 2.98 96 13:21 12.11.2020
5575 Clouds -3 1025 75 10000 2.98 96 12:51 12.11.2020
5576 Clouds -3 1025 76 10000 2.62 100 12:29 12.11.2020
5577 Clouds -3 1025 76 10000 2.62 100 11:59 12.11.2020
5578 Clouds -3 1025 76 10000 2.62 100 11:40 12.11.2020
5579 Clouds -2 1024 79 10000 2.53 100 11:22 12.11.2020
5580 Clouds -2 1024 79 10000 2.53 100 10:41 12.11.2020
5581 Clouds 0 1024 78 10000 2.39 101 10:22 12.11.2020
5582 Clouds 0 1024 78 10000 2.39 101 09:40 12.11.2020
5583 Clouds 2 1023 70 10000 2.26 106 09:20 12.11.2020
5584 Clouds 2 1023 70 10000 2.26 106 08:41 12.11.2020
5585 Clear 2 1023 66 10000 2.14 109 08:21 12.11.2020
5586 Clear 2 1023 66 10000 2.14 109 07:59 12.11.2020
5587 Clear 2 1023 66 10000 2.14 109 07:39 12.11.2020
5588 Clouds 2 1024 66 10000 1.98 110 06:54 12.11.2020
5589 Clouds 1 1025 70 10000 2.09 106 06:27 12.11.2020
5590 Clear -2 1028 73 10000 2.54 100 03:51 12.11.2020
5591 Clear -5 1028 72 10000 2.64 100 03:20 12.11.2020
5592 Clouds -6 1028 72 10000 2.84 98 00:49 12.11.2020
5593 Clouds -6 1028 72 10000 2.82 97 23:46 11.11.2020
5594 Clouds -6 1028 71 10000 2.95 98 23:25 11.11.2020
5595 Clouds -6 1028 71 10000 2.95 98 22:56 11.11.2020
5596 Clouds -6 1028 71 10000 2.95 98 22:38 11.11.2020
5597 Clouds -6 1028 71 10000 2.9 99 22:18 11.11.2020
5598 Clouds -6 1028 71 10000 2.9 99 21:41 11.11.2020
5599 Clouds -6 1028 70 10000 2.64 98 21:20 11.11.2020
5600 Clouds -6 1028 70 10000 2.64 98 20:55 11.11.2020
5601 Clouds -6 1028 70 10000 2.64 98 20:36 11.11.2020
5602 Clouds -6 1028 70 10000 2.64 98 20:36 11.11.2020
5603 Clouds -6 1028 69 10000 2.56 99 20:18 11.11.2020
5604 Clouds -6 1028 69 10000 2.56 99 19:43 11.11.2020
5605 Clouds -6 1028 68 10000 2.63 98 19:24 11.11.2020
5606 Clouds -6 1029 68 10000 2.55 98 18:47 11.11.2020
5607 Clouds -6 1029 67 10000 2.72 96 18:27 11.11.2020
5608 Clouds -6 1029 67 10000 2.72 96 17:41 11.11.2020
5609 Clear -7 1029 67 10000 2.66 99 17:22 11.11.2020
5610 Clear -7 1029 67 10000 2.66 99 16:45 11.11.2020
5611 Clear -7 1029 67 10000 2.74 96 16:27 11.11.2020
5612 Clear -7 1029 67 10000 2.74 96 15:44 11.11.2020
5613 Clear -6 1029 69 10000 2.72 94 15:26 11.11.2020
5614 Clear -6 1029 69 10000 2.72 94 14:52 11.11.2020
5615 Clear -6 1029 69 10000 2.72 94 14:52 11.11.2020
5616 Clear -6 1029 69 10000 2.72 94 14:31 11.11.2020
5617 Clear -6 1029 72 10000 2.79 92 13:52 11.11.2020
5618 Clear -6 1029 72 10000 2.79 92 13:33 11.11.2020
5619 Clear -6 1029 75 10000 2.77 91 12:41 11.11.2020
5620 Clear -5 1029 78 10000 2.77 91 12:20 11.11.2020
5621 Clear -5 1029 78 10000 2.77 91 11:49 11.11.2020
5622 Clear -5 1028 81 10000 2.4 98 11:29 11.11.2020
5623 Clear -5 1028 81 10000 2.4 98 10:40 11.11.2020
5624 Clear -5 1028 81 10000 2.4 98 10:40 11.11.2020
5625 Clear -3 1027 80 10000 1.79 102 10:20 11.11.2020
5626 Clear -3 1027 80 10000 1.79 102 09:44 11.11.2020
5627 Clear -1 1027 78 10000 1.62 106 09:25 11.11.2020
5628 Clear -1 1027 78 10000 1.62 106 08:46 11.11.2020
5629 Clear -1 1027 78 10000 1.62 106 08:46 11.11.2020
5630 Clear 0 1027 78 10000 1.39 105 08:27 11.11.2020
5631 Clear 0 1027 78 10000 1.39 105 07:49 11.11.2020
5632 Clear -1 1027 77 10000 1.43 108 06:51 11.11.2020
5633 Clear -1 1028 77 10000 1.51 100 06:25 11.11.2020
5634 Clear -4 1030 79 10000 2 89 03:40 11.11.2020
5635 Clouds -6 1028 81 10000 1.02 147 00:59 11.11.2020
5636 Clouds -7 1027 81 10000 0.35 245 00:28 11.11.2020
5637 Clouds -7 1027 81 10000 0.35 245 23:43 10.11.2020
5638 Clouds -6 1025 81 10000 0.46 176 23:24 10.11.2020
5639 Clouds -6 1025 81 10000 0.46 176 22:56 10.11.2020
5640 Clouds -6 1024 80 10000 0.86 132 22:27 10.11.2020
5641 Clouds -6 1024 80 10000 0.86 132 21:44 10.11.2020
5642 Clouds -5 1023 78 10000 0.98 131 21:25 10.11.2020
5643 Clouds -5 1023 78 10000 0.98 131 20:59 10.11.2020
5644 Clouds -5 1023 78 10000 0.98 131 20:41 10.11.2020
5645 Clouds -4 1022 78 10000 1.4 125 20:22 10.11.2020
5646 Clouds -4 1022 78 10000 1.4 125 19:47 10.11.2020
5647 Clouds -4 1021 77 10000 1.52 111 19:28 10.11.2020
5648 Clouds -4 1021 77 10000 1.52 111 18:58 10.11.2020
5649 Clouds -4 1021 77 10000 1.67 113 18:39 10.11.2020
5650 Clouds -4 1021 77 10000 1.55 112 18:18 10.11.2020
5651 Clouds -4 1021 77 10000 1.55 112 17:43 10.11.2020
5652 Clouds -4 1021 77 10000 1.99 106 17:25 10.11.2020
5653 Clouds -4 1021 77 10000 1.99 106 16:44 10.11.2020
5654 Clouds -4 1021 77 10000 2.15 111 16:24 10.11.2020
5655 Clouds -4 1021 77 10000 2.15 111 15:56 10.11.2020
5656 Clouds -4 1021 77 10000 2.15 111 15:37 10.11.2020
5657 Clouds -4 1021 76 10000 2.06 108 15:19 10.11.2020
5658 Clouds -4 1021 76 10000 2.06 108 14:41 10.11.2020
5659 Clouds -4 1021 77 10000 2.01 106 14:20 10.11.2020
5660 Clouds -4 1021 77 10000 2.01 106 13:41 10.11.2020
5661 Clear -4 1020 77 10000 2.01 105 13:22 10.11.2020
5662 Clear -4 1020 77 10000 2.01 105 12:56 10.11.2020
5663 Clear -4 1020 77 10000 2.01 105 12:38 10.11.2020
5664 Clear -3 1020 77 10000 2.16 112 12:19 10.11.2020
5665 Clear -3 1020 77 10000 2.16 112 11:38 10.11.2020
5666 Clear -3 1019 79 10000 1.35 116 11:19 10.11.2020
5667 Clear -3 1019 79 10000 1.35 116 10:42 10.11.2020
5668 Clear -1 1018 76 10000 0.88 122 10:23 10.11.2020
5669 Clear -1 1018 76 10000 0.88 122 09:48 10.11.2020
5670 Clear 2 1018 67 10000 0.57 137 09:26 10.11.2020
5671 Clear 2 1018 67 10000 0.57 137 08:57 10.11.2020
5672 Clear 2 1018 67 10000 0.57 137 08:30 10.11.2020
5673 Clear 3 1018 64 10000 0.47 159 07:47 10.11.2020
5674 Clear 2 1019 64 10000 0.36 146 07:26 10.11.2020
5675 Clear 2 1019 64 10000 0.36 146 06:47 10.11.2020
5676 Clear 2 1019 65 10000 0.49 122 06:23 10.11.2020
5677 Clear 1 1020 70 10000 1.04 96 05:27 10.11.2020
5678 Clear -3 1022 74 10000 1.47 100 02:48 10.11.2020
5679 Clear -5 1022 74 10000 1.84 102 01:37 10.11.2020
5680 Clouds -5 1021 76 10000 1.99 105 00:23 10.11.2020
5681 Clouds -5 1021 76 10000 1.99 105 23:41 09.11.2020
5682 Clouds -4 1021 75 10000 2.2 110 22:56 09.11.2020
5683 Clouds -4 1021 75 10000 2.2 110 22:37 09.11.2020
5684 Clouds -4 1021 76 10000 1.74 105 22:19 09.11.2020
5685 Clouds -4 1021 76 10000 1.74 105 21:39 09.11.2020
5686 Clouds -4 1021 77 10000 1.88 98 21:20 09.11.2020
5687 Clouds -4 1021 77 10000 1.88 98 20:40 09.11.2020
5688 Snow -3 1022 77 10000 1.95 102 20:21 09.11.2020
5689 Clouds -3 1022 77 10000 1.95 102 19:42 09.11.2020
5690 Snow -4 1022 76 10000 2.61 101 19:22 09.11.2020
5691 Clouds -3 1022 76 10000 2.39 100 18:47 09.11.2020
5692 Clouds -4 1022 76 10000 1.89 98 18:21 09.11.2020
5693 Clouds -4 1022 76 10000 1.89 98 17:59 09.11.2020
5694 Clouds -4 1022 76 10000 1.89 98 17:39 09.11.2020
5695 Clouds -4 1022 76 10000 2.34 100 17:21 09.11.2020
5696 Clouds -4 1022 76 10000 2.34 100 16:39 09.11.2020
5697 Clouds -4 1022 77 10000 2.52 99 16:19 09.11.2020
5698 Clouds -4 1022 77 10000 2.52 99 15:42 09.11.2020
5699 Clear -4 1022 77 10000 2.55 97 15:24 09.11.2020
5700 Clear -4 1022 77 10000 2.55 97 14:44 09.11.2020
5701 Clear -4 1022 78 10000 2.66 98 14:26 09.11.2020
5702 Clear -4 1022 78 10000 2.66 98 13:51 09.11.2020
5703 Clear -3 1022 80 10000 2.69 101 13:21 09.11.2020
5704 Clear -3 1022 80 10000 2.76 100 12:50 09.11.2020
5705 Clear -3 1022 82 10000 2.69 104 12:26 09.11.2020
5706 Clear -3 1022 82 10000 2.69 104 11:57 09.11.2020
5707 Clear -3 1022 82 10000 2.69 104 11:39 09.11.2020
5708 Clear -2 1021 85 10000 2.27 109 11:20 09.11.2020
5709 Clear -2 1021 85 10000 2.27 109 10:42 09.11.2020
5710 Clear 0 1020 83 10000 1.78 111 10:23 09.11.2020
5711 Clear 0 1020 83 10000 1.78 111 09:45 09.11.2020
5712 Clear 2 1020 71 10000 1.79 108 09:24 09.11.2020
5713 Clear 2 1020 71 10000 1.79 108 08:41 09.11.2020
5714 Clear 3 1020 68 10000 1.56 106 08:20 09.11.2020
5715 Clear 3 1020 68 10000 1.56 106 07:40 09.11.2020
5716 Clear 3 1020 68 10000 1.36 101 07:19 09.11.2020
5717 Clear 3 1020 68 10000 1.36 101 06:31 09.11.2020
5718 Clear -3 1025 83 10000 2.27 96 03:22 09.11.2020
5719 Clear -5 1026 84 10000 2.38 96 01:43 09.11.2020
5720 Clear -5 1026 85 10000 2.35 97 00:58 09.11.2020
5721 Clear -5 1026 85 10000 2.29 95 23:53 08.11.2020
5722 Clear -5 1026 85 10000 2.29 95 23:30 08.11.2020
5723 Clear -4 1026 85 10000 2.35 96 22:46 08.11.2020
5724 Clear -4 1026 85 10000 2.31 97 22:23 08.11.2020
5725 Clear -4 1026 85 10000 2.31 97 21:56 08.11.2020
5726 Clear -4 1026 85 10000 2.31 97 21:56 08.11.2020
5727 Clear -4 1026 85 10000 2.31 97 21:56 08.11.2020
5728 Clear -4 1026 85 10000 2.31 97 21:37 08.11.2020
5729 Clear -4 1026 85 10000 2.28 98 21:18 08.11.2020
5730 Clear -4 1026 85 10000 2.28 98 20:39 08.11.2020
5731 Clear -4 1026 85 10000 2.28 98 20:39 08.11.2020
5732 Clear -4 1027 85 10000 2.32 97 20:21 08.11.2020
5733 Clear -4 1027 85 10000 2.32 97 19:56 08.11.2020
5734 Clear -4 1027 85 10000 2.32 97 19:37 08.11.2020
5735 Clouds -4 1027 85 10000 2.28 97 19:19 08.11.2020
5736 Clouds -4 1027 85 10000 2.21 96 18:45 08.11.2020
5737 Clouds -3 1027 85 10000 2.23 97 18:21 08.11.2020
5738 Clouds -3 1027 85 10000 2.23 97 17:57 08.11.2020
5739 Clouds -3 1027 85 10000 2.23 97 17:37 08.11.2020
5740 Clouds -3 1028 84 10000 2.24 98 17:18 08.11.2020
5741 Clouds -3 1028 84 10000 2.24 98 16:46 08.11.2020
5742 Clouds -3 1028 85 10000 2.18 96 16:21 08.11.2020
5743 Clouds -3 1028 85 10000 2.18 96 15:50 08.11.2020
5744 Clouds -3 1028 85 10000 2.25 94 15:28 08.11.2020
5745 Clouds -3 1028 85 10000 2.25 94 14:59 08.11.2020
5746 Clouds -3 1028 85 10000 2.25 94 14:38 08.11.2020
5747 Clouds -2 1028 85 10000 2.32 94 14:20 08.11.2020
5748 Clouds -2 1028 85 10000 2.32 94 13:41 08.11.2020
5749 Clouds -2 1028 86 10000 2.32 93 13:20 08.11.2020
5750 Clouds -2 1028 86 10000 2.38 95 12:42 08.11.2020
5751 Clouds -2 1028 87 10000 2.23 98 12:24 08.11.2020
5752 Clouds -2 1028 87 10000 2.23 98 11:57 08.11.2020
5753 Clouds -2 1028 87 10000 2.23 98 11:38 08.11.2020
5754 Clouds -1 1027 89 10000 1.67 98 11:20 08.11.2020
5755 Clouds -1 1027 89 10000 1.67 98 10:49 08.11.2020
5756 Clouds 1 1027 82 10000 1.29 99 10:18 08.11.2020
5757 Clouds 1 1027 82 10000 1.29 99 09:42 08.11.2020
5758 Clouds 3 1027 70 10000 1.18 97 09:24 08.11.2020
5759 Clouds 3 1027 70 10000 1.18 97 08:49 08.11.2020
5760 Clouds 3 1027 70 10000 1.18 97 08:30 08.11.2020
5761 Clouds 4 1027 68 10000 1.2 92 07:53 08.11.2020
5762 Clouds 4 1027 68 10000 1.2 92 07:33 08.11.2020
5763 Clouds 3 1028 69 10000 1.09 91 06:50 08.11.2020
5764 Clear 3 1029 72 10000 1.15 89 05:55 08.11.2020
5765 Clear 1 1030 77 10000 1.52 83 05:26 08.11.2020
5766 Clear 0 1031 85 10000 1.83 82 03:39 08.11.2020
5767 Clear -5 1032 88 10000 1.96 82 01:49 08.11.2020
5768 Clear -5 1032 88 10000 1.95 80 01:18 08.11.2020
5769 Clear -5 1032 88 10000 2.02 82 00:23 08.11.2020
5770 Clear -5 1032 88 10000 2.02 82 23:43 07.11.2020
5771 Clear -5 1032 88 10000 2.01 80 23:24 07.11.2020
5772 Clear -5 1032 88 10000 2.01 80 22:41 07.11.2020
5773 Clear -5 1032 88 10000 1.85 83 22:21 07.11.2020
5774 Clear -5 1032 88 10000 1.85 83 21:45 07.11.2020
5775 Clear -5 1032 88 10000 1.78 85 21:21 07.11.2020
5776 Clear -5 1032 88 10000 1.78 85 20:50 07.11.2020
5777 Clear -5 1032 88 10000 1.78 85 20:31 07.11.2020
5778 Clear -5 1032 87 10000 1.71 87 19:51 07.11.2020
5779 Clear -5 1032 86 10000 1.58 88 19:29 07.11.2020
5780 Clear -5 1032 86 10000 1.58 88 18:58 07.11.2020
5781 Clear -5 1032 86 10000 1.61 89 18:38 07.11.2020
5782 Clear -5 1032 85 10000 1.53 84 18:19 07.11.2020
5783 Clear -5 1032 85 10000 1.53 84 17:40 07.11.2020
5784 Clear -5 1033 84 10000 1.57 84 17:22 07.11.2020
5785 Clear -5 1033 84 10000 1.57 84 16:41 07.11.2020
5786 Clear -5 1032 83 10000 1.73 82 16:23 07.11.2020
5787 Clear -5 1032 83 10000 1.73 82 15:43 07.11.2020
5788 Clear -4 1032 83 10000 1.88 81 15:23 07.11.2020
5789 Clear -4 1032 83 10000 1.88 81 14:48 07.11.2020
5790 Clear -4 1032 82 10000 1.89 83 14:29 07.11.2020
5791 Clear -4 1032 82 10000 1.89 83 13:59 07.11.2020
5792 Clear -4 1032 82 10000 1.89 83 13:31 07.11.2020
5793 Clear -4 1032 82 10000 1.78 81 12:58 07.11.2020
5794 Clouds -4 1032 82 10000 1.8 79 12:30 07.11.2020
5795 Clouds -4 1031 81 10000 1.49 78 11:45 07.11.2020
5796 Clouds -4 1030 81 10000 0.9 70 11:24 07.11.2020
5797 Clouds -4 1030 81 10000 0.9 70 10:46 07.11.2020
5798 Clouds -1 1029 79 10000 0.34 52 10:28 07.11.2020
5799 Clouds -1 1029 79 10000 0.34 52 09:58 07.11.2020
5800 Clouds -1 1029 79 10000 0.34 52 09:37 07.11.2020
5801 Clouds 1 1029 72 10000 0.03 326 08:58 07.11.2020
5802 Clouds 1 1029 72 10000 0.03 326 08:37 07.11.2020
5803 Clouds 1 1029 70 10000 0.19 132 08:18 07.11.2020
5804 Clouds 1 1029 70 10000 0.19 132 07:37 07.11.2020
5805 Clouds 1 1029 70 10000 0.19 132 07:37 07.11.2020
5806 Clouds 1 1029 66 10000 0.46 103 06:48 07.11.2020
5807 Clouds 0 1030 69 10000 0.92 90 05:37 07.11.2020
5808 Clouds -5 1033 75 10000 1.8 82 03:25 07.11.2020
5809 Clear -8 1033 77 10000 1.88 83 01:45 07.11.2020
5810 Clear -8 1033 78 10000 1.9 82 01:25 07.11.2020
5811 Clear -8 1033 79 10000 1.88 80 00:28 07.11.2020
5812 Clear -8 1033 79 10000 1.76 85 23:29 06.11.2020
5813 Clear -8 1033 79 10000 1.76 85 22:45 06.11.2020
5814 Clear -8 1033 80 10000 1.71 80 22:20 06.11.2020
5815 Clear -8 1033 80 10000 1.71 80 22:20 06.11.2020
5816 Clear -8 1033 80 10000 1.71 80 21:56 06.11.2020
5817 Clear -8 1033 80 10000 1.71 80 21:37 06.11.2020
5818 Clear -8 1033 80 10000 1.66 78 21:18 06.11.2020
5819 Clear -8 1033 80 10000 1.66 78 20:43 06.11.2020
5820 Clear -8 1033 81 10000 1.63 85 20:19 06.11.2020
5821 Clear -8 1033 81 10000 1.63 85 19:45 06.11.2020
5822 Clear -8 1033 81 10000 1.57 84 19:26 06.11.2020
5823 Clear -8 1033 81 10000 1.57 84 18:47 06.11.2020
5824 Clear -8 1033 81 10000 1.76 82 18:47 06.11.2020
5825 Clear -8 1033 81 10000 1.66 80 18:26 06.11.2020
5826 Clear -8 1033 81 10000 1.66 80 17:52 06.11.2020
5827 Clear -8 1033 81 10000 1.66 80 17:31 06.11.2020
5828 Clear -8 1033 82 10000 1.66 83 16:59 06.11.2020
5829 Clear -8 1033 82 10000 1.66 83 16:33 06.11.2020
5830 Clear -7 1033 82 10000 1.71 86 15:55 06.11.2020
5831 Clear -7 1033 82 10000 1.71 86 15:33 06.11.2020
5832 Clear -7 1032 82 10000 1.47 86 14:54 06.11.2020
5833 Clear -7 1032 83 10000 1.42 95 14:29 06.11.2020
5834 Clear -7 1032 83 10000 1.42 95 13:50 06.11.2020
5835 Clear -6 1032 82 10000 1.51 90 13:26 06.11.2020
5836 Clear -6 1032 82 10000 1.51 90 12:56 06.11.2020
5837 Clouds -6 1031 81 10000 1.41 109 12:38 06.11.2020
5838 Clouds -6 1031 81 10000 1.41 109 12:38 06.11.2020
5839 Clouds -6 1031 81 10000 0.35 141 12:18 06.11.2020
5840 Clouds -6 1031 81 10000 0.35 141 11:36 06.11.2020
5841 Clouds -5 1029 81 10000 0.29 271 10:58 06.11.2020
5842 Clouds -5 1029 81 10000 0.29 271 10:34 06.11.2020
5843 Clouds -3 1028 78 10000 1.35 325 09:55 06.11.2020
5844 Clouds -3 1028 78 10000 1.35 325 09:36 06.11.2020
5845 Clouds -1 1027 75 10000 4.7 324 09:18 06.11.2020
5846 Clouds -1 1027 75 10000 4.7 324 08:46 06.11.2020
5847 Clouds -1 1026 76 10000 6.22 314 08:19 06.11.2020
5848 Clouds -1 1026 76 10000 6.22 314 07:42 06.11.2020
5849 Clouds -1 1026 78 10000 7.15 305 07:18 06.11.2020
5850 Clear 0 1026 72 10000 6.29 310 06:40 06.11.2020
5851 Clear -1 1026 74 10000 5.29 312 05:37 06.11.2020
5852 Clear -7 1026 82 10000 1.35 321 01:59 06.11.2020
5853 Clouds -8 1023 79 10000 0.75 268 00:29 06.11.2020
5854 Clouds -8 1023 79 10000 0.75 268 23:51 05.11.2020
5855 Clouds -8 1022 78 10000 0.33 65 23:24 05.11.2020
5856 Clouds -8 1022 78 10000 0.33 65 22:45 05.11.2020
5857 Clouds -7 1021 76 10000 0.75 297 22:26 05.11.2020
5858 Clouds -7 1021 76 10000 0.75 297 21:57 05.11.2020
5859 Clouds -7 1021 76 10000 0.75 297 21:38 05.11.2020
5860 Clouds -8 1021 77 10000 0.83 188 21:18 05.11.2020
5861 Clouds -8 1021 77 10000 0.83 188 20:43 05.11.2020
5862 Clouds -7 1021 76 10000 0.99 119 20:24 05.11.2020
5863 Clouds -7 1021 76 10000 0.99 119 20:24 05.11.2020
5864 Clouds -7 1021 76 10000 0.99 119 19:44 05.11.2020
5865 Clouds -7 1022 76 10000 1.62 113 19:26 05.11.2020
5866 Clouds -7 1022 76 10000 1.62 113 19:26 05.11.2020
5867 Clouds -7 1022 76 10000 1.62 113 18:57 05.11.2020
5868 Clouds -7 1021 74 10000 1.43 101 18:39 05.11.2020
5869 Clouds -7 1021 75 10000 2 107 18:20 05.11.2020
5870 Clouds -7 1021 75 10000 2 107 17:43 05.11.2020
5871 Clouds -7 1022 76 10000 2.26 106 17:25 05.11.2020
5872 Clouds -7 1022 76 10000 2.26 106 16:46 05.11.2020
5873 Clear -8 1022 77 10000 2.06 107 16:27 05.11.2020
5874 Clear -8 1022 77 10000 2.06 107 15:51 05.11.2020
5875 Clear -8 1023 78 10000 2.14 116 15:27 05.11.2020
5876 Clear -8 1023 78 10000 2.14 116 14:55 05.11.2020
5877 Clear -8 1023 78 10000 2.14 116 14:36 05.11.2020
5878 Clear -7 1023 78 10000 2.5 133 14:18 05.11.2020
5879 Clear -7 1023 78 10000 2.5 133 13:40 05.11.2020
5880 Clouds -7 1023 78 10000 2.14 143 12:56 05.11.2020
5881 Clouds -7 1023 78 10000 2.14 143 12:37 05.11.2020
5882 Clouds -7 1024 78 10000 1.6 165 11:59 05.11.2020
5883 Clouds -7 1024 78 10000 1.6 165 11:41 05.11.2020
5884 Clouds -6 1023 77 10000 1.7 187 11:22 05.11.2020
5885 Clouds -6 1023 77 10000 1.7 187 10:47 05.11.2020
5886 Clouds -5 1023 75 10000 2.7 207 10:26 05.11.2020
5887 Clouds -5 1023 75 10000 2.7 207 09:49 05.11.2020
5888 Clear -5 1023 74 10000 3.49 231 09:24 05.11.2020
5889 Clear -5 1023 74 10000 3.49 231 08:49 05.11.2020
5890 Clear -5 1023 74 10000 3.49 231 08:30 05.11.2020
5891 Clouds -5 1024 74 10000 3.58 239 07:46 05.11.2020
5892 Clear -5 1026 75 10000 3.1 244 07:27 05.11.2020
5893 Clear -6 1025 77 10000 3.01 242 06:42 05.11.2020
5894 Clear -6 1027 78 10000 2.4 242 05:55 05.11.2020
5895 Clear -10 1030 89 10000 1.3 232 01:42 05.11.2020
5896 Clouds -11 1029 89 10000 1.39 245 00:35 05.11.2020
5897 Clouds -10 1029 88 10000 1.13 262 23:47 04.11.2020
5898 Clouds -9 1028 88 10000 1.09 290 23:27 04.11.2020
5899 Clouds -9 1028 88 10000 1.09 290 22:55 04.11.2020
5900 Clouds -9 1028 88 10000 1.09 290 22:36 04.11.2020
5901 Clouds -9 1027 87 10000 1.31 298 22:18 04.11.2020
5902 Clouds -9 1027 87 10000 1.31 298 21:43 04.11.2020
5903 Clouds -8 1026 87 10000 1.44 312 21:24 04.11.2020
5904 Clouds -8 1026 87 10000 1.44 312 20:46 04.11.2020
5905 Clouds -7 1026 86 10000 1.26 338 20:28 04.11.2020
5906 Clouds -7 1026 86 10000 1.26 338 19:50 04.11.2020
5907 Clouds -7 1026 86 10000 1.26 338 19:31 04.11.2020
5908 Clouds -6 1025 88 10000 2.53 346 18:58 04.11.2020
5909 Clouds -7 1025 86 10000 2.21 350 18:39 04.11.2020
5910 Clouds -6 1025 88 10000 2.53 346 18:39 04.11.2020
5911 Snow -6 1024 92 950 2.22 328 18:20 04.11.2020
5912 Clouds -6 1024 92 950 2.22 328 17:45 04.11.2020
5913 Snow -6 1023 92 330 1.53 264 17:24 04.11.2020
5914 Clouds -6 1023 92 330 1.53 264 16:44 04.11.2020
5915 Clouds -6 1022 89 10000 2.02 244 16:24 04.11.2020
5916 Clouds -6 1022 89 10000 2.02 244 15:55 04.11.2020
5917 Clouds -6 1022 89 10000 2.02 244 15:36 04.11.2020
5918 Clouds -5 1021 89 10000 1.74 245 15:18 04.11.2020
5919 Clouds -5 1021 89 10000 1.74 245 14:41 04.11.2020
5920 Clouds -5 1020 89 10000 1.94 246 14:23 04.11.2020
5921 Clouds -5 1020 89 10000 1.94 246 13:48 04.11.2020
5922 Snow -4 1019 91 10000 1.66 262 13:21 04.11.2020
5923 Clouds -4 1019 91 10000 1.66 262 12:55 04.11.2020
5924 Clouds -4 1019 93 10000 1.34 249 12:37 04.11.2020
5925 Snow -4 1018 93 1065 1.94 245 12:18 04.11.2020
5926 Clouds -4 1018 93 1065 1.94 245 11:42 04.11.2020
5927 Snow -3 1017 90 2846 2.26 231 11:20 04.11.2020
5928 Snow -3 1017 90 2846 2.26 231 10:47 04.11.2020
5929 Snow -2 1016 87 10000 1.93 248 10:22 04.11.2020
5930 Snow -2 1016 87 10000 1.93 248 09:53 04.11.2020
5931 Snow -2 1015 83 10000 3.02 286 09:25 04.11.2020
5932 Snow -2 1015 83 10000 3.02 286 08:47 04.11.2020
5933 Snow -1 1015 77 10000 3.98 283 08:22 04.11.2020
5934 Snow -1 1015 77 10000 3.98 283 07:55 04.11.2020
5935 Snow -1 1015 77 10000 3.98 283 07:30 04.11.2020
5936 Clouds 0 1015 74 10000 3.03 272 06:55 04.11.2020
5937 Clouds 0 1015 73 10000 3.45 272 06:36 04.11.2020
5938 Snow -2 1017 71 10000 0.97 159 04:18 04.11.2020
5939 Clouds -6 1017 75 10000 1.57 103 02:28 04.11.2020
5940 Clouds -6 1017 75 10000 1.83 104 00:57 04.11.2020
5941 Clouds -6 1018 76 10000 1.9 108 23:48 03.11.2020
5942 Clouds -6 1018 76 10000 1.94 108 23:24 03.11.2020
5943 Clouds -6 1018 76 10000 1.94 108 22:42 03.11.2020
5944 Clouds -6 1018 76 10000 1.82 110 22:21 03.11.2020
5945 Clouds -6 1018 76 10000 1.82 110 21:59 03.11.2020
5946 Clouds -6 1018 76 10000 1.82 110 21:40 03.11.2020
5947 Clouds -6 1018 76 10000 1.84 112 21:21 03.11.2020
5948 Clouds -6 1018 76 10000 1.84 112 20:45 03.11.2020
5949 Clouds -6 1019 77 10000 1.81 119 20:26 03.11.2020
5950 Clouds -6 1019 77 10000 1.81 119 19:44 03.11.2020
5951 Clouds -5 1020 78 10000 1.79 121 19:23 03.11.2020
5952 Clouds -5 1020 78 10000 1.79 121 18:47 03.11.2020
5953 Clouds -5 1020 78 10000 1.62 117 18:24 03.11.2020
5954 Clouds -5 1020 78 10000 1.62 117 17:59 03.11.2020
5955 Clouds -5 1020 78 10000 1.62 117 17:41 03.11.2020
5956 Clouds -5 1021 78 10000 1.77 118 17:23 03.11.2020
5957 Clouds -5 1021 78 10000 1.77 118 16:45 03.11.2020
5958 Clouds -4 1021 78 10000 1.68 123 16:24 03.11.2020
5959 Clouds -4 1021 78 10000 1.68 123 15:46 03.11.2020
5960 Clear -5 1021 79 10000 1.15 133 15:25 03.11.2020
5961 Clear -5 1021 79 10000 1.15 133 14:52 03.11.2020
5962 Clear -5 1021 79 10000 1.15 133 14:33 03.11.2020
5963 Clear -5 1021 79 10000 1.15 133 14:33 03.11.2020
5964 Clear -5 1021 79 10000 0.69 164 13:47 03.11.2020
5965 Clear -4 1021 78 10000 0.63 200 13:23 03.11.2020
5966 Clear -4 1021 78 10000 0.63 200 12:59 03.11.2020
5967 Clear -4 1021 80 10000 0.72 196 12:38 03.11.2020
5968 Clear -4 1021 79 10000 0.91 212 12:19 03.11.2020
5969 Clear -4 1021 79 10000 0.91 212 11:42 03.11.2020
5970 Clear -3 1021 78 10000 1.13 223 11:20 03.11.2020
5971 Clear -3 1021 78 10000 1.13 223 10:40 03.11.2020
5972 Clear 0 1020 73 10000 1.36 231 10:21 03.11.2020
5973 Clear 0 1020 73 10000 1.36 231 09:52 03.11.2020
5974 Clear 0 1020 73 10000 1.36 231 09:33 03.11.2020
5975 Clear 1 1020 66 10000 1.76 237 08:56 03.11.2020
5976 Clear 1 1020 66 10000 1.76 237 08:36 03.11.2020
5977 Clear 2 1020 65 10000 1.89 241 07:58 03.11.2020
5978 Clear 2 1020 65 10000 1.89 241 07:35 03.11.2020
5979 Clouds 1 1021 66 10000 1.89 239 06:51 03.11.2020
5980 Clouds 1 1022 68 10000 1.52 229 05:50 03.11.2020
5981 Clouds -3 1025 75 10000 0.9 139 03:26 03.11.2020
5982 Clouds -6 1024 79 10000 0.91 141 00:42 03.11.2020
5983 Clouds -6 1024 78 10000 1.04 124 23:59 02.11.2020
5984 Clouds -6 1024 78 10000 1.04 124 23:38 02.11.2020
5985 Clouds -6 1024 77 10000 1.2 117 22:56 02.11.2020
5986 Clouds -6 1024 77 10000 1.2 117 22:37 02.11.2020
5987 Clouds -5 1024 76 10000 1.3 118 21:59 02.11.2020
5988 Clouds -5 1024 76 10000 1.3 118 21:38 02.11.2020
5989 Clouds -5 1024 76 10000 1.32 116 21:19 02.11.2020
5990 Clouds -5 1024 76 10000 1.32 116 20:41 02.11.2020
5991 Clouds -5 1024 76 10000 1.43 116 20:20 02.11.2020
5992 Clouds -5 1024 76 10000 1.43 116 19:57 02.11.2020
5993 Clouds -5 1024 76 10000 1.43 116 19:38 02.11.2020
5994 Clouds -5 1024 75 10000 1.53 112 19:20 02.11.2020
5995 Clouds -5 1024 75 10000 1.53 114 18:39 02.11.2020
5996 Clouds -4 1025 75 10000 1.67 111 18:20 02.11.2020
5997 Clouds -4 1025 75 10000 1.67 111 17:43 02.11.2020
5998 Clouds -4 1025 75 10000 1.81 114 17:25 02.11.2020
5999 Clouds -4 1025 75 10000 1.81 114 16:56 02.11.2020
6000 Clouds -4 1025 75 10000 1.81 114 16:38 02.11.2020
6001 Clouds -4 1025 75 10000 1.87 117 16:18 02.11.2020
6002 Clouds -4 1025 75 10000 1.87 117 15:39 02.11.2020
6003 Clouds -3 1025 76 10000 1.82 125 15:20 02.11.2020
6004 Clouds -3 1025 76 10000 1.82 125 14:51 02.11.2020
6005 Clouds -3 1025 77 10000 1.83 129 14:19 02.11.2020
6006 Clouds -3 1025 77 10000 1.83 129 13:51 02.11.2020
6007 Clouds -2 1024 78 10000 1.85 125 13:23 02.11.2020
6008 Clouds -2 1024 78 10000 1.85 125 12:54 02.11.2020
6009 Clouds -2 1024 79 10000 1.51 124 12:29 02.11.2020
6010 Clouds -2 1024 79 10000 1.51 124 11:56 02.11.2020
6011 Clouds -2 1024 79 10000 1.51 124 11:37 02.11.2020
6012 Clouds -2 1024 77 10000 0.93 131 11:18 02.11.2020
6013 Clouds -2 1024 77 10000 0.93 131 10:39 02.11.2020
6014 Clouds 1 1023 69 10000 0.55 128 10:18 02.11.2020
6015 Clouds 1 1023 69 10000 0.55 128 09:43 02.11.2020
6016 Clouds 3 1023 57 10000 0.67 120 09:23 02.11.2020
6017 Clouds 3 1023 57 10000 0.67 120 08:40 02.11.2020
6018 Clouds 3 1023 57 10000 0.78 115 08:20 02.11.2020
6019 Clouds 3 1023 57 10000 0.78 115 07:49 02.11.2020
6020 Clouds 3 1024 57 10000 0.85 111 06:48 02.11.2020
6021 Clouds 2 1025 62 10000 1.01 107 06:23 02.11.2020
6022 Clear -6 1030 79 10000 1.69 93 01:40 02.11.2020
6023 Clear -7 1030 81 10000 1.5 92 00:44 02.11.2020
6024 Clear -7 1031 81 10000 1.54 91 00:25 02.11.2020
6025 Clear -7 1031 81 10000 1.54 91 23:41 01.11.2020
6026 Clear -7 1031 81 10000 1.56 91 23:23 01.11.2020
6027 Clear -7 1031 81 10000 1.56 91 22:45 01.11.2020
6028 Clear -7 1032 81 10000 1.43 93 22:25 01.11.2020
6029 Clear -7 1032 81 10000 1.43 93 21:46 01.11.2020
6030 Clear -7 1032 82 10000 1.23 90 21:28 01.11.2020
6031 Clear -7 1032 82 10000 1.23 90 20:59 01.11.2020
6032 Clear -7 1032 82 10000 1.23 90 20:40 01.11.2020
6033 Clear -7 1033 82 10000 1.2 88 20:20 01.11.2020
6034 Clear -7 1033 82 10000 1.2 88 19:41 01.11.2020
6035 Clear -7 1033 83 10000 1.1 90 19:22 01.11.2020
6036 Clear -7 1033 82 10000 1.16 89 18:41 01.11.2020
6037 Clear -7 1034 83 10000 0.87 96 18:20 01.11.2020
6038 Clear -7 1034 83 10000 0.87 96 18:20 01.11.2020
6039 Clear -7 1034 83 10000 0.87 96 17:57 01.11.2020
6040 Clear -7 1034 83 10000 0.87 96 17:37 01.11.2020
6041 Clear -7 1035 83 10000 0.72 108 17:19 01.11.2020
6042 Clear -7 1035 83 10000 0.72 108 16:40 01.11.2020
6043 Clear -6 1035 83 10000 0.52 114 16:19 01.11.2020
6044 Clear -6 1035 83 10000 0.52 114 15:41 01.11.2020
6045 Clear -6 1035 83 10000 0.23 85 15:21 01.11.2020
6046 Clear -6 1035 83 10000 0.23 85 14:57 01.11.2020
6047 Clear -6 1035 83 10000 0.23 85 14:39 01.11.2020
6048 Clear -6 1034 83 10000 0.32 269 14:18 01.11.2020
6049 Clear -6 1034 83 10000 0.32 269 13:46 01.11.2020
6050 Clear -6 1034 82 10000 0.62 264 13:28 01.11.2020
6051 Clear -6 1034 83 10000 0.58 266 12:43 01.11.2020
6052 Clear -5 1034 82 10000 0.85 245 12:22 01.11.2020
6053 Clear -5 1034 82 10000 0.85 245 11:51 01.11.2020
6054 Clear -4 1033 79 10000 1.23 237 11:19 01.11.2020
6055 Clear -4 1033 79 10000 1.23 237 10:43 01.11.2020
6056 Clear -4 1033 79 10000 1.23 237 10:43 01.11.2020
6057 Clear -2 1033 75 10000 1.63 251 10:24 01.11.2020
6058 Clear -2 1033 75 10000 1.63 251 09:55 01.11.2020
6059 Clear -2 1033 75 10000 1.63 251 09:35 01.11.2020
6060 Clear -1 1033 74 10000 1.58 266 08:46 01.11.2020
6061 Clear -2 1032 75 10000 1.5 279 08:20 01.11.2020
6062 Clear -2 1032 75 10000 1.5 279 07:39 01.11.2020
6063 Clear -5 1037 84 10000 0.51 314 03:54 01.11.2020
6064 Clear -8 1037 90 10000 0.62 333 01:49 01.11.2020
6065 Clouds -8 1036 91 10000 0.81 305 00:26 01.11.2020
6066 Clouds -8 1036 90 10000 0.89 307 23:25 31.10.2020
6067 Clouds -8 1036 90 10000 0.89 307 22:57 31.10.2020
6068 Clouds -8 1036 90 10000 0.89 307 22:37 31.10.2020
6069 Clouds -8 1035 89 10000 0.95 298 22:19 31.10.2020
6070 Clouds -8 1035 89 10000 0.95 298 21:43 31.10.2020
6071 Clouds -7 1035 88 10000 1.09 290 21:19 31.10.2020
6072 Clouds -7 1035 88 10000 1.09 290 20:38 31.10.2020
6073 Clouds -7 1034 87 10000 1.21 285 20:18 31.10.2020
6074 Clouds -7 1034 87 10000 1.21 285 19:41 31.10.2020
6075 Clouds -6 1034 87 10000 1.2 277 19:22 31.10.2020
6076 Clouds -6 1034 87 10000 1.2 277 18:47 31.10.2020
6077 Clouds -6 1034 85 10000 1.33 274 18:24 31.10.2020
6078 Clouds -6 1034 85 10000 1.33 274 17:40 31.10.2020
6079 Clouds -5 1034 85 10000 1.29 257 17:22 31.10.2020
6080 Clouds -5 1034 85 10000 1.29 257 16:43 31.10.2020
6081 Clouds -5 1034 84 10000 1.26 239 16:25 31.10.2020
6082 Clouds -5 1034 84 10000 1.26 239 16:25 31.10.2020
6083 Clouds -5 1034 84 10000 1.26 239 15:45 31.10.2020
6084 Clouds -4 1033 83 10000 1.22 239 15:24 31.10.2020
6085 Clouds -4 1033 83 10000 1.22 239 14:50 31.10.2020
6086 Clouds -4 1033 83 10000 1.22 239 14:31 31.10.2020
6087 Clouds -4 1033 83 10000 1.1 257 13:50 31.10.2020
6088 Clouds -5 1032 83 10000 1 273 13:26 31.10.2020
6089 Clouds -4 1032 82 10000 1.11 276 12:43 31.10.2020
6090 Clouds -4 1032 82 10000 1.5 277 11:51 31.10.2020
6091 Clouds -4 1032 82 10000 1.5 277 11:30 31.10.2020
6092 Clouds -3 1031 79 10000 2.3 282 10:59 31.10.2020
6093 Clouds -3 1031 79 10000 2.3 282 10:36 31.10.2020
6094 Snow -2 1030 76 10000 2.62 289 09:47 31.10.2020
6095 Clouds -2 1029 76 10000 2.19 292 09:28 31.10.2020
6096 Clouds -2 1029 76 10000 2.19 292 08:52 31.10.2020
6097 Clouds -3 1029 78 10000 1.66 299 08:18 31.10.2020
6098 Clouds -3 1030 80 10000 1.64 298 07:28 31.10.2020
6099 Clouds -3 1030 79 10000 1.37 325 06:42 31.10.2020
6100 Clouds -4 1031 83 10000 1.39 314 06:20 31.10.2020
6101 Clouds -5 1033 89 10000 0.83 271 03:46 31.10.2020
6102 Clouds -7 1033 92 10000 0.35 329 01:44 31.10.2020
6103 Clouds -8 1033 93 10000 0.27 307 00:47 31.10.2020
6104 Clouds -8 1032 93 10000 0.43 353 23:53 30.10.2020
6105 Clouds -8 1031 93 10000 0.31 7 23:27 30.10.2020
6106 Clouds -8 1031 93 10000 0.31 7 22:56 30.10.2020
6107 Clouds -8 1031 93 10000 0.31 7 22:37 30.10.2020
6108 Clouds -7 1031 93 10000 0.35 344 22:18 30.10.2020
6109 Clouds -7 1031 93 10000 0.35 344 21:41 30.10.2020
6110 Snow -6 1031 92 4931 0.38 314 21:21 30.10.2020
6111 Clouds -6 1031 92 4931 0.38 314 20:43 30.10.2020
6112 Snow -6 1030 91 388 0.76 282 20:24 30.10.2020
6113 Clouds -6 1030 91 388 0.76 282 19:53 30.10.2020
6114 Clouds -5 1029 83 10000 1.18 243 19:21 30.10.2020
6115 Clouds -5 1029 83 10000 1.18 243 18:52 30.10.2020
6116 Clouds -5 1029 78 10000 0.77 242 18:34 30.10.2020
6117 Clouds -5 1029 75 10000 0.51 135 17:57 30.10.2020
6118 Snow -5 1029 75 10000 0.51 135 17:39 30.10.2020
6119 Snow -5 1029 75 10000 0.88 126 17:20 30.10.2020
6120 Snow -5 1029 75 10000 0.88 126 16:49 30.10.2020
6121 Clouds -5 1029 75 10000 0.72 158 16:24 30.10.2020
6122 Clouds -5 1029 75 10000 0.72 158 15:41 30.10.2020
6123 Clouds -6 1029 76 10000 1.04 174 15:20 30.10.2020
6124 Clouds -6 1029 76 10000 1.04 174 14:46 30.10.2020
6125 Clouds -6 1029 75 10000 1.28 187 14:28 30.10.2020
6126 Clouds -6 1029 75 10000 1.28 187 13:57 30.10.2020
6127 Clouds -6 1029 75 10000 1.28 187 13:39 30.10.2020
6128 Clouds -5 1029 74 10000 1.3 198 13:19 30.10.2020
6129 Clouds -5 1029 74 10000 1.13 178 12:40 30.10.2020
6130 Clouds -6 1029 74 10000 1.01 171 12:21 30.10.2020
6131 Clouds -6 1029 74 10000 1.01 171 11:43 30.10.2020
6132 Clouds -5 1029 72 10000 1.35 239 11:20 30.10.2020
6133 Clouds -5 1029 72 10000 1.35 239 10:47 30.10.2020
6134 Clouds -3 1029 69 10000 2.67 271 10:23 30.10.2020
6135 Clouds -3 1029 69 10000 2.67 271 09:46 30.10.2020
6136 Clouds -3 1028 70 10000 4.23 284 09:24 30.10.2020
6137 Clouds -3 1028 70 10000 4.23 284 08:46 30.10.2020
6138 Clouds -3 1029 72 10000 4.86 283 08:26 30.10.2020
6139 Clouds -3 1029 72 10000 4.86 283 07:50 30.10.2020
6140 Clouds -3 1029 72 10000 4.86 283 07:31 30.10.2020
6141 Clouds -3 1029 73 10000 5.26 282 06:40 30.10.2020
6142 Clouds -3 1031 81 10000 3.77 281 05:19 30.10.2020
6143 Clouds -5 1030 89 10000 2.42 242 02:28 30.10.2020
6144 Clouds -5 1029 87 10000 2.23 242 00:43 30.10.2020
6145 Clouds -4 1028 85 10000 2.62 241 23:50 29.10.2020
6146 Clouds -4 1028 85 10000 2.62 241 23:31 29.10.2020
6147 Clouds -3 1027 85 10000 2.8 224 22:59 29.10.2020
6148 Clouds -3 1027 85 10000 2.8 224 22:40 29.10.2020
6149 Clouds -3 1026 86 10000 2.03 220 22:22 29.10.2020
6150 Clouds -3 1026 86 10000 2.03 220 21:39 29.10.2020
6151 Clouds -3 1025 86 10000 2.26 255 21:20 29.10.2020
6152 Clouds -3 1025 86 10000 2.26 255 20:42 29.10.2020
6153 Clouds -2 1024 85 10000 2.09 256 20:19 29.10.2020
6154 Snow -2 1024 85 10000 2.09 256 19:43 29.10.2020
6155 Snow -1 1023 84 10000 2.13 247 19:22 29.10.2020
6156 Snow -1 1023 84 10000 2.13 247 18:55 29.10.2020
6157 Snow -2 1023 84 10000 1.78 252 18:36 29.10.2020
6158 Clouds -1 1023 83 10000 2.12 218 18:18 29.10.2020
6159 Clouds -1 1023 83 10000 2.12 218 17:40 29.10.2020
6160 Clouds 0 1023 83 10000 2.27 201 17:20 29.10.2020
6161 Clouds 0 1023 83 10000 2.27 201 16:45 29.10.2020
6162 Clouds 0 1022 81 10000 2.7 193 16:20 29.10.2020
6163 Clouds 0 1022 81 10000 2.7 193 15:56 29.10.2020
6164 Clouds 0 1022 81 10000 2.7 193 15:37 29.10.2020
6165 Clouds 0 1021 82 10000 2.07 180 15:19 29.10.2020
6166 Clouds 0 1021 82 10000 2.07 180 14:45 29.10.2020
6167 Clouds 0 1021 81 10000 1.98 187 14:23 29.10.2020
6168 Clouds 0 1021 81 10000 1.98 187 13:47 29.10.2020
6169 Clouds 0 1020 79 10000 1.9 198 13:28 29.10.2020
6170 Clouds 0 1021 80 10000 1.69 192 12:44 29.10.2020
6171 Clouds 0 1020 80 10000 1.25 203 12:20 29.10.2020
6172 Clouds 0 1020 80 10000 1.25 203 11:58 29.10.2020
6173 Clouds 0 1020 80 10000 1.25 203 11:39 29.10.2020
6174 Clouds 1 1019 78 10000 1.11 229 11:20 29.10.2020
6175 Clouds 1 1019 78 10000 1.11 229 10:37 29.10.2020
6176 Clouds 1 1019 78 10000 1.11 229 10:37 29.10.2020
6177 Clouds 3 1018 65 10000 1.37 253 10:19 29.10.2020
6178 Clouds 3 1018 65 10000 1.37 253 09:50 29.10.2020
6179 Clouds 5 1017 57 10000 2.35 252 09:26 29.10.2020
6180 Clouds 5 1017 57 10000 2.35 252 08:46 29.10.2020
6181 Clouds 5 1017 55 10000 2.01 234 08:24 29.10.2020
6182 Clouds 5 1017 55 10000 2.01 234 07:51 29.10.2020
6183 Clouds 5 1018 55 10000 1.65 224 07:23 29.10.2020
6184 Clouds 5 1018 55 10000 1.65 224 06:53 29.10.2020
6185 Clouds 4 1019 60 10000 1.55 165 04:50 29.10.2020
6186 Clouds 0 1021 76 10000 2.14 112 02:32 29.10.2020
6187 Clouds -3 1020 79 10000 1.91 101 00:45 29.10.2020
6188 Clouds -3 1020 79 10000 2.15 104 00:23 29.10.2020
6189 Clouds -3 1020 79 10000 2.15 104 23:43 28.10.2020
6190 Clouds -2 1020 78 10000 2.63 103 23:20 28.10.2020
6191 Clouds -2 1020 78 10000 2.63 103 22:44 28.10.2020
6192 Clouds -2 1020 77 10000 2.41 102 22:25 28.10.2020
6193 Clouds -2 1020 77 10000 2.41 102 21:45 28.10.2020
6194 Clear -2 1020 77 10000 2.66 108 21:26 28.10.2020
6195 Clear -2 1020 77 10000 2.66 108 20:59 28.10.2020
6196 Clear -2 1020 77 10000 2.66 108 20:40 28.10.2020
6197 Clear -2 1020 76 10000 2.51 106 20:18 28.10.2020
6198 Clear -2 1020 76 10000 2.51 106 19:45 28.10.2020
6199 Clouds -2 1020 76 10000 2.43 106 19:26 28.10.2020
6200 Rain -2 1021 75 10000 2.6 107 18:43 28.10.2020
6201 Clouds -1 1021 74 10000 2.7 112 18:20 28.10.2020
6202 Clouds -1 1021 74 10000 2.7 112 17:44 28.10.2020
6203 Clouds -1 1021 73 10000 2.7 114 17:22 28.10.2020
6204 Clouds -1 1021 73 10000 2.7 114 16:49 28.10.2020
6205 Clouds -1 1021 72 10000 2.53 113 16:29 28.10.2020
6206 Clouds -1 1021 72 10000 2.53 113 15:45 28.10.2020
6207 Clear -1 1020 72 10000 2.33 114 15:20 28.10.2020
6208 Clear -1 1020 72 10000 2.33 114 14:53 28.10.2020
6209 Clear -1 1020 72 10000 2.33 114 14:32 28.10.2020
6210 Clear -1 1020 71 10000 2.58 116 13:59 28.10.2020
6211 Clear 0 1019 72 10000 2.62 118 12:38 28.10.2020
6212 Clear 0 1019 72 10000 2.62 118 12:38 28.10.2020
6213 Clear 0 1018 71 10000 2.58 120 12:20 28.10.2020
6214 Clear 0 1018 71 10000 2.58 120 11:43 28.10.2020
6215 Clear 1 1018 65 10000 2.43 124 11:22 28.10.2020
6216 Clear 1 1018 65 10000 2.43 124 10:58 28.10.2020
6217 Clear 1 1018 65 10000 2.43 124 10:58 28.10.2020
6218 Clear 1 1018 65 10000 2.43 124 10:40 28.10.2020
6219 Clear 4 1016 53 10000 2.33 138 10:22 28.10.2020
6220 Clear 4 1016 53 10000 2.33 138 09:38 28.10.2020
6221 Clear 6 1016 45 10000 2.81 146 09:20 28.10.2020
6222 Clear 6 1016 45 10000 2.81 146 08:47 28.10.2020
6223 Clear 7 1016 43 10000 3.16 146 08:25 28.10.2020
6224 Clear 7 1016 43 10000 3.16 146 07:48 28.10.2020
6225 Clear 7 1016 43 10000 3.16 146 07:30 28.10.2020
6226 Clear 6 1017 43 10000 2.77 145 06:41 28.10.2020
6227 Clear 6 1018 43 10000 2.38 144 05:51 28.10.2020
6228 Clear 4 1020 47 10000 2.22 124 04:53 28.10.2020
6229 Clear 2 1022 54 10000 2.41 113 04:25 28.10.2020
6230 Clear -3 1023 64 10000 2.8 106 02:25 28.10.2020
6231 Clear -4 1023 65 10000 2.78 105 01:29 28.10.2020
6232 Clear -3 1024 66 10000 2.59 100 23:57 27.10.2020
6233 Clear -3 1024 67 10000 2.65 100 23:26 27.10.2020
6234 Clear -3 1024 67 10000 2.65 100 22:57 27.10.2020
6235 Clear -3 1024 67 10000 2.65 100 22:38 27.10.2020
6236 Clear -3 1024 68 10000 2.68 100 22:19 27.10.2020
6237 Clear -3 1024 68 10000 2.68 100 22:19 27.10.2020
6238 Clear -3 1024 68 10000 2.68 100 21:55 27.10.2020
6239 Clear -3 1024 68 10000 2.68 100 21:37 27.10.2020
6240 Clear -3 1024 68 10000 2.68 100 21:37 27.10.2020
6241 Clear -3 1024 68 10000 2.68 100 21:37 27.10.2020
6242 Clear -3 1024 68 10000 2.68 100 21:37 27.10.2020
6243 Clear -3 1024 68 10000 2.68 100 21:37 27.10.2020
6244 Clear -3 1024 68 10000 2.69 101 21:18 27.10.2020
6245 Clear -3 1024 68 10000 2.69 101 20:41 27.10.2020
6246 Clear -2 1025 69 10000 2.53 103 20:22 27.10.2020
6247 Clear -2 1025 69 10000 2.53 103 19:39 27.10.2020
6248 Clear -2 1025 69 10000 2.51 101 19:21 27.10.2020
6249 Clear -2 1025 69 10000 2.51 101 18:58 27.10.2020
6250 Clear -2 1025 69 10000 2.49 104 18:40 27.10.2020
6251 Clear -2 1026 69 10000 2.45 103 18:19 27.10.2020
6252 Clear -2 1026 69 10000 2.45 103 17:43 27.10.2020
6253 Clear -2 1026 70 10000 2.39 102 17:21 27.10.2020
6254 Clear -2 1026 70 10000 2.39 102 16:49 27.10.2020
6255 Clear -2 1026 70 10000 2.39 102 16:30 27.10.2020
6256 Clear -1 1026 70 10000 2.48 102 15:55 27.10.2020
6257 Clear -1 1026 70 10000 2.48 102 15:37 27.10.2020
6258 Clear -1 1026 71 10000 2.51 104 15:18 27.10.2020
6259 Clear -1 1026 71 10000 2.51 104 14:42 27.10.2020
6260 Clear -1 1026 72 10000 2.34 107 14:23 27.10.2020
6261 Clear -1 1026 72 10000 2.34 107 13:46 27.10.2020
6262 Clear -1 1025 73 10000 2.25 111 13:22 27.10.2020
6263 Clear -1 1025 73 10000 2.25 111 12:40 27.10.2020
6264 Clear 0 1024 75 10000 2.04 111 12:22 27.10.2020
6265 Clear 0 1024 75 10000 2.04 111 11:42 27.10.2020
6266 Clear 1 1024 70 10000 1.75 111 11:23 27.10.2020
6267 Clear 1 1024 70 10000 1.75 111 10:47 27.10.2020
6268 Clear 4 1022 57 10000 1.36 118 10:29 27.10.2020
6269 Clear 4 1022 57 10000 1.36 118 09:47 27.10.2020
6270 Clear 6 1022 49 10000 1.31 134 09:26 27.10.2020
6271 Clear 6 1022 49 10000 1.31 134 08:41 27.10.2020
6272 Clear 6 1022 49 10000 1.19 126 08:22 27.10.2020
6273 Clear 6 1022 49 10000 1.19 126 07:46 27.10.2020
6274 Clouds 5 1024 51 10000 1.35 114 07:28 27.10.2020
6275 Clear 5 1023 51 10000 1.33 118 06:38 27.10.2020
6276 Clear 4 1025 55 10000 1.38 114 06:19 27.10.2020
6277 Clear 4 1025 55 10000 1.38 114 05:41 27.10.2020
6278 Clear 3 1026 60 10000 1.54 102 04:50 27.10.2020
6279 Clear -1 1029 72 10000 2.14 85 02:34 27.10.2020
6280 Clear -5 1029 72 10000 2.22 80 00:58 27.10.2020
6281 Clear -5 1029 70 10000 2.23 79 23:47 26.10.2020
6282 Clear -5 1029 67 10000 2.15 80 23:26 26.10.2020
6283 Clear -5 1029 67 10000 2.15 80 22:49 26.10.2020
6284 Clear -5 1029 65 10000 2.01 81 22:27 26.10.2020
6285 Clear -5 1029 65 10000 2.01 81 21:50 26.10.2020
6286 Clear -5 1029 65 10000 2.01 81 21:50 26.10.2020
6287 Clear -5 1029 64 10000 1.79 88 21:21 26.10.2020
6288 Clear -5 1029 64 10000 1.79 88 20:58 26.10.2020
6289 Clear -5 1029 64 10000 1.79 88 20:39 26.10.2020
6290 Clear -5 1029 63 10000 1.47 94 20:19 26.10.2020
6291 Clear -5 1029 63 10000 1.47 94 19:47 26.10.2020
6292 Clear -5 1029 62 10000 1.26 96 19:24 26.10.2020
6293 Clear -5 1029 62 10000 1.48 87 18:46 26.10.2020
6294 Clear -5 1030 61 10000 1.28 94 18:25 26.10.2020
6295 Clear -5 1030 61 10000 1.28 94 17:59 26.10.2020
6296 Clear -5 1030 61 10000 1.28 94 17:39 26.10.2020
6297 Clear -5 1030 60 10000 1.08 97 17:21 26.10.2020
6298 Clear -5 1030 60 10000 1.08 97 16:43 26.10.2020
6299 Clear -4 1030 60 10000 0.83 104 16:21 26.10.2020
6300 Clear -4 1030 60 10000 0.83 104 15:43 26.10.2020
6301 Clear -4 1030 59 10000 0.41 135 15:25 26.10.2020
6302 Clear -4 1030 59 10000 0.41 135 14:53 26.10.2020
6303 Clear -4 1030 59 10000 0.41 135 14:34 26.10.2020
6304 Clear -4 1030 59 10000 0.58 201 13:45 26.10.2020
6305 Clear -4 1029 58 10000 0.78 213 13:25 26.10.2020
6306 Clear -4 1029 58 10000 0.78 213 12:55 26.10.2020
6307 Clouds -4 1029 59 10000 0.75 221 12:32 26.10.2020
6308 Clouds -3 1028 59 10000 1.04 228 11:57 26.10.2020
6309 Clouds -3 1028 59 10000 1.04 228 11:39 26.10.2020
6310 Clouds -2 1027 59 10000 1.06 245 11:21 26.10.2020
6311 Clouds -2 1027 59 10000 1.06 245 10:48 26.10.2020
6312 Clouds 2 1027 52 10000 1.28 249 10:26 26.10.2020
6313 Clouds 2 1027 52 10000 1.28 249 09:55 26.10.2020
6314 Clouds 2 1027 52 10000 1.28 249 09:31 26.10.2020
6315 Clouds 2 1026 45 10000 1.69 245 08:54 26.10.2020
6316 Clouds 2 1026 44 10000 1.58 241 08:24 26.10.2020
6317 Clouds 2 1026 44 10000 1.58 241 07:40 26.10.2020
6318 Clouds 2 1027 44 10000 1.11 221 07:21 26.10.2020
6319 Clear 0 1028 56 10000 0.78 146 05:31 26.10.2020
6320 Clear -3 1031 60 10000 1.66 86 04:19 26.10.2020
6321 Clear -5 1033 62 10000 2.18 88 03:21 26.10.2020
6322 Clear -7 1034 63 10000 2.27 84 01:34 26.10.2020
6323 Clear -9 1034 64 10000 2.22 88 00:35 26.10.2020
6324 Clear -9 1035 66 10000 2.07 88 23:47 25.10.2020
6325 Clear -8 1035 69 10000 2.03 85 23:28 25.10.2020
6326 Clear -8 1035 69 10000 2.03 85 22:47 25.10.2020
6327 Clear -8 1036 72 10000 1.87 84 22:28 25.10.2020
6328 Clear -8 1036 72 10000 1.87 84 21:51 25.10.2020
6329 Clear -8 1036 72 10000 1.87 84 21:31 25.10.2020
6330 Clear -8 1036 74 10000 1.84 84 20:59 25.10.2020
6331 Clear -8 1036 74 10000 1.84 84 20:41 25.10.2020
6332 Clear -8 1037 76 10000 1.89 84 20:23 25.10.2020
6333 Clear -8 1037 76 10000 1.89 84 19:55 25.10.2020
6334 Clear -8 1037 76 10000 1.89 84 19:37 25.10.2020
6335 Clear -8 1037 77 10000 1.96 81 19:18 25.10.2020
6336 Clear -8 1037 78 10000 1.99 82 18:41 25.10.2020
6337 Clear -8 1037 78 10000 1.99 82 18:41 25.10.2020
6338 Clear -8 1037 78 10000 1.92 84 18:22 25.10.2020
6339 Clear -8 1037 78 10000 1.92 84 17:55 25.10.2020
6340 Clear -8 1037 78 10000 1.92 84 17:37 25.10.2020
6341 Clear -8 1038 78 10000 1.6 83 17:18 25.10.2020
6342 Clear -8 1038 78 10000 1.6 83 17:18 25.10.2020
6343 Clear -8 1038 78 10000 1.6 83 16:43 25.10.2020
6344 Clear -7 1038 78 10000 1 75 16:23 25.10.2020
6345 Clear -7 1038 78 10000 1 75 15:47 25.10.2020
6346 Clear -7 1038 78 10000 1 75 15:47 25.10.2020
6347 Clear -7 1037 78 10000 0.2 51 15:26 25.10.2020
6348 Clear -7 1037 78 10000 0.2 51 14:52 25.10.2020
6349 Clear -7 1037 78 10000 0.55 265 14:29 25.10.2020
6350 Clear -7 1037 78 10000 0.55 265 13:44 25.10.2020
6351 Clear -6 1036 78 10000 1.13 278 13:24 25.10.2020
6352 Clear -6 1036 82 10000 0.73 250 12:49 25.10.2020
6353 Clear -6 1035 83 10000 1.2 292 12:27 25.10.2020
6354 Clear -6 1035 83 10000 1.2 292 11:58 25.10.2020
6355 Clear -6 1035 83 10000 1.2 292 11:40 25.10.2020
6356 Clear -4 1033 80 10000 2.99 306 11:19 25.10.2020
6357 Clear -4 1033 80 10000 2.99 306 10:45 25.10.2020
6358 Clear -3 1032 77 10000 6.43 299 10:25 25.10.2020
6359 Clear -3 1032 77 10000 6.43 299 09:50 25.10.2020
6360 Clear -2 1031 73 10000 8.81 291 09:21 25.10.2020
6361 Clear -2 1031 73 10000 8.81 291 08:56 25.10.2020
6362 Clear -2 1031 73 10000 8.81 291 08:37 25.10.2020
6363 Clear -1 1030 71 10000 8.67 284 08:19 25.10.2020
6364 Clear -1 1030 71 10000 8.67 284 07:42 25.10.2020
6365 Clouds -1 1029 72 10000 8.41 287 06:52 25.10.2020
6366 Clouds -2 1029 73 10000 7.04 277 06:19 25.10.2020
6367 Clouds -2 1029 73 10000 5.66 283 05:19 25.10.2020
6368 Clouds -2 1028 75 10000 3.82 278 04:23 25.10.2020
6369 Clouds -5 1026 90 10000 1.84 181 02:21 25.10.2020
6370 Clouds -4 1026 91 10000 1.9 175 00:52 25.10.2020
6371 Clouds -3 1025 91 10000 2 162 00:28 25.10.2020
6372 Clouds -3 1025 91 10000 2 162 23:54 24.10.2020
6373 Clouds -3 1025 91 10000 2 162 23:31 24.10.2020
6374 Clouds -3 1024 92 7285 2.12 182 22:58 24.10.2020
6375 Clouds -3 1024 92 7285 2.12 182 22:39 24.10.2020
6376 Clouds -2 1024 91 7474 1.4 266 22:21 24.10.2020
6377 Clouds -2 1024 91 7474 1.4 266 21:43 24.10.2020
6378 Clouds -2 1023 95 212 2.65 298 21:21 24.10.2020
6379 Clouds -2 1023 95 212 2.65 298 20:50 24.10.2020
6380 Clouds 0 1021 86 10000 1.58 254 20:27 24.10.2020
6381 Clouds 0 1021 86 10000 1.58 254 19:58 24.10.2020
6382 Clouds -1 1022 86 10000 2.52 294 19:40 24.10.2020
6383 Clouds -1 1021 85 10000 0.85 296 19:22 24.10.2020
6384 Clouds -1 1021 85 10000 0.85 296 18:47 24.10.2020
6385 Clouds 0 1020 83 10000 0.25 112 18:27 24.10.2020
6386 Clouds 0 1020 83 10000 0.25 112 17:42 24.10.2020
6387 Clouds -1 1019 82 10000 0.9 122 17:22 24.10.2020
6388 Clouds -1 1019 82 10000 0.9 122 16:47 24.10.2020
6389 Clouds -1 1018 82 10000 0.68 108 16:28 24.10.2020
6390 Clouds -1 1018 82 10000 0.68 108 15:41 24.10.2020
6391 Clouds 0 1017 81 10000 0.51 196 15:20 24.10.2020
6392 Clouds 0 1017 81 10000 0.47 193 14:56 24.10.2020
6393 Clouds 0 1016 80 10000 0.94 204 14:29 24.10.2020
6394 Clouds 0 1016 80 10000 0.94 204 13:50 24.10.2020
6395 Clouds 0 1016 80 10000 0.94 204 13:31 24.10.2020
6396 Clouds 0 1014 79 10000 1.01 215 12:59 24.10.2020
6397 Clouds 0 1014 79 10000 1.01 215 12:37 24.10.2020
6398 Clouds 3 1013 68 10000 1.61 225 12:19 24.10.2020
6399 Clouds 3 1013 68 10000 1.61 225 11:43 24.10.2020
6400 Clouds 6 1013 57 10000 1.37 216 11:19 24.10.2020
6401 Clouds 6 1013 57 10000 1.37 216 10:42 24.10.2020
6402 Clouds 7 1012 51 10000 1.27 204 10:24 24.10.2020
6403 Clouds 7 1012 51 10000 1.27 204 09:44 24.10.2020
6404 Clouds 7 1011 51 10000 1.35 192 09:25 24.10.2020
6405 Clouds 7 1011 51 10000 1.35 192 08:54 24.10.2020
6406 Clouds 7 1012 52 10000 1.24 159 08:18 24.10.2020
6407 Clouds 7 1012 52 10000 1.24 159 08:18 24.10.2020
6408 Clouds 7 1012 52 10000 1.24 159 07:49 24.10.2020
6409 Clouds 6 1012 54 10000 1.58 129 07:20 24.10.2020
6410 Clouds 6 1012 54 10000 1.58 129 06:49 24.10.2020
6411 Clear 4 1015 59 10000 1.7 106 04:59 24.10.2020
6412 Clouds -1 1016 76 10000 2.05 95 02:20 24.10.2020
6413 Clouds -1 1015 75 10000 2.06 98 00:54 24.10.2020
6414 Clouds -1 1015 75 10000 2.06 98 00:36 24.10.2020
6415 Clouds -1 1015 75 10000 2.06 98 00:36 24.10.2020
6416 Clouds -1 1015 75 10000 2.06 93 00:18 24.10.2020
6417 Clouds -1 1015 75 10000 2.06 93 23:39 23.10.2020
6418 Clouds -1 1015 75 10000 1.93 90 23:20 23.10.2020
6419 Clouds -1 1015 75 10000 1.93 90 22:42 23.10.2020
6420 Clouds 0 1015 75 10000 2.05 96 22:21 23.10.2020
6421 Clouds 0 1015 75 10000 2.05 96 21:53 23.10.2020
6422 Clouds 0 1015 75 10000 2.05 96 21:30 23.10.2020
6423 Clouds 0 1015 74 10000 2.28 97 20:58 23.10.2020
6424 Clouds 0 1015 74 10000 2.28 97 20:38 23.10.2020
6425 Clouds 0 1015 74 10000 2.2 99 20:18 23.10.2020
6426 Clouds 0 1015 74 10000 2.2 99 19:43 23.10.2020
6427 Clouds 0 1016 75 10000 2.03 97 19:25 23.10.2020
6428 Clouds 0 1016 75 10000 2.03 97 18:42 23.10.2020
6429 Clouds 0 1016 74 10000 2.12 97 18:23 23.10.2020
6430 Clouds 0 1016 74 10000 2.12 97 17:45 23.10.2020
6431 Clouds 1 1017 73 10000 2.12 98 17:21 23.10.2020
6432 Clouds 1 1017 73 10000 2.12 98 16:50 23.10.2020
6433 Clouds 1 1017 73 10000 2.12 98 16:30 23.10.2020
6434 Clouds 1 1016 73 10000 2.13 101 15:56 23.10.2020
6435 Clouds 1 1016 73 10000 2.13 101 15:37 23.10.2020
6436 Clouds 1 1016 73 10000 2.15 103 15:19 23.10.2020
6437 Clouds 1 1016 73 10000 2.15 103 14:41 23.10.2020
6438 Clouds 1 1015 73 10000 2.1 101 14:22 23.10.2020
6439 Clouds 1 1015 73 10000 2.1 101 14:22 23.10.2020
6440 Clouds 1 1015 73 10000 2.1 101 13:40 23.10.2020
6441 Clouds 2 1014 72 10000 1.65 102 13:21 23.10.2020
6442 Clouds 2 1014 72 10000 1.65 102 12:48 23.10.2020
6443 Clouds 3 1014 68 10000 1.23 109 12:29 23.10.2020
6444 Clouds 3 1014 68 10000 1.23 109 11:49 23.10.2020
6445 Clouds 5 1014 58 10000 1.05 113 11:25 23.10.2020
6446 Clouds 5 1014 58 10000 1.05 113 10:50 23.10.2020
6447 Clouds 7 1014 49 10000 0.98 134 10:26 23.10.2020
6448 Clouds 7 1014 49 10000 0.98 134 09:50 23.10.2020
6449 Clouds 8 1014 47 10000 0.88 145 09:27 23.10.2020
6450 Clouds 8 1014 47 10000 0.88 145 08:57 23.10.2020
6451 Clouds 8 1014 47 10000 0.88 145 08:38 23.10.2020
6452 Clouds 8 1014 47 10000 1.01 130 07:48 23.10.2020
6453 Clear 7 1015 48 10000 1.16 126 07:26 23.10.2020
6454 Clear 7 1015 48 10000 1.16 126 06:46 23.10.2020
6455 Clear 6 1016 51 10000 1.35 105 06:19 23.10.2020
6456 Clear -1 1019 71 10000 2.14 96 03:29 23.10.2020
6457 Clouds -2 1019 71 10000 2.24 97 02:26 23.10.2020
6458 Clouds -2 1019 71 10000 2.27 95 00:49 23.10.2020
6459 Clouds -2 1018 71 10000 2.35 96 23:59 22.10.2020
6460 Clouds -2 1018 71 10000 2.35 96 23:31 22.10.2020
6461 Clouds -2 1018 71 10000 2.32 93 22:56 22.10.2020
6462 Clouds -2 1018 71 10000 2.32 93 22:38 22.10.2020
6463 Clouds -2 1019 71 10000 2.41 95 22:19 22.10.2020
6464 Clouds -2 1019 71 10000 2.41 95 21:43 22.10.2020
6465 Clouds -2 1019 71 10000 2.5 96 21:24 22.10.2020
6466 Clouds -2 1019 71 10000 2.5 96 20:58 22.10.2020
6467 Clouds -2 1019 71 10000 2.5 96 20:39 22.10.2020
6468 Clouds -2 1019 71 10000 2.39 95 20:18 22.10.2020
6469 Clouds -2 1019 71 10000 2.39 95 19:41 22.10.2020
6470 Clouds -1 1019 71 10000 2.32 95 19:19 22.10.2020
6471 Clouds -1 1019 71 10000 2.32 95 18:43 22.10.2020
6472 Clouds -1 1019 71 10000 2.39 96 18:21 22.10.2020
6473 Clouds -1 1019 71 10000 2.39 96 17:47 22.10.2020
6474 Clouds -1 1019 72 10000 2.37 100 17:26 22.10.2020
6475 Clouds -1 1019 72 10000 2.37 100 16:57 22.10.2020
6476 Clouds -1 1019 72 10000 2.37 100 16:39 22.10.2020
6477 Clouds -1 1019 72 10000 2.54 101 16:20 22.10.2020
6478 Clouds -1 1019 72 10000 2.54 101 15:44 22.10.2020
6479 Clouds -1 1018 74 10000 2.64 103 15:25 22.10.2020
6480 Clouds -1 1018 74 10000 2.64 103 14:47 22.10.2020
6481 Clear 0 1018 76 10000 2.49 103 14:25 22.10.2020
6482 Clear 0 1018 76 10000 2.49 103 13:49 22.10.2020
6483 Clear 0 1018 77 10000 2.42 103 13:24 22.10.2020
6484 Clear 0 1018 77 10000 2.42 103 12:53 22.10.2020
6485 Clear 2 1017 71 10000 1.99 107 12:24 22.10.2020
6486 Clear 2 1017 71 10000 1.99 107 11:50 22.10.2020
6487 Clear 5 1017 58 10000 1.3 118 11:20 22.10.2020
6488 Clear 5 1017 58 10000 1.3 118 10:51 22.10.2020
6489 Clear 7 1016 48 10000 1.26 126 10:29 22.10.2020
6490 Clear 7 1016 48 10000 1.26 126 09:52 22.10.2020
6491 Clear 7 1016 48 10000 1.26 126 09:33 22.10.2020
6492 Clear 8 1016 46 10000 1.27 133 08:51 22.10.2020
6493 Clear 8 1016 46 10000 1.27 133 08:31 22.10.2020
6494 Clear 7 1017 46 10000 1.25 132 07:58 22.10.2020
6495 Clear 7 1017 46 10000 1.37 131 07:40 22.10.2020
6496 Clear 7 1018 47 10000 1.41 121 06:58 22.10.2020
6497 Clear 7 1018 47 10000 1.41 121 06:35 22.10.2020
6498 Clear 5 1019 49 10000 1.57 107 05:42 22.10.2020
6499 Clear 3 1021 55 10000 1.96 99 05:19 22.10.2020
6500 Clear -4 1023 67 10000 2.44 93 01:50 22.10.2020
6501 Clear -4 1024 70 10000 2.42 90 00:26 22.10.2020
6502 Clear -4 1024 70 10000 2.42 90 23:57 21.10.2020
6503 Clear -4 1024 70 10000 2.42 90 23:33 21.10.2020
6504 Clear -4 1024 72 10000 2.34 89 22:43 21.10.2020
6505 Clear -4 1025 75 10000 2.22 89 22:20 21.10.2020
6506 Clear -4 1025 75 10000 2.22 89 22:20 21.10.2020
6507 Clear -4 1025 75 10000 2.22 89 21:57 21.10.2020
6508 Clear -4 1025 75 10000 2.22 89 21:38 21.10.2020
6509 Clear -4 1026 78 10000 2.27 89 21:18 21.10.2020
6510 Clear -4 1026 78 10000 2.27 89 20:48 21.10.2020
6511 Clear -4 1026 81 10000 2.25 87 20:19 21.10.2020
6512 Clear -4 1026 81 10000 2.25 87 19:56 21.10.2020
6513 Clear -4 1027 81 10000 2.32 88 19:36 21.10.2020
6514 Clear -4 1027 83 10000 2.34 87 19:18 21.10.2020
6515 Clear -4 1027 83 10000 2.34 87 18:45 21.10.2020
6516 Clear -4 1028 85 10000 2.34 90 18:21 21.10.2020
6517 Clear -4 1028 85 10000 2.34 90 17:42 21.10.2020
6518 Clear -4 1028 86 10000 2.33 95 17:19 21.10.2020
6519 Clear -4 1028 86 10000 2.33 95 16:41 21.10.2020
6520 Clear -4 1028 87 10000 2.25 96 16:21 21.10.2020
6521 Clear -4 1028 87 10000 2.25 96 15:57 21.10.2020
6522 Clear -4 1028 87 10000 2.25 96 15:38 21.10.2020
6523 Clear -3 1028 88 10000 2.06 102 15:19 21.10.2020
6524 Clear -3 1028 88 10000 2.06 102 14:44 21.10.2020
6525 Clouds -3 1028 88 10000 1.38 117 14:26 21.10.2020
6526 Clear -3 1028 88 10000 1.53 114 13:45 21.10.2020
6527 Clear -3 1027 90 10000 0.83 148 13:26 21.10.2020
6528 Clear -3 1027 90 10000 0.83 148 12:48 21.10.2020
6529 Clear -1 1026 86 10000 0.63 187 12:24 21.10.2020
6530 Clear -1 1026 86 10000 0.63 187 11:59 21.10.2020
6531 Clear -1 1026 86 10000 0.63 187 11:40 21.10.2020
6532 Clear -1 1026 86 10000 0.63 187 11:40 21.10.2020
6533 Clear 3 1025 71 10000 0.49 251 11:19 21.10.2020
6534 Clear 3 1025 71 10000 0.49 251 10:43 21.10.2020
6535 Clear 3 1025 68 10000 0.53 295 10:21 21.10.2020
6536 Clear 3 1025 68 10000 0.53 295 09:52 21.10.2020
6537 Clear 3 1025 68 10000 0.53 295 09:30 21.10.2020
6538 Clear 3 1026 68 10000 0.85 302 08:42 21.10.2020
6539 Clear 3 1027 71 10000 0.85 307 08:24 21.10.2020
6540 Clear 3 1027 71 10000 0.85 307 07:58 21.10.2020
6541 Clear 3 1026 70 10000 0.84 283 07:31 21.10.2020
6542 Clear 2 1027 74 10000 0.16 283 06:50 21.10.2020
6543 Clear 1 1028 81 10000 0.05 1 06:26 21.10.2020
6544 Clear -1 1029 85 10000 0.42 40 04:46 21.10.2020
6545 Clouds -6 1030 91 10000 1.31 60 00:50 21.10.2020
6546 Clouds -6 1029 90 10000 1.43 74 23:42 20.10.2020
6547 Clouds -6 1029 89 10000 1.47 84 22:52 20.10.2020
6548 Clouds -6 1029 87 10000 1.52 84 22:27 20.10.2020
6549 Clouds -6 1029 87 10000 1.52 84 22:27 20.10.2020
6550 Clouds -6 1029 87 10000 1.52 84 21:48 20.10.2020
6551 Clouds -5 1029 84 10000 1.4 87 21:20 20.10.2020
6552 Clouds -5 1029 84 10000 1.4 87 20:44 20.10.2020
6553 Clouds -5 1029 82 10000 1.25 78 20:25 20.10.2020
6554 Clouds -5 1029 82 10000 1.25 78 20:25 20.10.2020
6555 Clouds -6 1029 80 10000 1.2 76 19:58 20.10.2020
6556 Clouds -6 1029 80 10000 1.2 76 19:40 20.10.2020
6557 Clouds -5 1030 79 10000 1.01 68 19:21 20.10.2020
6558 Clouds -5 1030 79 10000 1.01 68 18:47 20.10.2020
6559 Clouds -6 1030 78 10000 1.57 83 18:27 20.10.2020
6560 Clouds -6 1030 78 10000 1.57 83 17:43 20.10.2020
6561 Clouds -5 1030 76 10000 1.7 96 17:24 20.10.2020
6562 Clouds -5 1030 76 10000 1.7 96 16:48 20.10.2020
6563 Clouds -5 1029 75 10000 1.46 99 16:26 20.10.2020
6564 Clouds -5 1029 75 10000 1.46 99 15:50 20.10.2020
6565 Clouds -5 1029 75 10000 1.46 99 15:32 20.10.2020
6566 Clouds -5 1029 75 10000 1.59 107 14:56 20.10.2020
6567 Clouds -5 1029 75 10000 1.59 107 14:37 20.10.2020
6568 Clouds -6 1029 75 10000 1.59 103 14:19 20.10.2020
6569 Clouds -6 1029 75 10000 1.59 103 13:42 20.10.2020
6570 Clouds -6 1029 76 10000 2.01 104 13:22 20.10.2020
6571 Clouds -6 1029 76 10000 2.01 104 12:54 20.10.2020
6572 Clouds -6 1029 76 10000 2.01 104 12:36 20.10.2020
6573 Clouds -5 1029 74 10000 1.96 113 12:18 20.10.2020
6574 Clouds -5 1029 74 10000 1.96 113 11:36 20.10.2020
6575 Clouds -5 1029 72 10000 1.42 143 11:18 20.10.2020
6576 Clear -4 1030 70 10000 1.23 153 10:29 20.10.2020
6577 Clear -4 1030 70 10000 1.23 153 09:51 20.10.2020
6578 Clear -5 1031 69 10000 1.18 158 09:21 20.10.2020
6579 Clear -5 1031 69 10000 1.18 158 08:58 20.10.2020
6580 Clear -5 1031 69 10000 1.18 158 08:31 20.10.2020
6581 Clouds -6 1032 72 10000 1.31 151 07:51 20.10.2020
6582 Clouds -7 1034 72 10000 1.23 137 07:25 20.10.2020
6583 Clouds -8 1036 73 10000 1.26 124 06:29 20.10.2020
6584 Clouds -9 1038 75 10000 1.5 102 05:22 20.10.2020
6585 Clear -12 1040 79 10000 1.79 69 02:44 20.10.2020
6586 Clear -12 1040 81 10000 1.71 54 02:18 20.10.2020
6587 Clear -12 1039 82 10000 1.43 51 00:57 20.10.2020
6588 Clear -12 1039 82 10000 1.43 51 00:39 20.10.2020
6589 Clear -12 1039 83 10000 1.32 40 00:19 20.10.2020
6590 Clear -12 1039 83 10000 1.32 40 23:40 19.10.2020
6591 Clear -12 1038 83 10000 1.58 16 23:19 19.10.2020
6592 Clear -12 1038 83 10000 1.58 16 22:42 19.10.2020
6593 Clear -11 1037 83 10000 1.76 8 22:20 19.10.2020
6594 Clear -11 1037 83 10000 1.76 8 21:42 19.10.2020
6595 Clear -11 1037 83 10000 1.91 357 21:20 19.10.2020
6596 Clear -11 1037 83 10000 1.91 357 20:45 19.10.2020
6597 Clear -10 1036 83 10000 2.15 346 20:27 19.10.2020
6598 Clear -10 1036 82 10000 2.15 358 19:47 19.10.2020
6599 Clear -9 1036 83 10000 2.62 353 19:22 19.10.2020
6600 Clear -9 1036 83 10000 2.62 353 18:53 19.10.2020
6601 Clear -9 1036 83 10000 2.62 353 18:33 19.10.2020
6602 Clear -9 1035 84 10000 2.91 359 17:57 19.10.2020
6603 Clear -9 1035 84 10000 2.91 359 17:39 19.10.2020
6604 Clear -7 1033 85 10000 3.05 350 17:20 19.10.2020
6605 Clear -7 1033 85 10000 3.05 350 16:42 19.10.2020
6606 Clear -7 1031 88 10000 3.06 347 16:21 19.10.2020
6607 Clear -7 1031 88 10000 3.06 347 15:40 19.10.2020
6608 Clouds -5 1029 88 10000 3.29 332 15:22 19.10.2020
6609 Clouds -5 1029 88 10000 3.29 332 14:50 19.10.2020
6610 Clouds -3 1026 87 10000 4.28 326 14:24 19.10.2020
6611 Clouds -3 1026 87 10000 3.87 350 13:49 19.10.2020
6612 Clouds -3 1026 87 10000 3.87 350 13:31 19.10.2020
6613 Clouds -1 1024 94 1500 3.24 308 12:49 19.10.2020
6614 Clouds -1 1024 94 1500 3.24 308 12:31 19.10.2020
6615 Clouds 0 1021 90 10000 2.47 236 11:51 19.10.2020
6616 Clouds 1 1019 83 7193 5.19 283 11:25 19.10.2020
6617 Clouds 1 1019 83 7193 5.19 283 10:56 19.10.2020
6618 Clouds 1 1019 83 7193 5.19 283 10:36 19.10.2020
6619 Clouds 1 1019 83 7193 5.19 283 10:36 19.10.2020
6620 Clouds 2 1017 76 10000 4.38 320 10:18 19.10.2020
6621 Clouds 2 1017 76 10000 4.38 320 09:42 19.10.2020
6622 Clouds 4 1016 63 10000 6.42 279 09:19 19.10.2020
6623 Clouds 4 1016 63 10000 6.42 279 08:47 19.10.2020
6624 Clouds 5 1015 58 10000 6.07 263 08:21 19.10.2020
6625 Clouds 5 1015 59 10000 3.71 243 07:22 19.10.2020
6626 Clouds 5 1015 59 10000 3.71 243 06:51 19.10.2020
6627 Clouds 4 1016 63 10000 1.5 230 06:18 19.10.2020
6628 Clouds 1 1018 73 10000 1.64 125 03:47 19.10.2020
6629 Clouds -3 1018 77 10000